<?xml version="1.0" encoding="UTF-8" standalone="no" ?>
<gpx xmlns="http://www.topografix.com/GPX/1/1" xmlns:xsi="http://www.w3.org/2001/XMLSchema-instance" xsi:schemaLocation="http://www.topografix.com/GPX/1/1 http://www.topografix.com/GPX/1/1/gpx.xsd" version="1.1" creator="VisuGPX - https://www.visugpx.com">
  <metadata>
    <name>2020-12-06 09:19:41 [Strava]</name>
  </metadata>
  <trk>
    <name><![CDATA[2020-12-06 09:19:41 [Strava]_1]]></name>
    <trkseg>
      <trkpt lat="46.83327" lon="-0.77806">
        <ele>154.1</ele>
        <time>2020-12-06T08:23:51Z</time>
      </trkpt>
      <trkpt lat="46.83325" lon="-0.77804">
        <ele>154.2</ele>
        <time>2020-12-06T08:23:52Z</time>
      </trkpt>
      <trkpt lat="46.83318" lon="-0.77795">
        <ele>154.2</ele>
        <time>2020-12-06T08:23:55Z</time>
      </trkpt>
      <trkpt lat="46.83306" lon="-0.77773">
        <ele>154.4</ele>
        <time>2020-12-06T08:24:01Z</time>
      </trkpt>
      <trkpt lat="46.83293" lon="-0.77745">
        <ele>154.6</ele>
        <time>2020-12-06T08:24:08Z</time>
      </trkpt>
      <trkpt lat="46.8328" lon="-0.77723">
        <ele>154.7</ele>
        <time>2020-12-06T08:24:14Z</time>
      </trkpt>
      <trkpt lat="46.83264" lon="-0.77708">
        <ele>154.8</ele>
        <time>2020-12-06T08:24:20Z</time>
      </trkpt>
      <trkpt lat="46.83245" lon="-0.77697">
        <ele>155.1</ele>
        <time>2020-12-06T08:24:27Z</time>
      </trkpt>
      <trkpt lat="46.83238" lon="-0.77693">
        <ele>155.7</ele>
        <time>2020-12-06T08:24:31Z</time>
      </trkpt>
      <trkpt lat="46.83231" lon="-0.77688">
        <ele>156.3</ele>
        <time>2020-12-06T08:24:35Z</time>
      </trkpt>
      <trkpt lat="46.83223" lon="-0.77683">
        <ele>157.2</ele>
        <time>2020-12-06T08:24:39Z</time>
      </trkpt>
      <trkpt lat="46.83213" lon="-0.77676">
        <ele>158.1</ele>
        <time>2020-12-06T08:24:44Z</time>
      </trkpt>
      <trkpt lat="46.83199" lon="-0.77668">
        <ele>158.8</ele>
        <time>2020-12-06T08:24:51Z</time>
      </trkpt>
      <trkpt lat="46.83189" lon="-0.77662">
        <ele>159.6</ele>
        <time>2020-12-06T08:24:56Z</time>
      </trkpt>
      <trkpt lat="46.83179" lon="-0.77657">
        <ele>160.4</ele>
        <time>2020-12-06T08:25:01Z</time>
      </trkpt>
      <trkpt lat="46.83168" lon="-0.77652">
        <ele>161.7</ele>
        <time>2020-12-06T08:25:06Z</time>
      </trkpt>
      <trkpt lat="46.83161" lon="-0.77649">
        <ele>162.4</ele>
        <time>2020-12-06T08:25:11Z</time>
      </trkpt>
      <trkpt lat="46.83152" lon="-0.77648">
        <ele>163.3</ele>
        <time>2020-12-06T08:25:15Z</time>
      </trkpt>
      <trkpt lat="46.8314" lon="-0.77647">
        <ele>164.3</ele>
        <time>2020-12-06T08:25:20Z</time>
      </trkpt>
      <trkpt lat="46.83129" lon="-0.77645">
        <ele>164.6</ele>
        <time>2020-12-06T08:25:25Z</time>
      </trkpt>
      <trkpt lat="46.83122" lon="-0.77644">
        <ele>164.8</ele>
        <time>2020-12-06T08:25:29Z</time>
      </trkpt>
      <trkpt lat="46.83113" lon="-0.77644">
        <ele>165.1</ele>
        <time>2020-12-06T08:25:34Z</time>
      </trkpt>
      <trkpt lat="46.83101" lon="-0.77638">
        <ele>165.3</ele>
        <time>2020-12-06T08:25:40Z</time>
      </trkpt>
      <trkpt lat="46.83088" lon="-0.7763">
        <ele>167</ele>
        <time>2020-12-06T08:25:46Z</time>
      </trkpt>
      <trkpt lat="46.83075" lon="-0.77622">
        <ele>168.2</ele>
        <time>2020-12-06T08:25:52Z</time>
      </trkpt>
      <trkpt lat="46.83059" lon="-0.77612">
        <ele>169.1</ele>
        <time>2020-12-06T08:26:00Z</time>
      </trkpt>
      <trkpt lat="46.83047" lon="-0.77607">
        <ele>169.5</ele>
        <time>2020-12-06T08:26:06Z</time>
      </trkpt>
      <trkpt lat="46.83028" lon="-0.77599">
        <ele>169.9</ele>
        <time>2020-12-06T08:26:14Z</time>
      </trkpt>
      <trkpt lat="46.83015" lon="-0.77596">
        <ele>170.1</ele>
        <time>2020-12-06T08:26:20Z</time>
      </trkpt>
      <trkpt lat="46.82993" lon="-0.776">
        <ele>170.2</ele>
        <time>2020-12-06T08:26:28Z</time>
      </trkpt>
      <trkpt lat="46.82973" lon="-0.77607">
        <ele>170.4</ele>
        <time>2020-12-06T08:26:37Z</time>
      </trkpt>
      <trkpt lat="46.82956" lon="-0.77615">
        <ele>170.4</ele>
        <time>2020-12-06T08:26:44Z</time>
      </trkpt>
      <trkpt lat="46.8294" lon="-0.77621">
        <ele>170.3</ele>
        <time>2020-12-06T08:26:51Z</time>
      </trkpt>
      <trkpt lat="46.82923" lon="-0.77629">
        <ele>170</ele>
        <time>2020-12-06T08:26:58Z</time>
      </trkpt>
      <trkpt lat="46.82903" lon="-0.77644">
        <ele>170.9</ele>
        <time>2020-12-06T08:27:07Z</time>
      </trkpt>
      <trkpt lat="46.82888" lon="-0.77656">
        <ele>171.7</ele>
        <time>2020-12-06T08:27:14Z</time>
      </trkpt>
      <trkpt lat="46.8287" lon="-0.77659">
        <ele>171.6</ele>
        <time>2020-12-06T08:27:21Z</time>
      </trkpt>
      <trkpt lat="46.82852" lon="-0.77661">
        <ele>172.1</ele>
        <time>2020-12-06T08:27:28Z</time>
      </trkpt>
      <trkpt lat="46.82839" lon="-0.77662">
        <ele>172.1</ele>
        <time>2020-12-06T08:27:34Z</time>
      </trkpt>
      <trkpt lat="46.82826" lon="-0.77662">
        <ele>172</ele>
        <time>2020-12-06T08:27:41Z</time>
      </trkpt>
      <trkpt lat="46.82814" lon="-0.77662">
        <ele>171.9</ele>
        <time>2020-12-06T08:27:48Z</time>
      </trkpt>
      <trkpt lat="46.82813" lon="-0.77662">
        <ele>171.8</ele>
        <time>2020-12-06T08:27:49Z</time>
      </trkpt>
      <trkpt lat="46.8281" lon="-0.77661">
        <ele>171.6</ele>
        <time>2020-12-06T08:27:51Z</time>
      </trkpt>
      <trkpt lat="46.82806" lon="-0.77662">
        <ele>171.5</ele>
        <time>2020-12-06T08:27:53Z</time>
      </trkpt>
      <trkpt lat="46.82796" lon="-0.7766">
        <ele>171.1</ele>
        <time>2020-12-06T08:27:59Z</time>
      </trkpt>
      <trkpt lat="46.82787" lon="-0.77658">
        <ele>171.2</ele>
        <time>2020-12-06T08:28:04Z</time>
      </trkpt>
      <trkpt lat="46.82779" lon="-0.77657">
        <ele>171.4</ele>
        <time>2020-12-06T08:28:09Z</time>
      </trkpt>
      <trkpt lat="46.82771" lon="-0.77657">
        <ele>171.7</ele>
        <time>2020-12-06T08:28:14Z</time>
      </trkpt>
      <trkpt lat="46.82762" lon="-0.77655">
        <ele>171.7</ele>
        <time>2020-12-06T08:28:19Z</time>
      </trkpt>
      <trkpt lat="46.82748" lon="-0.77655">
        <ele>172.5</ele>
        <time>2020-12-06T08:28:26Z</time>
      </trkpt>
      <trkpt lat="46.82736" lon="-0.77654">
        <ele>173.1</ele>
        <time>2020-12-06T08:28:32Z</time>
      </trkpt>
      <trkpt lat="46.82721" lon="-0.77651">
        <ele>173.5</ele>
        <time>2020-12-06T08:28:39Z</time>
      </trkpt>
      <trkpt lat="46.82708" lon="-0.77642">
        <ele>173.4</ele>
        <time>2020-12-06T08:28:45Z</time>
      </trkpt>
      <trkpt lat="46.82688" lon="-0.77628">
        <ele>173</ele>
        <time>2020-12-06T08:28:50Z</time>
      </trkpt>
      <trkpt lat="46.82668" lon="-0.77616">
        <ele>172.1</ele>
        <time>2020-12-06T08:28:55Z</time>
      </trkpt>
      <trkpt lat="46.82658" lon="-0.77615">
        <ele>171.9</ele>
        <time>2020-12-06T08:28:57Z</time>
      </trkpt>
      <trkpt lat="46.82647" lon="-0.77616">
        <ele>171.4</ele>
        <time>2020-12-06T08:28:59Z</time>
      </trkpt>
      <trkpt lat="46.82632" lon="-0.77622">
        <ele>171.1</ele>
        <time>2020-12-06T08:29:02Z</time>
      </trkpt>
      <trkpt lat="46.82627" lon="-0.77625">
        <ele>171</ele>
        <time>2020-12-06T08:29:03Z</time>
      </trkpt>
      <trkpt lat="46.82609" lon="-0.77635">
        <ele>170.3</ele>
        <time>2020-12-06T08:29:07Z</time>
      </trkpt>
      <trkpt lat="46.82605" lon="-0.77636">
        <ele>169.7</ele>
        <time>2020-12-06T08:29:08Z</time>
      </trkpt>
      <trkpt lat="46.82596" lon="-0.77637">
        <ele>168.8</ele>
        <time>2020-12-06T08:29:10Z</time>
      </trkpt>
      <trkpt lat="46.8259" lon="-0.77636">
        <ele>168</ele>
        <time>2020-12-06T08:29:11Z</time>
      </trkpt>
      <trkpt lat="46.82585" lon="-0.77635">
        <ele>167.5</ele>
        <time>2020-12-06T08:29:12Z</time>
      </trkpt>
      <trkpt lat="46.82575" lon="-0.77631">
        <ele>165.8</ele>
        <time>2020-12-06T08:29:14Z</time>
      </trkpt>
      <trkpt lat="46.82542" lon="-0.77619">
        <ele>162</ele>
        <time>2020-12-06T08:29:19Z</time>
      </trkpt>
      <trkpt lat="46.82498" lon="-0.77609">
        <ele>157.3</ele>
        <time>2020-12-06T08:29:25Z</time>
      </trkpt>
      <trkpt lat="46.82484" lon="-0.77609">
        <ele>155.4</ele>
        <time>2020-12-06T08:29:28Z</time>
      </trkpt>
      <trkpt lat="46.8248" lon="-0.77611">
        <ele>154.8</ele>
        <time>2020-12-06T08:29:29Z</time>
      </trkpt>
      <trkpt lat="46.82476" lon="-0.77616">
        <ele>154.2</ele>
        <time>2020-12-06T08:29:30Z</time>
      </trkpt>
      <trkpt lat="46.82474" lon="-0.77626">
        <ele>153.5</ele>
        <time>2020-12-06T08:29:32Z</time>
      </trkpt>
      <trkpt lat="46.82474" lon="-0.77639">
        <ele>154.1</ele>
        <time>2020-12-06T08:29:36Z</time>
      </trkpt>
      <trkpt lat="46.82478" lon="-0.77648">
        <ele>154.6</ele>
        <time>2020-12-06T08:29:39Z</time>
      </trkpt>
      <trkpt lat="46.8248" lon="-0.77655">
        <ele>155</ele>
        <time>2020-12-06T08:29:41Z</time>
      </trkpt>
      <trkpt lat="46.82487" lon="-0.77678">
        <ele>156.1</ele>
        <time>2020-12-06T08:29:48Z</time>
      </trkpt>
      <trkpt lat="46.82492" lon="-0.777">
        <ele>157</ele>
        <time>2020-12-06T08:29:54Z</time>
      </trkpt>
      <trkpt lat="46.82496" lon="-0.77722">
        <ele>157.8</ele>
        <time>2020-12-06T08:30:00Z</time>
      </trkpt>
      <trkpt lat="46.82497" lon="-0.7774">
        <ele>158.5</ele>
        <time>2020-12-06T08:30:05Z</time>
      </trkpt>
      <trkpt lat="46.825" lon="-0.77769">
        <ele>159.7</ele>
        <time>2020-12-06T08:30:13Z</time>
      </trkpt>
      <trkpt lat="46.82501" lon="-0.7779">
        <ele>160.6</ele>
        <time>2020-12-06T08:30:19Z</time>
      </trkpt>
      <trkpt lat="46.82502" lon="-0.77814">
        <ele>161.7</ele>
        <time>2020-12-06T08:30:26Z</time>
      </trkpt>
      <trkpt lat="46.82502" lon="-0.77831">
        <ele>162.4</ele>
        <time>2020-12-06T08:30:31Z</time>
      </trkpt>
      <trkpt lat="46.825" lon="-0.77855">
        <ele>163.3</ele>
        <time>2020-12-06T08:30:38Z</time>
      </trkpt>
      <trkpt lat="46.82498" lon="-0.77873">
        <ele>163.8</ele>
        <time>2020-12-06T08:30:44Z</time>
      </trkpt>
      <trkpt lat="46.82497" lon="-0.77886">
        <ele>164.1</ele>
        <time>2020-12-06T08:30:48Z</time>
      </trkpt>
      <trkpt lat="46.82495" lon="-0.77893">
        <ele>164.2</ele>
        <time>2020-12-06T08:30:50Z</time>
      </trkpt>
      <trkpt lat="46.82489" lon="-0.77917">
        <ele>164</ele>
        <time>2020-12-06T08:30:56Z</time>
      </trkpt>
      <trkpt lat="46.82477" lon="-0.7794">
        <ele>163.5</ele>
        <time>2020-12-06T08:31:01Z</time>
      </trkpt>
      <trkpt lat="46.82473" lon="-0.77944">
        <ele>163.4</ele>
        <time>2020-12-06T08:31:02Z</time>
      </trkpt>
      <trkpt lat="46.82458" lon="-0.77954">
        <ele>163</ele>
        <time>2020-12-06T08:31:06Z</time>
      </trkpt>
      <trkpt lat="46.82449" lon="-0.77957">
        <ele>162.8</ele>
        <time>2020-12-06T08:31:08Z</time>
      </trkpt>
      <trkpt lat="46.82427" lon="-0.7796">
        <ele>162.6</ele>
        <time>2020-12-06T08:31:14Z</time>
      </trkpt>
      <trkpt lat="46.82407" lon="-0.77959">
        <ele>162.6</ele>
        <time>2020-12-06T08:31:20Z</time>
      </trkpt>
      <trkpt lat="46.82392" lon="-0.77968">
        <ele>162.7</ele>
        <time>2020-12-06T08:31:25Z</time>
      </trkpt>
      <trkpt lat="46.8238" lon="-0.77992">
        <ele>163</ele>
        <time>2020-12-06T08:31:31Z</time>
      </trkpt>
      <trkpt lat="46.82378" lon="-0.78021">
        <ele>163.4</ele>
        <time>2020-12-06T08:31:37Z</time>
      </trkpt>
      <trkpt lat="46.82378" lon="-0.7805">
        <ele>163.8</ele>
        <time>2020-12-06T08:31:43Z</time>
      </trkpt>
      <trkpt lat="46.82373" lon="-0.78081">
        <ele>164.4</ele>
        <time>2020-12-06T08:31:50Z</time>
      </trkpt>
      <trkpt lat="46.82373" lon="-0.781">
        <ele>164.9</ele>
        <time>2020-12-06T08:31:55Z</time>
      </trkpt>
      <trkpt lat="46.82377" lon="-0.78104">
        <ele>165</ele>
        <time>2020-12-06T08:31:57Z</time>
      </trkpt>
      <trkpt lat="46.82383" lon="-0.78106">
        <ele>165.1</ele>
        <time>2020-12-06T08:31:59Z</time>
      </trkpt>
      <trkpt lat="46.82401" lon="-0.78115">
        <ele>165.3</ele>
        <time>2020-12-06T08:32:05Z</time>
      </trkpt>
      <trkpt lat="46.82416" lon="-0.78119">
        <ele>165.5</ele>
        <time>2020-12-06T08:32:10Z</time>
      </trkpt>
      <trkpt lat="46.82438" lon="-0.78125">
        <ele>165.9</ele>
        <time>2020-12-06T08:32:17Z</time>
      </trkpt>
      <trkpt lat="46.82452" lon="-0.78131">
        <ele>166.3</ele>
        <time>2020-12-06T08:32:22Z</time>
      </trkpt>
      <trkpt lat="46.8247" lon="-0.78142">
        <ele>167</ele>
        <time>2020-12-06T08:32:29Z</time>
      </trkpt>
      <trkpt lat="46.82487" lon="-0.78155">
        <ele>168</ele>
        <time>2020-12-06T08:32:36Z</time>
      </trkpt>
      <trkpt lat="46.82506" lon="-0.78167">
        <ele>169.1</ele>
        <time>2020-12-06T08:32:43Z</time>
      </trkpt>
      <trkpt lat="46.82526" lon="-0.7818">
        <ele>170.5</ele>
        <time>2020-12-06T08:32:51Z</time>
      </trkpt>
      <trkpt lat="46.82541" lon="-0.78191">
        <ele>171.6</ele>
        <time>2020-12-06T08:32:57Z</time>
      </trkpt>
      <trkpt lat="46.82556" lon="-0.78202">
        <ele>172.9</ele>
        <time>2020-12-06T08:33:03Z</time>
      </trkpt>
      <trkpt lat="46.8257" lon="-0.78213">
        <ele>173.9</ele>
        <time>2020-12-06T08:33:09Z</time>
      </trkpt>
      <trkpt lat="46.82586" lon="-0.78226">
        <ele>174.9</ele>
        <time>2020-12-06T08:33:16Z</time>
      </trkpt>
      <trkpt lat="46.82599" lon="-0.78235">
        <ele>175.5</ele>
        <time>2020-12-06T08:33:22Z</time>
      </trkpt>
      <trkpt lat="46.82613" lon="-0.78249">
        <ele>175.5</ele>
        <time>2020-12-06T08:33:28Z</time>
      </trkpt>
      <trkpt lat="46.82624" lon="-0.78267">
        <ele>174.8</ele>
        <time>2020-12-06T08:33:33Z</time>
      </trkpt>
      <trkpt lat="46.82635" lon="-0.78291">
        <ele>173.8</ele>
        <time>2020-12-06T08:33:38Z</time>
      </trkpt>
      <trkpt lat="46.82645" lon="-0.78315">
        <ele>172.7</ele>
        <time>2020-12-06T08:33:43Z</time>
      </trkpt>
      <trkpt lat="46.82659" lon="-0.78341">
        <ele>171.4</ele>
        <time>2020-12-06T08:33:48Z</time>
      </trkpt>
      <trkpt lat="46.82666" lon="-0.78352">
        <ele>170.8</ele>
        <time>2020-12-06T08:33:50Z</time>
      </trkpt>
      <trkpt lat="46.82675" lon="-0.78369">
        <ele>170</ele>
        <time>2020-12-06T08:33:53Z</time>
      </trkpt>
      <trkpt lat="46.82688" lon="-0.78399">
        <ele>169.1</ele>
        <time>2020-12-06T08:33:58Z</time>
      </trkpt>
      <trkpt lat="46.82695" lon="-0.78423">
        <ele>168.7</ele>
        <time>2020-12-06T08:34:02Z</time>
      </trkpt>
      <trkpt lat="46.82698" lon="-0.78441">
        <ele>168.4</ele>
        <time>2020-12-06T08:34:05Z</time>
      </trkpt>
      <trkpt lat="46.827" lon="-0.78473">
        <ele>167.9</ele>
        <time>2020-12-06T08:34:11Z</time>
      </trkpt>
      <trkpt lat="46.82702" lon="-0.78503">
        <ele>167.6</ele>
        <time>2020-12-06T08:34:17Z</time>
      </trkpt>
      <trkpt lat="46.82704" lon="-0.78532">
        <ele>167.3</ele>
        <time>2020-12-06T08:34:23Z</time>
      </trkpt>
      <trkpt lat="46.82708" lon="-0.78567">
        <ele>167.1</ele>
        <time>2020-12-06T08:34:30Z</time>
      </trkpt>
      <trkpt lat="46.82716" lon="-0.78602">
        <ele>167.4</ele>
        <time>2020-12-06T08:34:38Z</time>
      </trkpt>
      <trkpt lat="46.82723" lon="-0.78628">
        <ele>167.3</ele>
        <time>2020-12-06T08:34:45Z</time>
      </trkpt>
      <trkpt lat="46.8273" lon="-0.78655">
        <ele>166.7</ele>
        <time>2020-12-06T08:34:51Z</time>
      </trkpt>
      <trkpt lat="46.82735" lon="-0.78672">
        <ele>166.3</ele>
        <time>2020-12-06T08:34:55Z</time>
      </trkpt>
      <trkpt lat="46.82742" lon="-0.78692">
        <ele>165.7</ele>
        <time>2020-12-06T08:35:00Z</time>
      </trkpt>
      <trkpt lat="46.82746" lon="-0.78705">
        <ele>165.3</ele>
        <time>2020-12-06T08:35:04Z</time>
      </trkpt>
      <trkpt lat="46.82754" lon="-0.78725">
        <ele>164.6</ele>
        <time>2020-12-06T08:35:09Z</time>
      </trkpt>
      <trkpt lat="46.8276" lon="-0.78744">
        <ele>163.3</ele>
        <time>2020-12-06T08:35:13Z</time>
      </trkpt>
      <trkpt lat="46.82765" lon="-0.78756">
        <ele>162.3</ele>
        <time>2020-12-06T08:35:15Z</time>
      </trkpt>
      <trkpt lat="46.82771" lon="-0.78776">
        <ele>160.7</ele>
        <time>2020-12-06T08:35:18Z</time>
      </trkpt>
      <trkpt lat="46.82783" lon="-0.78825">
        <ele>158</ele>
        <time>2020-12-06T08:35:24Z</time>
      </trkpt>
      <trkpt lat="46.82789" lon="-0.78842">
        <ele>156.9</ele>
        <time>2020-12-06T08:35:26Z</time>
      </trkpt>
      <trkpt lat="46.82794" lon="-0.7885">
        <ele>156.2</ele>
        <time>2020-12-06T08:35:27Z</time>
      </trkpt>
      <trkpt lat="46.82801" lon="-0.78856">
        <ele>155.5</ele>
        <time>2020-12-06T08:35:28Z</time>
      </trkpt>
      <trkpt lat="46.82815" lon="-0.78868">
        <ele>154.3</ele>
        <time>2020-12-06T08:35:30Z</time>
      </trkpt>
      <trkpt lat="46.82852" lon="-0.78905">
        <ele>152.4</ele>
        <time>2020-12-06T08:35:35Z</time>
      </trkpt>
      <trkpt lat="46.8288" lon="-0.78937">
        <ele>154.1</ele>
        <time>2020-12-06T08:35:40Z</time>
      </trkpt>
      <trkpt lat="46.82896" lon="-0.7895">
        <ele>154.6</ele>
        <time>2020-12-06T08:35:44Z</time>
      </trkpt>
      <trkpt lat="46.8291" lon="-0.78961">
        <ele>154.4</ele>
        <time>2020-12-06T08:35:50Z</time>
      </trkpt>
      <trkpt lat="46.8292" lon="-0.78969">
        <ele>154.5</ele>
        <time>2020-12-06T08:35:55Z</time>
      </trkpt>
      <trkpt lat="46.82919" lon="-0.78976">
        <ele>154.6</ele>
        <time>2020-12-06T08:35:57Z</time>
      </trkpt>
      <trkpt lat="46.82917" lon="-0.78979">
        <ele>154.7</ele>
        <time>2020-12-06T08:35:58Z</time>
      </trkpt>
      <trkpt lat="46.82906" lon="-0.78995">
        <ele>155.7</ele>
        <time>2020-12-06T08:36:04Z</time>
      </trkpt>
      <trkpt lat="46.82896" lon="-0.79014">
        <ele>156.7</ele>
        <time>2020-12-06T08:36:10Z</time>
      </trkpt>
      <trkpt lat="46.82886" lon="-0.79038">
        <ele>157.9</ele>
        <time>2020-12-06T08:36:17Z</time>
      </trkpt>
      <trkpt lat="46.82876" lon="-0.79059">
        <ele>158.9</ele>
        <time>2020-12-06T08:36:23Z</time>
      </trkpt>
      <trkpt lat="46.82871" lon="-0.79069">
        <ele>159.4</ele>
        <time>2020-12-06T08:36:26Z</time>
      </trkpt>
      <trkpt lat="46.82869" lon="-0.79076">
        <ele>159.7</ele>
        <time>2020-12-06T08:36:28Z</time>
      </trkpt>
      <trkpt lat="46.82859" lon="-0.79102">
        <ele>160.4</ele>
        <time>2020-12-06T08:36:35Z</time>
      </trkpt>
      <trkpt lat="46.8285" lon="-0.79126">
        <ele>160.6</ele>
        <time>2020-12-06T08:36:41Z</time>
      </trkpt>
      <trkpt lat="46.82837" lon="-0.79162">
        <ele>160.1</ele>
        <time>2020-12-06T08:36:49Z</time>
      </trkpt>
      <trkpt lat="46.82828" lon="-0.79188">
        <ele>159.4</ele>
        <time>2020-12-06T08:36:54Z</time>
      </trkpt>
      <trkpt lat="46.82824" lon="-0.79199">
        <ele>159.1</ele>
        <time>2020-12-06T08:36:56Z</time>
      </trkpt>
      <trkpt lat="46.82822" lon="-0.79205">
        <ele>159</ele>
        <time>2020-12-06T08:36:57Z</time>
      </trkpt>
      <trkpt lat="46.82816" lon="-0.79221">
        <ele>158.6</ele>
        <time>2020-12-06T08:37:00Z</time>
      </trkpt>
      <trkpt lat="46.82815" lon="-0.79227">
        <ele>158.5</ele>
        <time>2020-12-06T08:37:01Z</time>
      </trkpt>
      <trkpt lat="46.82813" lon="-0.79233">
        <ele>158.4</ele>
        <time>2020-12-06T08:37:02Z</time>
      </trkpt>
      <trkpt lat="46.82808" lon="-0.7925">
        <ele>158.2</ele>
        <time>2020-12-06T08:37:05Z</time>
      </trkpt>
      <trkpt lat="46.82801" lon="-0.79276">
        <ele>158.1</ele>
        <time>2020-12-06T08:37:10Z</time>
      </trkpt>
      <trkpt lat="46.82787" lon="-0.7932">
        <ele>158.2</ele>
        <time>2020-12-06T08:37:19Z</time>
      </trkpt>
      <trkpt lat="46.82777" lon="-0.79352">
        <ele>158.4</ele>
        <time>2020-12-06T08:37:26Z</time>
      </trkpt>
      <trkpt lat="46.8277" lon="-0.7938">
        <ele>158.7</ele>
        <time>2020-12-06T08:37:32Z</time>
      </trkpt>
      <trkpt lat="46.82761" lon="-0.79408">
        <ele>158.9</ele>
        <time>2020-12-06T08:37:38Z</time>
      </trkpt>
      <trkpt lat="46.82751" lon="-0.79442">
        <ele>159.3</ele>
        <time>2020-12-06T08:37:45Z</time>
      </trkpt>
      <trkpt lat="46.82741" lon="-0.79476">
        <ele>159.8</ele>
        <time>2020-12-06T08:37:52Z</time>
      </trkpt>
      <trkpt lat="46.82732" lon="-0.79505">
        <ele>160.4</ele>
        <time>2020-12-06T08:37:58Z</time>
      </trkpt>
      <trkpt lat="46.82724" lon="-0.79532">
        <ele>161.1</ele>
        <time>2020-12-06T08:38:04Z</time>
      </trkpt>
      <trkpt lat="46.82715" lon="-0.79565">
        <ele>162</ele>
        <time>2020-12-06T08:38:11Z</time>
      </trkpt>
      <trkpt lat="46.82705" lon="-0.79597">
        <ele>162.8</ele>
        <time>2020-12-06T08:38:18Z</time>
      </trkpt>
      <trkpt lat="46.82698" lon="-0.79625">
        <ele>163.5</ele>
        <time>2020-12-06T08:38:24Z</time>
      </trkpt>
      <trkpt lat="46.82691" lon="-0.79657">
        <ele>164.3</ele>
        <time>2020-12-06T08:38:31Z</time>
      </trkpt>
      <trkpt lat="46.8269" lon="-0.79675">
        <ele>165.1</ele>
        <time>2020-12-06T08:38:35Z</time>
      </trkpt>
      <trkpt lat="46.82692" lon="-0.79679">
        <ele>165.3</ele>
        <time>2020-12-06T08:38:36Z</time>
      </trkpt>
      <trkpt lat="46.82705" lon="-0.79687">
        <ele>166.3</ele>
        <time>2020-12-06T08:38:41Z</time>
      </trkpt>
      <trkpt lat="46.82721" lon="-0.797">
        <ele>167.7</ele>
        <time>2020-12-06T08:38:48Z</time>
      </trkpt>
      <trkpt lat="46.82736" lon="-0.79713">
        <ele>168.8</ele>
        <time>2020-12-06T08:38:55Z</time>
      </trkpt>
      <trkpt lat="46.82741" lon="-0.79715">
        <ele>169.1</ele>
        <time>2020-12-06T08:38:57Z</time>
      </trkpt>
      <trkpt lat="46.82745" lon="-0.79718">
        <ele>169.4</ele>
        <time>2020-12-06T08:38:59Z</time>
      </trkpt>
      <trkpt lat="46.82757" lon="-0.79727">
        <ele>170.1</ele>
        <time>2020-12-06T08:39:04Z</time>
      </trkpt>
      <trkpt lat="46.82759" lon="-0.79728">
        <ele>170.2</ele>
        <time>2020-12-06T08:39:05Z</time>
      </trkpt>
      <trkpt lat="46.82771" lon="-0.79738">
        <ele>170.6</ele>
        <time>2020-12-06T08:39:10Z</time>
      </trkpt>
      <trkpt lat="46.8278" lon="-0.79743">
        <ele>170.9</ele>
        <time>2020-12-06T08:39:14Z</time>
      </trkpt>
      <trkpt lat="46.82801" lon="-0.79755">
        <ele>171.1</ele>
        <time>2020-12-06T08:39:22Z</time>
      </trkpt>
      <trkpt lat="46.82822" lon="-0.79767">
        <ele>171.2</ele>
        <time>2020-12-06T08:39:29Z</time>
      </trkpt>
      <trkpt lat="46.82846" lon="-0.79782">
        <ele>170.7</ele>
        <time>2020-12-06T08:39:37Z</time>
      </trkpt>
      <trkpt lat="46.82873" lon="-0.79797">
        <ele>169.9</ele>
        <time>2020-12-06T08:39:45Z</time>
      </trkpt>
      <trkpt lat="46.82903" lon="-0.79813">
        <ele>170.3</ele>
        <time>2020-12-06T08:39:53Z</time>
      </trkpt>
      <trkpt lat="46.82918" lon="-0.79827">
        <ele>171.3</ele>
        <time>2020-12-06T08:39:58Z</time>
      </trkpt>
      <trkpt lat="46.82929" lon="-0.79849">
        <ele>172.9</ele>
        <time>2020-12-06T08:40:05Z</time>
      </trkpt>
      <trkpt lat="46.82936" lon="-0.79869">
        <ele>174.1</ele>
        <time>2020-12-06T08:40:11Z</time>
      </trkpt>
      <trkpt lat="46.82946" lon="-0.79897">
        <ele>175.4</ele>
        <time>2020-12-06T08:40:19Z</time>
      </trkpt>
      <trkpt lat="46.82957" lon="-0.79926">
        <ele>176.5</ele>
        <time>2020-12-06T08:40:27Z</time>
      </trkpt>
      <trkpt lat="46.82965" lon="-0.79951">
        <ele>177.6</ele>
        <time>2020-12-06T08:40:34Z</time>
      </trkpt>
      <trkpt lat="46.82974" lon="-0.79972">
        <ele>178.4</ele>
        <time>2020-12-06T08:40:40Z</time>
      </trkpt>
      <trkpt lat="46.82983" lon="-0.79997">
        <ele>179.1</ele>
        <time>2020-12-06T08:40:47Z</time>
      </trkpt>
      <trkpt lat="46.82993" lon="-0.80022">
        <ele>179.6</ele>
        <time>2020-12-06T08:40:54Z</time>
      </trkpt>
      <trkpt lat="46.82999" lon="-0.80041">
        <ele>179.9</ele>
        <time>2020-12-06T08:40:59Z</time>
      </trkpt>
      <trkpt lat="46.83003" lon="-0.8006">
        <ele>180.1</ele>
        <time>2020-12-06T08:41:04Z</time>
      </trkpt>
      <trkpt lat="46.83004" lon="-0.80086">
        <ele>179.9</ele>
        <time>2020-12-06T08:41:10Z</time>
      </trkpt>
      <trkpt lat="46.83006" lon="-0.80117">
        <ele>179.6</ele>
        <time>2020-12-06T08:41:16Z</time>
      </trkpt>
      <trkpt lat="46.83007" lon="-0.80154">
        <ele>179.6</ele>
        <time>2020-12-06T08:41:23Z</time>
      </trkpt>
      <trkpt lat="46.83007" lon="-0.80186">
        <ele>179.8</ele>
        <time>2020-12-06T08:41:29Z</time>
      </trkpt>
      <trkpt lat="46.83011" lon="-0.80233">
        <ele>180.6</ele>
        <time>2020-12-06T08:41:38Z</time>
      </trkpt>
      <trkpt lat="46.83016" lon="-0.80262">
        <ele>181.3</ele>
        <time>2020-12-06T08:41:44Z</time>
      </trkpt>
      <trkpt lat="46.83027" lon="-0.80295">
        <ele>182.1</ele>
        <time>2020-12-06T08:41:51Z</time>
      </trkpt>
      <trkpt lat="46.83045" lon="-0.80329">
        <ele>182.5</ele>
        <time>2020-12-06T08:41:59Z</time>
      </trkpt>
      <trkpt lat="46.83052" lon="-0.80354">
        <ele>182.7</ele>
        <time>2020-12-06T08:42:04Z</time>
      </trkpt>
      <trkpt lat="46.83061" lon="-0.80386">
        <ele>183.3</ele>
        <time>2020-12-06T08:42:11Z</time>
      </trkpt>
      <trkpt lat="46.83073" lon="-0.80422">
        <ele>182.7</ele>
        <time>2020-12-06T08:42:19Z</time>
      </trkpt>
      <trkpt lat="46.83087" lon="-0.80453">
        <ele>181.1</ele>
        <time>2020-12-06T08:42:26Z</time>
      </trkpt>
      <trkpt lat="46.83095" lon="-0.80458">
        <ele>180.8</ele>
        <time>2020-12-06T08:42:28Z</time>
      </trkpt>
      <trkpt lat="46.83103" lon="-0.8046">
        <ele>180.4</ele>
        <time>2020-12-06T08:42:30Z</time>
      </trkpt>
      <trkpt lat="46.83127" lon="-0.80461">
        <ele>179.5</ele>
        <time>2020-12-06T08:42:36Z</time>
      </trkpt>
      <trkpt lat="46.83144" lon="-0.80466">
        <ele>178.9</ele>
        <time>2020-12-06T08:42:40Z</time>
      </trkpt>
      <trkpt lat="46.83153" lon="-0.80471">
        <ele>178.4</ele>
        <time>2020-12-06T08:42:42Z</time>
      </trkpt>
      <trkpt lat="46.83157" lon="-0.80474">
        <ele>178.2</ele>
        <time>2020-12-06T08:42:43Z</time>
      </trkpt>
      <trkpt lat="46.83174" lon="-0.80491">
        <ele>177.1</ele>
        <time>2020-12-06T08:42:47Z</time>
      </trkpt>
      <trkpt lat="46.83179" lon="-0.80496">
        <ele>176.9</ele>
        <time>2020-12-06T08:42:48Z</time>
      </trkpt>
      <trkpt lat="46.83194" lon="-0.80517">
        <ele>175.9</ele>
        <time>2020-12-06T08:42:52Z</time>
      </trkpt>
      <trkpt lat="46.83234" lon="-0.8057">
        <ele>173.5</ele>
        <time>2020-12-06T08:43:02Z</time>
      </trkpt>
      <trkpt lat="46.83257" lon="-0.806">
        <ele>172.4</ele>
        <time>2020-12-06T08:43:08Z</time>
      </trkpt>
      <trkpt lat="46.83285" lon="-0.80635">
        <ele>171.6</ele>
        <time>2020-12-06T08:43:15Z</time>
      </trkpt>
      <trkpt lat="46.83311" lon="-0.80672">
        <ele>171.8</ele>
        <time>2020-12-06T08:43:23Z</time>
      </trkpt>
      <trkpt lat="46.83322" lon="-0.80689">
        <ele>172.2</ele>
        <time>2020-12-06T08:43:27Z</time>
      </trkpt>
      <trkpt lat="46.83334" lon="-0.80704">
        <ele>172.7</ele>
        <time>2020-12-06T08:43:32Z</time>
      </trkpt>
      <trkpt lat="46.83352" lon="-0.80725">
        <ele>174</ele>
        <time>2020-12-06T08:43:39Z</time>
      </trkpt>
      <trkpt lat="46.83359" lon="-0.80733">
        <ele>174.3</ele>
        <time>2020-12-06T08:43:42Z</time>
      </trkpt>
      <trkpt lat="46.8336" lon="-0.80736">
        <ele>174.2</ele>
        <time>2020-12-06T08:43:43Z</time>
      </trkpt>
      <trkpt lat="46.83368" lon="-0.80759">
        <ele>173.7</ele>
        <time>2020-12-06T08:43:50Z</time>
      </trkpt>
      <trkpt lat="46.83376" lon="-0.80778">
        <ele>173.3</ele>
        <time>2020-12-06T08:43:56Z</time>
      </trkpt>
      <trkpt lat="46.83386" lon="-0.80799">
        <ele>172.9</ele>
        <time>2020-12-06T08:44:03Z</time>
      </trkpt>
      <trkpt lat="46.83396" lon="-0.80822">
        <ele>172.4</ele>
        <time>2020-12-06T08:44:11Z</time>
      </trkpt>
      <trkpt lat="46.83409" lon="-0.80854">
        <ele>171.2</ele>
        <time>2020-12-06T08:44:18Z</time>
      </trkpt>
      <trkpt lat="46.83422" lon="-0.80894">
        <ele>170.3</ele>
        <time>2020-12-06T08:44:24Z</time>
      </trkpt>
      <trkpt lat="46.83434" lon="-0.80932">
        <ele>169.4</ele>
        <time>2020-12-06T08:44:29Z</time>
      </trkpt>
      <trkpt lat="46.83438" lon="-0.80945">
        <ele>169.2</ele>
        <time>2020-12-06T08:44:31Z</time>
      </trkpt>
      <trkpt lat="46.8345" lon="-0.8098">
        <ele>169.5</ele>
        <time>2020-12-06T08:44:38Z</time>
      </trkpt>
      <trkpt lat="46.83462" lon="-0.81013">
        <ele>170.2</ele>
        <time>2020-12-06T08:44:46Z</time>
      </trkpt>
      <trkpt lat="46.83471" lon="-0.8104">
        <ele>171.1</ele>
        <time>2020-12-06T08:44:53Z</time>
      </trkpt>
      <trkpt lat="46.8348" lon="-0.81072">
        <ele>171.8</ele>
        <time>2020-12-06T08:45:01Z</time>
      </trkpt>
      <trkpt lat="46.83489" lon="-0.81099">
        <ele>172.1</ele>
        <time>2020-12-06T08:45:08Z</time>
      </trkpt>
      <trkpt lat="46.83494" lon="-0.81121">
        <ele>172.3</ele>
        <time>2020-12-06T08:45:14Z</time>
      </trkpt>
      <trkpt lat="46.83501" lon="-0.81138">
        <ele>172.5</ele>
        <time>2020-12-06T08:45:19Z</time>
      </trkpt>
      <trkpt lat="46.83514" lon="-0.81154">
        <ele>172.7</ele>
        <time>2020-12-06T08:45:25Z</time>
      </trkpt>
      <trkpt lat="46.8353" lon="-0.81174">
        <ele>172.9</ele>
        <time>2020-12-06T08:45:32Z</time>
      </trkpt>
      <trkpt lat="46.83541" lon="-0.81191">
        <ele>173</ele>
        <time>2020-12-06T08:45:38Z</time>
      </trkpt>
      <trkpt lat="46.8355" lon="-0.81209">
        <ele>173.2</ele>
        <time>2020-12-06T08:45:44Z</time>
      </trkpt>
      <trkpt lat="46.83557" lon="-0.81232">
        <ele>173.1</ele>
        <time>2020-12-06T08:45:51Z</time>
      </trkpt>
      <trkpt lat="46.83559" lon="-0.81247">
        <ele>173.1</ele>
        <time>2020-12-06T08:45:56Z</time>
      </trkpt>
      <trkpt lat="46.83562" lon="-0.81266">
        <ele>172.7</ele>
        <time>2020-12-06T08:46:02Z</time>
      </trkpt>
      <trkpt lat="46.83565" lon="-0.81285">
        <ele>172.3</ele>
        <time>2020-12-06T08:46:08Z</time>
      </trkpt>
      <trkpt lat="46.83569" lon="-0.81303">
        <ele>171.5</ele>
        <time>2020-12-06T08:46:14Z</time>
      </trkpt>
      <trkpt lat="46.83574" lon="-0.8132">
        <ele>171</ele>
        <time>2020-12-06T08:46:20Z</time>
      </trkpt>
      <trkpt lat="46.83582" lon="-0.8134">
        <ele>170.5</ele>
        <time>2020-12-06T08:46:26Z</time>
      </trkpt>
      <trkpt lat="46.83591" lon="-0.8136">
        <ele>169.9</ele>
        <time>2020-12-06T08:46:32Z</time>
      </trkpt>
      <trkpt lat="46.83595" lon="-0.81371">
        <ele>169.7</ele>
        <time>2020-12-06T08:46:36Z</time>
      </trkpt>
      <trkpt lat="46.83603" lon="-0.81384">
        <ele>169.1</ele>
        <time>2020-12-06T08:46:41Z</time>
      </trkpt>
      <trkpt lat="46.83613" lon="-0.81402">
        <ele>167.6</ele>
        <time>2020-12-06T08:46:46Z</time>
      </trkpt>
      <trkpt lat="46.83621" lon="-0.81418">
        <ele>166.7</ele>
        <time>2020-12-06T08:46:50Z</time>
      </trkpt>
      <trkpt lat="46.83632" lon="-0.81434">
        <ele>165.1</ele>
        <time>2020-12-06T08:46:54Z</time>
      </trkpt>
      <trkpt lat="46.83645" lon="-0.81448">
        <ele>163.3</ele>
        <time>2020-12-06T08:46:59Z</time>
      </trkpt>
      <trkpt lat="46.83678" lon="-0.81473">
        <ele>159</ele>
        <time>2020-12-06T08:47:07Z</time>
      </trkpt>
      <trkpt lat="46.83707" lon="-0.8149">
        <ele>156.3</ele>
        <time>2020-12-06T08:47:14Z</time>
      </trkpt>
      <trkpt lat="46.83718" lon="-0.81495">
        <ele>155.4</ele>
        <time>2020-12-06T08:47:17Z</time>
      </trkpt>
      <trkpt lat="46.83729" lon="-0.81498">
        <ele>154.9</ele>
        <time>2020-12-06T08:47:20Z</time>
      </trkpt>
      <trkpt lat="46.83741" lon="-0.815">
        <ele>154.6</ele>
        <time>2020-12-06T08:47:25Z</time>
      </trkpt>
      <trkpt lat="46.83754" lon="-0.81494">
        <ele>154.5</ele>
        <time>2020-12-06T08:47:30Z</time>
      </trkpt>
      <trkpt lat="46.83764" lon="-0.81475">
        <ele>154.8</ele>
        <time>2020-12-06T08:47:35Z</time>
      </trkpt>
      <trkpt lat="46.83768" lon="-0.81464">
        <ele>155</ele>
        <time>2020-12-06T08:47:38Z</time>
      </trkpt>
      <trkpt lat="46.83771" lon="-0.81461">
        <ele>155.1</ele>
        <time>2020-12-06T08:47:39Z</time>
      </trkpt>
      <trkpt lat="46.83779" lon="-0.81458">
        <ele>155</ele>
        <time>2020-12-06T08:47:41Z</time>
      </trkpt>
      <trkpt lat="46.83783" lon="-0.81458">
        <ele>154.8</ele>
        <time>2020-12-06T08:47:42Z</time>
      </trkpt>
      <trkpt lat="46.83793" lon="-0.8146">
        <ele>154.6</ele>
        <time>2020-12-06T08:47:44Z</time>
      </trkpt>
      <trkpt lat="46.83798" lon="-0.8146">
        <ele>154.6</ele>
        <time>2020-12-06T08:47:45Z</time>
      </trkpt>
      <trkpt lat="46.83808" lon="-0.81459">
        <ele>154.4</ele>
        <time>2020-12-06T08:47:47Z</time>
      </trkpt>
      <trkpt lat="46.83821" lon="-0.81456">
        <ele>154.3</ele>
        <time>2020-12-06T08:47:50Z</time>
      </trkpt>
      <trkpt lat="46.83838" lon="-0.81451">
        <ele>154.4</ele>
        <time>2020-12-06T08:47:55Z</time>
      </trkpt>
      <trkpt lat="46.83849" lon="-0.81449">
        <ele>154.6</ele>
        <time>2020-12-06T08:48:00Z</time>
      </trkpt>
      <trkpt lat="46.83865" lon="-0.81442">
        <ele>155.1</ele>
        <time>2020-12-06T08:48:06Z</time>
      </trkpt>
      <trkpt lat="46.83879" lon="-0.81446">
        <ele>155.6</ele>
        <time>2020-12-06T08:48:12Z</time>
      </trkpt>
      <trkpt lat="46.83887" lon="-0.81462">
        <ele>156.4</ele>
        <time>2020-12-06T08:48:18Z</time>
      </trkpt>
      <trkpt lat="46.83891" lon="-0.81476">
        <ele>157.3</ele>
        <time>2020-12-06T08:48:23Z</time>
      </trkpt>
      <trkpt lat="46.83893" lon="-0.81491">
        <ele>158</ele>
        <time>2020-12-06T08:48:28Z</time>
      </trkpt>
      <trkpt lat="46.83898" lon="-0.81501">
        <ele>158</ele>
        <time>2020-12-06T08:48:32Z</time>
      </trkpt>
      <trkpt lat="46.83915" lon="-0.81513">
        <ele>157.9</ele>
        <time>2020-12-06T08:48:39Z</time>
      </trkpt>
      <trkpt lat="46.83929" lon="-0.81526">
        <ele>158.1</ele>
        <time>2020-12-06T08:48:45Z</time>
      </trkpt>
      <trkpt lat="46.83948" lon="-0.81539">
        <ele>158.6</ele>
        <time>2020-12-06T08:48:53Z</time>
      </trkpt>
      <trkpt lat="46.83969" lon="-0.81549">
        <ele>158.9</ele>
        <time>2020-12-06T08:49:01Z</time>
      </trkpt>
      <trkpt lat="46.83988" lon="-0.81553">
        <ele>159.4</ele>
        <time>2020-12-06T08:49:08Z</time>
      </trkpt>
      <trkpt lat="46.8401" lon="-0.81555">
        <ele>159.8</ele>
        <time>2020-12-06T08:49:16Z</time>
      </trkpt>
      <trkpt lat="46.84033" lon="-0.81553">
        <ele>159.9</ele>
        <time>2020-12-06T08:49:24Z</time>
      </trkpt>
      <trkpt lat="46.84054" lon="-0.81549">
        <ele>159.5</ele>
        <time>2020-12-06T08:49:31Z</time>
      </trkpt>
      <trkpt lat="46.84074" lon="-0.81549">
        <ele>159.3</ele>
        <time>2020-12-06T08:49:38Z</time>
      </trkpt>
      <trkpt lat="46.84081" lon="-0.81562">
        <ele>159.8</ele>
        <time>2020-12-06T08:49:42Z</time>
      </trkpt>
      <trkpt lat="46.84089" lon="-0.81594">
        <ele>161.2</ele>
        <time>2020-12-06T08:49:50Z</time>
      </trkpt>
      <trkpt lat="46.84095" lon="-0.81614">
        <ele>161.7</ele>
        <time>2020-12-06T08:49:56Z</time>
      </trkpt>
      <trkpt lat="46.84102" lon="-0.81637">
        <ele>161.8</ele>
        <time>2020-12-06T08:50:03Z</time>
      </trkpt>
      <trkpt lat="46.84115" lon="-0.81658">
        <ele>161.6</ele>
        <time>2020-12-06T08:50:09Z</time>
      </trkpt>
      <trkpt lat="46.84122" lon="-0.81664">
        <ele>161.3</ele>
        <time>2020-12-06T08:50:11Z</time>
      </trkpt>
      <trkpt lat="46.8413" lon="-0.81668">
        <ele>161</ele>
        <time>2020-12-06T08:50:13Z</time>
      </trkpt>
      <trkpt lat="46.84156" lon="-0.81675">
        <ele>159.8</ele>
        <time>2020-12-06T08:50:18Z</time>
      </trkpt>
      <trkpt lat="46.84181" lon="-0.8169">
        <ele>159.4</ele>
        <time>2020-12-06T08:50:23Z</time>
      </trkpt>
      <trkpt lat="46.84186" lon="-0.81695">
        <ele>159.3</ele>
        <time>2020-12-06T08:50:24Z</time>
      </trkpt>
      <trkpt lat="46.84207" lon="-0.81712">
        <ele>159.2</ele>
        <time>2020-12-06T08:50:29Z</time>
      </trkpt>
      <trkpt lat="46.8423" lon="-0.81729">
        <ele>159.2</ele>
        <time>2020-12-06T08:50:35Z</time>
      </trkpt>
      <trkpt lat="46.8426" lon="-0.81751">
        <ele>159.8</ele>
        <time>2020-12-06T08:50:43Z</time>
      </trkpt>
      <trkpt lat="46.84279" lon="-0.81765">
        <ele>160</ele>
        <time>2020-12-06T08:50:49Z</time>
      </trkpt>
      <trkpt lat="46.84296" lon="-0.81773">
        <ele>159.9</ele>
        <time>2020-12-06T08:50:55Z</time>
      </trkpt>
      <trkpt lat="46.84314" lon="-0.81765">
        <ele>159.7</ele>
        <time>2020-12-06T08:51:01Z</time>
      </trkpt>
      <trkpt lat="46.84329" lon="-0.81753">
        <ele>159.4</ele>
        <time>2020-12-06T08:51:07Z</time>
      </trkpt>
      <trkpt lat="46.84344" lon="-0.81743">
        <ele>159.2</ele>
        <time>2020-12-06T08:51:12Z</time>
      </trkpt>
      <trkpt lat="46.84363" lon="-0.81732">
        <ele>159.1</ele>
        <time>2020-12-06T08:51:18Z</time>
      </trkpt>
      <trkpt lat="46.84382" lon="-0.81722">
        <ele>158.9</ele>
        <time>2020-12-06T08:51:24Z</time>
      </trkpt>
      <trkpt lat="46.84398" lon="-0.8171">
        <ele>158.8</ele>
        <time>2020-12-06T08:51:29Z</time>
      </trkpt>
      <trkpt lat="46.84414" lon="-0.81698">
        <ele>158.5</ele>
        <time>2020-12-06T08:51:34Z</time>
      </trkpt>
      <trkpt lat="46.84427" lon="-0.81689">
        <ele>158.2</ele>
        <time>2020-12-06T08:51:38Z</time>
      </trkpt>
      <trkpt lat="46.84451" lon="-0.81676">
        <ele>157.5</ele>
        <time>2020-12-06T08:51:45Z</time>
      </trkpt>
      <trkpt lat="46.84468" lon="-0.81667">
        <ele>156.9</ele>
        <time>2020-12-06T08:51:50Z</time>
      </trkpt>
      <trkpt lat="46.8448" lon="-0.8166">
        <ele>156.4</ele>
        <time>2020-12-06T08:51:54Z</time>
      </trkpt>
      <trkpt lat="46.84496" lon="-0.81654">
        <ele>155.9</ele>
        <time>2020-12-06T08:52:00Z</time>
      </trkpt>
      <trkpt lat="46.84507" lon="-0.81648">
        <ele>155.6</ele>
        <time>2020-12-06T08:52:05Z</time>
      </trkpt>
      <trkpt lat="46.84522" lon="-0.81642">
        <ele>155.1</ele>
        <time>2020-12-06T08:52:10Z</time>
      </trkpt>
      <trkpt lat="46.84535" lon="-0.81637">
        <ele>154.7</ele>
        <time>2020-12-06T08:52:14Z</time>
      </trkpt>
      <trkpt lat="46.84552" lon="-0.81632">
        <ele>154.3</ele>
        <time>2020-12-06T08:52:19Z</time>
      </trkpt>
      <trkpt lat="46.84574" lon="-0.81625">
        <ele>153.8</ele>
        <time>2020-12-06T08:52:25Z</time>
      </trkpt>
      <trkpt lat="46.84599" lon="-0.81613">
        <ele>153.3</ele>
        <time>2020-12-06T08:52:32Z</time>
      </trkpt>
      <trkpt lat="46.84612" lon="-0.81607">
        <ele>153</ele>
        <time>2020-12-06T08:52:36Z</time>
      </trkpt>
      <trkpt lat="46.84629" lon="-0.81606">
        <ele>152.9</ele>
        <time>2020-12-06T08:52:41Z</time>
      </trkpt>
      <trkpt lat="46.84645" lon="-0.81609">
        <ele>152.8</ele>
        <time>2020-12-06T08:52:46Z</time>
      </trkpt>
      <trkpt lat="46.84662" lon="-0.81616">
        <ele>152.6</ele>
        <time>2020-12-06T08:52:51Z</time>
      </trkpt>
      <trkpt lat="46.84677" lon="-0.81619">
        <ele>152.3</ele>
        <time>2020-12-06T08:52:55Z</time>
      </trkpt>
      <trkpt lat="46.84694" lon="-0.81621">
        <ele>151.8</ele>
        <time>2020-12-06T08:53:00Z</time>
      </trkpt>
      <trkpt lat="46.8471" lon="-0.81615">
        <ele>151.3</ele>
        <time>2020-12-06T08:53:05Z</time>
      </trkpt>
      <trkpt lat="46.8471" lon="-0.81615">
        <ele>151.2</ele>
        <time>2020-12-06T08:53:06Z</time>
      </trkpt>
      <trkpt lat="46.84714" lon="-0.81612">
        <ele>151.1</ele>
        <time>2020-12-06T08:53:11Z</time>
      </trkpt>
      <trkpt lat="46.84718" lon="-0.81609">
        <ele>151</ele>
        <time>2020-12-06T08:53:13Z</time>
      </trkpt>
      <trkpt lat="46.84731" lon="-0.816">
        <ele>150.8</ele>
        <time>2020-12-06T08:53:18Z</time>
      </trkpt>
      <trkpt lat="46.84746" lon="-0.8159">
        <ele>150.8</ele>
        <time>2020-12-06T08:53:23Z</time>
      </trkpt>
      <trkpt lat="46.8476" lon="-0.81576">
        <ele>150.8</ele>
        <time>2020-12-06T08:53:28Z</time>
      </trkpt>
      <trkpt lat="46.84779" lon="-0.8156">
        <ele>150.8</ele>
        <time>2020-12-06T08:53:34Z</time>
      </trkpt>
      <trkpt lat="46.8479" lon="-0.8155">
        <ele>150.7</ele>
        <time>2020-12-06T08:53:39Z</time>
      </trkpt>
      <trkpt lat="46.84793" lon="-0.81546">
        <ele>150.6</ele>
        <time>2020-12-06T08:53:41Z</time>
      </trkpt>
      <trkpt lat="46.84795" lon="-0.8154">
        <ele>150.6</ele>
        <time>2020-12-06T08:53:43Z</time>
      </trkpt>
      <trkpt lat="46.84804" lon="-0.81522">
        <ele>150.3</ele>
        <time>2020-12-06T08:53:48Z</time>
      </trkpt>
      <trkpt lat="46.84815" lon="-0.81508">
        <ele>149.9</ele>
        <time>2020-12-06T08:53:52Z</time>
      </trkpt>
      <trkpt lat="46.84827" lon="-0.81499">
        <ele>149.6</ele>
        <time>2020-12-06T08:53:56Z</time>
      </trkpt>
      <trkpt lat="46.8484" lon="-0.81487">
        <ele>149.2</ele>
        <time>2020-12-06T08:54:01Z</time>
      </trkpt>
      <trkpt lat="46.84842" lon="-0.81485">
        <ele>149.1</ele>
        <time>2020-12-06T08:54:02Z</time>
      </trkpt>
      <trkpt lat="46.84847" lon="-0.81481">
        <ele>149</ele>
        <time>2020-12-06T08:54:04Z</time>
      </trkpt>
      <trkpt lat="46.84852" lon="-0.81476">
        <ele>148.8</ele>
        <time>2020-12-06T08:54:06Z</time>
      </trkpt>
      <trkpt lat="46.84856" lon="-0.81474">
        <ele>148.7</ele>
        <time>2020-12-06T08:54:08Z</time>
      </trkpt>
      <trkpt lat="46.84871" lon="-0.81462">
        <ele>148.3</ele>
        <time>2020-12-06T08:54:13Z</time>
      </trkpt>
      <trkpt lat="46.84881" lon="-0.81456">
        <ele>148.1</ele>
        <time>2020-12-06T08:54:16Z</time>
      </trkpt>
      <trkpt lat="46.84887" lon="-0.81453">
        <ele>148</ele>
        <time>2020-12-06T08:54:18Z</time>
      </trkpt>
      <trkpt lat="46.84897" lon="-0.81451">
        <ele>147.7</ele>
        <time>2020-12-06T08:54:22Z</time>
      </trkpt>
      <trkpt lat="46.84908" lon="-0.81449">
        <ele>147.4</ele>
        <time>2020-12-06T08:54:26Z</time>
      </trkpt>
      <trkpt lat="46.8493" lon="-0.81439">
        <ele>146.9</ele>
        <time>2020-12-06T08:54:34Z</time>
      </trkpt>
      <trkpt lat="46.84945" lon="-0.81433">
        <ele>146.6</ele>
        <time>2020-12-06T08:54:39Z</time>
      </trkpt>
      <trkpt lat="46.84963" lon="-0.81425">
        <ele>146.3</ele>
        <time>2020-12-06T08:54:45Z</time>
      </trkpt>
      <trkpt lat="46.84974" lon="-0.8142">
        <ele>146.2</ele>
        <time>2020-12-06T08:54:49Z</time>
      </trkpt>
      <trkpt lat="46.84984" lon="-0.81412">
        <ele>146</ele>
        <time>2020-12-06T08:54:53Z</time>
      </trkpt>
      <trkpt lat="46.84999" lon="-0.81397">
        <ele>145.9</ele>
        <time>2020-12-06T08:54:59Z</time>
      </trkpt>
      <trkpt lat="46.85009" lon="-0.81389">
        <ele>145.7</ele>
        <time>2020-12-06T08:55:03Z</time>
      </trkpt>
      <trkpt lat="46.85011" lon="-0.81389">
        <ele>145.6</ele>
        <time>2020-12-06T08:55:04Z</time>
      </trkpt>
      <trkpt lat="46.85014" lon="-0.81389">
        <ele>145.5</ele>
        <time>2020-12-06T08:55:05Z</time>
      </trkpt>
      <trkpt lat="46.85021" lon="-0.81386">
        <ele>145.4</ele>
        <time>2020-12-06T08:55:08Z</time>
      </trkpt>
      <trkpt lat="46.85028" lon="-0.81399">
        <ele>145.4</ele>
        <time>2020-12-06T08:55:12Z</time>
      </trkpt>
      <trkpt lat="46.85039" lon="-0.81417">
        <ele>145.4</ele>
        <time>2020-12-06T08:55:17Z</time>
      </trkpt>
      <trkpt lat="46.85051" lon="-0.81436">
        <ele>145.3</ele>
        <time>2020-12-06T08:55:22Z</time>
      </trkpt>
      <trkpt lat="46.85073" lon="-0.81456">
        <ele>145.3</ele>
        <time>2020-12-06T08:55:29Z</time>
      </trkpt>
      <trkpt lat="46.85108" lon="-0.81476">
        <ele>145.7</ele>
        <time>2020-12-06T08:55:38Z</time>
      </trkpt>
      <trkpt lat="46.85131" lon="-0.8149">
        <ele>146.6</ele>
        <time>2020-12-06T08:55:45Z</time>
      </trkpt>
      <trkpt lat="46.85146" lon="-0.81506">
        <ele>147.4</ele>
        <time>2020-12-06T08:55:51Z</time>
      </trkpt>
      <trkpt lat="46.85158" lon="-0.81526">
        <ele>148.3</ele>
        <time>2020-12-06T08:55:57Z</time>
      </trkpt>
      <trkpt lat="46.85171" lon="-0.81547">
        <ele>149.2</ele>
        <time>2020-12-06T08:56:03Z</time>
      </trkpt>
      <trkpt lat="46.85184" lon="-0.81572">
        <ele>150.3</ele>
        <time>2020-12-06T08:56:10Z</time>
      </trkpt>
      <trkpt lat="46.85198" lon="-0.81604">
        <ele>151.5</ele>
        <time>2020-12-06T08:56:18Z</time>
      </trkpt>
      <trkpt lat="46.85217" lon="-0.81639">
        <ele>152.9</ele>
        <time>2020-12-06T08:56:27Z</time>
      </trkpt>
      <trkpt lat="46.85236" lon="-0.81662">
        <ele>154</ele>
        <time>2020-12-06T08:56:34Z</time>
      </trkpt>
      <trkpt lat="46.85254" lon="-0.81677">
        <ele>155.1</ele>
        <time>2020-12-06T08:56:40Z</time>
      </trkpt>
      <trkpt lat="46.85269" lon="-0.81688">
        <ele>156.1</ele>
        <time>2020-12-06T08:56:45Z</time>
      </trkpt>
      <trkpt lat="46.8529" lon="-0.81699">
        <ele>157.5</ele>
        <time>2020-12-06T08:56:52Z</time>
      </trkpt>
      <trkpt lat="46.85306" lon="-0.81706">
        <ele>158.7</ele>
        <time>2020-12-06T08:56:58Z</time>
      </trkpt>
      <trkpt lat="46.85326" lon="-0.81712">
        <ele>159.8</ele>
        <time>2020-12-06T08:57:05Z</time>
      </trkpt>
      <trkpt lat="46.8534" lon="-0.8173">
        <ele>161</ele>
        <time>2020-12-06T08:57:12Z</time>
      </trkpt>
      <trkpt lat="46.85356" lon="-0.81754">
        <ele>162.5</ele>
        <time>2020-12-06T08:57:21Z</time>
      </trkpt>
      <trkpt lat="46.85368" lon="-0.81776">
        <ele>164.5</ele>
        <time>2020-12-06T08:57:29Z</time>
      </trkpt>
      <trkpt lat="46.85373" lon="-0.81795">
        <ele>166.1</ele>
        <time>2020-12-06T08:57:35Z</time>
      </trkpt>
      <trkpt lat="46.85373" lon="-0.81816">
        <ele>168</ele>
        <time>2020-12-06T08:57:42Z</time>
      </trkpt>
      <trkpt lat="46.85373" lon="-0.81844">
        <ele>170.8</ele>
        <time>2020-12-06T08:57:50Z</time>
      </trkpt>
      <trkpt lat="46.85378" lon="-0.81856">
        <ele>172.4</ele>
        <time>2020-12-06T08:57:54Z</time>
      </trkpt>
      <trkpt lat="46.85391" lon="-0.81863">
        <ele>174.5</ele>
        <time>2020-12-06T08:58:00Z</time>
      </trkpt>
      <trkpt lat="46.8541" lon="-0.8186">
        <ele>177.4</ele>
        <time>2020-12-06T08:58:08Z</time>
      </trkpt>
      <trkpt lat="46.85427" lon="-0.81864">
        <ele>179.8</ele>
        <time>2020-12-06T08:58:15Z</time>
      </trkpt>
      <trkpt lat="46.85446" lon="-0.81871">
        <ele>182.5</ele>
        <time>2020-12-06T08:58:23Z</time>
      </trkpt>
      <trkpt lat="46.85464" lon="-0.8188">
        <ele>185.1</ele>
        <time>2020-12-06T08:58:31Z</time>
      </trkpt>
      <trkpt lat="46.85479" lon="-0.81885">
        <ele>187.1</ele>
        <time>2020-12-06T08:58:38Z</time>
      </trkpt>
      <trkpt lat="46.85494" lon="-0.81891">
        <ele>188.6</ele>
        <time>2020-12-06T08:58:44Z</time>
      </trkpt>
      <trkpt lat="46.85511" lon="-0.81909">
        <ele>191.6</ele>
        <time>2020-12-06T08:58:53Z</time>
      </trkpt>
      <trkpt lat="46.8552" lon="-0.8193">
        <ele>193.8</ele>
        <time>2020-12-06T08:59:00Z</time>
      </trkpt>
      <trkpt lat="46.85521" lon="-0.81947">
        <ele>195.3</ele>
        <time>2020-12-06T08:59:06Z</time>
      </trkpt>
      <trkpt lat="46.85519" lon="-0.81963">
        <ele>197</ele>
        <time>2020-12-06T08:59:12Z</time>
      </trkpt>
      <trkpt lat="46.85509" lon="-0.81977">
        <ele>197.6</ele>
        <time>2020-12-06T08:59:19Z</time>
      </trkpt>
      <trkpt lat="46.85507" lon="-0.81988">
        <ele>197.9</ele>
        <time>2020-12-06T08:59:24Z</time>
      </trkpt>
      <trkpt lat="46.855" lon="-0.82">
        <ele>197.6</ele>
        <time>2020-12-06T08:59:31Z</time>
      </trkpt>
      <trkpt lat="46.85499" lon="-0.82001">
        <ele>197.5</ele>
        <time>2020-12-06T08:59:32Z</time>
      </trkpt>
      <trkpt lat="46.85497" lon="-0.81998">
        <ele>197.5</ele>
        <time>2020-12-06T08:59:34Z</time>
      </trkpt>
      <trkpt lat="46.85497" lon="-0.81997">
        <ele>197.5</ele>
        <time>2020-12-06T08:59:35Z</time>
      </trkpt>
      <trkpt lat="46.855" lon="-0.81993">
        <ele>197.4</ele>
        <time>2020-12-06T08:59:38Z</time>
      </trkpt>
      <trkpt lat="46.85502" lon="-0.81991">
        <ele>197.3</ele>
        <time>2020-12-06T08:59:40Z</time>
      </trkpt>
      <trkpt lat="46.85504" lon="-0.81992">
        <ele>197.3</ele>
        <time>2020-12-06T08:59:43Z</time>
      </trkpt>
      <trkpt lat="46.85504" lon="-0.81994">
        <ele>197.2</ele>
        <time>2020-12-06T08:59:44Z</time>
      </trkpt>
      <trkpt lat="46.85501" lon="-0.81996">
        <ele>197.1</ele>
        <time>2020-12-06T08:59:47Z</time>
      </trkpt>
      <trkpt lat="46.855" lon="-0.81998">
        <ele>197.1</ele>
        <time>2020-12-06T08:59:48Z</time>
      </trkpt>
      <trkpt lat="46.85498" lon="-0.81996">
        <ele>197.1</ele>
        <time>2020-12-06T08:59:51Z</time>
      </trkpt>
      <trkpt lat="46.85499" lon="-0.81993">
        <ele>197</ele>
        <time>2020-12-06T08:59:53Z</time>
      </trkpt>
      <trkpt lat="46.855" lon="-0.81994">
        <ele>197</ele>
        <time>2020-12-06T08:59:54Z</time>
      </trkpt>
      <trkpt lat="46.855" lon="-0.81999">
        <ele>196.9</ele>
        <time>2020-12-06T08:59:57Z</time>
      </trkpt>
      <trkpt lat="46.85498" lon="-0.82003">
        <ele>196.8</ele>
        <time>2020-12-06T08:59:59Z</time>
      </trkpt>
      <trkpt lat="46.85496" lon="-0.82">
        <ele>196.7</ele>
        <time>2020-12-06T09:00:01Z</time>
      </trkpt>
      <trkpt lat="46.85499" lon="-0.81997">
        <ele>196.6</ele>
        <time>2020-12-06T09:00:04Z</time>
      </trkpt>
      <trkpt lat="46.855" lon="-0.81999">
        <ele>196.6</ele>
        <time>2020-12-06T09:00:05Z</time>
      </trkpt>
      <trkpt lat="46.85497" lon="-0.82003">
        <ele>196.5</ele>
        <time>2020-12-06T09:00:08Z</time>
      </trkpt>
      <trkpt lat="46.85486" lon="-0.82005">
        <ele>193.8</ele>
        <time>2020-12-06T09:00:12Z</time>
      </trkpt>
      <trkpt lat="46.85475" lon="-0.82001">
        <ele>192.6</ele>
        <time>2020-12-06T09:00:16Z</time>
      </trkpt>
      <trkpt lat="46.85463" lon="-0.82002">
        <ele>191.1</ele>
        <time>2020-12-06T09:00:19Z</time>
      </trkpt>
      <trkpt lat="46.85458" lon="-0.82002">
        <ele>190.3</ele>
        <time>2020-12-06T09:00:20Z</time>
      </trkpt>
      <trkpt lat="46.85453" lon="-0.82002">
        <ele>189.6</ele>
        <time>2020-12-06T09:00:21Z</time>
      </trkpt>
      <trkpt lat="46.85442" lon="-0.82005">
        <ele>189</ele>
        <time>2020-12-06T09:00:24Z</time>
      </trkpt>
      <trkpt lat="46.85433" lon="-0.82007">
        <ele>187.6</ele>
        <time>2020-12-06T09:00:27Z</time>
      </trkpt>
      <trkpt lat="46.85431" lon="-0.82009">
        <ele>187.2</ele>
        <time>2020-12-06T09:00:28Z</time>
      </trkpt>
      <trkpt lat="46.85429" lon="-0.8201">
        <ele>187.1</ele>
        <time>2020-12-06T09:00:29Z</time>
      </trkpt>
      <trkpt lat="46.85426" lon="-0.82016">
        <ele>186</ele>
        <time>2020-12-06T09:00:32Z</time>
      </trkpt>
      <trkpt lat="46.85425" lon="-0.82018">
        <ele>185.9</ele>
        <time>2020-12-06T09:00:33Z</time>
      </trkpt>
      <trkpt lat="46.85422" lon="-0.82022">
        <ele>185.3</ele>
        <time>2020-12-06T09:00:35Z</time>
      </trkpt>
      <trkpt lat="46.8542" lon="-0.82024">
        <ele>184.6</ele>
        <time>2020-12-06T09:00:36Z</time>
      </trkpt>
      <trkpt lat="46.85414" lon="-0.82028">
        <ele>183.4</ele>
        <time>2020-12-06T09:00:40Z</time>
      </trkpt>
      <trkpt lat="46.85413" lon="-0.82028">
        <ele>183.3</ele>
        <time>2020-12-06T09:00:41Z</time>
      </trkpt>
      <trkpt lat="46.8541" lon="-0.82027">
        <ele>182.7</ele>
        <time>2020-12-06T09:00:43Z</time>
      </trkpt>
      <trkpt lat="46.85407" lon="-0.82022">
        <ele>182.2</ele>
        <time>2020-12-06T09:00:45Z</time>
      </trkpt>
      <trkpt lat="46.85406" lon="-0.82019">
        <ele>182.2</ele>
        <time>2020-12-06T09:00:48Z</time>
      </trkpt>
      <trkpt lat="46.85391" lon="-0.8201">
        <ele>179</ele>
        <time>2020-12-06T09:01:23Z</time>
      </trkpt>
      <trkpt lat="46.85381" lon="-0.82003">
        <ele>177</ele>
        <time>2020-12-06T09:01:26Z</time>
      </trkpt>
      <trkpt lat="46.85377" lon="-0.81999">
        <ele>176.5</ele>
        <time>2020-12-06T09:01:27Z</time>
      </trkpt>
      <trkpt lat="46.85366" lon="-0.81987">
        <ele>174.1</ele>
        <time>2020-12-06T09:01:30Z</time>
      </trkpt>
      <trkpt lat="46.85362" lon="-0.81986">
        <ele>173.2</ele>
        <time>2020-12-06T09:01:31Z</time>
      </trkpt>
      <trkpt lat="46.85355" lon="-0.81986">
        <ele>170.8</ele>
        <time>2020-12-06T09:01:33Z</time>
      </trkpt>
      <trkpt lat="46.8535" lon="-0.8199">
        <ele>170</ele>
        <time>2020-12-06T09:01:35Z</time>
      </trkpt>
      <trkpt lat="46.85331" lon="-0.82002">
        <ele>165.8</ele>
        <time>2020-12-06T09:01:42Z</time>
      </trkpt>
      <trkpt lat="46.85316" lon="-0.82012">
        <ele>163.1</ele>
        <time>2020-12-06T09:01:47Z</time>
      </trkpt>
      <trkpt lat="46.85303" lon="-0.82022">
        <ele>160.7</ele>
        <time>2020-12-06T09:01:52Z</time>
      </trkpt>
      <trkpt lat="46.85299" lon="-0.82025">
        <ele>160.1</ele>
        <time>2020-12-06T09:01:53Z</time>
      </trkpt>
      <trkpt lat="46.85282" lon="-0.82043">
        <ele>157.5</ele>
        <time>2020-12-06T09:01:57Z</time>
      </trkpt>
      <trkpt lat="46.85268" lon="-0.82055">
        <ele>155.4</ele>
        <time>2020-12-06T09:02:01Z</time>
      </trkpt>
      <trkpt lat="46.8526" lon="-0.82055">
        <ele>154.9</ele>
        <time>2020-12-06T09:02:03Z</time>
      </trkpt>
      <trkpt lat="46.85256" lon="-0.82055">
        <ele>154.3</ele>
        <time>2020-12-06T09:02:04Z</time>
      </trkpt>
      <trkpt lat="46.85239" lon="-0.82053">
        <ele>153.2</ele>
        <time>2020-12-06T09:02:08Z</time>
      </trkpt>
      <trkpt lat="46.85234" lon="-0.82051">
        <ele>153.1</ele>
        <time>2020-12-06T09:02:09Z</time>
      </trkpt>
      <trkpt lat="46.85231" lon="-0.82048">
        <ele>152.9</ele>
        <time>2020-12-06T09:02:10Z</time>
      </trkpt>
      <trkpt lat="46.85225" lon="-0.82038">
        <ele>152.8</ele>
        <time>2020-12-06T09:02:12Z</time>
      </trkpt>
      <trkpt lat="46.85206" lon="-0.82012">
        <ele>152.6</ele>
        <time>2020-12-06T09:02:18Z</time>
      </trkpt>
      <trkpt lat="46.852" lon="-0.82005">
        <ele>152.5</ele>
        <time>2020-12-06T09:02:20Z</time>
      </trkpt>
      <trkpt lat="46.85193" lon="-0.81998">
        <ele>152.5</ele>
        <time>2020-12-06T09:02:22Z</time>
      </trkpt>
      <trkpt lat="46.85186" lon="-0.81991">
        <ele>152.4</ele>
        <time>2020-12-06T09:02:24Z</time>
      </trkpt>
      <trkpt lat="46.8518" lon="-0.81984">
        <ele>152.3</ele>
        <time>2020-12-06T09:02:26Z</time>
      </trkpt>
      <trkpt lat="46.85167" lon="-0.81969">
        <ele>152.2</ele>
        <time>2020-12-06T09:02:30Z</time>
      </trkpt>
      <trkpt lat="46.85161" lon="-0.81962">
        <ele>152.3</ele>
        <time>2020-12-06T09:02:32Z</time>
      </trkpt>
      <trkpt lat="46.85153" lon="-0.81961">
        <ele>152.2</ele>
        <time>2020-12-06T09:02:34Z</time>
      </trkpt>
      <trkpt lat="46.85146" lon="-0.81968">
        <ele>152</ele>
        <time>2020-12-06T09:02:36Z</time>
      </trkpt>
      <trkpt lat="46.85143" lon="-0.81972">
        <ele>152</ele>
        <time>2020-12-06T09:02:37Z</time>
      </trkpt>
      <trkpt lat="46.85141" lon="-0.81978">
        <ele>151.9</ele>
        <time>2020-12-06T09:02:38Z</time>
      </trkpt>
      <trkpt lat="46.8513" lon="-0.82">
        <ele>151.5</ele>
        <time>2020-12-06T09:02:42Z</time>
      </trkpt>
      <trkpt lat="46.85112" lon="-0.82037">
        <ele>150.8</ele>
        <time>2020-12-06T09:02:48Z</time>
      </trkpt>
      <trkpt lat="46.85103" lon="-0.82053">
        <ele>150.9</ele>
        <time>2020-12-06T09:02:51Z</time>
      </trkpt>
      <trkpt lat="46.85098" lon="-0.82061">
        <ele>150.9</ele>
        <time>2020-12-06T09:02:53Z</time>
      </trkpt>
      <trkpt lat="46.85083" lon="-0.82088">
        <ele>150.9</ele>
        <time>2020-12-06T09:02:59Z</time>
      </trkpt>
      <trkpt lat="46.85073" lon="-0.82106">
        <ele>150.8</ele>
        <time>2020-12-06T09:03:03Z</time>
      </trkpt>
      <trkpt lat="46.85064" lon="-0.82119">
        <ele>150.8</ele>
        <time>2020-12-06T09:03:06Z</time>
      </trkpt>
      <trkpt lat="46.85053" lon="-0.82125">
        <ele>150.7</ele>
        <time>2020-12-06T09:03:09Z</time>
      </trkpt>
      <trkpt lat="46.85036" lon="-0.82117">
        <ele>150.5</ele>
        <time>2020-12-06T09:03:13Z</time>
      </trkpt>
      <trkpt lat="46.85009" lon="-0.82096">
        <ele>150.3</ele>
        <time>2020-12-06T09:03:20Z</time>
      </trkpt>
      <trkpt lat="46.84998" lon="-0.82086">
        <ele>150.1</ele>
        <time>2020-12-06T09:03:23Z</time>
      </trkpt>
      <trkpt lat="46.84987" lon="-0.82077">
        <ele>150.1</ele>
        <time>2020-12-06T09:03:26Z</time>
      </trkpt>
      <trkpt lat="46.84967" lon="-0.82062">
        <ele>150.2</ele>
        <time>2020-12-06T09:03:32Z</time>
      </trkpt>
      <trkpt lat="46.84953" lon="-0.82067">
        <ele>150</ele>
        <time>2020-12-06T09:03:36Z</time>
      </trkpt>
      <trkpt lat="46.8495" lon="-0.82071">
        <ele>150</ele>
        <time>2020-12-06T09:03:37Z</time>
      </trkpt>
      <trkpt lat="46.84941" lon="-0.82084">
        <ele>150.1</ele>
        <time>2020-12-06T09:03:40Z</time>
      </trkpt>
      <trkpt lat="46.84939" lon="-0.8209">
        <ele>150.1</ele>
        <time>2020-12-06T09:03:41Z</time>
      </trkpt>
      <trkpt lat="46.84933" lon="-0.82111">
        <ele>150.2</ele>
        <time>2020-12-06T09:03:45Z</time>
      </trkpt>
      <trkpt lat="46.84924" lon="-0.82141">
        <ele>150.4</ele>
        <time>2020-12-06T09:03:51Z</time>
      </trkpt>
      <trkpt lat="46.84917" lon="-0.82165">
        <ele>150.6</ele>
        <time>2020-12-06T09:03:56Z</time>
      </trkpt>
      <trkpt lat="46.84909" lon="-0.82196">
        <ele>150.8</ele>
        <time>2020-12-06T09:04:02Z</time>
      </trkpt>
      <trkpt lat="46.84901" lon="-0.82225">
        <ele>151.1</ele>
        <time>2020-12-06T09:04:08Z</time>
      </trkpt>
      <trkpt lat="46.84892" lon="-0.82256">
        <ele>151.6</ele>
        <time>2020-12-06T09:04:14Z</time>
      </trkpt>
      <trkpt lat="46.84883" lon="-0.82286">
        <ele>152.1</ele>
        <time>2020-12-06T09:04:20Z</time>
      </trkpt>
      <trkpt lat="46.84873" lon="-0.82323">
        <ele>152.3</ele>
        <time>2020-12-06T09:04:27Z</time>
      </trkpt>
      <trkpt lat="46.84864" lon="-0.8236">
        <ele>152.2</ele>
        <time>2020-12-06T09:04:34Z</time>
      </trkpt>
      <trkpt lat="46.84864" lon="-0.82372">
        <ele>152.2</ele>
        <time>2020-12-06T09:04:36Z</time>
      </trkpt>
      <trkpt lat="46.84869" lon="-0.82389">
        <ele>152.2</ele>
        <time>2020-12-06T09:04:39Z</time>
      </trkpt>
      <trkpt lat="46.84873" lon="-0.82401">
        <ele>152.1</ele>
        <time>2020-12-06T09:04:41Z</time>
      </trkpt>
      <trkpt lat="46.84882" lon="-0.82423">
        <ele>152</ele>
        <time>2020-12-06T09:04:45Z</time>
      </trkpt>
      <trkpt lat="46.84883" lon="-0.82429">
        <ele>152</ele>
        <time>2020-12-06T09:04:46Z</time>
      </trkpt>
      <trkpt lat="46.84883" lon="-0.82446">
        <ele>152.1</ele>
        <time>2020-12-06T09:04:49Z</time>
      </trkpt>
      <trkpt lat="46.84876" lon="-0.82455">
        <ele>151.9</ele>
        <time>2020-12-06T09:04:51Z</time>
      </trkpt>
      <trkpt lat="46.8487" lon="-0.82456">
        <ele>151.8</ele>
        <time>2020-12-06T09:04:52Z</time>
      </trkpt>
      <trkpt lat="46.84865" lon="-0.82456">
        <ele>151.7</ele>
        <time>2020-12-06T09:04:53Z</time>
      </trkpt>
      <trkpt lat="46.8485" lon="-0.82448">
        <ele>151.7</ele>
        <time>2020-12-06T09:04:56Z</time>
      </trkpt>
      <trkpt lat="46.84845" lon="-0.82445">
        <ele>151.7</ele>
        <time>2020-12-06T09:04:57Z</time>
      </trkpt>
      <trkpt lat="46.84835" lon="-0.82436">
        <ele>151.6</ele>
        <time>2020-12-06T09:05:00Z</time>
      </trkpt>
      <trkpt lat="46.84832" lon="-0.82432">
        <ele>151.6</ele>
        <time>2020-12-06T09:05:01Z</time>
      </trkpt>
      <trkpt lat="46.84822" lon="-0.82419">
        <ele>151.7</ele>
        <time>2020-12-06T09:05:04Z</time>
      </trkpt>
      <trkpt lat="46.84804" lon="-0.82399">
        <ele>151.7</ele>
        <time>2020-12-06T09:05:09Z</time>
      </trkpt>
      <trkpt lat="46.84791" lon="-0.82381">
        <ele>151.6</ele>
        <time>2020-12-06T09:05:13Z</time>
      </trkpt>
      <trkpt lat="46.84787" lon="-0.82375">
        <ele>151.5</ele>
        <time>2020-12-06T09:05:14Z</time>
      </trkpt>
      <trkpt lat="46.84778" lon="-0.82355">
        <ele>151.3</ele>
        <time>2020-12-06T09:05:17Z</time>
      </trkpt>
      <trkpt lat="46.84768" lon="-0.82347">
        <ele>151.4</ele>
        <time>2020-12-06T09:05:19Z</time>
      </trkpt>
      <trkpt lat="46.8476" lon="-0.82352">
        <ele>151.4</ele>
        <time>2020-12-06T09:05:21Z</time>
      </trkpt>
      <trkpt lat="46.84756" lon="-0.82357">
        <ele>151.4</ele>
        <time>2020-12-06T09:05:22Z</time>
      </trkpt>
      <trkpt lat="46.84746" lon="-0.82373">
        <ele>151.3</ele>
        <time>2020-12-06T09:05:25Z</time>
      </trkpt>
      <trkpt lat="46.84735" lon="-0.82397">
        <ele>151.4</ele>
        <time>2020-12-06T09:05:29Z</time>
      </trkpt>
      <trkpt lat="46.84726" lon="-0.82414">
        <ele>151.7</ele>
        <time>2020-12-06T09:05:32Z</time>
      </trkpt>
      <trkpt lat="46.84718" lon="-0.82423">
        <ele>151.9</ele>
        <time>2020-12-06T09:05:34Z</time>
      </trkpt>
      <trkpt lat="46.84709" lon="-0.82427">
        <ele>152</ele>
        <time>2020-12-06T09:05:36Z</time>
      </trkpt>
      <trkpt lat="46.84699" lon="-0.82429">
        <ele>152.2</ele>
        <time>2020-12-06T09:05:38Z</time>
      </trkpt>
      <trkpt lat="46.84688" lon="-0.8243">
        <ele>152.3</ele>
        <time>2020-12-06T09:05:40Z</time>
      </trkpt>
      <trkpt lat="46.84673" lon="-0.82432">
        <ele>152.6</ele>
        <time>2020-12-06T09:05:43Z</time>
      </trkpt>
      <trkpt lat="46.84668" lon="-0.82432">
        <ele>152.7</ele>
        <time>2020-12-06T09:05:44Z</time>
      </trkpt>
      <trkpt lat="46.84662" lon="-0.82431">
        <ele>152.7</ele>
        <time>2020-12-06T09:05:45Z</time>
      </trkpt>
      <trkpt lat="46.84638" lon="-0.82423">
        <ele>153.4</ele>
        <time>2020-12-06T09:05:50Z</time>
      </trkpt>
      <trkpt lat="46.84623" lon="-0.82418">
        <ele>153.7</ele>
        <time>2020-12-06T09:05:53Z</time>
      </trkpt>
      <trkpt lat="46.84614" lon="-0.82415">
        <ele>153.8</ele>
        <time>2020-12-06T09:05:55Z</time>
      </trkpt>
      <trkpt lat="46.84576" lon="-0.82404">
        <ele>154.4</ele>
        <time>2020-12-06T09:06:03Z</time>
      </trkpt>
      <trkpt lat="46.84548" lon="-0.82397">
        <ele>154.8</ele>
        <time>2020-12-06T09:06:09Z</time>
      </trkpt>
      <trkpt lat="46.84543" lon="-0.82396">
        <ele>154.8</ele>
        <time>2020-12-06T09:06:10Z</time>
      </trkpt>
      <trkpt lat="46.84526" lon="-0.82391">
        <ele>154.9</ele>
        <time>2020-12-06T09:06:14Z</time>
      </trkpt>
      <trkpt lat="46.84521" lon="-0.8239">
        <ele>155</ele>
        <time>2020-12-06T09:06:15Z</time>
      </trkpt>
      <trkpt lat="46.84514" lon="-0.82393">
        <ele>155</ele>
        <time>2020-12-06T09:06:17Z</time>
      </trkpt>
      <trkpt lat="46.84511" lon="-0.82397">
        <ele>155.1</ele>
        <time>2020-12-06T09:06:18Z</time>
      </trkpt>
      <trkpt lat="46.84504" lon="-0.82414">
        <ele>155.3</ele>
        <time>2020-12-06T09:06:23Z</time>
      </trkpt>
      <trkpt lat="46.84498" lon="-0.82434">
        <ele>155.3</ele>
        <time>2020-12-06T09:06:28Z</time>
      </trkpt>
      <trkpt lat="46.84492" lon="-0.82462">
        <ele>155.2</ele>
        <time>2020-12-06T09:06:34Z</time>
      </trkpt>
      <trkpt lat="46.84485" lon="-0.82488">
        <ele>154.8</ele>
        <time>2020-12-06T09:06:39Z</time>
      </trkpt>
      <trkpt lat="46.84473" lon="-0.82535">
        <ele>153.6</ele>
        <time>2020-12-06T09:06:48Z</time>
      </trkpt>
      <trkpt lat="46.84473" lon="-0.82559">
        <ele>153.2</ele>
        <time>2020-12-06T09:06:53Z</time>
      </trkpt>
      <trkpt lat="46.84473" lon="-0.82595">
        <ele>152.5</ele>
        <time>2020-12-06T09:07:00Z</time>
      </trkpt>
      <trkpt lat="46.84464" lon="-0.82621">
        <ele>152.1</ele>
        <time>2020-12-06T09:07:06Z</time>
      </trkpt>
      <trkpt lat="46.84453" lon="-0.82651">
        <ele>152.1</ele>
        <time>2020-12-06T09:07:13Z</time>
      </trkpt>
      <trkpt lat="46.84445" lon="-0.82672">
        <ele>152.6</ele>
        <time>2020-12-06T09:07:18Z</time>
      </trkpt>
      <trkpt lat="46.84436" lon="-0.82698">
        <ele>153.3</ele>
        <time>2020-12-06T09:07:24Z</time>
      </trkpt>
      <trkpt lat="46.84426" lon="-0.8272">
        <ele>154</ele>
        <time>2020-12-06T09:07:29Z</time>
      </trkpt>
      <trkpt lat="46.84412" lon="-0.82755">
        <ele>154.6</ele>
        <time>2020-12-06T09:07:37Z</time>
      </trkpt>
      <trkpt lat="46.84404" lon="-0.82785">
        <ele>155</ele>
        <time>2020-12-06T09:07:43Z</time>
      </trkpt>
      <trkpt lat="46.84394" lon="-0.82809">
        <ele>155.4</ele>
        <time>2020-12-06T09:07:48Z</time>
      </trkpt>
      <trkpt lat="46.84378" lon="-0.82822">
        <ele>156.1</ele>
        <time>2020-12-06T09:07:53Z</time>
      </trkpt>
      <trkpt lat="46.84361" lon="-0.82843">
        <ele>156.9</ele>
        <time>2020-12-06T09:07:59Z</time>
      </trkpt>
      <trkpt lat="46.84346" lon="-0.8286">
        <ele>157.6</ele>
        <time>2020-12-06T09:08:04Z</time>
      </trkpt>
      <trkpt lat="46.84326" lon="-0.82878">
        <ele>158.9</ele>
        <time>2020-12-06T09:08:11Z</time>
      </trkpt>
      <trkpt lat="46.8432" lon="-0.82879">
        <ele>159.2</ele>
        <time>2020-12-06T09:08:13Z</time>
      </trkpt>
      <trkpt lat="46.84317" lon="-0.82881">
        <ele>159.3</ele>
        <time>2020-12-06T09:08:15Z</time>
      </trkpt>
      <trkpt lat="46.84319" lon="-0.82893">
        <ele>159.6</ele>
        <time>2020-12-06T09:08:20Z</time>
      </trkpt>
      <trkpt lat="46.84324" lon="-0.82906">
        <ele>159</ele>
        <time>2020-12-06T09:08:25Z</time>
      </trkpt>
      <trkpt lat="46.84329" lon="-0.8292">
        <ele>158.4</ele>
        <time>2020-12-06T09:08:30Z</time>
      </trkpt>
      <trkpt lat="46.84339" lon="-0.82939">
        <ele>157.5</ele>
        <time>2020-12-06T09:08:37Z</time>
      </trkpt>
      <trkpt lat="46.84344" lon="-0.8295">
        <ele>156.9</ele>
        <time>2020-12-06T09:08:42Z</time>
      </trkpt>
      <trkpt lat="46.84346" lon="-0.82955">
        <ele>156.7</ele>
        <time>2020-12-06T09:08:47Z</time>
      </trkpt>
      <trkpt lat="46.84342" lon="-0.82947">
        <ele>157.1</ele>
        <time>2020-12-06T09:08:53Z</time>
      </trkpt>
      <trkpt lat="46.84341" lon="-0.82944">
        <ele>157.3</ele>
        <time>2020-12-06T09:08:54Z</time>
      </trkpt>
      <trkpt lat="46.8434" lon="-0.82941">
        <ele>157.4</ele>
        <time>2020-12-06T09:08:55Z</time>
      </trkpt>
      <trkpt lat="46.84332" lon="-0.82926">
        <ele>158.2</ele>
        <time>2020-12-06T09:09:00Z</time>
      </trkpt>
      <trkpt lat="46.84326" lon="-0.82909">
        <ele>158.9</ele>
        <time>2020-12-06T09:09:05Z</time>
      </trkpt>
      <trkpt lat="46.84322" lon="-0.82889">
        <ele>159.5</ele>
        <time>2020-12-06T09:09:09Z</time>
      </trkpt>
      <trkpt lat="46.84325" lon="-0.82885">
        <ele>159.3</ele>
        <time>2020-12-06T09:09:11Z</time>
      </trkpt>
      <trkpt lat="46.84332" lon="-0.82902">
        <ele>158.7</ele>
        <time>2020-12-06T09:09:15Z</time>
      </trkpt>
      <trkpt lat="46.8434" lon="-0.82917">
        <ele>157.9</ele>
        <time>2020-12-06T09:09:18Z</time>
      </trkpt>
      <trkpt lat="46.84347" lon="-0.8293">
        <ele>157.3</ele>
        <time>2020-12-06T09:09:20Z</time>
      </trkpt>
      <trkpt lat="46.84365" lon="-0.82952">
        <ele>156</ele>
        <time>2020-12-06T09:09:24Z</time>
      </trkpt>
      <trkpt lat="46.84389" lon="-0.82978">
        <ele>155</ele>
        <time>2020-12-06T09:09:29Z</time>
      </trkpt>
      <trkpt lat="46.84392" lon="-0.82982">
        <ele>154.9</ele>
        <time>2020-12-06T09:09:30Z</time>
      </trkpt>
      <trkpt lat="46.84395" lon="-0.82993">
        <ele>154.7</ele>
        <time>2020-12-06T09:09:32Z</time>
      </trkpt>
      <trkpt lat="46.84394" lon="-0.83023">
        <ele>154.7</ele>
        <time>2020-12-06T09:09:37Z</time>
      </trkpt>
      <trkpt lat="46.84392" lon="-0.83035">
        <ele>154.9</ele>
        <time>2020-12-06T09:09:39Z</time>
      </trkpt>
      <trkpt lat="46.84387" lon="-0.83046">
        <ele>155</ele>
        <time>2020-12-06T09:09:41Z</time>
      </trkpt>
      <trkpt lat="46.8438" lon="-0.83063">
        <ele>155.2</ele>
        <time>2020-12-06T09:09:45Z</time>
      </trkpt>
      <trkpt lat="46.84378" lon="-0.83093">
        <ele>155.4</ele>
        <time>2020-12-06T09:09:51Z</time>
      </trkpt>
      <trkpt lat="46.84378" lon="-0.83128">
        <ele>155.7</ele>
        <time>2020-12-06T09:09:58Z</time>
      </trkpt>
      <trkpt lat="46.84377" lon="-0.83155">
        <ele>156</ele>
        <time>2020-12-06T09:10:03Z</time>
      </trkpt>
      <trkpt lat="46.84377" lon="-0.83183">
        <ele>156.7</ele>
        <time>2020-12-06T09:10:08Z</time>
      </trkpt>
      <trkpt lat="46.84376" lon="-0.83206">
        <ele>157.5</ele>
        <time>2020-12-06T09:10:13Z</time>
      </trkpt>
      <trkpt lat="46.84373" lon="-0.83223">
        <ele>158.3</ele>
        <time>2020-12-06T09:10:17Z</time>
      </trkpt>
      <trkpt lat="46.84372" lon="-0.83227">
        <ele>158.5</ele>
        <time>2020-12-06T09:10:18Z</time>
      </trkpt>
      <trkpt lat="46.84371" lon="-0.83245">
        <ele>159.4</ele>
        <time>2020-12-06T09:10:23Z</time>
      </trkpt>
      <trkpt lat="46.84371" lon="-0.83249">
        <ele>159.6</ele>
        <time>2020-12-06T09:10:24Z</time>
      </trkpt>
      <trkpt lat="46.84371" lon="-0.83255">
        <ele>159.9</ele>
        <time>2020-12-06T09:10:26Z</time>
      </trkpt>
      <trkpt lat="46.84372" lon="-0.83278">
        <ele>160.8</ele>
        <time>2020-12-06T09:10:31Z</time>
      </trkpt>
      <trkpt lat="46.84382" lon="-0.83304">
        <ele>161.6</ele>
        <time>2020-12-06T09:10:37Z</time>
      </trkpt>
      <trkpt lat="46.84394" lon="-0.83329">
        <ele>162.4</ele>
        <time>2020-12-06T09:10:43Z</time>
      </trkpt>
      <trkpt lat="46.84405" lon="-0.83364">
        <ele>163</ele>
        <time>2020-12-06T09:10:50Z</time>
      </trkpt>
      <trkpt lat="46.84409" lon="-0.83385">
        <ele>162.9</ele>
        <time>2020-12-06T09:10:55Z</time>
      </trkpt>
      <trkpt lat="46.84412" lon="-0.83406">
        <ele>162.8</ele>
        <time>2020-12-06T09:11:00Z</time>
      </trkpt>
      <trkpt lat="46.84415" lon="-0.83428">
        <ele>162.7</ele>
        <time>2020-12-06T09:11:06Z</time>
      </trkpt>
      <trkpt lat="46.84417" lon="-0.83434">
        <ele>162.9</ele>
        <time>2020-12-06T09:11:08Z</time>
      </trkpt>
      <trkpt lat="46.84415" lon="-0.83437">
        <ele>163.5</ele>
        <time>2020-12-06T09:11:10Z</time>
      </trkpt>
      <trkpt lat="46.84406" lon="-0.8344">
        <ele>164.2</ele>
        <time>2020-12-06T09:11:15Z</time>
      </trkpt>
      <trkpt lat="46.84398" lon="-0.83436">
        <ele>164.8</ele>
        <time>2020-12-06T09:11:20Z</time>
      </trkpt>
      <trkpt lat="46.84393" lon="-0.83431">
        <ele>164.3</ele>
        <time>2020-12-06T09:11:24Z</time>
      </trkpt>
      <trkpt lat="46.84387" lon="-0.83425">
        <ele>164.3</ele>
        <time>2020-12-06T09:11:28Z</time>
      </trkpt>
      <trkpt lat="46.84381" lon="-0.83417">
        <ele>164.1</ele>
        <time>2020-12-06T09:11:32Z</time>
      </trkpt>
      <trkpt lat="46.84373" lon="-0.83405">
        <ele>163.7</ele>
        <time>2020-12-06T09:11:37Z</time>
      </trkpt>
      <trkpt lat="46.8437" lon="-0.83395">
        <ele>163.7</ele>
        <time>2020-12-06T09:11:41Z</time>
      </trkpt>
      <trkpt lat="46.84371" lon="-0.83393">
        <ele>163.6</ele>
        <time>2020-12-06T09:11:42Z</time>
      </trkpt>
      <trkpt lat="46.84372" lon="-0.83391">
        <ele>163.6</ele>
        <time>2020-12-06T09:11:43Z</time>
      </trkpt>
      <trkpt lat="46.84374" lon="-0.83393">
        <ele>163.3</ele>
        <time>2020-12-06T09:11:45Z</time>
      </trkpt>
      <trkpt lat="46.84374" lon="-0.83395">
        <ele>163.5</ele>
        <time>2020-12-06T09:11:46Z</time>
      </trkpt>
      <trkpt lat="46.84371" lon="-0.83393">
        <ele>163.9</ele>
        <time>2020-12-06T09:11:49Z</time>
      </trkpt>
      <trkpt lat="46.84368" lon="-0.83394">
        <ele>164.3</ele>
        <time>2020-12-06T09:11:51Z</time>
      </trkpt>
      <trkpt lat="46.84367" lon="-0.83398">
        <ele>164.5</ele>
        <time>2020-12-06T09:11:53Z</time>
      </trkpt>
      <trkpt lat="46.84371" lon="-0.83405">
        <ele>164.4</ele>
        <time>2020-12-06T09:11:56Z</time>
      </trkpt>
      <trkpt lat="46.84374" lon="-0.83408">
        <ele>164.4</ele>
        <time>2020-12-06T09:11:57Z</time>
      </trkpt>
      <trkpt lat="46.84376" lon="-0.83414">
        <ele>164.5</ele>
        <time>2020-12-06T09:11:59Z</time>
      </trkpt>
      <trkpt lat="46.84375" lon="-0.83416">
        <ele>165.2</ele>
        <time>2020-12-06T09:12:00Z</time>
      </trkpt>
      <trkpt lat="46.84374" lon="-0.83417">
        <ele>165.2</ele>
        <time>2020-12-06T09:12:01Z</time>
      </trkpt>
      <trkpt lat="46.8437" lon="-0.83424">
        <ele>166.3</ele>
        <time>2020-12-06T09:12:04Z</time>
      </trkpt>
      <trkpt lat="46.84359" lon="-0.83436">
        <ele>169.1</ele>
        <time>2020-12-06T09:12:09Z</time>
      </trkpt>
      <trkpt lat="46.84347" lon="-0.8345">
        <ele>171.9</ele>
        <time>2020-12-06T09:12:14Z</time>
      </trkpt>
      <trkpt lat="46.84344" lon="-0.83453">
        <ele>172.2</ele>
        <time>2020-12-06T09:12:15Z</time>
      </trkpt>
      <trkpt lat="46.84333" lon="-0.8346">
        <ele>173.5</ele>
        <time>2020-12-06T09:12:18Z</time>
      </trkpt>
      <trkpt lat="46.84315" lon="-0.83473">
        <ele>174</ele>
        <time>2020-12-06T09:12:22Z</time>
      </trkpt>
      <trkpt lat="46.84311" lon="-0.83471">
        <ele>174</ele>
        <time>2020-12-06T09:12:23Z</time>
      </trkpt>
      <trkpt lat="46.84295" lon="-0.83457">
        <ele>173.5</ele>
        <time>2020-12-06T09:12:28Z</time>
      </trkpt>
      <trkpt lat="46.84284" lon="-0.83459">
        <ele>173.3</ele>
        <time>2020-12-06T09:12:32Z</time>
      </trkpt>
      <trkpt lat="46.84277" lon="-0.83468">
        <ele>173.2</ele>
        <time>2020-12-06T09:12:36Z</time>
      </trkpt>
      <trkpt lat="46.84267" lon="-0.83482">
        <ele>172.7</ele>
        <time>2020-12-06T09:12:41Z</time>
      </trkpt>
      <trkpt lat="46.8425" lon="-0.83505">
        <ele>171.1</ele>
        <time>2020-12-06T09:12:46Z</time>
      </trkpt>
      <trkpt lat="46.84236" lon="-0.83519">
        <ele>169.4</ele>
        <time>2020-12-06T09:12:50Z</time>
      </trkpt>
      <trkpt lat="46.84231" lon="-0.83524">
        <ele>168.9</ele>
        <time>2020-12-06T09:12:54Z</time>
      </trkpt>
      <trkpt lat="46.84211" lon="-0.83525">
        <ele>167.9</ele>
        <time>2020-12-06T09:13:28Z</time>
      </trkpt>
      <trkpt lat="46.84205" lon="-0.83524">
        <ele>167.8</ele>
        <time>2020-12-06T09:13:30Z</time>
      </trkpt>
      <trkpt lat="46.84191" lon="-0.8352">
        <ele>167.5</ele>
        <time>2020-12-06T09:13:35Z</time>
      </trkpt>
      <trkpt lat="46.84177" lon="-0.83515">
        <ele>167.4</ele>
        <time>2020-12-06T09:13:39Z</time>
      </trkpt>
      <trkpt lat="46.8416" lon="-0.83508">
        <ele>167.5</ele>
        <time>2020-12-06T09:13:45Z</time>
      </trkpt>
      <trkpt lat="46.84154" lon="-0.83506">
        <ele>167.5</ele>
        <time>2020-12-06T09:13:51Z</time>
      </trkpt>
      <trkpt lat="46.84154" lon="-0.83506">
        <ele>167.5</ele>
        <time>2020-12-06T09:13:52Z</time>
      </trkpt>
      <trkpt lat="46.84143" lon="-0.83503">
        <ele>167.7</ele>
        <time>2020-12-06T09:14:15Z</time>
      </trkpt>
      <trkpt lat="46.84139" lon="-0.83502">
        <ele>167.7</ele>
        <time>2020-12-06T09:14:17Z</time>
      </trkpt>
      <trkpt lat="46.84125" lon="-0.83498">
        <ele>167.9</ele>
        <time>2020-12-06T09:14:21Z</time>
      </trkpt>
      <trkpt lat="46.84103" lon="-0.83489">
        <ele>168.1</ele>
        <time>2020-12-06T09:14:28Z</time>
      </trkpt>
      <trkpt lat="46.8409" lon="-0.83483">
        <ele>168.2</ele>
        <time>2020-12-06T09:14:33Z</time>
      </trkpt>
      <trkpt lat="46.84078" lon="-0.83477">
        <ele>168.2</ele>
        <time>2020-12-06T09:14:37Z</time>
      </trkpt>
      <trkpt lat="46.84064" lon="-0.83462">
        <ele>168.4</ele>
        <time>2020-12-06T09:14:43Z</time>
      </trkpt>
      <trkpt lat="46.84056" lon="-0.83452">
        <ele>168.7</ele>
        <time>2020-12-06T09:14:48Z</time>
      </trkpt>
      <trkpt lat="46.84049" lon="-0.83446">
        <ele>168.9</ele>
        <time>2020-12-06T09:14:52Z</time>
      </trkpt>
      <trkpt lat="46.84037" lon="-0.83434">
        <ele>169.3</ele>
        <time>2020-12-06T09:14:57Z</time>
      </trkpt>
      <trkpt lat="46.84025" lon="-0.83419">
        <ele>169.7</ele>
        <time>2020-12-06T09:15:03Z</time>
      </trkpt>
      <trkpt lat="46.84012" lon="-0.83402">
        <ele>170.2</ele>
        <time>2020-12-06T09:15:10Z</time>
      </trkpt>
      <trkpt lat="46.84003" lon="-0.83388">
        <ele>170.7</ele>
        <time>2020-12-06T09:15:15Z</time>
      </trkpt>
      <trkpt lat="46.83995" lon="-0.83378">
        <ele>171.1</ele>
        <time>2020-12-06T09:15:20Z</time>
      </trkpt>
      <trkpt lat="46.83987" lon="-0.83366">
        <ele>171.3</ele>
        <time>2020-12-06T09:15:25Z</time>
      </trkpt>
      <trkpt lat="46.83978" lon="-0.8335">
        <ele>171.5</ele>
        <time>2020-12-06T09:15:30Z</time>
      </trkpt>
      <trkpt lat="46.83971" lon="-0.83335">
        <ele>171.7</ele>
        <time>2020-12-06T09:15:35Z</time>
      </trkpt>
      <trkpt lat="46.8397" lon="-0.8333">
        <ele>171.7</ele>
        <time>2020-12-06T09:15:39Z</time>
      </trkpt>
      <trkpt lat="46.8397" lon="-0.83331">
        <ele>171.7</ele>
        <time>2020-12-06T09:15:40Z</time>
      </trkpt>
      <trkpt lat="46.83971" lon="-0.8334">
        <ele>171.9</ele>
        <time>2020-12-06T09:15:45Z</time>
      </trkpt>
      <trkpt lat="46.83972" lon="-0.83343">
        <ele>171.9</ele>
        <time>2020-12-06T09:15:46Z</time>
      </trkpt>
      <trkpt lat="46.83975" lon="-0.83349">
        <ele>172</ele>
        <time>2020-12-06T09:15:48Z</time>
      </trkpt>
      <trkpt lat="46.83977" lon="-0.83354">
        <ele>172.1</ele>
        <time>2020-12-06T09:15:50Z</time>
      </trkpt>
      <trkpt lat="46.83977" lon="-0.83357">
        <ele>172.1</ele>
        <time>2020-12-06T09:15:51Z</time>
      </trkpt>
      <trkpt lat="46.83968" lon="-0.83364">
        <ele>172.3</ele>
        <time>2020-12-06T09:15:55Z</time>
      </trkpt>
      <trkpt lat="46.8395" lon="-0.83376">
        <ele>172.9</ele>
        <time>2020-12-06T09:16:02Z</time>
      </trkpt>
      <trkpt lat="46.83937" lon="-0.83385">
        <ele>173.6</ele>
        <time>2020-12-06T09:16:08Z</time>
      </trkpt>
      <trkpt lat="46.83927" lon="-0.8339">
        <ele>174</ele>
        <time>2020-12-06T09:16:12Z</time>
      </trkpt>
      <trkpt lat="46.83923" lon="-0.83393">
        <ele>174.1</ele>
        <time>2020-12-06T09:16:14Z</time>
      </trkpt>
      <trkpt lat="46.83906" lon="-0.83403">
        <ele>174.6</ele>
        <time>2020-12-06T09:16:21Z</time>
      </trkpt>
      <trkpt lat="46.83892" lon="-0.8341">
        <ele>175</ele>
        <time>2020-12-06T09:16:26Z</time>
      </trkpt>
      <trkpt lat="46.83884" lon="-0.83417">
        <ele>175.3</ele>
        <time>2020-12-06T09:16:30Z</time>
      </trkpt>
      <trkpt lat="46.83872" lon="-0.83421">
        <ele>175.6</ele>
        <time>2020-12-06T09:16:35Z</time>
      </trkpt>
      <trkpt lat="46.83861" lon="-0.83426">
        <ele>176</ele>
        <time>2020-12-06T09:16:40Z</time>
      </trkpt>
      <trkpt lat="46.8385" lon="-0.83429">
        <ele>176.3</ele>
        <time>2020-12-06T09:16:45Z</time>
      </trkpt>
      <trkpt lat="46.83839" lon="-0.83433">
        <ele>176.7</ele>
        <time>2020-12-06T09:16:50Z</time>
      </trkpt>
      <trkpt lat="46.83833" lon="-0.83435">
        <ele>177</ele>
        <time>2020-12-06T09:16:53Z</time>
      </trkpt>
      <trkpt lat="46.8383" lon="-0.83435">
        <ele>177.1</ele>
        <time>2020-12-06T09:16:54Z</time>
      </trkpt>
      <trkpt lat="46.83812" lon="-0.83438">
        <ele>177.4</ele>
        <time>2020-12-06T09:17:01Z</time>
      </trkpt>
      <trkpt lat="46.838" lon="-0.83443">
        <ele>177.3</ele>
        <time>2020-12-06T09:17:06Z</time>
      </trkpt>
      <trkpt lat="46.83786" lon="-0.83443">
        <ele>177</ele>
        <time>2020-12-06T09:17:11Z</time>
      </trkpt>
      <trkpt lat="46.8377" lon="-0.83437">
        <ele>176.6</ele>
        <time>2020-12-06T09:17:16Z</time>
      </trkpt>
      <trkpt lat="46.83754" lon="-0.83432">
        <ele>176.2</ele>
        <time>2020-12-06T09:17:21Z</time>
      </trkpt>
      <trkpt lat="46.83733" lon="-0.83427">
        <ele>175.7</ele>
        <time>2020-12-06T09:17:27Z</time>
      </trkpt>
      <trkpt lat="46.83726" lon="-0.83426">
        <ele>175.6</ele>
        <time>2020-12-06T09:17:29Z</time>
      </trkpt>
      <trkpt lat="46.83714" lon="-0.83422">
        <ele>175.3</ele>
        <time>2020-12-06T09:17:32Z</time>
      </trkpt>
      <trkpt lat="46.83694" lon="-0.83415">
        <ele>174.8</ele>
        <time>2020-12-06T09:17:37Z</time>
      </trkpt>
      <trkpt lat="46.83677" lon="-0.83406">
        <ele>174.6</ele>
        <time>2020-12-06T09:17:42Z</time>
      </trkpt>
      <trkpt lat="46.83664" lon="-0.83388">
        <ele>174.3</ele>
        <time>2020-12-06T09:17:47Z</time>
      </trkpt>
      <trkpt lat="46.83649" lon="-0.83369">
        <ele>173.3</ele>
        <time>2020-12-06T09:17:52Z</time>
      </trkpt>
      <trkpt lat="46.83628" lon="-0.83338">
        <ele>172</ele>
        <time>2020-12-06T09:17:58Z</time>
      </trkpt>
      <trkpt lat="46.83607" lon="-0.83304">
        <ele>170.7</ele>
        <time>2020-12-06T09:18:04Z</time>
      </trkpt>
      <trkpt lat="46.8359" lon="-0.83279">
        <ele>169.8</ele>
        <time>2020-12-06T09:18:08Z</time>
      </trkpt>
      <trkpt lat="46.83586" lon="-0.83273">
        <ele>169.6</ele>
        <time>2020-12-06T09:18:09Z</time>
      </trkpt>
      <trkpt lat="46.83569" lon="-0.83249">
        <ele>169</ele>
        <time>2020-12-06T09:18:13Z</time>
      </trkpt>
      <trkpt lat="46.83545" lon="-0.83215">
        <ele>168.1</ele>
        <time>2020-12-06T09:18:19Z</time>
      </trkpt>
      <trkpt lat="46.8352" lon="-0.83184">
        <ele>167.7</ele>
        <time>2020-12-06T09:18:25Z</time>
      </trkpt>
      <trkpt lat="46.83512" lon="-0.83174">
        <ele>167.6</ele>
        <time>2020-12-06T09:18:27Z</time>
      </trkpt>
      <trkpt lat="46.83501" lon="-0.83161">
        <ele>167.5</ele>
        <time>2020-12-06T09:18:30Z</time>
      </trkpt>
      <trkpt lat="46.8349" lon="-0.83136">
        <ele>167.5</ele>
        <time>2020-12-06T09:18:35Z</time>
      </trkpt>
      <trkpt lat="46.83475" lon="-0.83106">
        <ele>168.3</ele>
        <time>2020-12-06T09:18:42Z</time>
      </trkpt>
      <trkpt lat="46.83464" lon="-0.83081">
        <ele>169.1</ele>
        <time>2020-12-06T09:18:48Z</time>
      </trkpt>
      <trkpt lat="46.83463" lon="-0.83078">
        <ele>169.2</ele>
        <time>2020-12-06T09:18:49Z</time>
      </trkpt>
      <trkpt lat="46.83463" lon="-0.83073">
        <ele>169.4</ele>
        <time>2020-12-06T09:18:51Z</time>
      </trkpt>
      <trkpt lat="46.83461" lon="-0.8307">
        <ele>169.6</ele>
        <time>2020-12-06T09:18:52Z</time>
      </trkpt>
      <trkpt lat="46.83455" lon="-0.83058">
        <ele>170</ele>
        <time>2020-12-06T09:18:56Z</time>
      </trkpt>
      <trkpt lat="46.83445" lon="-0.83041">
        <ele>170.3</ele>
        <time>2020-12-06T09:19:01Z</time>
      </trkpt>
      <trkpt lat="46.83437" lon="-0.83023">
        <ele>170</ele>
        <time>2020-12-06T09:19:06Z</time>
      </trkpt>
      <trkpt lat="46.83439" lon="-0.8302">
        <ele>169.9</ele>
        <time>2020-12-06T09:19:09Z</time>
      </trkpt>
      <trkpt lat="46.83439" lon="-0.83017">
        <ele>169.9</ele>
        <time>2020-12-06T09:19:10Z</time>
      </trkpt>
      <trkpt lat="46.83431" lon="-0.83008">
        <ele>169.5</ele>
        <time>2020-12-06T09:19:12Z</time>
      </trkpt>
      <trkpt lat="46.83423" lon="-0.82998">
        <ele>169</ele>
        <time>2020-12-06T09:19:14Z</time>
      </trkpt>
      <trkpt lat="46.83403" lon="-0.82974">
        <ele>167.2</ele>
        <time>2020-12-06T09:19:17Z</time>
      </trkpt>
      <trkpt lat="46.83399" lon="-0.82967">
        <ele>166.6</ele>
        <time>2020-12-06T09:19:18Z</time>
      </trkpt>
      <trkpt lat="46.83378" lon="-0.82938">
        <ele>163.9</ele>
        <time>2020-12-06T09:19:23Z</time>
      </trkpt>
      <trkpt lat="46.83377" lon="-0.82933">
        <ele>162.9</ele>
        <time>2020-12-06T09:19:24Z</time>
      </trkpt>
      <trkpt lat="46.8338" lon="-0.8292">
        <ele>162.1</ele>
        <time>2020-12-06T09:19:26Z</time>
      </trkpt>
      <trkpt lat="46.83381" lon="-0.82914">
        <ele>161.7</ele>
        <time>2020-12-06T09:19:27Z</time>
      </trkpt>
      <trkpt lat="46.8338" lon="-0.82903">
        <ele>161.3</ele>
        <time>2020-12-06T09:19:29Z</time>
      </trkpt>
      <trkpt lat="46.83369" lon="-0.8289">
        <ele>160.8</ele>
        <time>2020-12-06T09:19:34Z</time>
      </trkpt>
      <trkpt lat="46.83357" lon="-0.8288">
        <ele>160.6</ele>
        <time>2020-12-06T09:19:39Z</time>
      </trkpt>
      <trkpt lat="46.83334" lon="-0.82864">
        <ele>160.7</ele>
        <time>2020-12-06T09:19:46Z</time>
      </trkpt>
      <trkpt lat="46.83321" lon="-0.82866">
        <ele>161</ele>
        <time>2020-12-06T09:19:50Z</time>
      </trkpt>
      <trkpt lat="46.83303" lon="-0.8288">
        <ele>161.8</ele>
        <time>2020-12-06T09:19:56Z</time>
      </trkpt>
      <trkpt lat="46.83283" lon="-0.82892">
        <ele>163</ele>
        <time>2020-12-06T09:20:02Z</time>
      </trkpt>
      <trkpt lat="46.83263" lon="-0.82897">
        <ele>163.7</ele>
        <time>2020-12-06T09:20:09Z</time>
      </trkpt>
      <trkpt lat="46.83258" lon="-0.82899">
        <ele>163.8</ele>
        <time>2020-12-06T09:20:11Z</time>
      </trkpt>
      <trkpt lat="46.83254" lon="-0.82904">
        <ele>163.6</ele>
        <time>2020-12-06T09:20:13Z</time>
      </trkpt>
      <trkpt lat="46.83248" lon="-0.82924">
        <ele>163</ele>
        <time>2020-12-06T09:20:17Z</time>
      </trkpt>
      <trkpt lat="46.83247" lon="-0.82929">
        <ele>162.8</ele>
        <time>2020-12-06T09:20:18Z</time>
      </trkpt>
      <trkpt lat="46.83234" lon="-0.82973">
        <ele>161.9</ele>
        <time>2020-12-06T09:20:25Z</time>
      </trkpt>
      <trkpt lat="46.83224" lon="-0.83014">
        <ele>161.7</ele>
        <time>2020-12-06T09:20:31Z</time>
      </trkpt>
      <trkpt lat="46.83216" lon="-0.83052">
        <ele>162.2</ele>
        <time>2020-12-06T09:20:37Z</time>
      </trkpt>
      <trkpt lat="46.83211" lon="-0.83088">
        <ele>163.3</ele>
        <time>2020-12-06T09:20:43Z</time>
      </trkpt>
      <trkpt lat="46.83207" lon="-0.8311">
        <ele>164.3</ele>
        <time>2020-12-06T09:20:48Z</time>
      </trkpt>
      <trkpt lat="46.83201" lon="-0.83137">
        <ele>166</ele>
        <time>2020-12-06T09:20:54Z</time>
      </trkpt>
      <trkpt lat="46.83196" lon="-0.83156">
        <ele>167.3</ele>
        <time>2020-12-06T09:20:59Z</time>
      </trkpt>
      <trkpt lat="46.83191" lon="-0.83184">
        <ele>169.1</ele>
        <time>2020-12-06T09:21:06Z</time>
      </trkpt>
      <trkpt lat="46.83188" lon="-0.83207">
        <ele>170.1</ele>
        <time>2020-12-06T09:21:12Z</time>
      </trkpt>
      <trkpt lat="46.83186" lon="-0.83231">
        <ele>170.7</ele>
        <time>2020-12-06T09:21:18Z</time>
      </trkpt>
      <trkpt lat="46.83183" lon="-0.83261">
        <ele>171.2</ele>
        <time>2020-12-06T09:21:25Z</time>
      </trkpt>
      <trkpt lat="46.83181" lon="-0.83287">
        <ele>171.4</ele>
        <time>2020-12-06T09:21:31Z</time>
      </trkpt>
      <trkpt lat="46.83179" lon="-0.83321">
        <ele>171.3</ele>
        <time>2020-12-06T09:21:38Z</time>
      </trkpt>
      <trkpt lat="46.83178" lon="-0.83349">
        <ele>170.8</ele>
        <time>2020-12-06T09:21:43Z</time>
      </trkpt>
      <trkpt lat="46.83178" lon="-0.83361">
        <ele>170.5</ele>
        <time>2020-12-06T09:21:45Z</time>
      </trkpt>
      <trkpt lat="46.83178" lon="-0.83387">
        <ele>169.8</ele>
        <time>2020-12-06T09:21:49Z</time>
      </trkpt>
      <trkpt lat="46.83177" lon="-0.83423">
        <ele>168.4</ele>
        <time>2020-12-06T09:21:54Z</time>
      </trkpt>
      <trkpt lat="46.83173" lon="-0.8343">
        <ele>168.1</ele>
        <time>2020-12-06T09:21:56Z</time>
      </trkpt>
      <trkpt lat="46.83169" lon="-0.8343">
        <ele>167.5</ele>
        <time>2020-12-06T09:21:57Z</time>
      </trkpt>
      <trkpt lat="46.83159" lon="-0.8342">
        <ele>167.5</ele>
        <time>2020-12-06T09:22:01Z</time>
      </trkpt>
      <trkpt lat="46.83149" lon="-0.83414">
        <ele>167.6</ele>
        <time>2020-12-06T09:22:05Z</time>
      </trkpt>
      <trkpt lat="46.83147" lon="-0.83411">
        <ele>167.6</ele>
        <time>2020-12-06T09:22:06Z</time>
      </trkpt>
      <trkpt lat="46.83133" lon="-0.83401">
        <ele>167.8</ele>
        <time>2020-12-06T09:22:11Z</time>
      </trkpt>
      <trkpt lat="46.83118" lon="-0.83388">
        <ele>168</ele>
        <time>2020-12-06T09:22:16Z</time>
      </trkpt>
      <trkpt lat="46.831" lon="-0.83374">
        <ele>168.3</ele>
        <time>2020-12-06T09:22:21Z</time>
      </trkpt>
      <trkpt lat="46.83082" lon="-0.83364">
        <ele>168.5</ele>
        <time>2020-12-06T09:22:26Z</time>
      </trkpt>
      <trkpt lat="46.83067" lon="-0.83358">
        <ele>168.8</ele>
        <time>2020-12-06T09:22:30Z</time>
      </trkpt>
      <trkpt lat="46.83048" lon="-0.83357">
        <ele>169.4</ele>
        <time>2020-12-06T09:22:35Z</time>
      </trkpt>
      <trkpt lat="46.83035" lon="-0.83357">
        <ele>169.7</ele>
        <time>2020-12-06T09:22:39Z</time>
      </trkpt>
      <trkpt lat="46.83019" lon="-0.83353">
        <ele>170.3</ele>
        <time>2020-12-06T09:22:44Z</time>
      </trkpt>
      <trkpt lat="46.83008" lon="-0.83354">
        <ele>170.9</ele>
        <time>2020-12-06T09:22:49Z</time>
      </trkpt>
      <trkpt lat="46.82994" lon="-0.83352">
        <ele>171.7</ele>
        <time>2020-12-06T09:22:54Z</time>
      </trkpt>
      <trkpt lat="46.82981" lon="-0.83349">
        <ele>172.4</ele>
        <time>2020-12-06T09:22:58Z</time>
      </trkpt>
      <trkpt lat="46.82966" lon="-0.83347">
        <ele>173.4</ele>
        <time>2020-12-06T09:23:03Z</time>
      </trkpt>
      <trkpt lat="46.82953" lon="-0.83346">
        <ele>174.5</ele>
        <time>2020-12-06T09:23:08Z</time>
      </trkpt>
      <trkpt lat="46.82935" lon="-0.83346">
        <ele>176</ele>
        <time>2020-12-06T09:23:14Z</time>
      </trkpt>
      <trkpt lat="46.82927" lon="-0.83344">
        <ele>176.7</ele>
        <time>2020-12-06T09:23:17Z</time>
      </trkpt>
      <trkpt lat="46.82906" lon="-0.83345">
        <ele>177.7</ele>
        <time>2020-12-06T09:26:54Z</time>
      </trkpt>
      <trkpt lat="46.82899" lon="-0.83345">
        <ele>177.8</ele>
        <time>2020-12-06T09:27:00Z</time>
      </trkpt>
      <trkpt lat="46.82894" lon="-0.83343">
        <ele>177.9</ele>
        <time>2020-12-06T09:27:05Z</time>
      </trkpt>
      <trkpt lat="46.82888" lon="-0.83342">
        <ele>178</ele>
        <time>2020-12-06T09:27:09Z</time>
      </trkpt>
      <trkpt lat="46.82883" lon="-0.83342">
        <ele>178.1</ele>
        <time>2020-12-06T09:27:12Z</time>
      </trkpt>
      <trkpt lat="46.82879" lon="-0.83341">
        <ele>178.1</ele>
        <time>2020-12-06T09:27:14Z</time>
      </trkpt>
      <trkpt lat="46.82876" lon="-0.83341">
        <ele>178.1</ele>
        <time>2020-12-06T09:27:16Z</time>
      </trkpt>
      <trkpt lat="46.82871" lon="-0.8334">
        <ele>178.2</ele>
        <time>2020-12-06T09:27:19Z</time>
      </trkpt>
      <trkpt lat="46.82854" lon="-0.83339">
        <ele>178.3</ele>
        <time>2020-12-06T09:27:27Z</time>
      </trkpt>
      <trkpt lat="46.82839" lon="-0.83337">
        <ele>178.6</ele>
        <time>2020-12-06T09:27:34Z</time>
      </trkpt>
      <trkpt lat="46.82828" lon="-0.83336">
        <ele>178.9</ele>
        <time>2020-12-06T09:27:39Z</time>
      </trkpt>
      <trkpt lat="46.82812" lon="-0.83336">
        <ele>179.3</ele>
        <time>2020-12-06T09:27:46Z</time>
      </trkpt>
      <trkpt lat="46.82801" lon="-0.83337">
        <ele>179.5</ele>
        <time>2020-12-06T09:27:51Z</time>
      </trkpt>
      <trkpt lat="46.82787" lon="-0.83337">
        <ele>179.8</ele>
        <time>2020-12-06T09:27:57Z</time>
      </trkpt>
      <trkpt lat="46.82769" lon="-0.83337">
        <ele>180.4</ele>
        <time>2020-12-06T09:28:04Z</time>
      </trkpt>
      <trkpt lat="46.82759" lon="-0.8334">
        <ele>180.7</ele>
        <time>2020-12-06T09:28:09Z</time>
      </trkpt>
      <trkpt lat="46.82758" lon="-0.8334">
        <ele>180.8</ele>
        <time>2020-12-06T09:28:10Z</time>
      </trkpt>
      <trkpt lat="46.82747" lon="-0.83343">
        <ele>181.3</ele>
        <time>2020-12-06T09:28:15Z</time>
      </trkpt>
      <trkpt lat="46.82743" lon="-0.83345">
        <ele>181.5</ele>
        <time>2020-12-06T09:28:17Z</time>
      </trkpt>
      <trkpt lat="46.82739" lon="-0.83348">
        <ele>181.7</ele>
        <time>2020-12-06T09:28:19Z</time>
      </trkpt>
      <trkpt lat="46.82737" lon="-0.8335">
        <ele>181.8</ele>
        <time>2020-12-06T09:28:20Z</time>
      </trkpt>
      <trkpt lat="46.82732" lon="-0.83354">
        <ele>182.1</ele>
        <time>2020-12-06T09:28:23Z</time>
      </trkpt>
      <trkpt lat="46.82724" lon="-0.83362">
        <ele>182.6</ele>
        <time>2020-12-06T09:28:28Z</time>
      </trkpt>
      <trkpt lat="46.82711" lon="-0.83369">
        <ele>183.3</ele>
        <time>2020-12-06T09:28:34Z</time>
      </trkpt>
      <trkpt lat="46.827" lon="-0.83376">
        <ele>184</ele>
        <time>2020-12-06T09:28:40Z</time>
      </trkpt>
      <trkpt lat="46.82694" lon="-0.83379">
        <ele>184.3</ele>
        <time>2020-12-06T09:28:43Z</time>
      </trkpt>
      <trkpt lat="46.82687" lon="-0.83382">
        <ele>184.7</ele>
        <time>2020-12-06T09:28:46Z</time>
      </trkpt>
      <trkpt lat="46.82683" lon="-0.83383">
        <ele>184.9</ele>
        <time>2020-12-06T09:28:48Z</time>
      </trkpt>
      <trkpt lat="46.82679" lon="-0.83383">
        <ele>185.1</ele>
        <time>2020-12-06T09:28:50Z</time>
      </trkpt>
      <trkpt lat="46.82662" lon="-0.83388">
        <ele>186</ele>
        <time>2020-12-06T09:28:57Z</time>
      </trkpt>
      <trkpt lat="46.82649" lon="-0.83391">
        <ele>186.6</ele>
        <time>2020-12-06T09:29:03Z</time>
      </trkpt>
      <trkpt lat="46.82641" lon="-0.83391">
        <ele>187.1</ele>
        <time>2020-12-06T09:29:06Z</time>
      </trkpt>
      <trkpt lat="46.82631" lon="-0.83391">
        <ele>187.7</ele>
        <time>2020-12-06T09:29:09Z</time>
      </trkpt>
      <trkpt lat="46.82626" lon="-0.83392">
        <ele>188</ele>
        <time>2020-12-06T09:29:11Z</time>
      </trkpt>
      <trkpt lat="46.82622" lon="-0.83392">
        <ele>188.3</ele>
        <time>2020-12-06T09:29:13Z</time>
      </trkpt>
      <trkpt lat="46.82617" lon="-0.83392">
        <ele>188.7</ele>
        <time>2020-12-06T09:29:15Z</time>
      </trkpt>
      <trkpt lat="46.8261" lon="-0.83387">
        <ele>189.4</ele>
        <time>2020-12-06T09:29:18Z</time>
      </trkpt>
      <trkpt lat="46.82608" lon="-0.83386">
        <ele>189.6</ele>
        <time>2020-12-06T09:29:19Z</time>
      </trkpt>
      <trkpt lat="46.82599" lon="-0.83379">
        <ele>190.5</ele>
        <time>2020-12-06T09:29:23Z</time>
      </trkpt>
      <trkpt lat="46.82591" lon="-0.83374">
        <ele>191.3</ele>
        <time>2020-12-06T09:29:27Z</time>
      </trkpt>
      <trkpt lat="46.82578" lon="-0.83364">
        <ele>192.4</ele>
        <time>2020-12-06T09:29:33Z</time>
      </trkpt>
      <trkpt lat="46.82571" lon="-0.83357">
        <ele>193</ele>
        <time>2020-12-06T09:29:37Z</time>
      </trkpt>
      <trkpt lat="46.82559" lon="-0.83349">
        <ele>194.1</ele>
        <time>2020-12-06T09:29:43Z</time>
      </trkpt>
      <trkpt lat="46.82551" lon="-0.83336">
        <ele>195.2</ele>
        <time>2020-12-06T09:29:48Z</time>
      </trkpt>
      <trkpt lat="46.82542" lon="-0.83327">
        <ele>195.9</ele>
        <time>2020-12-06T09:29:54Z</time>
      </trkpt>
      <trkpt lat="46.82533" lon="-0.83319">
        <ele>196.5</ele>
        <time>2020-12-06T09:30:00Z</time>
      </trkpt>
      <trkpt lat="46.8252" lon="-0.83317">
        <ele>196.7</ele>
        <time>2020-12-06T09:30:06Z</time>
      </trkpt>
      <trkpt lat="46.82502" lon="-0.83317">
        <ele>196.9</ele>
        <time>2020-12-06T09:30:13Z</time>
      </trkpt>
      <trkpt lat="46.82491" lon="-0.83317">
        <ele>197</ele>
        <time>2020-12-06T09:30:18Z</time>
      </trkpt>
      <trkpt lat="46.82476" lon="-0.83316">
        <ele>197.2</ele>
        <time>2020-12-06T09:30:23Z</time>
      </trkpt>
      <trkpt lat="46.82461" lon="-0.83317">
        <ele>197.5</ele>
        <time>2020-12-06T09:30:28Z</time>
      </trkpt>
      <trkpt lat="46.82459" lon="-0.83319">
        <ele>197.6</ele>
        <time>2020-12-06T09:30:29Z</time>
      </trkpt>
      <trkpt lat="46.82455" lon="-0.83333">
        <ele>197.7</ele>
        <time>2020-12-06T09:30:33Z</time>
      </trkpt>
      <trkpt lat="46.82456" lon="-0.83358">
        <ele>197.6</ele>
        <time>2020-12-06T09:30:39Z</time>
      </trkpt>
      <trkpt lat="46.82457" lon="-0.83389">
        <ele>197.5</ele>
        <time>2020-12-06T09:30:46Z</time>
      </trkpt>
      <trkpt lat="46.82459" lon="-0.83423">
        <ele>197.5</ele>
        <time>2020-12-06T09:30:53Z</time>
      </trkpt>
      <trkpt lat="46.82463" lon="-0.83454">
        <ele>197.5</ele>
        <time>2020-12-06T09:30:59Z</time>
      </trkpt>
      <trkpt lat="46.82466" lon="-0.83477">
        <ele>197.4</ele>
        <time>2020-12-06T09:31:04Z</time>
      </trkpt>
      <trkpt lat="46.82469" lon="-0.83496">
        <ele>197.2</ele>
        <time>2020-12-06T09:31:08Z</time>
      </trkpt>
      <trkpt lat="46.82474" lon="-0.83529">
        <ele>196.9</ele>
        <time>2020-12-06T09:31:14Z</time>
      </trkpt>
      <trkpt lat="46.8248" lon="-0.83563">
        <ele>196.6</ele>
        <time>2020-12-06T09:31:20Z</time>
      </trkpt>
      <trkpt lat="46.82488" lon="-0.8359">
        <ele>196.5</ele>
        <time>2020-12-06T09:31:25Z</time>
      </trkpt>
      <trkpt lat="46.82491" lon="-0.83602">
        <ele>196.5</ele>
        <time>2020-12-06T09:31:27Z</time>
      </trkpt>
      <trkpt lat="46.82495" lon="-0.83621">
        <ele>196.3</ele>
        <time>2020-12-06T09:31:30Z</time>
      </trkpt>
      <trkpt lat="46.82504" lon="-0.83659">
        <ele>195.5</ele>
        <time>2020-12-06T09:31:37Z</time>
      </trkpt>
      <trkpt lat="46.82512" lon="-0.83672">
        <ele>194.9</ele>
        <time>2020-12-06T09:31:41Z</time>
      </trkpt>
      <trkpt lat="46.82534" lon="-0.83701">
        <ele>193.2</ele>
        <time>2020-12-06T09:31:48Z</time>
      </trkpt>
      <trkpt lat="46.82538" lon="-0.83704">
        <ele>192.9</ele>
        <time>2020-12-06T09:31:49Z</time>
      </trkpt>
      <trkpt lat="46.8255" lon="-0.83717">
        <ele>192</ele>
        <time>2020-12-06T09:31:52Z</time>
      </trkpt>
      <trkpt lat="46.82576" lon="-0.83744">
        <ele>190.2</ele>
        <time>2020-12-06T09:31:58Z</time>
      </trkpt>
      <trkpt lat="46.826" lon="-0.83779">
        <ele>189</ele>
        <time>2020-12-06T09:32:04Z</time>
      </trkpt>
      <trkpt lat="46.82614" lon="-0.83815">
        <ele>188.9</ele>
        <time>2020-12-06T09:32:09Z</time>
      </trkpt>
      <trkpt lat="46.82616" lon="-0.83821">
        <ele>188.9</ele>
        <time>2020-12-06T09:32:10Z</time>
      </trkpt>
      <trkpt lat="46.82618" lon="-0.83828">
        <ele>188.9</ele>
        <time>2020-12-06T09:32:11Z</time>
      </trkpt>
      <trkpt lat="46.82622" lon="-0.83843">
        <ele>189.1</ele>
        <time>2020-12-06T09:32:13Z</time>
      </trkpt>
      <trkpt lat="46.82627" lon="-0.83857">
        <ele>189.2</ele>
        <time>2020-12-06T09:32:15Z</time>
      </trkpt>
      <trkpt lat="46.82633" lon="-0.83878">
        <ele>189.3</ele>
        <time>2020-12-06T09:32:18Z</time>
      </trkpt>
      <trkpt lat="46.82649" lon="-0.83931">
        <ele>188.6</ele>
        <time>2020-12-06T09:32:25Z</time>
      </trkpt>
      <trkpt lat="46.82664" lon="-0.83987">
        <ele>186</ele>
        <time>2020-12-06T09:32:32Z</time>
      </trkpt>
      <trkpt lat="46.82676" lon="-0.84041">
        <ele>182.8</ele>
        <time>2020-12-06T09:32:38Z</time>
      </trkpt>
      <trkpt lat="46.8268" lon="-0.84067">
        <ele>181.2</ele>
        <time>2020-12-06T09:32:41Z</time>
      </trkpt>
      <trkpt lat="46.82679" lon="-0.8408">
        <ele>180.4</ele>
        <time>2020-12-06T09:32:43Z</time>
      </trkpt>
      <trkpt lat="46.82679" lon="-0.84088">
        <ele>179.9</ele>
        <time>2020-12-06T09:32:45Z</time>
      </trkpt>
      <trkpt lat="46.8268" lon="-0.84089">
        <ele>179.8</ele>
        <time>2020-12-06T09:32:46Z</time>
      </trkpt>
      <trkpt lat="46.82681" lon="-0.8409">
        <ele>179.7</ele>
        <time>2020-12-06T09:32:47Z</time>
      </trkpt>
      <trkpt lat="46.82686" lon="-0.8409">
        <ele>179.2</ele>
        <time>2020-12-06T09:32:49Z</time>
      </trkpt>
      <trkpt lat="46.82689" lon="-0.8409">
        <ele>178.9</ele>
        <time>2020-12-06T09:32:53Z</time>
      </trkpt>
      <trkpt lat="46.82695" lon="-0.84096">
        <ele>178.2</ele>
        <time>2020-12-06T09:33:04Z</time>
      </trkpt>
      <trkpt lat="46.82698" lon="-0.84116">
        <ele>176.7</ele>
        <time>2020-12-06T09:33:08Z</time>
      </trkpt>
      <trkpt lat="46.827" lon="-0.84135">
        <ele>175.4</ele>
        <time>2020-12-06T09:33:11Z</time>
      </trkpt>
      <trkpt lat="46.82703" lon="-0.84155">
        <ele>173.9</ele>
        <time>2020-12-06T09:33:14Z</time>
      </trkpt>
      <trkpt lat="46.82714" lon="-0.84209">
        <ele>169.9</ele>
        <time>2020-12-06T09:33:21Z</time>
      </trkpt>
      <trkpt lat="46.82723" lon="-0.84267">
        <ele>167.3</ele>
        <time>2020-12-06T09:33:27Z</time>
      </trkpt>
      <trkpt lat="46.82727" lon="-0.84314">
        <ele>166.9</ele>
        <time>2020-12-06T09:33:32Z</time>
      </trkpt>
      <trkpt lat="46.82727" lon="-0.84322">
        <ele>167</ele>
        <time>2020-12-06T09:33:33Z</time>
      </trkpt>
      <trkpt lat="46.82731" lon="-0.84341">
        <ele>167.4</ele>
        <time>2020-12-06T09:33:36Z</time>
      </trkpt>
      <trkpt lat="46.82732" lon="-0.84364">
        <ele>167.7</ele>
        <time>2020-12-06T09:33:41Z</time>
      </trkpt>
      <trkpt lat="46.82732" lon="-0.84384">
        <ele>168.2</ele>
        <time>2020-12-06T09:33:46Z</time>
      </trkpt>
      <trkpt lat="46.82734" lon="-0.84402">
        <ele>168.9</ele>
        <time>2020-12-06T09:33:51Z</time>
      </trkpt>
      <trkpt lat="46.82735" lon="-0.8442">
        <ele>169.6</ele>
        <time>2020-12-06T09:33:56Z</time>
      </trkpt>
      <trkpt lat="46.82739" lon="-0.84454">
        <ele>171.1</ele>
        <time>2020-12-06T09:34:05Z</time>
      </trkpt>
      <trkpt lat="46.82746" lon="-0.84484">
        <ele>172.5</ele>
        <time>2020-12-06T09:34:13Z</time>
      </trkpt>
      <trkpt lat="46.82754" lon="-0.84511">
        <ele>173.7</ele>
        <time>2020-12-06T09:34:20Z</time>
      </trkpt>
      <trkpt lat="46.82766" lon="-0.84546">
        <ele>175.1</ele>
        <time>2020-12-06T09:34:29Z</time>
      </trkpt>
      <trkpt lat="46.82772" lon="-0.84562">
        <ele>175.7</ele>
        <time>2020-12-06T09:34:33Z</time>
      </trkpt>
      <trkpt lat="46.82782" lon="-0.84596">
        <ele>177</ele>
        <time>2020-12-06T09:34:41Z</time>
      </trkpt>
      <trkpt lat="46.82788" lon="-0.84627">
        <ele>178.2</ele>
        <time>2020-12-06T09:34:48Z</time>
      </trkpt>
      <trkpt lat="46.8279" lon="-0.84652">
        <ele>179.2</ele>
        <time>2020-12-06T09:34:54Z</time>
      </trkpt>
      <trkpt lat="46.8279" lon="-0.84689">
        <ele>180.5</ele>
        <time>2020-12-06T09:35:02Z</time>
      </trkpt>
      <trkpt lat="46.82787" lon="-0.84719">
        <ele>181.5</ele>
        <time>2020-12-06T09:35:08Z</time>
      </trkpt>
      <trkpt lat="46.82785" lon="-0.84749">
        <ele>182.2</ele>
        <time>2020-12-06T09:35:14Z</time>
      </trkpt>
      <trkpt lat="46.82786" lon="-0.84779">
        <ele>182.7</ele>
        <time>2020-12-06T09:35:20Z</time>
      </trkpt>
      <trkpt lat="46.82787" lon="-0.84804">
        <ele>183</ele>
        <time>2020-12-06T09:35:25Z</time>
      </trkpt>
      <trkpt lat="46.82788" lon="-0.84829">
        <ele>183.3</ele>
        <time>2020-12-06T09:35:31Z</time>
      </trkpt>
      <trkpt lat="46.82788" lon="-0.84831">
        <ele>183.4</ele>
        <time>2020-12-06T09:35:32Z</time>
      </trkpt>
      <trkpt lat="46.82791" lon="-0.84835">
        <ele>183.5</ele>
        <time>2020-12-06T09:35:34Z</time>
      </trkpt>
      <trkpt lat="46.82793" lon="-0.84835">
        <ele>183.6</ele>
        <time>2020-12-06T09:35:35Z</time>
      </trkpt>
      <trkpt lat="46.82807" lon="-0.84828">
        <ele>183.9</ele>
        <time>2020-12-06T09:35:40Z</time>
      </trkpt>
      <trkpt lat="46.82828" lon="-0.8482">
        <ele>184.5</ele>
        <time>2020-12-06T09:35:47Z</time>
      </trkpt>
      <trkpt lat="46.8285" lon="-0.84813">
        <ele>185.4</ele>
        <time>2020-12-06T09:35:54Z</time>
      </trkpt>
      <trkpt lat="46.82869" lon="-0.84807">
        <ele>186.1</ele>
        <time>2020-12-06T09:36:00Z</time>
      </trkpt>
      <trkpt lat="46.82893" lon="-0.84798">
        <ele>186.8</ele>
        <time>2020-12-06T09:36:08Z</time>
      </trkpt>
      <trkpt lat="46.82913" lon="-0.84797">
        <ele>186.9</ele>
        <time>2020-12-06T09:36:15Z</time>
      </trkpt>
      <trkpt lat="46.82932" lon="-0.84805">
        <ele>186.5</ele>
        <time>2020-12-06T09:36:21Z</time>
      </trkpt>
      <trkpt lat="46.8295" lon="-0.84818">
        <ele>185.9</ele>
        <time>2020-12-06T09:36:26Z</time>
      </trkpt>
      <trkpt lat="46.82954" lon="-0.84818">
        <ele>185.7</ele>
        <time>2020-12-06T09:36:27Z</time>
      </trkpt>
      <trkpt lat="46.82958" lon="-0.84816">
        <ele>185.5</ele>
        <time>2020-12-06T09:36:28Z</time>
      </trkpt>
      <trkpt lat="46.82966" lon="-0.84808">
        <ele>185.1</ele>
        <time>2020-12-06T09:36:30Z</time>
      </trkpt>
      <trkpt lat="46.82974" lon="-0.84807">
        <ele>185.1</ele>
        <time>2020-12-06T09:36:32Z</time>
      </trkpt>
      <trkpt lat="46.82978" lon="-0.8481">
        <ele>185.1</ele>
        <time>2020-12-06T09:36:33Z</time>
      </trkpt>
      <trkpt lat="46.82985" lon="-0.84822">
        <ele>185.2</ele>
        <time>2020-12-06T09:36:36Z</time>
      </trkpt>
      <trkpt lat="46.82992" lon="-0.84845">
        <ele>185.6</ele>
        <time>2020-12-06T09:36:41Z</time>
      </trkpt>
      <trkpt lat="46.82999" lon="-0.84861">
        <ele>186.1</ele>
        <time>2020-12-06T09:36:45Z</time>
      </trkpt>
      <trkpt lat="46.83013" lon="-0.84869">
        <ele>186.8</ele>
        <time>2020-12-06T09:36:50Z</time>
      </trkpt>
      <trkpt lat="46.83031" lon="-0.84878">
        <ele>187.9</ele>
        <time>2020-12-06T09:36:56Z</time>
      </trkpt>
      <trkpt lat="46.83045" lon="-0.84892">
        <ele>189.3</ele>
        <time>2020-12-06T09:37:02Z</time>
      </trkpt>
      <trkpt lat="46.83054" lon="-0.84901">
        <ele>190.3</ele>
        <time>2020-12-06T09:37:06Z</time>
      </trkpt>
      <trkpt lat="46.83057" lon="-0.84907">
        <ele>190.8</ele>
        <time>2020-12-06T09:37:08Z</time>
      </trkpt>
      <trkpt lat="46.83058" lon="-0.84915">
        <ele>191.4</ele>
        <time>2020-12-06T09:37:10Z</time>
      </trkpt>
      <trkpt lat="46.83062" lon="-0.84941">
        <ele>193.6</ele>
        <time>2020-12-06T09:37:17Z</time>
      </trkpt>
      <trkpt lat="46.83065" lon="-0.8495">
        <ele>194.5</ele>
        <time>2020-12-06T09:37:20Z</time>
      </trkpt>
      <trkpt lat="46.83067" lon="-0.84952">
        <ele>194.8</ele>
        <time>2020-12-06T09:37:21Z</time>
      </trkpt>
      <trkpt lat="46.83079" lon="-0.84959">
        <ele>195.9</ele>
        <time>2020-12-06T09:37:26Z</time>
      </trkpt>
      <trkpt lat="46.83091" lon="-0.84955">
        <ele>196.6</ele>
        <time>2020-12-06T09:37:31Z</time>
      </trkpt>
      <trkpt lat="46.83102" lon="-0.84951">
        <ele>197.3</ele>
        <time>2020-12-06T09:37:36Z</time>
      </trkpt>
      <trkpt lat="46.83115" lon="-0.84947">
        <ele>198.4</ele>
        <time>2020-12-06T09:37:41Z</time>
      </trkpt>
      <trkpt lat="46.8313" lon="-0.84945">
        <ele>199.3</ele>
        <time>2020-12-06T09:37:48Z</time>
      </trkpt>
      <trkpt lat="46.83144" lon="-0.84955">
        <ele>200.8</ele>
        <time>2020-12-06T09:37:55Z</time>
      </trkpt>
      <trkpt lat="46.83153" lon="-0.84966">
        <ele>201.8</ele>
        <time>2020-12-06T09:38:01Z</time>
      </trkpt>
      <trkpt lat="46.83164" lon="-0.84978">
        <ele>202.8</ele>
        <time>2020-12-06T09:38:07Z</time>
      </trkpt>
      <trkpt lat="46.83175" lon="-0.84993">
        <ele>203.6</ele>
        <time>2020-12-06T09:38:14Z</time>
      </trkpt>
      <trkpt lat="46.83187" lon="-0.85008">
        <ele>204.4</ele>
        <time>2020-12-06T09:38:21Z</time>
      </trkpt>
      <trkpt lat="46.83199" lon="-0.85025">
        <ele>204.8</ele>
        <time>2020-12-06T09:38:28Z</time>
      </trkpt>
      <trkpt lat="46.83209" lon="-0.85041">
        <ele>204.5</ele>
        <time>2020-12-06T09:38:34Z</time>
      </trkpt>
      <trkpt lat="46.83212" lon="-0.85048">
        <ele>204.3</ele>
        <time>2020-12-06T09:38:37Z</time>
      </trkpt>
      <trkpt lat="46.83214" lon="-0.85053">
        <ele>204.2</ele>
        <time>2020-12-06T09:38:39Z</time>
      </trkpt>
      <trkpt lat="46.83219" lon="-0.85065">
        <ele>203.9</ele>
        <time>2020-12-06T09:38:44Z</time>
      </trkpt>
      <trkpt lat="46.83229" lon="-0.85082">
        <ele>203.4</ele>
        <time>2020-12-06T09:38:49Z</time>
      </trkpt>
      <trkpt lat="46.83244" lon="-0.85107">
        <ele>202.7</ele>
        <time>2020-12-06T09:38:54Z</time>
      </trkpt>
      <trkpt lat="46.8325" lon="-0.85115">
        <ele>202.2</ele>
        <time>2020-12-06T09:38:55Z</time>
      </trkpt>
      <trkpt lat="46.8326" lon="-0.85127">
        <ele>201.2</ele>
        <time>2020-12-06T09:38:57Z</time>
      </trkpt>
      <trkpt lat="46.83263" lon="-0.85133">
        <ele>200.9</ele>
        <time>2020-12-06T09:38:58Z</time>
      </trkpt>
      <trkpt lat="46.83265" lon="-0.85139">
        <ele>200.9</ele>
        <time>2020-12-06T09:38:59Z</time>
      </trkpt>
      <trkpt lat="46.83268" lon="-0.85155">
        <ele>200.8</ele>
        <time>2020-12-06T09:39:02Z</time>
      </trkpt>
      <trkpt lat="46.83271" lon="-0.85174">
        <ele>200.7</ele>
        <time>2020-12-06T09:39:07Z</time>
      </trkpt>
      <trkpt lat="46.83284" lon="-0.85192">
        <ele>200.4</ele>
        <time>2020-12-06T09:39:12Z</time>
      </trkpt>
      <trkpt lat="46.83293" lon="-0.85202">
        <ele>200.4</ele>
        <time>2020-12-06T09:39:16Z</time>
      </trkpt>
      <trkpt lat="46.83319" lon="-0.8522">
        <ele>199.6</ele>
        <time>2020-12-06T09:39:21Z</time>
      </trkpt>
      <trkpt lat="46.83323" lon="-0.85224">
        <ele>199.6</ele>
        <time>2020-12-06T09:39:22Z</time>
      </trkpt>
      <trkpt lat="46.83324" lon="-0.85232">
        <ele>200</ele>
        <time>2020-12-06T09:39:24Z</time>
      </trkpt>
      <trkpt lat="46.83313" lon="-0.85249">
        <ele>201.1</ele>
        <time>2020-12-06T09:39:30Z</time>
      </trkpt>
      <trkpt lat="46.83302" lon="-0.85263">
        <ele>202.1</ele>
        <time>2020-12-06T09:39:35Z</time>
      </trkpt>
      <trkpt lat="46.83292" lon="-0.85273">
        <ele>203</ele>
        <time>2020-12-06T09:39:40Z</time>
      </trkpt>
      <trkpt lat="46.8328" lon="-0.85291">
        <ele>204</ele>
        <time>2020-12-06T09:39:46Z</time>
      </trkpt>
      <trkpt lat="46.83266" lon="-0.85314">
        <ele>205.2</ele>
        <time>2020-12-06T09:39:52Z</time>
      </trkpt>
      <trkpt lat="46.83251" lon="-0.85336">
        <ele>206.2</ele>
        <time>2020-12-06T09:39:59Z</time>
      </trkpt>
      <trkpt lat="46.83237" lon="-0.85356">
        <ele>207.2</ele>
        <time>2020-12-06T09:40:06Z</time>
      </trkpt>
      <trkpt lat="46.83227" lon="-0.85372">
        <ele>207.9</ele>
        <time>2020-12-06T09:40:12Z</time>
      </trkpt>
      <trkpt lat="46.83222" lon="-0.85385">
        <ele>208.5</ele>
        <time>2020-12-06T09:40:16Z</time>
      </trkpt>
      <trkpt lat="46.83224" lon="-0.85391">
        <ele>208.7</ele>
        <time>2020-12-06T09:40:18Z</time>
      </trkpt>
      <trkpt lat="46.83227" lon="-0.85397">
        <ele>208.9</ele>
        <time>2020-12-06T09:40:20Z</time>
      </trkpt>
      <trkpt lat="46.83231" lon="-0.85402">
        <ele>209.3</ele>
        <time>2020-12-06T09:40:22Z</time>
      </trkpt>
      <trkpt lat="46.83237" lon="-0.85411">
        <ele>209.9</ele>
        <time>2020-12-06T09:40:27Z</time>
      </trkpt>
      <trkpt lat="46.83237" lon="-0.85411">
        <ele>209.9</ele>
        <time>2020-12-06T09:40:28Z</time>
      </trkpt>
      <trkpt lat="46.8324" lon="-0.85422">
        <ele>210.4</ele>
        <time>2020-12-06T09:40:50Z</time>
      </trkpt>
      <trkpt lat="46.83241" lon="-0.85428">
        <ele>210.7</ele>
        <time>2020-12-06T09:40:52Z</time>
      </trkpt>
      <trkpt lat="46.83244" lon="-0.85436">
        <ele>211.2</ele>
        <time>2020-12-06T09:40:56Z</time>
      </trkpt>
      <trkpt lat="46.83247" lon="-0.85441">
        <ele>211.5</ele>
        <time>2020-12-06T09:41:00Z</time>
      </trkpt>
      <trkpt lat="46.83248" lon="-0.8544">
        <ele>211.4</ele>
        <time>2020-12-06T09:41:01Z</time>
      </trkpt>
      <trkpt lat="46.83249" lon="-0.85426">
        <ele>210.7</ele>
        <time>2020-12-06T09:41:06Z</time>
      </trkpt>
      <trkpt lat="46.8325" lon="-0.85425">
        <ele>210.6</ele>
        <time>2020-12-06T09:41:07Z</time>
      </trkpt>
      <trkpt lat="46.83252" lon="-0.85419">
        <ele>210.3</ele>
        <time>2020-12-06T09:41:10Z</time>
      </trkpt>
      <trkpt lat="46.83257" lon="-0.85413">
        <ele>209.9</ele>
        <time>2020-12-06T09:41:14Z</time>
      </trkpt>
      <trkpt lat="46.83266" lon="-0.85403">
        <ele>209.4</ele>
        <time>2020-12-06T09:41:18Z</time>
      </trkpt>
      <trkpt lat="46.83281" lon="-0.85388">
        <ele>208.9</ele>
        <time>2020-12-06T09:41:23Z</time>
      </trkpt>
      <trkpt lat="46.83293" lon="-0.85373">
        <ele>208.6</ele>
        <time>2020-12-06T09:41:28Z</time>
      </trkpt>
      <trkpt lat="46.83296" lon="-0.85369">
        <ele>208.6</ele>
        <time>2020-12-06T09:41:29Z</time>
      </trkpt>
      <trkpt lat="46.83305" lon="-0.85364">
        <ele>208.4</ele>
        <time>2020-12-06T09:41:31Z</time>
      </trkpt>
      <trkpt lat="46.83328" lon="-0.85348">
        <ele>207.9</ele>
        <time>2020-12-06T09:41:38Z</time>
      </trkpt>
      <trkpt lat="46.83346" lon="-0.85336">
        <ele>207.1</ele>
        <time>2020-12-06T09:41:43Z</time>
      </trkpt>
      <trkpt lat="46.83377" lon="-0.85316">
        <ele>205.1</ele>
        <time>2020-12-06T09:41:50Z</time>
      </trkpt>
      <trkpt lat="46.834" lon="-0.85294">
        <ele>203.4</ele>
        <time>2020-12-06T09:41:55Z</time>
      </trkpt>
      <trkpt lat="46.83418" lon="-0.85277">
        <ele>202.3</ele>
        <time>2020-12-06T09:41:59Z</time>
      </trkpt>
      <trkpt lat="46.83423" lon="-0.85273">
        <ele>202.1</ele>
        <time>2020-12-06T09:42:00Z</time>
      </trkpt>
      <trkpt lat="46.83431" lon="-0.85265">
        <ele>201.6</ele>
        <time>2020-12-06T09:42:02Z</time>
      </trkpt>
      <trkpt lat="46.83443" lon="-0.85252">
        <ele>200.9</ele>
        <time>2020-12-06T09:42:05Z</time>
      </trkpt>
      <trkpt lat="46.83446" lon="-0.85249">
        <ele>200.7</ele>
        <time>2020-12-06T09:42:06Z</time>
      </trkpt>
      <trkpt lat="46.83453" lon="-0.85251">
        <ele>200.4</ele>
        <time>2020-12-06T09:42:08Z</time>
      </trkpt>
      <trkpt lat="46.83463" lon="-0.85264">
        <ele>200.5</ele>
        <time>2020-12-06T09:42:13Z</time>
      </trkpt>
      <trkpt lat="46.83475" lon="-0.85281">
        <ele>200.6</ele>
        <time>2020-12-06T09:42:18Z</time>
      </trkpt>
      <trkpt lat="46.83494" lon="-0.85303">
        <ele>200.7</ele>
        <time>2020-12-06T09:42:24Z</time>
      </trkpt>
      <trkpt lat="46.83508" lon="-0.85323">
        <ele>201</ele>
        <time>2020-12-06T09:42:29Z</time>
      </trkpt>
      <trkpt lat="46.83532" lon="-0.85355">
        <ele>201.8</ele>
        <time>2020-12-06T09:42:37Z</time>
      </trkpt>
      <trkpt lat="46.83539" lon="-0.85368">
        <ele>202.2</ele>
        <time>2020-12-06T09:42:40Z</time>
      </trkpt>
      <trkpt lat="46.83539" lon="-0.85373">
        <ele>202.3</ele>
        <time>2020-12-06T09:42:41Z</time>
      </trkpt>
      <trkpt lat="46.83534" lon="-0.85391">
        <ele>202.9</ele>
        <time>2020-12-06T09:42:46Z</time>
      </trkpt>
      <trkpt lat="46.83531" lon="-0.85397">
        <ele>203.1</ele>
        <time>2020-12-06T09:42:49Z</time>
      </trkpt>
      <trkpt lat="46.83528" lon="-0.85401">
        <ele>203.3</ele>
        <time>2020-12-06T09:42:51Z</time>
      </trkpt>
      <trkpt lat="46.83522" lon="-0.85417">
        <ele>204</ele>
        <time>2020-12-06T09:42:56Z</time>
      </trkpt>
      <trkpt lat="46.83516" lon="-0.85441">
        <ele>205.2</ele>
        <time>2020-12-06T09:43:03Z</time>
      </trkpt>
      <trkpt lat="46.83516" lon="-0.85459">
        <ele>206.1</ele>
        <time>2020-12-06T09:43:08Z</time>
      </trkpt>
      <trkpt lat="46.83517" lon="-0.85462">
        <ele>206.3</ele>
        <time>2020-12-06T09:43:09Z</time>
      </trkpt>
      <trkpt lat="46.8352" lon="-0.85472">
        <ele>206.9</ele>
        <time>2020-12-06T09:43:12Z</time>
      </trkpt>
      <trkpt lat="46.83523" lon="-0.85495">
        <ele>207.9</ele>
        <time>2020-12-06T09:43:18Z</time>
      </trkpt>
      <trkpt lat="46.83524" lon="-0.85499">
        <ele>208</ele>
        <time>2020-12-06T09:43:19Z</time>
      </trkpt>
      <trkpt lat="46.83523" lon="-0.8551">
        <ele>208.3</ele>
        <time>2020-12-06T09:43:22Z</time>
      </trkpt>
      <trkpt lat="46.8352" lon="-0.85544">
        <ele>209.1</ele>
        <time>2020-12-06T09:43:30Z</time>
      </trkpt>
      <trkpt lat="46.83516" lon="-0.85571">
        <ele>210.2</ele>
        <time>2020-12-06T09:43:37Z</time>
      </trkpt>
      <trkpt lat="46.8351" lon="-0.85598">
        <ele>210.8</ele>
        <time>2020-12-06T09:43:44Z</time>
      </trkpt>
      <trkpt lat="46.83506" lon="-0.85618">
        <ele>210.9</ele>
        <time>2020-12-06T09:43:50Z</time>
      </trkpt>
      <trkpt lat="46.83503" lon="-0.8564">
        <ele>210.9</ele>
        <time>2020-12-06T09:43:56Z</time>
      </trkpt>
      <trkpt lat="46.83505" lon="-0.85682">
        <ele>210.2</ele>
        <time>2020-12-06T09:44:04Z</time>
      </trkpt>
      <trkpt lat="46.83509" lon="-0.85706">
        <ele>209.1</ele>
        <time>2020-12-06T09:44:08Z</time>
      </trkpt>
      <trkpt lat="46.8351" lon="-0.85712">
        <ele>208.8</ele>
        <time>2020-12-06T09:44:09Z</time>
      </trkpt>
      <trkpt lat="46.83511" lon="-0.8574">
        <ele>207.4</ele>
        <time>2020-12-06T09:44:14Z</time>
      </trkpt>
      <trkpt lat="46.8351" lon="-0.85759">
        <ele>206.3</ele>
        <time>2020-12-06T09:44:17Z</time>
      </trkpt>
      <trkpt lat="46.83507" lon="-0.85772">
        <ele>205.4</ele>
        <time>2020-12-06T09:44:19Z</time>
      </trkpt>
      <trkpt lat="46.83505" lon="-0.85779">
        <ele>204.9</ele>
        <time>2020-12-06T09:44:20Z</time>
      </trkpt>
      <trkpt lat="46.835" lon="-0.85794">
        <ele>204</ele>
        <time>2020-12-06T09:44:22Z</time>
      </trkpt>
      <trkpt lat="46.83488" lon="-0.85814">
        <ele>202.9</ele>
        <time>2020-12-06T09:44:25Z</time>
      </trkpt>
      <trkpt lat="46.8348" lon="-0.85829">
        <ele>202.2</ele>
        <time>2020-12-06T09:44:28Z</time>
      </trkpt>
      <trkpt lat="46.83475" lon="-0.85834">
        <ele>201.9</ele>
        <time>2020-12-06T09:44:30Z</time>
      </trkpt>
      <trkpt lat="46.83473" lon="-0.85841">
        <ele>201.6</ele>
        <time>2020-12-06T09:44:32Z</time>
      </trkpt>
      <trkpt lat="46.83473" lon="-0.85845">
        <ele>201.4</ele>
        <time>2020-12-06T09:44:35Z</time>
      </trkpt>
      <trkpt lat="46.83469" lon="-0.85845">
        <ele>201.2</ele>
        <time>2020-12-06T09:44:41Z</time>
      </trkpt>
      <trkpt lat="46.83462" lon="-0.85852">
        <ele>200.7</ele>
        <time>2020-12-06T09:44:45Z</time>
      </trkpt>
      <trkpt lat="46.83462" lon="-0.85854">
        <ele>200.5</ele>
        <time>2020-12-06T09:44:46Z</time>
      </trkpt>
      <trkpt lat="46.83461" lon="-0.85855">
        <ele>200.5</ele>
        <time>2020-12-06T09:44:47Z</time>
      </trkpt>
      <trkpt lat="46.83456" lon="-0.85859">
        <ele>200.1</ele>
        <time>2020-12-06T09:44:51Z</time>
      </trkpt>
      <trkpt lat="46.83455" lon="-0.85859">
        <ele>200.1</ele>
        <time>2020-12-06T09:44:52Z</time>
      </trkpt>
      <trkpt lat="46.83447" lon="-0.85862">
        <ele>199.7</ele>
        <time>2020-12-06T09:44:57Z</time>
      </trkpt>
      <trkpt lat="46.83435" lon="-0.85872">
        <ele>200</ele>
        <time>2020-12-06T09:45:02Z</time>
      </trkpt>
      <trkpt lat="46.83423" lon="-0.85877">
        <ele>200.2</ele>
        <time>2020-12-06T09:45:07Z</time>
      </trkpt>
      <trkpt lat="46.83405" lon="-0.85891">
        <ele>200.6</ele>
        <time>2020-12-06T09:45:14Z</time>
      </trkpt>
      <trkpt lat="46.83395" lon="-0.85908">
        <ele>200.8</ele>
        <time>2020-12-06T09:45:19Z</time>
      </trkpt>
      <trkpt lat="46.83382" lon="-0.85916">
        <ele>201.2</ele>
        <time>2020-12-06T09:45:24Z</time>
      </trkpt>
      <trkpt lat="46.83365" lon="-0.85923">
        <ele>202</ele>
        <time>2020-12-06T09:45:30Z</time>
      </trkpt>
      <trkpt lat="46.83348" lon="-0.85936">
        <ele>203.2</ele>
        <time>2020-12-06T09:45:37Z</time>
      </trkpt>
      <trkpt lat="46.83335" lon="-0.85952">
        <ele>204.6</ele>
        <time>2020-12-06T09:45:43Z</time>
      </trkpt>
      <trkpt lat="46.83319" lon="-0.85969">
        <ele>206.3</ele>
        <time>2020-12-06T09:45:50Z</time>
      </trkpt>
      <trkpt lat="46.8331" lon="-0.85983">
        <ele>206.9</ele>
        <time>2020-12-06T09:45:55Z</time>
      </trkpt>
      <trkpt lat="46.83304" lon="-0.86002">
        <ele>207.9</ele>
        <time>2020-12-06T09:46:00Z</time>
      </trkpt>
      <trkpt lat="46.83298" lon="-0.86035">
        <ele>209.2</ele>
        <time>2020-12-06T09:46:08Z</time>
      </trkpt>
      <trkpt lat="46.83294" lon="-0.86067">
        <ele>210.3</ele>
        <time>2020-12-06T09:46:16Z</time>
      </trkpt>
      <trkpt lat="46.83295" lon="-0.86078">
        <ele>210.6</ele>
        <time>2020-12-06T09:46:19Z</time>
      </trkpt>
      <trkpt lat="46.83296" lon="-0.86081">
        <ele>211.3</ele>
        <time>2020-12-06T09:46:20Z</time>
      </trkpt>
      <trkpt lat="46.83297" lon="-0.86082">
        <ele>211.4</ele>
        <time>2020-12-06T09:46:21Z</time>
      </trkpt>
      <trkpt lat="46.83302" lon="-0.86081">
        <ele>211.8</ele>
        <time>2020-12-06T09:46:23Z</time>
      </trkpt>
      <trkpt lat="46.83314" lon="-0.8608">
        <ele>212.8</ele>
        <time>2020-12-06T09:46:28Z</time>
      </trkpt>
      <trkpt lat="46.83329" lon="-0.86088">
        <ele>214</ele>
        <time>2020-12-06T09:46:33Z</time>
      </trkpt>
      <trkpt lat="46.8335" lon="-0.861">
        <ele>216.2</ele>
        <time>2020-12-06T09:46:41Z</time>
      </trkpt>
      <trkpt lat="46.83366" lon="-0.86118">
        <ele>218.1</ele>
        <time>2020-12-06T09:46:48Z</time>
      </trkpt>
      <trkpt lat="46.83383" lon="-0.86141">
        <ele>220.1</ele>
        <time>2020-12-06T09:46:56Z</time>
      </trkpt>
      <trkpt lat="46.83386" lon="-0.86167">
        <ele>221.7</ele>
        <time>2020-12-06T09:47:03Z</time>
      </trkpt>
      <trkpt lat="46.83383" lon="-0.86192">
        <ele>221.4</ele>
        <time>2020-12-06T09:47:11Z</time>
      </trkpt>
      <trkpt lat="46.83382" lon="-0.86195">
        <ele>221.4</ele>
        <time>2020-12-06T09:47:12Z</time>
      </trkpt>
      <trkpt lat="46.83378" lon="-0.86204">
        <ele>221.1</ele>
        <time>2020-12-06T09:47:15Z</time>
      </trkpt>
      <trkpt lat="46.83372" lon="-0.86223">
        <ele>220.4</ele>
        <time>2020-12-06T09:47:20Z</time>
      </trkpt>
      <trkpt lat="46.8336" lon="-0.86246">
        <ele>219.6</ele>
        <time>2020-12-06T09:47:25Z</time>
      </trkpt>
      <trkpt lat="46.83357" lon="-0.8625">
        <ele>219.5</ele>
        <time>2020-12-06T09:47:26Z</time>
      </trkpt>
      <trkpt lat="46.8335" lon="-0.86256">
        <ele>219.3</ele>
        <time>2020-12-06T09:47:28Z</time>
      </trkpt>
      <trkpt lat="46.83339" lon="-0.86262">
        <ele>219.1</ele>
        <time>2020-12-06T09:47:31Z</time>
      </trkpt>
      <trkpt lat="46.83317" lon="-0.86276">
        <ele>218.8</ele>
        <time>2020-12-06T09:47:37Z</time>
      </trkpt>
      <trkpt lat="46.83303" lon="-0.86285">
        <ele>218.5</ele>
        <time>2020-12-06T09:47:41Z</time>
      </trkpt>
      <trkpt lat="46.83299" lon="-0.86286">
        <ele>218.5</ele>
        <time>2020-12-06T09:47:42Z</time>
      </trkpt>
      <trkpt lat="46.83278" lon="-0.86302">
        <ele>218</ele>
        <time>2020-12-06T09:47:48Z</time>
      </trkpt>
      <trkpt lat="46.83255" lon="-0.86323">
        <ele>217.3</ele>
        <time>2020-12-06T09:47:55Z</time>
      </trkpt>
      <trkpt lat="46.83244" lon="-0.86327">
        <ele>216.5</ele>
        <time>2020-12-06T09:47:58Z</time>
      </trkpt>
      <trkpt lat="46.8324" lon="-0.86328">
        <ele>216.2</ele>
        <time>2020-12-06T09:47:59Z</time>
      </trkpt>
      <trkpt lat="46.83235" lon="-0.8633">
        <ele>215.8</ele>
        <time>2020-12-06T09:48:00Z</time>
      </trkpt>
      <trkpt lat="46.83219" lon="-0.86339">
        <ele>214.7</ele>
        <time>2020-12-06T09:48:04Z</time>
      </trkpt>
      <trkpt lat="46.83205" lon="-0.86354">
        <ele>215</ele>
        <time>2020-12-06T09:48:09Z</time>
      </trkpt>
      <trkpt lat="46.83194" lon="-0.86369">
        <ele>215.5</ele>
        <time>2020-12-06T09:48:14Z</time>
      </trkpt>
      <trkpt lat="46.83192" lon="-0.86394">
        <ele>215.8</ele>
        <time>2020-12-06T09:48:19Z</time>
      </trkpt>
      <trkpt lat="46.83199" lon="-0.86429">
        <ele>216.3</ele>
        <time>2020-12-06T09:48:26Z</time>
      </trkpt>
      <trkpt lat="46.83208" lon="-0.86458">
        <ele>217</ele>
        <time>2020-12-06T09:48:32Z</time>
      </trkpt>
      <trkpt lat="46.83219" lon="-0.86486">
        <ele>217.9</ele>
        <time>2020-12-06T09:48:39Z</time>
      </trkpt>
      <trkpt lat="46.83228" lon="-0.86506">
        <ele>217.8</ele>
        <time>2020-12-06T09:48:44Z</time>
      </trkpt>
      <trkpt lat="46.83239" lon="-0.86535">
        <ele>217.2</ele>
        <time>2020-12-06T09:48:50Z</time>
      </trkpt>
      <trkpt lat="46.83243" lon="-0.86546">
        <ele>217</ele>
        <time>2020-12-06T09:48:52Z</time>
      </trkpt>
      <trkpt lat="46.8325" lon="-0.8657">
        <ele>216.4</ele>
        <time>2020-12-06T09:48:56Z</time>
      </trkpt>
      <trkpt lat="46.83254" lon="-0.86583">
        <ele>216.1</ele>
        <time>2020-12-06T09:48:58Z</time>
      </trkpt>
      <trkpt lat="46.83264" lon="-0.86606">
        <ele>215.6</ele>
        <time>2020-12-06T09:49:02Z</time>
      </trkpt>
      <trkpt lat="46.83278" lon="-0.86625">
        <ele>215.3</ele>
        <time>2020-12-06T09:49:06Z</time>
      </trkpt>
      <trkpt lat="46.83286" lon="-0.86631">
        <ele>215.2</ele>
        <time>2020-12-06T09:49:08Z</time>
      </trkpt>
      <trkpt lat="46.83295" lon="-0.86636">
        <ele>215.1</ele>
        <time>2020-12-06T09:49:10Z</time>
      </trkpt>
      <trkpt lat="46.83307" lon="-0.86647">
        <ele>215</ele>
        <time>2020-12-06T09:49:13Z</time>
      </trkpt>
      <trkpt lat="46.83318" lon="-0.86667">
        <ele>215.2</ele>
        <time>2020-12-06T09:49:17Z</time>
      </trkpt>
      <trkpt lat="46.83323" lon="-0.8668">
        <ele>215.3</ele>
        <time>2020-12-06T09:49:19Z</time>
      </trkpt>
      <trkpt lat="46.83324" lon="-0.86694">
        <ele>215.5</ele>
        <time>2020-12-06T09:49:21Z</time>
      </trkpt>
      <trkpt lat="46.8332" lon="-0.86725">
        <ele>216.1</ele>
        <time>2020-12-06T09:49:26Z</time>
      </trkpt>
      <trkpt lat="46.83311" lon="-0.86764">
        <ele>217.2</ele>
        <time>2020-12-06T09:49:33Z</time>
      </trkpt>
      <trkpt lat="46.83302" lon="-0.86815">
        <ele>218.5</ele>
        <time>2020-12-06T09:49:42Z</time>
      </trkpt>
      <trkpt lat="46.83297" lon="-0.8683">
        <ele>218.9</ele>
        <time>2020-12-06T09:49:45Z</time>
      </trkpt>
      <trkpt lat="46.83297" lon="-0.86834">
        <ele>219</ele>
        <time>2020-12-06T09:49:46Z</time>
      </trkpt>
      <trkpt lat="46.83294" lon="-0.8685">
        <ele>219.4</ele>
        <time>2020-12-06T09:49:50Z</time>
      </trkpt>
      <trkpt lat="46.83291" lon="-0.86874">
        <ele>219.8</ele>
        <time>2020-12-06T09:49:55Z</time>
      </trkpt>
      <trkpt lat="46.83288" lon="-0.86904">
        <ele>220.3</ele>
        <time>2020-12-06T09:50:01Z</time>
      </trkpt>
      <trkpt lat="46.83281" lon="-0.86945">
        <ele>220.8</ele>
        <time>2020-12-06T09:50:09Z</time>
      </trkpt>
      <trkpt lat="46.83279" lon="-0.8698">
        <ele>221.5</ele>
        <time>2020-12-06T09:50:16Z</time>
      </trkpt>
      <trkpt lat="46.8328" lon="-0.87023">
        <ele>222.1</ele>
        <time>2020-12-06T09:50:24Z</time>
      </trkpt>
      <trkpt lat="46.83285" lon="-0.8706">
        <ele>222.6</ele>
        <time>2020-12-06T09:50:31Z</time>
      </trkpt>
      <trkpt lat="46.83291" lon="-0.87097">
        <ele>223.3</ele>
        <time>2020-12-06T09:50:38Z</time>
      </trkpt>
      <trkpt lat="46.83296" lon="-0.8713">
        <ele>224</ele>
        <time>2020-12-06T09:50:44Z</time>
      </trkpt>
      <trkpt lat="46.83298" lon="-0.87156">
        <ele>224.4</ele>
        <time>2020-12-06T09:50:49Z</time>
      </trkpt>
      <trkpt lat="46.83303" lon="-0.87196">
        <ele>225</ele>
        <time>2020-12-06T09:50:56Z</time>
      </trkpt>
      <trkpt lat="46.83305" lon="-0.87232">
        <ele>225.7</ele>
        <time>2020-12-06T09:51:02Z</time>
      </trkpt>
      <trkpt lat="46.83311" lon="-0.87276">
        <ele>226.6</ele>
        <time>2020-12-06T09:51:10Z</time>
      </trkpt>
      <trkpt lat="46.83321" lon="-0.87316">
        <ele>227.3</ele>
        <time>2020-12-06T09:51:18Z</time>
      </trkpt>
      <trkpt lat="46.83328" lon="-0.87345">
        <ele>227.6</ele>
        <time>2020-12-06T09:51:24Z</time>
      </trkpt>
      <trkpt lat="46.83335" lon="-0.87372">
        <ele>228</ele>
        <time>2020-12-06T09:51:31Z</time>
      </trkpt>
      <trkpt lat="46.83339" lon="-0.87389">
        <ele>228.4</ele>
        <time>2020-12-06T09:51:35Z</time>
      </trkpt>
      <trkpt lat="46.83347" lon="-0.87422">
        <ele>229.2</ele>
        <time>2020-12-06T09:51:42Z</time>
      </trkpt>
      <trkpt lat="46.83354" lon="-0.87453">
        <ele>230.1</ele>
        <time>2020-12-06T09:51:49Z</time>
      </trkpt>
      <trkpt lat="46.83365" lon="-0.87491">
        <ele>231.4</ele>
        <time>2020-12-06T09:51:57Z</time>
      </trkpt>
      <trkpt lat="46.83375" lon="-0.8753">
        <ele>232.7</ele>
        <time>2020-12-06T09:52:05Z</time>
      </trkpt>
      <trkpt lat="46.83385" lon="-0.87573">
        <ele>234.3</ele>
        <time>2020-12-06T09:52:14Z</time>
      </trkpt>
      <trkpt lat="46.83395" lon="-0.87608">
        <ele>235.7</ele>
        <time>2020-12-06T09:52:21Z</time>
      </trkpt>
      <trkpt lat="46.83402" lon="-0.87636">
        <ele>237</ele>
        <time>2020-12-06T09:52:27Z</time>
      </trkpt>
      <trkpt lat="46.83407" lon="-0.87661">
        <ele>237.9</ele>
        <time>2020-12-06T09:52:32Z</time>
      </trkpt>
      <trkpt lat="46.83413" lon="-0.87684">
        <ele>238.8</ele>
        <time>2020-12-06T09:52:37Z</time>
      </trkpt>
      <trkpt lat="46.83418" lon="-0.87703">
        <ele>239.3</ele>
        <time>2020-12-06T09:52:41Z</time>
      </trkpt>
      <trkpt lat="46.83428" lon="-0.87744">
        <ele>240.2</ele>
        <time>2020-12-06T09:52:49Z</time>
      </trkpt>
      <trkpt lat="46.83435" lon="-0.8777">
        <ele>240.6</ele>
        <time>2020-12-06T09:52:55Z</time>
      </trkpt>
      <trkpt lat="46.83439" lon="-0.87788">
        <ele>240.7</ele>
        <time>2020-12-06T09:53:00Z</time>
      </trkpt>
      <trkpt lat="46.83438" lon="-0.87799">
        <ele>240.8</ele>
        <time>2020-12-06T09:53:03Z</time>
      </trkpt>
      <trkpt lat="46.83437" lon="-0.87802">
        <ele>240.9</ele>
        <time>2020-12-06T09:53:04Z</time>
      </trkpt>
      <trkpt lat="46.83435" lon="-0.87804">
        <ele>241</ele>
        <time>2020-12-06T09:53:05Z</time>
      </trkpt>
      <trkpt lat="46.83427" lon="-0.87807">
        <ele>241.3</ele>
        <time>2020-12-06T09:53:08Z</time>
      </trkpt>
      <trkpt lat="46.83415" lon="-0.87813">
        <ele>241.9</ele>
        <time>2020-12-06T09:53:13Z</time>
      </trkpt>
      <trkpt lat="46.83409" lon="-0.87826">
        <ele>242.7</ele>
        <time>2020-12-06T09:53:17Z</time>
      </trkpt>
      <trkpt lat="46.83406" lon="-0.87841">
        <ele>243.6</ele>
        <time>2020-12-06T09:53:22Z</time>
      </trkpt>
      <trkpt lat="46.83401" lon="-0.87871">
        <ele>245.2</ele>
        <time>2020-12-06T09:53:31Z</time>
      </trkpt>
      <trkpt lat="46.83398" lon="-0.87889">
        <ele>246.2</ele>
        <time>2020-12-06T09:53:37Z</time>
      </trkpt>
      <trkpt lat="46.83395" lon="-0.87908">
        <ele>247.3</ele>
        <time>2020-12-06T09:53:43Z</time>
      </trkpt>
      <trkpt lat="46.83391" lon="-0.8793">
        <ele>248.7</ele>
        <time>2020-12-06T09:53:50Z</time>
      </trkpt>
      <trkpt lat="46.83388" lon="-0.87942">
        <ele>249.5</ele>
        <time>2020-12-06T09:53:55Z</time>
      </trkpt>
      <trkpt lat="46.83385" lon="-0.87958">
        <ele>250.8</ele>
        <time>2020-12-06T09:54:01Z</time>
      </trkpt>
      <trkpt lat="46.83381" lon="-0.87977">
        <ele>252.6</ele>
        <time>2020-12-06T09:54:08Z</time>
      </trkpt>
      <trkpt lat="46.83378" lon="-0.87986">
        <ele>253.7</ele>
        <time>2020-12-06T09:54:12Z</time>
      </trkpt>
      <trkpt lat="46.83376" lon="-0.87991">
        <ele>254.3</ele>
        <time>2020-12-06T09:54:14Z</time>
      </trkpt>
      <trkpt lat="46.83371" lon="-0.8801">
        <ele>256.6</ele>
        <time>2020-12-06T09:54:21Z</time>
      </trkpt>
      <trkpt lat="46.83364" lon="-0.88029">
        <ele>259.1</ele>
        <time>2020-12-06T09:54:29Z</time>
      </trkpt>
      <trkpt lat="46.83363" lon="-0.88032">
        <ele>259.4</ele>
        <time>2020-12-06T09:54:30Z</time>
      </trkpt>
      <trkpt lat="46.83362" lon="-0.88036">
        <ele>260</ele>
        <time>2020-12-06T09:54:32Z</time>
      </trkpt>
      <trkpt lat="46.83361" lon="-0.88038">
        <ele>260.3</ele>
        <time>2020-12-06T09:54:33Z</time>
      </trkpt>
      <trkpt lat="46.8336" lon="-0.88039">
        <ele>260.6</ele>
        <time>2020-12-06T09:54:34Z</time>
      </trkpt>
      <trkpt lat="46.83356" lon="-0.88049">
        <ele>262</ele>
        <time>2020-12-06T09:54:38Z</time>
      </trkpt>
      <trkpt lat="46.83349" lon="-0.8807">
        <ele>264.7</ele>
        <time>2020-12-06T09:54:46Z</time>
      </trkpt>
      <trkpt lat="46.8334" lon="-0.88089">
        <ele>267.3</ele>
        <time>2020-12-06T09:54:54Z</time>
      </trkpt>
      <trkpt lat="46.83335" lon="-0.88106">
        <ele>269.4</ele>
        <time>2020-12-06T09:55:01Z</time>
      </trkpt>
      <trkpt lat="46.83328" lon="-0.88121">
        <ele>271</ele>
        <time>2020-12-06T09:55:07Z</time>
      </trkpt>
      <trkpt lat="46.8332" lon="-0.88141">
        <ele>272.9</ele>
        <time>2020-12-06T09:55:15Z</time>
      </trkpt>
      <trkpt lat="46.83314" lon="-0.88156">
        <ele>274.2</ele>
        <time>2020-12-06T09:55:21Z</time>
      </trkpt>
      <trkpt lat="46.83306" lon="-0.88174">
        <ele>275.5</ele>
        <time>2020-12-06T09:55:28Z</time>
      </trkpt>
      <trkpt lat="46.83298" lon="-0.88192">
        <ele>276.6</ele>
        <time>2020-12-06T09:55:35Z</time>
      </trkpt>
      <trkpt lat="46.83288" lon="-0.88212">
        <ele>277.7</ele>
        <time>2020-12-06T09:55:43Z</time>
      </trkpt>
      <trkpt lat="46.83277" lon="-0.88224">
        <ele>278.4</ele>
        <time>2020-12-06T09:55:49Z</time>
      </trkpt>
      <trkpt lat="46.83261" lon="-0.88241">
        <ele>279.4</ele>
        <time>2020-12-06T09:55:57Z</time>
      </trkpt>
      <trkpt lat="46.83252" lon="-0.88244">
        <ele>279.9</ele>
        <time>2020-12-06T09:56:01Z</time>
      </trkpt>
      <trkpt lat="46.8325" lon="-0.88243">
        <ele>279.3</ele>
        <time>2020-12-06T09:56:02Z</time>
      </trkpt>
      <trkpt lat="46.83245" lon="-0.88236">
        <ele>278.6</ele>
        <time>2020-12-06T09:56:05Z</time>
      </trkpt>
      <trkpt lat="46.83242" lon="-0.88233">
        <ele>278.2</ele>
        <time>2020-12-06T09:56:07Z</time>
      </trkpt>
      <trkpt lat="46.83228" lon="-0.88226">
        <ele>277.8</ele>
        <time>2020-12-06T09:56:14Z</time>
      </trkpt>
      <trkpt lat="46.83226" lon="-0.88227">
        <ele>277.8</ele>
        <time>2020-12-06T09:56:15Z</time>
      </trkpt>
      <trkpt lat="46.83222" lon="-0.8823">
        <ele>277.8</ele>
        <time>2020-12-06T09:56:18Z</time>
      </trkpt>
      <trkpt lat="46.83217" lon="-0.88231">
        <ele>277.8</ele>
        <time>2020-12-06T09:56:22Z</time>
      </trkpt>
      <trkpt lat="46.83214" lon="-0.88234">
        <ele>277.9</ele>
        <time>2020-12-06T09:56:24Z</time>
      </trkpt>
      <trkpt lat="46.8321" lon="-0.88233">
        <ele>277.9</ele>
        <time>2020-12-06T09:56:26Z</time>
      </trkpt>
      <trkpt lat="46.83208" lon="-0.88232">
        <ele>277.9</ele>
        <time>2020-12-06T09:56:27Z</time>
      </trkpt>
      <trkpt lat="46.83201" lon="-0.88226">
        <ele>278</ele>
        <time>2020-12-06T09:56:32Z</time>
      </trkpt>
      <trkpt lat="46.83201" lon="-0.88223">
        <ele>278</ele>
        <time>2020-12-06T09:56:34Z</time>
      </trkpt>
      <trkpt lat="46.83199" lon="-0.88215">
        <ele>278</ele>
        <time>2020-12-06T09:56:38Z</time>
      </trkpt>
      <trkpt lat="46.83197" lon="-0.88212">
        <ele>278</ele>
        <time>2020-12-06T09:56:40Z</time>
      </trkpt>
      <trkpt lat="46.83195" lon="-0.88204">
        <ele>278</ele>
        <time>2020-12-06T09:56:45Z</time>
      </trkpt>
      <trkpt lat="46.83194" lon="-0.88201">
        <ele>278</ele>
        <time>2020-12-06T09:56:47Z</time>
      </trkpt>
      <trkpt lat="46.83191" lon="-0.88201">
        <ele>278</ele>
        <time>2020-12-06T09:56:51Z</time>
      </trkpt>
      <trkpt lat="46.83188" lon="-0.88204">
        <ele>278</ele>
        <time>2020-12-06T09:58:50Z</time>
      </trkpt>
      <trkpt lat="46.83184" lon="-0.88206">
        <ele>278</ele>
        <time>2020-12-06T09:58:52Z</time>
      </trkpt>
      <trkpt lat="46.83182" lon="-0.88205">
        <ele>278</ele>
        <time>2020-12-06T09:58:53Z</time>
      </trkpt>
      <trkpt lat="46.83174" lon="-0.88206">
        <ele>278</ele>
        <time>2020-12-06T09:58:56Z</time>
      </trkpt>
      <trkpt lat="46.83161" lon="-0.88217">
        <ele>278</ele>
        <time>2020-12-06T09:59:01Z</time>
      </trkpt>
      <trkpt lat="46.83148" lon="-0.8823">
        <ele>278.1</ele>
        <time>2020-12-06T09:59:07Z</time>
      </trkpt>
      <trkpt lat="46.83139" lon="-0.88238">
        <ele>278.1</ele>
        <time>2020-12-06T09:59:12Z</time>
      </trkpt>
      <trkpt lat="46.83137" lon="-0.88242">
        <ele>278.1</ele>
        <time>2020-12-06T09:59:13Z</time>
      </trkpt>
      <trkpt lat="46.83136" lon="-0.88246">
        <ele>278.3</ele>
        <time>2020-12-06T09:59:14Z</time>
      </trkpt>
      <trkpt lat="46.83138" lon="-0.88252">
        <ele>278.8</ele>
        <time>2020-12-06T09:59:16Z</time>
      </trkpt>
      <trkpt lat="46.83144" lon="-0.88267">
        <ele>279.6</ele>
        <time>2020-12-06T09:59:21Z</time>
      </trkpt>
      <trkpt lat="46.83147" lon="-0.88294">
        <ele>279.8</ele>
        <time>2020-12-06T09:59:28Z</time>
      </trkpt>
      <trkpt lat="46.83149" lon="-0.88308">
        <ele>279.6</ele>
        <time>2020-12-06T09:59:34Z</time>
      </trkpt>
      <trkpt lat="46.83146" lon="-0.88304">
        <ele>279.7</ele>
        <time>2020-12-06T09:59:37Z</time>
      </trkpt>
      <trkpt lat="46.83145" lon="-0.88277">
        <ele>279.8</ele>
        <time>2020-12-06T09:59:42Z</time>
      </trkpt>
      <trkpt lat="46.83143" lon="-0.88273">
        <ele>279</ele>
        <time>2020-12-06T09:59:43Z</time>
      </trkpt>
      <trkpt lat="46.83141" lon="-0.88271">
        <ele>278.4</ele>
        <time>2020-12-06T09:59:45Z</time>
      </trkpt>
      <trkpt lat="46.83132" lon="-0.88275">
        <ele>276.4</ele>
        <time>2020-12-06T09:59:49Z</time>
      </trkpt>
      <trkpt lat="46.83122" lon="-0.88283">
        <ele>274.3</ele>
        <time>2020-12-06T09:59:54Z</time>
      </trkpt>
      <trkpt lat="46.83109" lon="-0.88291">
        <ele>273.9</ele>
        <time>2020-12-06T09:59:59Z</time>
      </trkpt>
      <trkpt lat="46.83108" lon="-0.88291">
        <ele>273.9</ele>
        <time>2020-12-06T10:00:00Z</time>
      </trkpt>
      <trkpt lat="46.831" lon="-0.88294">
        <ele>273.1</ele>
        <time>2020-12-06T10:00:27Z</time>
      </trkpt>
      <trkpt lat="46.83097" lon="-0.88294">
        <ele>272.7</ele>
        <time>2020-12-06T10:00:29Z</time>
      </trkpt>
      <trkpt lat="46.83093" lon="-0.88289">
        <ele>272.1</ele>
        <time>2020-12-06T10:00:33Z</time>
      </trkpt>
      <trkpt lat="46.83092" lon="-0.88289">
        <ele>272.1</ele>
        <time>2020-12-06T10:00:34Z</time>
      </trkpt>
      <trkpt lat="46.83087" lon="-0.88295">
        <ele>271.6</ele>
        <time>2020-12-06T10:00:39Z</time>
      </trkpt>
      <trkpt lat="46.83079" lon="-0.88296">
        <ele>270.8</ele>
        <time>2020-12-06T10:00:44Z</time>
      </trkpt>
      <trkpt lat="46.83072" lon="-0.88302">
        <ele>270.4</ele>
        <time>2020-12-06T10:00:57Z</time>
      </trkpt>
      <trkpt lat="46.83072" lon="-0.88305">
        <ele>270.2</ele>
        <time>2020-12-06T10:00:58Z</time>
      </trkpt>
      <trkpt lat="46.83073" lon="-0.88308">
        <ele>270.1</ele>
        <time>2020-12-06T10:00:59Z</time>
      </trkpt>
      <trkpt lat="46.83074" lon="-0.88322">
        <ele>269.8</ele>
        <time>2020-12-06T10:01:04Z</time>
      </trkpt>
      <trkpt lat="46.83065" lon="-0.88336">
        <ele>268.2</ele>
        <time>2020-12-06T10:01:08Z</time>
      </trkpt>
      <trkpt lat="46.8306" lon="-0.88338">
        <ele>267.5</ele>
        <time>2020-12-06T10:01:10Z</time>
      </trkpt>
      <trkpt lat="46.83058" lon="-0.88338">
        <ele>267.3</ele>
        <time>2020-12-06T10:01:11Z</time>
      </trkpt>
      <trkpt lat="46.83056" lon="-0.88339">
        <ele>267.3</ele>
        <time>2020-12-06T10:01:12Z</time>
      </trkpt>
      <trkpt lat="46.83055" lon="-0.88342">
        <ele>267.2</ele>
        <time>2020-12-06T10:01:14Z</time>
      </trkpt>
      <trkpt lat="46.83055" lon="-0.88343">
        <ele>267.1</ele>
        <time>2020-12-06T10:01:17Z</time>
      </trkpt>
      <trkpt lat="46.83053" lon="-0.88347">
        <ele>267</ele>
        <time>2020-12-06T10:01:21Z</time>
      </trkpt>
      <trkpt lat="46.83052" lon="-0.8835">
        <ele>266.9</ele>
        <time>2020-12-06T10:01:22Z</time>
      </trkpt>
      <trkpt lat="46.83036" lon="-0.88362">
        <ele>265.8</ele>
        <time>2020-12-06T10:01:27Z</time>
      </trkpt>
      <trkpt lat="46.83032" lon="-0.88365">
        <ele>265.7</ele>
        <time>2020-12-06T10:01:28Z</time>
      </trkpt>
      <trkpt lat="46.83024" lon="-0.88369">
        <ele>265.3</ele>
        <time>2020-12-06T10:01:30Z</time>
      </trkpt>
      <trkpt lat="46.83015" lon="-0.88373">
        <ele>265</ele>
        <time>2020-12-06T10:01:32Z</time>
      </trkpt>
      <trkpt lat="46.82994" lon="-0.88384">
        <ele>264.4</ele>
        <time>2020-12-06T10:01:37Z</time>
      </trkpt>
      <trkpt lat="46.82982" lon="-0.88392">
        <ele>264.1</ele>
        <time>2020-12-06T10:01:42Z</time>
      </trkpt>
      <trkpt lat="46.82981" lon="-0.88391">
        <ele>264.1</ele>
        <time>2020-12-06T10:01:43Z</time>
      </trkpt>
      <trkpt lat="46.82975" lon="-0.88395">
        <ele>263.9</ele>
        <time>2020-12-06T10:01:46Z</time>
      </trkpt>
      <trkpt lat="46.82959" lon="-0.88408">
        <ele>264</ele>
        <time>2020-12-06T10:01:51Z</time>
      </trkpt>
      <trkpt lat="46.82949" lon="-0.8843">
        <ele>263.8</ele>
        <time>2020-12-06T10:01:56Z</time>
      </trkpt>
      <trkpt lat="46.8295" lon="-0.88459">
        <ele>263.7</ele>
        <time>2020-12-06T10:02:01Z</time>
      </trkpt>
      <trkpt lat="46.82952" lon="-0.88506">
        <ele>263.6</ele>
        <time>2020-12-06T10:02:09Z</time>
      </trkpt>
      <trkpt lat="46.82947" lon="-0.88529">
        <ele>263.4</ele>
        <time>2020-12-06T10:02:13Z</time>
      </trkpt>
      <trkpt lat="46.82946" lon="-0.88535">
        <ele>263.4</ele>
        <time>2020-12-06T10:02:14Z</time>
      </trkpt>
      <trkpt lat="46.82946" lon="-0.88541">
        <ele>263.7</ele>
        <time>2020-12-06T10:02:15Z</time>
      </trkpt>
      <trkpt lat="46.8295" lon="-0.88559">
        <ele>264.4</ele>
        <time>2020-12-06T10:02:18Z</time>
      </trkpt>
      <trkpt lat="46.82961" lon="-0.88607">
        <ele>265.5</ele>
        <time>2020-12-06T10:02:26Z</time>
      </trkpt>
      <trkpt lat="46.82965" lon="-0.88625">
        <ele>265.6</ele>
        <time>2020-12-06T10:02:29Z</time>
      </trkpt>
      <trkpt lat="46.82965" lon="-0.88636">
        <ele>265.8</ele>
        <time>2020-12-06T10:02:31Z</time>
      </trkpt>
      <trkpt lat="46.82964" lon="-0.88642">
        <ele>265.8</ele>
        <time>2020-12-06T10:02:32Z</time>
      </trkpt>
      <trkpt lat="46.82959" lon="-0.88666">
        <ele>266</ele>
        <time>2020-12-06T10:02:37Z</time>
      </trkpt>
      <trkpt lat="46.82956" lon="-0.88668">
        <ele>266</ele>
        <time>2020-12-06T10:02:38Z</time>
      </trkpt>
      <trkpt lat="46.8295" lon="-0.88667">
        <ele>266</ele>
        <time>2020-12-06T10:02:40Z</time>
      </trkpt>
      <trkpt lat="46.82945" lon="-0.88666">
        <ele>266</ele>
        <time>2020-12-06T10:02:42Z</time>
      </trkpt>
      <trkpt lat="46.82935" lon="-0.88671">
        <ele>266</ele>
        <time>2020-12-06T10:02:47Z</time>
      </trkpt>
      <trkpt lat="46.82915" lon="-0.88688">
        <ele>265.9</ele>
        <time>2020-12-06T10:02:54Z</time>
      </trkpt>
      <trkpt lat="46.82898" lon="-0.88702">
        <ele>265.6</ele>
        <time>2020-12-06T10:02:59Z</time>
      </trkpt>
      <trkpt lat="46.8289" lon="-0.88705">
        <ele>265.4</ele>
        <time>2020-12-06T10:03:01Z</time>
      </trkpt>
      <trkpt lat="46.82877" lon="-0.88712">
        <ele>264.9</ele>
        <time>2020-12-06T10:03:04Z</time>
      </trkpt>
      <trkpt lat="46.82868" lon="-0.88717">
        <ele>264.1</ele>
        <time>2020-12-06T10:03:07Z</time>
      </trkpt>
      <trkpt lat="46.82866" lon="-0.8872">
        <ele>263.7</ele>
        <time>2020-12-06T10:03:08Z</time>
      </trkpt>
      <trkpt lat="46.82864" lon="-0.88722">
        <ele>263.4</ele>
        <time>2020-12-06T10:03:09Z</time>
      </trkpt>
      <trkpt lat="46.82857" lon="-0.88723">
        <ele>262.5</ele>
        <time>2020-12-06T10:03:11Z</time>
      </trkpt>
      <trkpt lat="46.82845" lon="-0.88736">
        <ele>260.8</ele>
        <time>2020-12-06T10:03:14Z</time>
      </trkpt>
      <trkpt lat="46.82828" lon="-0.8876">
        <ele>258.4</ele>
        <time>2020-12-06T10:03:18Z</time>
      </trkpt>
      <trkpt lat="46.82826" lon="-0.88767">
        <ele>257.9</ele>
        <time>2020-12-06T10:03:19Z</time>
      </trkpt>
      <trkpt lat="46.82827" lon="-0.88775">
        <ele>258.6</ele>
        <time>2020-12-06T10:03:20Z</time>
      </trkpt>
      <trkpt lat="46.82829" lon="-0.88782">
        <ele>259.3</ele>
        <time>2020-12-06T10:03:21Z</time>
      </trkpt>
      <trkpt lat="46.82834" lon="-0.88786">
        <ele>259.5</ele>
        <time>2020-12-06T10:03:22Z</time>
      </trkpt>
      <trkpt lat="46.82841" lon="-0.88793">
        <ele>259.7</ele>
        <time>2020-12-06T10:03:24Z</time>
      </trkpt>
      <trkpt lat="46.82846" lon="-0.88809">
        <ele>259.9</ele>
        <time>2020-12-06T10:03:27Z</time>
      </trkpt>
      <trkpt lat="46.8285" lon="-0.88824">
        <ele>260</ele>
        <time>2020-12-06T10:03:30Z</time>
      </trkpt>
      <trkpt lat="46.8285" lon="-0.8883">
        <ele>260.1</ele>
        <time>2020-12-06T10:03:31Z</time>
      </trkpt>
      <trkpt lat="46.82848" lon="-0.88842">
        <ele>260.2</ele>
        <time>2020-12-06T10:03:33Z</time>
      </trkpt>
      <trkpt lat="46.8285" lon="-0.88848">
        <ele>260.3</ele>
        <time>2020-12-06T10:03:34Z</time>
      </trkpt>
      <trkpt lat="46.82853" lon="-0.88853">
        <ele>260.3</ele>
        <time>2020-12-06T10:03:35Z</time>
      </trkpt>
      <trkpt lat="46.82872" lon="-0.88883">
        <ele>260.5</ele>
        <time>2020-12-06T10:03:41Z</time>
      </trkpt>
      <trkpt lat="46.82875" lon="-0.88888">
        <ele>260.5</ele>
        <time>2020-12-06T10:03:42Z</time>
      </trkpt>
      <trkpt lat="46.82889" lon="-0.8891">
        <ele>260.1</ele>
        <time>2020-12-06T10:03:46Z</time>
      </trkpt>
      <trkpt lat="46.82908" lon="-0.88936">
        <ele>256</ele>
        <time>2020-12-06T10:03:51Z</time>
      </trkpt>
      <trkpt lat="46.82911" lon="-0.8894">
        <ele>255.7</ele>
        <time>2020-12-06T10:03:52Z</time>
      </trkpt>
      <trkpt lat="46.82931" lon="-0.88967">
        <ele>254.9</ele>
        <time>2020-12-06T10:03:58Z</time>
      </trkpt>
      <trkpt lat="46.82941" lon="-0.88983">
        <ele>254.8</ele>
        <time>2020-12-06T10:04:01Z</time>
      </trkpt>
      <trkpt lat="46.82949" lon="-0.88997">
        <ele>254.8</ele>
        <time>2020-12-06T10:04:04Z</time>
      </trkpt>
      <trkpt lat="46.82954" lon="-0.89009">
        <ele>254.6</ele>
        <time>2020-12-06T10:04:07Z</time>
      </trkpt>
      <trkpt lat="46.82955" lon="-0.89013">
        <ele>254.4</ele>
        <time>2020-12-06T10:04:08Z</time>
      </trkpt>
      <trkpt lat="46.82952" lon="-0.89024">
        <ele>254.1</ele>
        <time>2020-12-06T10:04:10Z</time>
      </trkpt>
      <trkpt lat="46.82948" lon="-0.89035">
        <ele>253.6</ele>
        <time>2020-12-06T10:04:12Z</time>
      </trkpt>
      <trkpt lat="46.82936" lon="-0.89074">
        <ele>252.1</ele>
        <time>2020-12-06T10:04:18Z</time>
      </trkpt>
      <trkpt lat="46.82933" lon="-0.89088">
        <ele>251.6</ele>
        <time>2020-12-06T10:04:20Z</time>
      </trkpt>
      <trkpt lat="46.82928" lon="-0.8911">
        <ele>250.9</ele>
        <time>2020-12-06T10:04:23Z</time>
      </trkpt>
      <trkpt lat="46.82915" lon="-0.89173">
        <ele>248.8</ele>
        <time>2020-12-06T10:04:32Z</time>
      </trkpt>
      <trkpt lat="46.82913" lon="-0.8918">
        <ele>248.5</ele>
        <time>2020-12-06T10:04:33Z</time>
      </trkpt>
      <trkpt lat="46.82907" lon="-0.89211">
        <ele>247.1</ele>
        <time>2020-12-06T10:04:37Z</time>
      </trkpt>
      <trkpt lat="46.82904" lon="-0.89218">
        <ele>246.7</ele>
        <time>2020-12-06T10:04:38Z</time>
      </trkpt>
      <trkpt lat="46.82897" lon="-0.89231">
        <ele>245.7</ele>
        <time>2020-12-06T10:04:40Z</time>
      </trkpt>
      <trkpt lat="46.82891" lon="-0.89237">
        <ele>245.1</ele>
        <time>2020-12-06T10:04:41Z</time>
      </trkpt>
      <trkpt lat="46.82859" lon="-0.89263">
        <ele>242.1</ele>
        <time>2020-12-06T10:04:46Z</time>
      </trkpt>
      <trkpt lat="46.82803" lon="-0.89304">
        <ele>239.1</ele>
        <time>2020-12-06T10:04:53Z</time>
      </trkpt>
      <trkpt lat="46.82789" lon="-0.89317">
        <ele>238.6</ele>
        <time>2020-12-06T10:04:55Z</time>
      </trkpt>
      <trkpt lat="46.82768" lon="-0.89338">
        <ele>238.1</ele>
        <time>2020-12-06T10:04:58Z</time>
      </trkpt>
      <trkpt lat="46.82759" lon="-0.89354">
        <ele>237.8</ele>
        <time>2020-12-06T10:05:00Z</time>
      </trkpt>
      <trkpt lat="46.82754" lon="-0.89373">
        <ele>237.9</ele>
        <time>2020-12-06T10:05:03Z</time>
      </trkpt>
      <trkpt lat="46.82752" lon="-0.89383">
        <ele>238.3</ele>
        <time>2020-12-06T10:05:06Z</time>
      </trkpt>
      <trkpt lat="46.82752" lon="-0.89385">
        <ele>238.3</ele>
        <time>2020-12-06T10:05:09Z</time>
      </trkpt>
      <trkpt lat="46.82752" lon="-0.89385">
        <ele>238.3</ele>
        <time>2020-12-06T10:05:43Z</time>
      </trkpt>
      <trkpt lat="46.82752" lon="-0.89385">
        <ele>238.3</ele>
        <time>2020-12-06T10:05:44Z</time>
      </trkpt>
      <trkpt lat="46.8275" lon="-0.89389">
        <ele>238.5</ele>
        <time>2020-12-06T10:05:58Z</time>
      </trkpt>
      <trkpt lat="46.82748" lon="-0.89396">
        <ele>238.7</ele>
        <time>2020-12-06T10:06:00Z</time>
      </trkpt>
      <trkpt lat="46.82744" lon="-0.89413">
        <ele>238.9</ele>
        <time>2020-12-06T10:06:05Z</time>
      </trkpt>
      <trkpt lat="46.82743" lon="-0.89415">
        <ele>238.9</ele>
        <time>2020-12-06T10:06:06Z</time>
      </trkpt>
      <trkpt lat="46.82741" lon="-0.89423">
        <ele>238.7</ele>
        <time>2020-12-06T10:06:09Z</time>
      </trkpt>
      <trkpt lat="46.82734" lon="-0.89444">
        <ele>238.1</ele>
        <time>2020-12-06T10:06:16Z</time>
      </trkpt>
      <trkpt lat="46.82727" lon="-0.89463">
        <ele>237.2</ele>
        <time>2020-12-06T10:06:22Z</time>
      </trkpt>
      <trkpt lat="46.82726" lon="-0.89466">
        <ele>237</ele>
        <time>2020-12-06T10:06:23Z</time>
      </trkpt>
      <trkpt lat="46.82721" lon="-0.89476">
        <ele>236.4</ele>
        <time>2020-12-06T10:06:26Z</time>
      </trkpt>
      <trkpt lat="46.82714" lon="-0.89498">
        <ele>235.1</ele>
        <time>2020-12-06T10:06:32Z</time>
      </trkpt>
      <trkpt lat="46.8271" lon="-0.89509">
        <ele>234.3</ele>
        <time>2020-12-06T10:06:35Z</time>
      </trkpt>
      <trkpt lat="46.8271" lon="-0.89515">
        <ele>233.9</ele>
        <time>2020-12-06T10:06:37Z</time>
      </trkpt>
      <trkpt lat="46.82711" lon="-0.89531">
        <ele>232.7</ele>
        <time>2020-12-06T10:06:42Z</time>
      </trkpt>
      <trkpt lat="46.82704" lon="-0.89543">
        <ele>231.6</ele>
        <time>2020-12-06T10:06:46Z</time>
      </trkpt>
      <trkpt lat="46.8269" lon="-0.89558">
        <ele>229.9</ele>
        <time>2020-12-06T10:06:52Z</time>
      </trkpt>
      <trkpt lat="46.82679" lon="-0.89568">
        <ele>228.4</ele>
        <time>2020-12-06T10:06:57Z</time>
      </trkpt>
      <trkpt lat="46.82668" lon="-0.89578">
        <ele>226.7</ele>
        <time>2020-12-06T10:07:02Z</time>
      </trkpt>
      <trkpt lat="46.82658" lon="-0.89587">
        <ele>225</ele>
        <time>2020-12-06T10:07:07Z</time>
      </trkpt>
      <trkpt lat="46.82649" lon="-0.89596">
        <ele>223.1</ele>
        <time>2020-12-06T10:07:12Z</time>
      </trkpt>
      <trkpt lat="46.82634" lon="-0.89615">
        <ele>219.2</ele>
        <time>2020-12-06T10:07:19Z</time>
      </trkpt>
      <trkpt lat="46.82626" lon="-0.89636">
        <ele>216.2</ele>
        <time>2020-12-06T10:07:25Z</time>
      </trkpt>
      <trkpt lat="46.82618" lon="-0.8966">
        <ele>213.1</ele>
        <time>2020-12-06T10:07:31Z</time>
      </trkpt>
      <trkpt lat="46.82611" lon="-0.8968">
        <ele>210.8</ele>
        <time>2020-12-06T10:07:36Z</time>
      </trkpt>
      <trkpt lat="46.82605" lon="-0.89697">
        <ele>209.1</ele>
        <time>2020-12-06T10:07:40Z</time>
      </trkpt>
      <trkpt lat="46.82601" lon="-0.89711">
        <ele>207.5</ele>
        <time>2020-12-06T10:07:44Z</time>
      </trkpt>
      <trkpt lat="46.82599" lon="-0.8973">
        <ele>205.5</ele>
        <time>2020-12-06T10:07:48Z</time>
      </trkpt>
      <trkpt lat="46.82601" lon="-0.89755">
        <ele>202.9</ele>
        <time>2020-12-06T10:07:53Z</time>
      </trkpt>
      <trkpt lat="46.82602" lon="-0.89763">
        <ele>201.9</ele>
        <time>2020-12-06T10:07:55Z</time>
      </trkpt>
      <trkpt lat="46.82607" lon="-0.89772">
        <ele>200.7</ele>
        <time>2020-12-06T10:07:57Z</time>
      </trkpt>
      <trkpt lat="46.82615" lon="-0.89783">
        <ele>199</ele>
        <time>2020-12-06T10:08:00Z</time>
      </trkpt>
      <trkpt lat="46.82621" lon="-0.89789">
        <ele>197.8</ele>
        <time>2020-12-06T10:08:02Z</time>
      </trkpt>
      <trkpt lat="46.82631" lon="-0.89814">
        <ele>194.9</ele>
        <time>2020-12-06T10:08:06Z</time>
      </trkpt>
      <trkpt lat="46.82634" lon="-0.8982">
        <ele>194.3</ele>
        <time>2020-12-06T10:08:07Z</time>
      </trkpt>
      <trkpt lat="46.82642" lon="-0.8983">
        <ele>193.2</ele>
        <time>2020-12-06T10:08:09Z</time>
      </trkpt>
      <trkpt lat="46.82646" lon="-0.89834">
        <ele>192.6</ele>
        <time>2020-12-06T10:08:10Z</time>
      </trkpt>
      <trkpt lat="46.82651" lon="-0.89837">
        <ele>192.1</ele>
        <time>2020-12-06T10:08:11Z</time>
      </trkpt>
      <trkpt lat="46.82662" lon="-0.89844">
        <ele>191.4</ele>
        <time>2020-12-06T10:08:13Z</time>
      </trkpt>
      <trkpt lat="46.82667" lon="-0.89847">
        <ele>191.1</ele>
        <time>2020-12-06T10:08:14Z</time>
      </trkpt>
      <trkpt lat="46.82672" lon="-0.89851">
        <ele>190.9</ele>
        <time>2020-12-06T10:08:15Z</time>
      </trkpt>
      <trkpt lat="46.82687" lon="-0.89863">
        <ele>191</ele>
        <time>2020-12-06T10:08:18Z</time>
      </trkpt>
      <trkpt lat="46.8269" lon="-0.89867">
        <ele>191.1</ele>
        <time>2020-12-06T10:08:19Z</time>
      </trkpt>
      <trkpt lat="46.82699" lon="-0.8988">
        <ele>191.6</ele>
        <time>2020-12-06T10:08:23Z</time>
      </trkpt>
      <trkpt lat="46.82703" lon="-0.89888">
        <ele>191.9</ele>
        <time>2020-12-06T10:08:26Z</time>
      </trkpt>
      <trkpt lat="46.82704" lon="-0.89894">
        <ele>192.2</ele>
        <time>2020-12-06T10:08:28Z</time>
      </trkpt>
      <trkpt lat="46.82703" lon="-0.89898">
        <ele>192.3</ele>
        <time>2020-12-06T10:08:29Z</time>
      </trkpt>
      <trkpt lat="46.827" lon="-0.89906">
        <ele>192.5</ele>
        <time>2020-12-06T10:08:31Z</time>
      </trkpt>
      <trkpt lat="46.82687" lon="-0.89919">
        <ele>193</ele>
        <time>2020-12-06T10:08:37Z</time>
      </trkpt>
      <trkpt lat="46.82673" lon="-0.89937">
        <ele>193.8</ele>
        <time>2020-12-06T10:08:44Z</time>
      </trkpt>
      <trkpt lat="46.82667" lon="-0.89952">
        <ele>194.6</ele>
        <time>2020-12-06T10:08:49Z</time>
      </trkpt>
      <trkpt lat="46.82663" lon="-0.89973">
        <ele>195.5</ele>
        <time>2020-12-06T10:08:55Z</time>
      </trkpt>
      <trkpt lat="46.8266" lon="-0.89995">
        <ele>196</ele>
        <time>2020-12-06T10:09:00Z</time>
      </trkpt>
      <trkpt lat="46.8266" lon="-0.90015">
        <ele>195.9</ele>
        <time>2020-12-06T10:09:05Z</time>
      </trkpt>
      <trkpt lat="46.8266" lon="-0.90021">
        <ele>195.8</ele>
        <time>2020-12-06T10:09:07Z</time>
      </trkpt>
      <trkpt lat="46.8266" lon="-0.90024">
        <ele>195.7</ele>
        <time>2020-12-06T10:09:08Z</time>
      </trkpt>
      <trkpt lat="46.82664" lon="-0.90045">
        <ele>195</ele>
        <time>2020-12-06T10:09:13Z</time>
      </trkpt>
      <trkpt lat="46.82671" lon="-0.90068">
        <ele>194</ele>
        <time>2020-12-06T10:09:17Z</time>
      </trkpt>
      <trkpt lat="46.82673" lon="-0.90076">
        <ele>193.7</ele>
        <time>2020-12-06T10:09:18Z</time>
      </trkpt>
      <trkpt lat="46.82685" lon="-0.90132">
        <ele>192</ele>
        <time>2020-12-06T10:09:25Z</time>
      </trkpt>
      <trkpt lat="46.82691" lon="-0.90161">
        <ele>191.8</ele>
        <time>2020-12-06T10:09:29Z</time>
      </trkpt>
      <trkpt lat="46.82691" lon="-0.90176">
        <ele>191.7</ele>
        <time>2020-12-06T10:09:31Z</time>
      </trkpt>
      <trkpt lat="46.82689" lon="-0.9019">
        <ele>191.5</ele>
        <time>2020-12-06T10:09:33Z</time>
      </trkpt>
      <trkpt lat="46.82682" lon="-0.90217">
        <ele>191.1</ele>
        <time>2020-12-06T10:09:37Z</time>
      </trkpt>
      <trkpt lat="46.82667" lon="-0.90251">
        <ele>190.6</ele>
        <time>2020-12-06T10:09:42Z</time>
      </trkpt>
      <trkpt lat="46.82656" lon="-0.90292">
        <ele>190.4</ele>
        <time>2020-12-06T10:09:48Z</time>
      </trkpt>
      <trkpt lat="46.82656" lon="-0.90299">
        <ele>190.4</ele>
        <time>2020-12-06T10:09:49Z</time>
      </trkpt>
      <trkpt lat="46.82655" lon="-0.90344">
        <ele>190.6</ele>
        <time>2020-12-06T10:09:56Z</time>
      </trkpt>
      <trkpt lat="46.82654" lon="-0.90382">
        <ele>190.4</ele>
        <time>2020-12-06T10:10:02Z</time>
      </trkpt>
      <trkpt lat="46.82653" lon="-0.90425">
        <ele>190.5</ele>
        <time>2020-12-06T10:10:09Z</time>
      </trkpt>
      <trkpt lat="46.82657" lon="-0.90469">
        <ele>190.5</ele>
        <time>2020-12-06T10:10:16Z</time>
      </trkpt>
      <trkpt lat="46.82666" lon="-0.90519">
        <ele>190.6</ele>
        <time>2020-12-06T10:10:24Z</time>
      </trkpt>
      <trkpt lat="46.82669" lon="-0.90538">
        <ele>190.8</ele>
        <time>2020-12-06T10:10:27Z</time>
      </trkpt>
      <trkpt lat="46.82673" lon="-0.90557">
        <ele>190.9</ele>
        <time>2020-12-06T10:10:30Z</time>
      </trkpt>
      <trkpt lat="46.8268" lon="-0.90611">
        <ele>191.4</ele>
        <time>2020-12-06T10:10:38Z</time>
      </trkpt>
      <trkpt lat="46.82685" lon="-0.90673">
        <ele>191.8</ele>
        <time>2020-12-06T10:10:47Z</time>
      </trkpt>
      <trkpt lat="46.82688" lon="-0.90717">
        <ele>191.7</ele>
        <time>2020-12-06T10:10:54Z</time>
      </trkpt>
      <trkpt lat="46.82689" lon="-0.90756">
        <ele>190.2</ele>
        <time>2020-12-06T10:11:01Z</time>
      </trkpt>
      <trkpt lat="46.82683" lon="-0.90805">
        <ele>186.5</ele>
        <time>2020-12-06T10:11:07Z</time>
      </trkpt>
      <trkpt lat="46.82675" lon="-0.90865">
        <ele>181.1</ele>
        <time>2020-12-06T10:11:12Z</time>
      </trkpt>
      <trkpt lat="46.82673" lon="-0.90922">
        <ele>177.1</ele>
        <time>2020-12-06T10:11:16Z</time>
      </trkpt>
      <trkpt lat="46.82675" lon="-0.90937">
        <ele>176.5</ele>
        <time>2020-12-06T10:11:17Z</time>
      </trkpt>
      <trkpt lat="46.82679" lon="-0.90951">
        <ele>176.2</ele>
        <time>2020-12-06T10:11:18Z</time>
      </trkpt>
      <trkpt lat="46.82685" lon="-0.90963">
        <ele>176</ele>
        <time>2020-12-06T10:11:19Z</time>
      </trkpt>
      <trkpt lat="46.82692" lon="-0.90973">
        <ele>175.9</ele>
        <time>2020-12-06T10:11:20Z</time>
      </trkpt>
      <trkpt lat="46.82713" lon="-0.90997">
        <ele>175.8</ele>
        <time>2020-12-06T10:11:23Z</time>
      </trkpt>
      <trkpt lat="46.82743" lon="-0.91034">
        <ele>176.2</ele>
        <time>2020-12-06T10:11:28Z</time>
      </trkpt>
      <trkpt lat="46.82779" lon="-0.9108">
        <ele>176.7</ele>
        <time>2020-12-06T10:11:35Z</time>
      </trkpt>
      <trkpt lat="46.82805" lon="-0.91113">
        <ele>177.4</ele>
        <time>2020-12-06T10:11:41Z</time>
      </trkpt>
      <trkpt lat="46.82826" lon="-0.91138">
        <ele>178</ele>
        <time>2020-12-06T10:11:47Z</time>
      </trkpt>
      <trkpt lat="46.82845" lon="-0.91158">
        <ele>178.3</ele>
        <time>2020-12-06T10:11:52Z</time>
      </trkpt>
      <trkpt lat="46.82875" lon="-0.91185">
        <ele>177.7</ele>
        <time>2020-12-06T10:11:59Z</time>
      </trkpt>
      <trkpt lat="46.82911" lon="-0.9121">
        <ele>176</ele>
        <time>2020-12-06T10:12:07Z</time>
      </trkpt>
      <trkpt lat="46.82931" lon="-0.91222">
        <ele>175.1</ele>
        <time>2020-12-06T10:12:11Z</time>
      </trkpt>
      <trkpt lat="46.82947" lon="-0.91231">
        <ele>174.5</ele>
        <time>2020-12-06T10:12:14Z</time>
      </trkpt>
      <trkpt lat="46.82963" lon="-0.9124">
        <ele>173.8</ele>
        <time>2020-12-06T10:12:17Z</time>
      </trkpt>
      <trkpt lat="46.82974" lon="-0.91243">
        <ele>174</ele>
        <time>2020-12-06T10:12:19Z</time>
      </trkpt>
      <trkpt lat="46.83004" lon="-0.91249">
        <ele>174.8</ele>
        <time>2020-12-06T10:12:25Z</time>
      </trkpt>
      <trkpt lat="46.83027" lon="-0.91256">
        <ele>174.4</ele>
        <time>2020-12-06T10:12:31Z</time>
      </trkpt>
      <trkpt lat="46.83042" lon="-0.91259">
        <ele>173.2</ele>
        <time>2020-12-06T10:12:35Z</time>
      </trkpt>
      <trkpt lat="46.83051" lon="-0.91265">
        <ele>172.7</ele>
        <time>2020-12-06T10:12:37Z</time>
      </trkpt>
      <trkpt lat="46.83061" lon="-0.91275">
        <ele>172.5</ele>
        <time>2020-12-06T10:12:39Z</time>
      </trkpt>
      <trkpt lat="46.83069" lon="-0.91288">
        <ele>172.5</ele>
        <time>2020-12-06T10:12:41Z</time>
      </trkpt>
      <trkpt lat="46.83083" lon="-0.91308">
        <ele>173</ele>
        <time>2020-12-06T10:12:44Z</time>
      </trkpt>
      <trkpt lat="46.83088" lon="-0.91325">
        <ele>172.6</ele>
        <time>2020-12-06T10:12:46Z</time>
      </trkpt>
      <trkpt lat="46.8309" lon="-0.91351">
        <ele>171</ele>
        <time>2020-12-06T10:12:49Z</time>
      </trkpt>
      <trkpt lat="46.8309" lon="-0.91364">
        <ele>170.2</ele>
        <time>2020-12-06T10:12:51Z</time>
      </trkpt>
      <trkpt lat="46.83091" lon="-0.91372">
        <ele>170.1</ele>
        <time>2020-12-06T10:12:54Z</time>
      </trkpt>
      <trkpt lat="46.83091" lon="-0.91373">
        <ele>170.1</ele>
        <time>2020-12-06T10:12:57Z</time>
      </trkpt>
      <trkpt lat="46.83092" lon="-0.91379">
        <ele>170</ele>
        <time>2020-12-06T10:13:10Z</time>
      </trkpt>
      <trkpt lat="46.83096" lon="-0.91395">
        <ele>169.6</ele>
        <time>2020-12-06T10:13:14Z</time>
      </trkpt>
      <trkpt lat="46.83101" lon="-0.91415">
        <ele>169.5</ele>
        <time>2020-12-06T10:13:19Z</time>
      </trkpt>
      <trkpt lat="46.83107" lon="-0.91433">
        <ele>170.6</ele>
        <time>2020-12-06T10:13:26Z</time>
      </trkpt>
      <trkpt lat="46.83104" lon="-0.91448">
        <ele>170.1</ele>
        <time>2020-12-06T10:13:31Z</time>
      </trkpt>
      <trkpt lat="46.83099" lon="-0.91458">
        <ele>170</ele>
        <time>2020-12-06T10:13:36Z</time>
      </trkpt>
      <trkpt lat="46.831" lon="-0.91478">
        <ele>170.6</ele>
        <time>2020-12-06T10:13:52Z</time>
      </trkpt>
      <trkpt lat="46.831" lon="-0.91486">
        <ele>170.8</ele>
        <time>2020-12-06T10:13:54Z</time>
      </trkpt>
      <trkpt lat="46.83102" lon="-0.91499">
        <ele>171.4</ele>
        <time>2020-12-06T10:13:58Z</time>
      </trkpt>
      <trkpt lat="46.83103" lon="-0.91499">
        <ele>171.4</ele>
        <time>2020-12-06T10:13:59Z</time>
      </trkpt>
      <trkpt lat="46.83109" lon="-0.91509">
        <ele>172.2</ele>
        <time>2020-12-06T10:14:15Z</time>
      </trkpt>
      <trkpt lat="46.83111" lon="-0.91511">
        <ele>172.6</ele>
        <time>2020-12-06T10:14:17Z</time>
      </trkpt>
      <trkpt lat="46.83119" lon="-0.91513">
        <ele>173.5</ele>
        <time>2020-12-06T10:14:21Z</time>
      </trkpt>
      <trkpt lat="46.83127" lon="-0.91514">
        <ele>174.2</ele>
        <time>2020-12-06T10:14:26Z</time>
      </trkpt>
      <trkpt lat="46.83128" lon="-0.91515">
        <ele>174.6</ele>
        <time>2020-12-06T10:14:27Z</time>
      </trkpt>
      <trkpt lat="46.83132" lon="-0.91517">
        <ele>174.9</ele>
        <time>2020-12-06T10:14:30Z</time>
      </trkpt>
      <trkpt lat="46.8314" lon="-0.91524">
        <ele>175.7</ele>
        <time>2020-12-06T10:14:36Z</time>
      </trkpt>
      <trkpt lat="46.83144" lon="-0.91527">
        <ele>176.4</ele>
        <time>2020-12-06T10:14:39Z</time>
      </trkpt>
      <trkpt lat="46.83145" lon="-0.91528">
        <ele>176.4</ele>
        <time>2020-12-06T10:14:40Z</time>
      </trkpt>
      <trkpt lat="46.83151" lon="-0.91533">
        <ele>177</ele>
        <time>2020-12-06T10:14:45Z</time>
      </trkpt>
      <trkpt lat="46.83158" lon="-0.91536">
        <ele>177.7</ele>
        <time>2020-12-06T10:14:51Z</time>
      </trkpt>
      <trkpt lat="46.83162" lon="-0.91542">
        <ele>178.2</ele>
        <time>2020-12-06T10:14:56Z</time>
      </trkpt>
      <trkpt lat="46.83163" lon="-0.91543">
        <ele>178.6</ele>
        <time>2020-12-06T10:14:57Z</time>
      </trkpt>
      <trkpt lat="46.8317" lon="-0.91549">
        <ele>179.7</ele>
        <time>2020-12-06T10:15:03Z</time>
      </trkpt>
      <trkpt lat="46.83171" lon="-0.9155">
        <ele>179.7</ele>
        <time>2020-12-06T10:15:04Z</time>
      </trkpt>
      <trkpt lat="46.83177" lon="-0.91552">
        <ele>180.6</ele>
        <time>2020-12-06T10:15:08Z</time>
      </trkpt>
      <trkpt lat="46.83184" lon="-0.91557">
        <ele>181.2</ele>
        <time>2020-12-06T10:15:15Z</time>
      </trkpt>
      <trkpt lat="46.83189" lon="-0.91563">
        <ele>181.9</ele>
        <time>2020-12-06T10:15:21Z</time>
      </trkpt>
      <trkpt lat="46.83198" lon="-0.91568">
        <ele>182.7</ele>
        <time>2020-12-06T10:15:28Z</time>
      </trkpt>
      <trkpt lat="46.83206" lon="-0.91575">
        <ele>183.5</ele>
        <time>2020-12-06T10:15:32Z</time>
      </trkpt>
      <trkpt lat="46.83214" lon="-0.91584">
        <ele>184.5</ele>
        <time>2020-12-06T10:15:37Z</time>
      </trkpt>
      <trkpt lat="46.83217" lon="-0.91587">
        <ele>185</ele>
        <time>2020-12-06T10:15:40Z</time>
      </trkpt>
      <trkpt lat="46.83241" lon="-0.91588">
        <ele>188</ele>
        <time>2020-12-06T10:21:21Z</time>
      </trkpt>
      <trkpt lat="46.83249" lon="-0.91582">
        <ele>189.2</ele>
        <time>2020-12-06T10:21:26Z</time>
      </trkpt>
      <trkpt lat="46.83263" lon="-0.91576">
        <ele>190.6</ele>
        <time>2020-12-06T10:21:32Z</time>
      </trkpt>
      <trkpt lat="46.83273" lon="-0.91577">
        <ele>191.9</ele>
        <time>2020-12-06T10:21:36Z</time>
      </trkpt>
      <trkpt lat="46.83275" lon="-0.91577">
        <ele>192.2</ele>
        <time>2020-12-06T10:21:37Z</time>
      </trkpt>
      <trkpt lat="46.83291" lon="-0.91575">
        <ele>193.3</ele>
        <time>2020-12-06T10:21:43Z</time>
      </trkpt>
      <trkpt lat="46.83308" lon="-0.91568">
        <ele>194.7</ele>
        <time>2020-12-06T10:21:49Z</time>
      </trkpt>
      <trkpt lat="46.83319" lon="-0.91569">
        <ele>195.2</ele>
        <time>2020-12-06T10:21:53Z</time>
      </trkpt>
      <trkpt lat="46.83327" lon="-0.91577">
        <ele>195.3</ele>
        <time>2020-12-06T10:21:58Z</time>
      </trkpt>
      <trkpt lat="46.83333" lon="-0.91588">
        <ele>195</ele>
        <time>2020-12-06T10:22:04Z</time>
      </trkpt>
      <trkpt lat="46.83337" lon="-0.91593">
        <ele>195</ele>
        <time>2020-12-06T10:22:07Z</time>
      </trkpt>
      <trkpt lat="46.83341" lon="-0.91598">
        <ele>194.8</ele>
        <time>2020-12-06T10:22:09Z</time>
      </trkpt>
      <trkpt lat="46.83345" lon="-0.91599">
        <ele>194.6</ele>
        <time>2020-12-06T10:22:11Z</time>
      </trkpt>
      <trkpt lat="46.83348" lon="-0.91597">
        <ele>195</ele>
        <time>2020-12-06T10:22:13Z</time>
      </trkpt>
      <trkpt lat="46.83354" lon="-0.91592">
        <ele>195.4</ele>
        <time>2020-12-06T10:22:16Z</time>
      </trkpt>
      <trkpt lat="46.83359" lon="-0.91592">
        <ele>195.5</ele>
        <time>2020-12-06T10:22:18Z</time>
      </trkpt>
      <trkpt lat="46.83373" lon="-0.91601">
        <ele>195</ele>
        <time>2020-12-06T10:22:23Z</time>
      </trkpt>
      <trkpt lat="46.83387" lon="-0.9161">
        <ele>194</ele>
        <time>2020-12-06T10:22:27Z</time>
      </trkpt>
      <trkpt lat="46.83391" lon="-0.91614">
        <ele>193.6</ele>
        <time>2020-12-06T10:22:28Z</time>
      </trkpt>
      <trkpt lat="46.83404" lon="-0.91625">
        <ele>192.1</ele>
        <time>2020-12-06T10:22:31Z</time>
      </trkpt>
      <trkpt lat="46.83414" lon="-0.91634">
        <ele>191</ele>
        <time>2020-12-06T10:22:35Z</time>
      </trkpt>
      <trkpt lat="46.83419" lon="-0.91639">
        <ele>190.5</ele>
        <time>2020-12-06T10:22:38Z</time>
      </trkpt>
      <trkpt lat="46.83421" lon="-0.9164">
        <ele>190.6</ele>
        <time>2020-12-06T10:22:40Z</time>
      </trkpt>
      <trkpt lat="46.83421" lon="-0.9164">
        <ele>190.6</ele>
        <time>2020-12-06T10:22:41Z</time>
      </trkpt>
      <trkpt lat="46.83419" lon="-0.91651">
        <ele>189.9</ele>
        <time>2020-12-06T10:27:22Z</time>
      </trkpt>
      <trkpt lat="46.83417" lon="-0.91655">
        <ele>189.6</ele>
        <time>2020-12-06T10:27:23Z</time>
      </trkpt>
      <trkpt lat="46.834" lon="-0.91675">
        <ele>187.7</ele>
        <time>2020-12-06T10:27:28Z</time>
      </trkpt>
      <trkpt lat="46.83376" lon="-0.91694">
        <ele>185.9</ele>
        <time>2020-12-06T10:27:33Z</time>
      </trkpt>
      <trkpt lat="46.83351" lon="-0.91721">
        <ele>184.2</ele>
        <time>2020-12-06T10:27:38Z</time>
      </trkpt>
      <trkpt lat="46.83333" lon="-0.91749">
        <ele>183</ele>
        <time>2020-12-06T10:27:42Z</time>
      </trkpt>
      <trkpt lat="46.83328" lon="-0.91758">
        <ele>182.6</ele>
        <time>2020-12-06T10:27:45Z</time>
      </trkpt>
      <trkpt lat="46.83326" lon="-0.91759">
        <ele>182.5</ele>
        <time>2020-12-06T10:27:47Z</time>
      </trkpt>
      <trkpt lat="46.83327" lon="-0.91756">
        <ele>182.4</ele>
        <time>2020-12-06T10:27:50Z</time>
      </trkpt>
      <trkpt lat="46.83329" lon="-0.91755">
        <ele>182.3</ele>
        <time>2020-12-06T10:27:51Z</time>
      </trkpt>
      <trkpt lat="46.83332" lon="-0.91755">
        <ele>182.2</ele>
        <time>2020-12-06T10:27:53Z</time>
      </trkpt>
      <trkpt lat="46.83337" lon="-0.9176">
        <ele>180.8</ele>
        <time>2020-12-06T10:27:55Z</time>
      </trkpt>
      <trkpt lat="46.83351" lon="-0.91775">
        <ele>177.3</ele>
        <time>2020-12-06T10:27:59Z</time>
      </trkpt>
      <trkpt lat="46.8336" lon="-0.91785">
        <ele>175.1</ele>
        <time>2020-12-06T10:28:01Z</time>
      </trkpt>
      <trkpt lat="46.8337" lon="-0.91797">
        <ele>173.1</ele>
        <time>2020-12-06T10:28:03Z</time>
      </trkpt>
      <trkpt lat="46.83385" lon="-0.91821">
        <ele>170.5</ele>
        <time>2020-12-06T10:28:06Z</time>
      </trkpt>
      <trkpt lat="46.83394" lon="-0.91837">
        <ele>169.1</ele>
        <time>2020-12-06T10:28:08Z</time>
      </trkpt>
      <trkpt lat="46.83409" lon="-0.91864">
        <ele>167.9</ele>
        <time>2020-12-06T10:28:12Z</time>
      </trkpt>
      <trkpt lat="46.83409" lon="-0.91886">
        <ele>167.5</ele>
        <time>2020-12-06T10:28:15Z</time>
      </trkpt>
      <trkpt lat="46.8341" lon="-0.91893">
        <ele>167.5</ele>
        <time>2020-12-06T10:28:16Z</time>
      </trkpt>
      <trkpt lat="46.83414" lon="-0.91904">
        <ele>167.5</ele>
        <time>2020-12-06T10:28:18Z</time>
      </trkpt>
      <trkpt lat="46.83429" lon="-0.91923">
        <ele>168.2</ele>
        <time>2020-12-06T10:28:23Z</time>
      </trkpt>
      <trkpt lat="46.83451" lon="-0.91947">
        <ele>169.8</ele>
        <time>2020-12-06T10:28:30Z</time>
      </trkpt>
      <trkpt lat="46.83471" lon="-0.91961">
        <ele>171</ele>
        <time>2020-12-06T10:28:36Z</time>
      </trkpt>
      <trkpt lat="46.83484" lon="-0.91963">
        <ele>171.9</ele>
        <time>2020-12-06T10:28:40Z</time>
      </trkpt>
      <trkpt lat="46.83486" lon="-0.91961">
        <ele>172.3</ele>
        <time>2020-12-06T10:28:41Z</time>
      </trkpt>
      <trkpt lat="46.83495" lon="-0.91942">
        <ele>173.2</ele>
        <time>2020-12-06T10:28:47Z</time>
      </trkpt>
      <trkpt lat="46.83505" lon="-0.91918">
        <ele>174.3</ele>
        <time>2020-12-06T10:28:54Z</time>
      </trkpt>
      <trkpt lat="46.83519" lon="-0.91896">
        <ele>175.5</ele>
        <time>2020-12-06T10:29:01Z</time>
      </trkpt>
      <trkpt lat="46.83532" lon="-0.91875">
        <ele>177.1</ele>
        <time>2020-12-06T10:29:08Z</time>
      </trkpt>
      <trkpt lat="46.83544" lon="-0.91868">
        <ele>178.4</ele>
        <time>2020-12-06T10:29:14Z</time>
      </trkpt>
      <trkpt lat="46.83559" lon="-0.91854">
        <ele>180.7</ele>
        <time>2020-12-06T10:29:23Z</time>
      </trkpt>
      <trkpt lat="46.83565" lon="-0.91844">
        <ele>181.8</ele>
        <time>2020-12-06T10:29:28Z</time>
      </trkpt>
      <trkpt lat="46.83567" lon="-0.91843">
        <ele>182.1</ele>
        <time>2020-12-06T10:29:29Z</time>
      </trkpt>
      <trkpt lat="46.83578" lon="-0.91834">
        <ele>183.5</ele>
        <time>2020-12-06T10:29:37Z</time>
      </trkpt>
      <trkpt lat="46.8359" lon="-0.91827">
        <ele>185.1</ele>
        <time>2020-12-06T10:29:44Z</time>
      </trkpt>
      <trkpt lat="46.836" lon="-0.91816">
        <ele>187</ele>
        <time>2020-12-06T10:29:50Z</time>
      </trkpt>
      <trkpt lat="46.83601" lon="-0.91814">
        <ele>187.3</ele>
        <time>2020-12-06T10:29:51Z</time>
      </trkpt>
      <trkpt lat="46.83606" lon="-0.91806">
        <ele>188.4</ele>
        <time>2020-12-06T10:29:55Z</time>
      </trkpt>
      <trkpt lat="46.83614" lon="-0.91787">
        <ele>191</ele>
        <time>2020-12-06T10:30:03Z</time>
      </trkpt>
      <trkpt lat="46.83621" lon="-0.91767">
        <ele>193.5</ele>
        <time>2020-12-06T10:30:12Z</time>
      </trkpt>
      <trkpt lat="46.83625" lon="-0.91753">
        <ele>195.2</ele>
        <time>2020-12-06T10:30:18Z</time>
      </trkpt>
      <trkpt lat="46.8363" lon="-0.91742">
        <ele>196.6</ele>
        <time>2020-12-06T10:30:23Z</time>
      </trkpt>
      <trkpt lat="46.83638" lon="-0.91729">
        <ele>198.5</ele>
        <time>2020-12-06T10:30:29Z</time>
      </trkpt>
      <trkpt lat="46.83647" lon="-0.91715">
        <ele>200.6</ele>
        <time>2020-12-06T10:30:37Z</time>
      </trkpt>
      <trkpt lat="46.83653" lon="-0.91704">
        <ele>202.2</ele>
        <time>2020-12-06T10:30:43Z</time>
      </trkpt>
      <trkpt lat="46.83659" lon="-0.91696">
        <ele>203.4</ele>
        <time>2020-12-06T10:30:48Z</time>
      </trkpt>
      <trkpt lat="46.83661" lon="-0.91692">
        <ele>203.9</ele>
        <time>2020-12-06T10:30:50Z</time>
      </trkpt>
      <trkpt lat="46.83668" lon="-0.91677">
        <ele>205.7</ele>
        <time>2020-12-06T10:30:58Z</time>
      </trkpt>
      <trkpt lat="46.8367" lon="-0.91675">
        <ele>205.9</ele>
        <time>2020-12-06T10:30:59Z</time>
      </trkpt>
      <trkpt lat="46.83673" lon="-0.91667">
        <ele>206.7</ele>
        <time>2020-12-06T10:31:02Z</time>
      </trkpt>
      <trkpt lat="46.83682" lon="-0.91644">
        <ele>208.5</ele>
        <time>2020-12-06T10:31:11Z</time>
      </trkpt>
      <trkpt lat="46.83689" lon="-0.91627">
        <ele>209.8</ele>
        <time>2020-12-06T10:31:18Z</time>
      </trkpt>
      <trkpt lat="46.837" lon="-0.9162">
        <ele>211.2</ele>
        <time>2020-12-06T10:31:25Z</time>
      </trkpt>
      <trkpt lat="46.83707" lon="-0.91605">
        <ele>212.5</ele>
        <time>2020-12-06T10:31:32Z</time>
      </trkpt>
      <trkpt lat="46.83711" lon="-0.91591">
        <ele>213.3</ele>
        <time>2020-12-06T10:31:38Z</time>
      </trkpt>
      <trkpt lat="46.83716" lon="-0.91572">
        <ele>214.4</ele>
        <time>2020-12-06T10:31:45Z</time>
      </trkpt>
      <trkpt lat="46.8372" lon="-0.9156">
        <ele>215.2</ele>
        <time>2020-12-06T10:31:50Z</time>
      </trkpt>
      <trkpt lat="46.83721" lon="-0.91559">
        <ele>215.3</ele>
        <time>2020-12-06T10:31:51Z</time>
      </trkpt>
      <trkpt lat="46.83723" lon="-0.91558">
        <ele>215.5</ele>
        <time>2020-12-06T10:31:52Z</time>
      </trkpt>
      <trkpt lat="46.83724" lon="-0.91552">
        <ele>216</ele>
        <time>2020-12-06T10:31:54Z</time>
      </trkpt>
      <trkpt lat="46.83725" lon="-0.91549">
        <ele>216.3</ele>
        <time>2020-12-06T10:31:55Z</time>
      </trkpt>
      <trkpt lat="46.83727" lon="-0.9154">
        <ele>217.3</ele>
        <time>2020-12-06T10:31:59Z</time>
      </trkpt>
      <trkpt lat="46.83734" lon="-0.91538">
        <ele>218.5</ele>
        <time>2020-12-06T10:32:03Z</time>
      </trkpt>
      <trkpt lat="46.83735" lon="-0.91538">
        <ele>218.8</ele>
        <time>2020-12-06T10:32:04Z</time>
      </trkpt>
      <trkpt lat="46.83744" lon="-0.91542">
        <ele>220.9</ele>
        <time>2020-12-06T10:32:11Z</time>
      </trkpt>
      <trkpt lat="46.83752" lon="-0.91548">
        <ele>223.1</ele>
        <time>2020-12-06T10:32:17Z</time>
      </trkpt>
      <trkpt lat="46.8376" lon="-0.91552">
        <ele>225.2</ele>
        <time>2020-12-06T10:32:23Z</time>
      </trkpt>
      <trkpt lat="46.83765" lon="-0.91555">
        <ele>226.6</ele>
        <time>2020-12-06T10:32:27Z</time>
      </trkpt>
      <trkpt lat="46.83766" lon="-0.91555">
        <ele>226.9</ele>
        <time>2020-12-06T10:32:28Z</time>
      </trkpt>
      <trkpt lat="46.83767" lon="-0.91555">
        <ele>227.1</ele>
        <time>2020-12-06T10:32:30Z</time>
      </trkpt>
      <trkpt lat="46.83788" lon="-0.91565">
        <ele>231.7</ele>
        <time>2020-12-06T10:33:37Z</time>
      </trkpt>
      <trkpt lat="46.8379" lon="-0.91566">
        <ele>232.1</ele>
        <time>2020-12-06T10:33:38Z</time>
      </trkpt>
      <trkpt lat="46.83794" lon="-0.91563">
        <ele>232.9</ele>
        <time>2020-12-06T10:33:41Z</time>
      </trkpt>
      <trkpt lat="46.83799" lon="-0.91555">
        <ele>234</ele>
        <time>2020-12-06T10:33:45Z</time>
      </trkpt>
      <trkpt lat="46.838" lon="-0.91554">
        <ele>234.2</ele>
        <time>2020-12-06T10:33:46Z</time>
      </trkpt>
      <trkpt lat="46.83803" lon="-0.9155">
        <ele>234.9</ele>
        <time>2020-12-06T10:33:49Z</time>
      </trkpt>
      <trkpt lat="46.83804" lon="-0.91547">
        <ele>235.2</ele>
        <time>2020-12-06T10:33:51Z</time>
      </trkpt>
      <trkpt lat="46.83804" lon="-0.91547">
        <ele>235.2</ele>
        <time>2020-12-06T10:33:52Z</time>
      </trkpt>
      <trkpt lat="46.83807" lon="-0.91541">
        <ele>235.7</ele>
        <time>2020-12-06T10:34:21Z</time>
      </trkpt>
      <trkpt lat="46.83808" lon="-0.91537">
        <ele>236.1</ele>
        <time>2020-12-06T10:34:23Z</time>
      </trkpt>
      <trkpt lat="46.83812" lon="-0.91522">
        <ele>236.9</ele>
        <time>2020-12-06T10:34:29Z</time>
      </trkpt>
      <trkpt lat="46.83816" lon="-0.91502">
        <ele>237.9</ele>
        <time>2020-12-06T10:34:34Z</time>
      </trkpt>
      <trkpt lat="46.8382" lon="-0.91486">
        <ele>239.2</ele>
        <time>2020-12-06T10:34:40Z</time>
      </trkpt>
      <trkpt lat="46.83821" lon="-0.91482">
        <ele>239.7</ele>
        <time>2020-12-06T10:34:42Z</time>
      </trkpt>
      <trkpt lat="46.83838" lon="-0.91483">
        <ele>242.8</ele>
        <time>2020-12-06T10:35:32Z</time>
      </trkpt>
      <trkpt lat="46.83839" lon="-0.91484">
        <ele>243.1</ele>
        <time>2020-12-06T10:35:33Z</time>
      </trkpt>
      <trkpt lat="46.83847" lon="-0.91499">
        <ele>244.6</ele>
        <time>2020-12-06T10:35:39Z</time>
      </trkpt>
      <trkpt lat="46.83856" lon="-0.91513">
        <ele>245.7</ele>
        <time>2020-12-06T10:35:44Z</time>
      </trkpt>
      <trkpt lat="46.83866" lon="-0.91529">
        <ele>247.2</ele>
        <time>2020-12-06T10:35:50Z</time>
      </trkpt>
      <trkpt lat="46.83867" lon="-0.9153">
        <ele>247.3</ele>
        <time>2020-12-06T10:35:51Z</time>
      </trkpt>
      <trkpt lat="46.83879" lon="-0.91528">
        <ele>249.2</ele>
        <time>2020-12-06T10:36:16Z</time>
      </trkpt>
      <trkpt lat="46.83883" lon="-0.91527">
        <ele>249.9</ele>
        <time>2020-12-06T10:36:18Z</time>
      </trkpt>
      <trkpt lat="46.83893" lon="-0.91519">
        <ele>251.9</ele>
        <time>2020-12-06T10:36:24Z</time>
      </trkpt>
      <trkpt lat="46.83905" lon="-0.9152">
        <ele>253.6</ele>
        <time>2020-12-06T10:36:30Z</time>
      </trkpt>
      <trkpt lat="46.83917" lon="-0.9152">
        <ele>254.5</ele>
        <time>2020-12-06T10:36:37Z</time>
      </trkpt>
      <trkpt lat="46.83932" lon="-0.91512">
        <ele>255.2</ele>
        <time>2020-12-06T10:36:44Z</time>
      </trkpt>
      <trkpt lat="46.83944" lon="-0.91508">
        <ele>255.2</ele>
        <time>2020-12-06T10:36:49Z</time>
      </trkpt>
      <trkpt lat="46.83959" lon="-0.91505">
        <ele>255.3</ele>
        <time>2020-12-06T10:36:55Z</time>
      </trkpt>
      <trkpt lat="46.83979" lon="-0.91497">
        <ele>255.6</ele>
        <time>2020-12-06T10:37:03Z</time>
      </trkpt>
      <trkpt lat="46.84" lon="-0.91488">
        <ele>255.8</ele>
        <time>2020-12-06T10:37:11Z</time>
      </trkpt>
      <trkpt lat="46.84015" lon="-0.9148">
        <ele>255.9</ele>
        <time>2020-12-06T10:37:17Z</time>
      </trkpt>
      <trkpt lat="46.84034" lon="-0.91472">
        <ele>255.9</ele>
        <time>2020-12-06T10:37:25Z</time>
      </trkpt>
      <trkpt lat="46.84043" lon="-0.91468">
        <ele>255.6</ele>
        <time>2020-12-06T10:37:32Z</time>
      </trkpt>
      <trkpt lat="46.84043" lon="-0.91468">
        <ele>255.6</ele>
        <time>2020-12-06T10:37:33Z</time>
      </trkpt>
      <trkpt lat="46.84046" lon="-0.91464">
        <ele>255.4</ele>
        <time>2020-12-06T10:39:10Z</time>
      </trkpt>
      <trkpt lat="46.8405" lon="-0.91462">
        <ele>255.3</ele>
        <time>2020-12-06T10:39:11Z</time>
      </trkpt>
      <trkpt lat="46.84058" lon="-0.91451">
        <ele>254.1</ele>
        <time>2020-12-06T10:39:14Z</time>
      </trkpt>
      <trkpt lat="46.84054" lon="-0.91441">
        <ele>253.5</ele>
        <time>2020-12-06T10:39:17Z</time>
      </trkpt>
      <trkpt lat="46.84043" lon="-0.91414">
        <ele>252.8</ele>
        <time>2020-12-06T10:39:23Z</time>
      </trkpt>
      <trkpt lat="46.84031" lon="-0.91383">
        <ele>251.8</ele>
        <time>2020-12-06T10:39:29Z</time>
      </trkpt>
      <trkpt lat="46.84028" lon="-0.91369">
        <ele>251.3</ele>
        <time>2020-12-06T10:39:31Z</time>
      </trkpt>
      <trkpt lat="46.84019" lon="-0.91326">
        <ele>249.7</ele>
        <time>2020-12-06T10:39:38Z</time>
      </trkpt>
      <trkpt lat="46.8402" lon="-0.9132">
        <ele>250.1</ele>
        <time>2020-12-06T10:39:40Z</time>
      </trkpt>
      <trkpt lat="46.84023" lon="-0.91318">
        <ele>250.3</ele>
        <time>2020-12-06T10:39:41Z</time>
      </trkpt>
      <trkpt lat="46.84036" lon="-0.91318">
        <ele>251.7</ele>
        <time>2020-12-06T10:39:45Z</time>
      </trkpt>
      <trkpt lat="46.84059" lon="-0.91319">
        <ele>254.6</ele>
        <time>2020-12-06T10:39:52Z</time>
      </trkpt>
      <trkpt lat="46.84069" lon="-0.91326">
        <ele>256</ele>
        <time>2020-12-06T10:39:57Z</time>
      </trkpt>
      <trkpt lat="46.8408" lon="-0.91335">
        <ele>257.5</ele>
        <time>2020-12-06T10:40:03Z</time>
      </trkpt>
      <trkpt lat="46.84084" lon="-0.91339">
        <ele>258</ele>
        <time>2020-12-06T10:40:06Z</time>
      </trkpt>
      <trkpt lat="46.84087" lon="-0.91342">
        <ele>258.4</ele>
        <time>2020-12-06T10:40:08Z</time>
      </trkpt>
      <trkpt lat="46.84096" lon="-0.9135">
        <ele>259.6</ele>
        <time>2020-12-06T10:40:13Z</time>
      </trkpt>
      <trkpt lat="46.84105" lon="-0.91362">
        <ele>260.8</ele>
        <time>2020-12-06T10:40:18Z</time>
      </trkpt>
      <trkpt lat="46.84119" lon="-0.91376">
        <ele>262.1</ele>
        <time>2020-12-06T10:40:25Z</time>
      </trkpt>
      <trkpt lat="46.8414" lon="-0.91401">
        <ele>263.6</ele>
        <time>2020-12-06T10:40:35Z</time>
      </trkpt>
      <trkpt lat="46.84159" lon="-0.91422">
        <ele>264.7</ele>
        <time>2020-12-06T10:40:44Z</time>
      </trkpt>
      <trkpt lat="46.84178" lon="-0.91437">
        <ele>265.6</ele>
        <time>2020-12-06T10:40:52Z</time>
      </trkpt>
      <trkpt lat="46.84191" lon="-0.91438">
        <ele>266.1</ele>
        <time>2020-12-06T10:40:57Z</time>
      </trkpt>
      <trkpt lat="46.842" lon="-0.91436">
        <ele>266.4</ele>
        <time>2020-12-06T10:41:01Z</time>
      </trkpt>
      <trkpt lat="46.84203" lon="-0.91435">
        <ele>266.4</ele>
        <time>2020-12-06T10:41:02Z</time>
      </trkpt>
      <trkpt lat="46.84218" lon="-0.91432">
        <ele>266.9</ele>
        <time>2020-12-06T10:41:07Z</time>
      </trkpt>
      <trkpt lat="46.84237" lon="-0.91425">
        <ele>267.3</ele>
        <time>2020-12-06T10:41:13Z</time>
      </trkpt>
      <trkpt lat="46.84247" lon="-0.91413">
        <ele>267.7</ele>
        <time>2020-12-06T10:41:18Z</time>
      </trkpt>
      <trkpt lat="46.84257" lon="-0.91402">
        <ele>267.9</ele>
        <time>2020-12-06T10:41:23Z</time>
      </trkpt>
      <trkpt lat="46.84269" lon="-0.91388">
        <ele>268.2</ele>
        <time>2020-12-06T10:41:29Z</time>
      </trkpt>
      <trkpt lat="46.84273" lon="-0.9137">
        <ele>268.3</ele>
        <time>2020-12-06T10:41:35Z</time>
      </trkpt>
      <trkpt lat="46.8428" lon="-0.91359">
        <ele>268.2</ele>
        <time>2020-12-06T10:41:40Z</time>
      </trkpt>
      <trkpt lat="46.84281" lon="-0.91354">
        <ele>268.2</ele>
        <time>2020-12-06T10:41:42Z</time>
      </trkpt>
      <trkpt lat="46.84278" lon="-0.91346">
        <ele>268.1</ele>
        <time>2020-12-06T10:41:45Z</time>
      </trkpt>
      <trkpt lat="46.84276" lon="-0.9134">
        <ele>268.1</ele>
        <time>2020-12-06T10:41:47Z</time>
      </trkpt>
      <trkpt lat="46.84273" lon="-0.91332">
        <ele>268</ele>
        <time>2020-12-06T10:41:50Z</time>
      </trkpt>
      <trkpt lat="46.84267" lon="-0.91321">
        <ele>267.9</ele>
        <time>2020-12-06T10:41:54Z</time>
      </trkpt>
      <trkpt lat="46.8426" lon="-0.91303">
        <ele>267.9</ele>
        <time>2020-12-06T10:41:59Z</time>
      </trkpt>
      <trkpt lat="46.84255" lon="-0.91289">
        <ele>268.1</ele>
        <time>2020-12-06T10:42:03Z</time>
      </trkpt>
      <trkpt lat="46.84248" lon="-0.91269">
        <ele>268.2</ele>
        <time>2020-12-06T10:42:09Z</time>
      </trkpt>
      <trkpt lat="46.84244" lon="-0.9125">
        <ele>268.3</ele>
        <time>2020-12-06T10:42:14Z</time>
      </trkpt>
      <trkpt lat="46.84234" lon="-0.91221">
        <ele>268.5</ele>
        <time>2020-12-06T10:42:22Z</time>
      </trkpt>
      <trkpt lat="46.84226" lon="-0.91201">
        <ele>268.9</ele>
        <time>2020-12-06T10:42:28Z</time>
      </trkpt>
      <trkpt lat="46.84222" lon="-0.91187">
        <ele>269.4</ele>
        <time>2020-12-06T10:42:32Z</time>
      </trkpt>
      <trkpt lat="46.84219" lon="-0.91166">
        <ele>270.2</ele>
        <time>2020-12-06T10:42:38Z</time>
      </trkpt>
      <trkpt lat="46.84217" lon="-0.91151">
        <ele>271</ele>
        <time>2020-12-06T10:42:43Z</time>
      </trkpt>
      <trkpt lat="46.84214" lon="-0.91126">
        <ele>272.2</ele>
        <time>2020-12-06T10:42:49Z</time>
      </trkpt>
      <trkpt lat="46.84219" lon="-0.91107">
        <ele>273</ele>
        <time>2020-12-06T10:42:54Z</time>
      </trkpt>
      <trkpt lat="46.84224" lon="-0.91096">
        <ele>273.5</ele>
        <time>2020-12-06T10:42:58Z</time>
      </trkpt>
      <trkpt lat="46.84225" lon="-0.91094">
        <ele>273.6</ele>
        <time>2020-12-06T10:42:59Z</time>
      </trkpt>
      <trkpt lat="46.8423" lon="-0.91079">
        <ele>273.9</ele>
        <time>2020-12-06T10:43:04Z</time>
      </trkpt>
      <trkpt lat="46.8423" lon="-0.91071">
        <ele>274</ele>
        <time>2020-12-06T10:43:06Z</time>
      </trkpt>
      <trkpt lat="46.84231" lon="-0.91063">
        <ele>274</ele>
        <time>2020-12-06T10:43:08Z</time>
      </trkpt>
      <trkpt lat="46.84234" lon="-0.9104">
        <ele>274</ele>
        <time>2020-12-06T10:43:13Z</time>
      </trkpt>
      <trkpt lat="46.84235" lon="-0.91032">
        <ele>274</ele>
        <time>2020-12-06T10:43:15Z</time>
      </trkpt>
      <trkpt lat="46.84236" lon="-0.91025">
        <ele>274</ele>
        <time>2020-12-06T10:43:17Z</time>
      </trkpt>
      <trkpt lat="46.8424" lon="-0.91004">
        <ele>273.8</ele>
        <time>2020-12-06T10:43:22Z</time>
      </trkpt>
      <trkpt lat="46.84238" lon="-0.90985">
        <ele>273.6</ele>
        <time>2020-12-06T10:43:26Z</time>
      </trkpt>
      <trkpt lat="46.84234" lon="-0.9096">
        <ele>273.1</ele>
        <time>2020-12-06T10:43:31Z</time>
      </trkpt>
      <trkpt lat="46.84228" lon="-0.90938">
        <ele>272.2</ele>
        <time>2020-12-06T10:43:35Z</time>
      </trkpt>
      <trkpt lat="46.84225" lon="-0.90931">
        <ele>271.9</ele>
        <time>2020-12-06T10:43:36Z</time>
      </trkpt>
      <trkpt lat="46.84222" lon="-0.90926">
        <ele>271.4</ele>
        <time>2020-12-06T10:43:37Z</time>
      </trkpt>
      <trkpt lat="46.84211" lon="-0.9091">
        <ele>270.2</ele>
        <time>2020-12-06T10:43:40Z</time>
      </trkpt>
      <trkpt lat="46.84205" lon="-0.909">
        <ele>269.4</ele>
        <time>2020-12-06T10:43:42Z</time>
      </trkpt>
      <trkpt lat="46.84192" lon="-0.90886">
        <ele>267.7</ele>
        <time>2020-12-06T10:43:45Z</time>
      </trkpt>
      <trkpt lat="46.84187" lon="-0.90883">
        <ele>267.1</ele>
        <time>2020-12-06T10:43:46Z</time>
      </trkpt>
      <trkpt lat="46.84178" lon="-0.90876">
        <ele>265.9</ele>
        <time>2020-12-06T10:43:48Z</time>
      </trkpt>
      <trkpt lat="46.84174" lon="-0.90873">
        <ele>265.2</ele>
        <time>2020-12-06T10:43:49Z</time>
      </trkpt>
      <trkpt lat="46.84151" lon="-0.90851">
        <ele>260.9</ele>
        <time>2020-12-06T10:43:54Z</time>
      </trkpt>
      <trkpt lat="46.8414" lon="-0.90841">
        <ele>258.9</ele>
        <time>2020-12-06T10:43:56Z</time>
      </trkpt>
      <trkpt lat="46.84127" lon="-0.90832">
        <ele>256.9</ele>
        <time>2020-12-06T10:43:58Z</time>
      </trkpt>
      <trkpt lat="46.84089" lon="-0.90804">
        <ele>252.7</ele>
        <time>2020-12-06T10:44:04Z</time>
      </trkpt>
      <trkpt lat="46.84076" lon="-0.90797">
        <ele>252.5</ele>
        <time>2020-12-06T10:44:07Z</time>
      </trkpt>
      <trkpt lat="46.84069" lon="-0.90787">
        <ele>252.5</ele>
        <time>2020-12-06T10:44:11Z</time>
      </trkpt>
      <trkpt lat="46.84059" lon="-0.90772">
        <ele>252.8</ele>
        <time>2020-12-06T10:44:16Z</time>
      </trkpt>
      <trkpt lat="46.84056" lon="-0.90772">
        <ele>252.9</ele>
        <time>2020-12-06T10:44:17Z</time>
      </trkpt>
      <trkpt lat="46.84046" lon="-0.90778">
        <ele>253.4</ele>
        <time>2020-12-06T10:44:21Z</time>
      </trkpt>
      <trkpt lat="46.84038" lon="-0.90792">
        <ele>254</ele>
        <time>2020-12-06T10:44:26Z</time>
      </trkpt>
      <trkpt lat="46.84032" lon="-0.90804">
        <ele>254.3</ele>
        <time>2020-12-06T10:44:30Z</time>
      </trkpt>
      <trkpt lat="46.84025" lon="-0.90817">
        <ele>254.4</ele>
        <time>2020-12-06T10:44:34Z</time>
      </trkpt>
      <trkpt lat="46.84022" lon="-0.9082">
        <ele>254.4</ele>
        <time>2020-12-06T10:44:36Z</time>
      </trkpt>
      <trkpt lat="46.84018" lon="-0.90818">
        <ele>254.4</ele>
        <time>2020-12-06T10:44:38Z</time>
      </trkpt>
      <trkpt lat="46.84009" lon="-0.90803">
        <ele>254.7</ele>
        <time>2020-12-06T10:44:44Z</time>
      </trkpt>
      <trkpt lat="46.84003" lon="-0.90795">
        <ele>255</ele>
        <time>2020-12-06T10:44:48Z</time>
      </trkpt>
      <trkpt lat="46.83998" lon="-0.90786">
        <ele>255.5</ele>
        <time>2020-12-06T10:44:52Z</time>
      </trkpt>
      <trkpt lat="46.83997" lon="-0.90782">
        <ele>255.7</ele>
        <time>2020-12-06T10:44:54Z</time>
      </trkpt>
      <trkpt lat="46.83993" lon="-0.90777">
        <ele>256</ele>
        <time>2020-12-06T10:44:57Z</time>
      </trkpt>
      <trkpt lat="46.83987" lon="-0.90764">
        <ele>256.8</ele>
        <time>2020-12-06T10:45:02Z</time>
      </trkpt>
      <trkpt lat="46.83978" lon="-0.90747">
        <ele>257.7</ele>
        <time>2020-12-06T10:45:07Z</time>
      </trkpt>
      <trkpt lat="46.83976" lon="-0.90744">
        <ele>257.9</ele>
        <time>2020-12-06T10:45:08Z</time>
      </trkpt>
      <trkpt lat="46.83971" lon="-0.90735">
        <ele>258.4</ele>
        <time>2020-12-06T10:45:11Z</time>
      </trkpt>
      <trkpt lat="46.83963" lon="-0.9072">
        <ele>259</ele>
        <time>2020-12-06T10:45:16Z</time>
      </trkpt>
      <trkpt lat="46.83959" lon="-0.90707">
        <ele>259.3</ele>
        <time>2020-12-06T10:45:21Z</time>
      </trkpt>
      <trkpt lat="46.83954" lon="-0.90693">
        <ele>259.4</ele>
        <time>2020-12-06T10:45:26Z</time>
      </trkpt>
      <trkpt lat="46.83951" lon="-0.90687">
        <ele>259.4</ele>
        <time>2020-12-06T10:45:31Z</time>
      </trkpt>
      <trkpt lat="46.83951" lon="-0.90687">
        <ele>259.4</ele>
        <time>2020-12-06T10:45:32Z</time>
      </trkpt>
      <trkpt lat="46.8395" lon="-0.90678">
        <ele>259.3</ele>
        <time>2020-12-06T10:46:07Z</time>
      </trkpt>
      <trkpt lat="46.83948" lon="-0.90673">
        <ele>259.1</ele>
        <time>2020-12-06T10:46:09Z</time>
      </trkpt>
      <trkpt lat="46.83945" lon="-0.90663">
        <ele>258.7</ele>
        <time>2020-12-06T10:46:14Z</time>
      </trkpt>
      <trkpt lat="46.83938" lon="-0.90656">
        <ele>257.9</ele>
        <time>2020-12-06T10:46:29Z</time>
      </trkpt>
      <trkpt lat="46.83935" lon="-0.90655">
        <ele>256.7</ele>
        <time>2020-12-06T10:46:32Z</time>
      </trkpt>
      <trkpt lat="46.83935" lon="-0.90655">
        <ele>256.7</ele>
        <time>2020-12-06T10:46:33Z</time>
      </trkpt>
      <trkpt lat="46.8393" lon="-0.90659">
        <ele>256.1</ele>
        <time>2020-12-06T10:47:13Z</time>
      </trkpt>
      <trkpt lat="46.83925" lon="-0.90663">
        <ele>255.6</ele>
        <time>2020-12-06T10:47:15Z</time>
      </trkpt>
      <trkpt lat="46.83911" lon="-0.90677">
        <ele>253.7</ele>
        <time>2020-12-06T10:47:19Z</time>
      </trkpt>
      <trkpt lat="46.83885" lon="-0.90692">
        <ele>250.3</ele>
        <time>2020-12-06T10:47:24Z</time>
      </trkpt>
      <trkpt lat="46.83845" lon="-0.90711">
        <ele>246.2</ele>
        <time>2020-12-06T10:47:30Z</time>
      </trkpt>
      <trkpt lat="46.83827" lon="-0.90719">
        <ele>245.1</ele>
        <time>2020-12-06T10:47:33Z</time>
      </trkpt>
      <trkpt lat="46.83822" lon="-0.90722">
        <ele>244.8</ele>
        <time>2020-12-06T10:47:34Z</time>
      </trkpt>
      <trkpt lat="46.83818" lon="-0.90723">
        <ele>244.7</ele>
        <time>2020-12-06T10:47:35Z</time>
      </trkpt>
      <trkpt lat="46.83811" lon="-0.90716">
        <ele>244.6</ele>
        <time>2020-12-06T10:47:37Z</time>
      </trkpt>
      <trkpt lat="46.83809" lon="-0.90712">
        <ele>244.7</ele>
        <time>2020-12-06T10:47:38Z</time>
      </trkpt>
      <trkpt lat="46.83809" lon="-0.90702">
        <ele>244.7</ele>
        <time>2020-12-06T10:47:40Z</time>
      </trkpt>
      <trkpt lat="46.83803" lon="-0.90686">
        <ele>244.7</ele>
        <time>2020-12-06T10:47:45Z</time>
      </trkpt>
      <trkpt lat="46.83791" lon="-0.90666">
        <ele>244.3</ele>
        <time>2020-12-06T10:47:51Z</time>
      </trkpt>
      <trkpt lat="46.83775" lon="-0.90634">
        <ele>244.2</ele>
        <time>2020-12-06T10:47:58Z</time>
      </trkpt>
      <trkpt lat="46.83759" lon="-0.90606">
        <ele>244.7</ele>
        <time>2020-12-06T10:48:05Z</time>
      </trkpt>
      <trkpt lat="46.83751" lon="-0.90589">
        <ele>245.2</ele>
        <time>2020-12-06T10:48:09Z</time>
      </trkpt>
      <trkpt lat="46.83752" lon="-0.90584">
        <ele>245.9</ele>
        <time>2020-12-06T10:48:10Z</time>
      </trkpt>
      <trkpt lat="46.83758" lon="-0.90573">
        <ele>247.4</ele>
        <time>2020-12-06T10:48:13Z</time>
      </trkpt>
      <trkpt lat="46.83761" lon="-0.90571">
        <ele>248</ele>
        <time>2020-12-06T10:48:14Z</time>
      </trkpt>
      <trkpt lat="46.83766" lon="-0.90568">
        <ele>249</ele>
        <time>2020-12-06T10:48:16Z</time>
      </trkpt>
      <trkpt lat="46.83769" lon="-0.90565">
        <ele>249.6</ele>
        <time>2020-12-06T10:48:18Z</time>
      </trkpt>
      <trkpt lat="46.83773" lon="-0.90562">
        <ele>250.3</ele>
        <time>2020-12-06T10:48:21Z</time>
      </trkpt>
      <trkpt lat="46.8378" lon="-0.90561">
        <ele>251.4</ele>
        <time>2020-12-06T10:48:24Z</time>
      </trkpt>
      <trkpt lat="46.83795" lon="-0.90557">
        <ele>253.1</ele>
        <time>2020-12-06T10:48:29Z</time>
      </trkpt>
      <trkpt lat="46.83802" lon="-0.90552">
        <ele>254.3</ele>
        <time>2020-12-06T10:48:31Z</time>
      </trkpt>
      <trkpt lat="46.83804" lon="-0.90544">
        <ele>255.7</ele>
        <time>2020-12-06T10:48:33Z</time>
      </trkpt>
      <trkpt lat="46.83801" lon="-0.90532">
        <ele>256.4</ele>
        <time>2020-12-06T10:48:37Z</time>
      </trkpt>
      <trkpt lat="46.83797" lon="-0.90521">
        <ele>257.1</ele>
        <time>2020-12-06T10:48:42Z</time>
      </trkpt>
      <trkpt lat="46.83796" lon="-0.90519">
        <ele>257.3</ele>
        <time>2020-12-06T10:48:43Z</time>
      </trkpt>
      <trkpt lat="46.83789" lon="-0.9051">
        <ele>258.1</ele>
        <time>2020-12-06T10:48:47Z</time>
      </trkpt>
      <trkpt lat="46.83783" lon="-0.90494">
        <ele>259.4</ele>
        <time>2020-12-06T10:48:53Z</time>
      </trkpt>
      <trkpt lat="46.83781" lon="-0.90479">
        <ele>260.6</ele>
        <time>2020-12-06T10:48:58Z</time>
      </trkpt>
      <trkpt lat="46.83786" lon="-0.9046">
        <ele>262</ele>
        <time>2020-12-06T10:49:05Z</time>
      </trkpt>
      <trkpt lat="46.83793" lon="-0.90439">
        <ele>263</ele>
        <time>2020-12-06T10:49:12Z</time>
      </trkpt>
      <trkpt lat="46.83798" lon="-0.90423">
        <ele>263.3</ele>
        <time>2020-12-06T10:49:18Z</time>
      </trkpt>
      <trkpt lat="46.83796" lon="-0.90404">
        <ele>263.1</ele>
        <time>2020-12-06T10:49:25Z</time>
      </trkpt>
      <trkpt lat="46.83787" lon="-0.90389">
        <ele>262.5</ele>
        <time>2020-12-06T10:49:30Z</time>
      </trkpt>
      <trkpt lat="46.83783" lon="-0.9037">
        <ele>261.5</ele>
        <time>2020-12-06T10:49:34Z</time>
      </trkpt>
      <trkpt lat="46.83782" lon="-0.90342">
        <ele>259.2</ele>
        <time>2020-12-06T10:49:39Z</time>
      </trkpt>
      <trkpt lat="46.83771" lon="-0.90314">
        <ele>256</ele>
        <time>2020-12-06T10:49:42Z</time>
      </trkpt>
      <trkpt lat="46.83757" lon="-0.90282">
        <ele>252.3</ele>
        <time>2020-12-06T10:49:45Z</time>
      </trkpt>
      <trkpt lat="46.83744" lon="-0.90256">
        <ele>249.6</ele>
        <time>2020-12-06T10:49:49Z</time>
      </trkpt>
      <trkpt lat="46.83735" lon="-0.9025">
        <ele>248.8</ele>
        <time>2020-12-06T10:49:51Z</time>
      </trkpt>
      <trkpt lat="46.83729" lon="-0.9025">
        <ele>248.6</ele>
        <time>2020-12-06T10:49:52Z</time>
      </trkpt>
      <trkpt lat="46.83724" lon="-0.90251">
        <ele>248.5</ele>
        <time>2020-12-06T10:49:53Z</time>
      </trkpt>
      <trkpt lat="46.83708" lon="-0.90255">
        <ele>248</ele>
        <time>2020-12-06T10:49:57Z</time>
      </trkpt>
      <trkpt lat="46.83706" lon="-0.90253">
        <ele>247.8</ele>
        <time>2020-12-06T10:49:58Z</time>
      </trkpt>
      <trkpt lat="46.83705" lon="-0.90248">
        <ele>247.5</ele>
        <time>2020-12-06T10:50:00Z</time>
      </trkpt>
      <trkpt lat="46.837" lon="-0.90228">
        <ele>246.4</ele>
        <time>2020-12-06T10:50:04Z</time>
      </trkpt>
      <trkpt lat="46.83692" lon="-0.90207">
        <ele>245.2</ele>
        <time>2020-12-06T10:50:07Z</time>
      </trkpt>
      <trkpt lat="46.8369" lon="-0.90199">
        <ele>244.8</ele>
        <time>2020-12-06T10:50:08Z</time>
      </trkpt>
      <trkpt lat="46.83675" lon="-0.90151">
        <ele>243.1</ele>
        <time>2020-12-06T10:50:14Z</time>
      </trkpt>
      <trkpt lat="46.83656" lon="-0.90097">
        <ele>242.3</ele>
        <time>2020-12-06T10:50:22Z</time>
      </trkpt>
      <trkpt lat="46.83642" lon="-0.90058">
        <ele>242.2</ele>
        <time>2020-12-06T10:50:28Z</time>
      </trkpt>
      <trkpt lat="46.83629" lon="-0.9002">
        <ele>242.1</ele>
        <time>2020-12-06T10:50:34Z</time>
      </trkpt>
      <trkpt lat="46.8362" lon="-0.89993">
        <ele>242</ele>
        <time>2020-12-06T10:50:39Z</time>
      </trkpt>
      <trkpt lat="46.83614" lon="-0.89976">
        <ele>242</ele>
        <time>2020-12-06T10:50:42Z</time>
      </trkpt>
      <trkpt lat="46.83607" lon="-0.8996">
        <ele>242</ele>
        <time>2020-12-06T10:50:45Z</time>
      </trkpt>
      <trkpt lat="46.836" lon="-0.89944">
        <ele>242</ele>
        <time>2020-12-06T10:50:49Z</time>
      </trkpt>
      <trkpt lat="46.836" lon="-0.8994">
        <ele>242</ele>
        <time>2020-12-06T10:50:51Z</time>
      </trkpt>
      <trkpt lat="46.83597" lon="-0.89929">
        <ele>242</ele>
        <time>2020-12-06T10:51:03Z</time>
      </trkpt>
      <trkpt lat="46.83597" lon="-0.89925">
        <ele>242</ele>
        <time>2020-12-06T10:51:04Z</time>
      </trkpt>
      <trkpt lat="46.83593" lon="-0.89907">
        <ele>242.2</ele>
        <time>2020-12-06T10:51:09Z</time>
      </trkpt>
      <trkpt lat="46.83589" lon="-0.89886">
        <ele>242.5</ele>
        <time>2020-12-06T10:51:13Z</time>
      </trkpt>
      <trkpt lat="46.83588" lon="-0.89865">
        <ele>243</ele>
        <time>2020-12-06T10:51:18Z</time>
      </trkpt>
      <trkpt lat="46.83585" lon="-0.8984">
        <ele>243.9</ele>
        <time>2020-12-06T10:51:22Z</time>
      </trkpt>
      <trkpt lat="46.83584" lon="-0.89832">
        <ele>244.3</ele>
        <time>2020-12-06T10:51:24Z</time>
      </trkpt>
      <trkpt lat="46.83584" lon="-0.89825">
        <ele>244.6</ele>
        <time>2020-12-06T10:51:26Z</time>
      </trkpt>
      <trkpt lat="46.83584" lon="-0.89818">
        <ele>244.9</ele>
        <time>2020-12-06T10:51:28Z</time>
      </trkpt>
      <trkpt lat="46.83585" lon="-0.89797">
        <ele>245.8</ele>
        <time>2020-12-06T10:51:33Z</time>
      </trkpt>
      <trkpt lat="46.83587" lon="-0.89772">
        <ele>246.8</ele>
        <time>2020-12-06T10:51:38Z</time>
      </trkpt>
      <trkpt lat="46.83587" lon="-0.8976">
        <ele>247.2</ele>
        <time>2020-12-06T10:51:41Z</time>
      </trkpt>
      <trkpt lat="46.83588" lon="-0.89752">
        <ele>247.5</ele>
        <time>2020-12-06T10:51:43Z</time>
      </trkpt>
      <trkpt lat="46.83589" lon="-0.89732">
        <ele>248</ele>
        <time>2020-12-06T10:51:48Z</time>
      </trkpt>
      <trkpt lat="46.83597" lon="-0.89708">
        <ele>248.5</ele>
        <time>2020-12-06T10:51:54Z</time>
      </trkpt>
      <trkpt lat="46.83604" lon="-0.89692">
        <ele>248.6</ele>
        <time>2020-12-06T10:51:58Z</time>
      </trkpt>
      <trkpt lat="46.83607" lon="-0.89685">
        <ele>248.6</ele>
        <time>2020-12-06T10:52:00Z</time>
      </trkpt>
      <trkpt lat="46.83608" lon="-0.89673">
        <ele>248.5</ele>
        <time>2020-12-06T10:52:02Z</time>
      </trkpt>
      <trkpt lat="46.83609" lon="-0.89647">
        <ele>248.1</ele>
        <time>2020-12-06T10:52:07Z</time>
      </trkpt>
      <trkpt lat="46.83606" lon="-0.89617">
        <ele>247.7</ele>
        <time>2020-12-06T10:52:12Z</time>
      </trkpt>
      <trkpt lat="46.83599" lon="-0.89588">
        <ele>247.6</ele>
        <time>2020-12-06T10:52:17Z</time>
      </trkpt>
      <trkpt lat="46.8359" lon="-0.8956">
        <ele>247.5</ele>
        <time>2020-12-06T10:52:23Z</time>
      </trkpt>
      <trkpt lat="46.83583" lon="-0.8954">
        <ele>247.4</ele>
        <time>2020-12-06T10:52:27Z</time>
      </trkpt>
      <trkpt lat="46.83577" lon="-0.89511">
        <ele>247.2</ele>
        <time>2020-12-06T10:52:32Z</time>
      </trkpt>
      <trkpt lat="46.83574" lon="-0.89481">
        <ele>247.2</ele>
        <time>2020-12-06T10:52:37Z</time>
      </trkpt>
      <trkpt lat="46.83571" lon="-0.8945">
        <ele>247.5</ele>
        <time>2020-12-06T10:52:42Z</time>
      </trkpt>
      <trkpt lat="46.8357" lon="-0.89435">
        <ele>247.6</ele>
        <time>2020-12-06T10:52:46Z</time>
      </trkpt>
      <trkpt lat="46.83572" lon="-0.8942">
        <ele>247.8</ele>
        <time>2020-12-06T10:52:50Z</time>
      </trkpt>
      <trkpt lat="46.83571" lon="-0.89404">
        <ele>248</ele>
        <time>2020-12-06T10:52:54Z</time>
      </trkpt>
      <trkpt lat="46.83571" lon="-0.89399">
        <ele>248.1</ele>
        <time>2020-12-06T10:52:55Z</time>
      </trkpt>
      <trkpt lat="46.83572" lon="-0.89373">
        <ele>248.3</ele>
        <time>2020-12-06T10:53:00Z</time>
      </trkpt>
      <trkpt lat="46.83574" lon="-0.89358">
        <ele>248.4</ele>
        <time>2020-12-06T10:53:04Z</time>
      </trkpt>
      <trkpt lat="46.83575" lon="-0.89353">
        <ele>248.3</ele>
        <time>2020-12-06T10:53:05Z</time>
      </trkpt>
      <trkpt lat="46.83575" lon="-0.89339">
        <ele>248.2</ele>
        <time>2020-12-06T10:53:09Z</time>
      </trkpt>
      <trkpt lat="46.83574" lon="-0.89333">
        <ele>248.2</ele>
        <time>2020-12-06T10:53:11Z</time>
      </trkpt>
      <trkpt lat="46.83571" lon="-0.89314">
        <ele>248</ele>
        <time>2020-12-06T10:53:17Z</time>
      </trkpt>
      <trkpt lat="46.83567" lon="-0.89292">
        <ele>247.8</ele>
        <time>2020-12-06T10:53:22Z</time>
      </trkpt>
      <trkpt lat="46.83566" lon="-0.89288">
        <ele>247.8</ele>
        <time>2020-12-06T10:53:23Z</time>
      </trkpt>
      <trkpt lat="46.83564" lon="-0.89276">
        <ele>247.8</ele>
        <time>2020-12-06T10:53:25Z</time>
      </trkpt>
      <trkpt lat="46.83561" lon="-0.89248">
        <ele>247.8</ele>
        <time>2020-12-06T10:53:29Z</time>
      </trkpt>
      <trkpt lat="46.83555" lon="-0.89195">
        <ele>248.2</ele>
        <time>2020-12-06T10:53:34Z</time>
      </trkpt>
      <trkpt lat="46.83552" lon="-0.89163">
        <ele>248.5</ele>
        <time>2020-12-06T10:53:40Z</time>
      </trkpt>
      <trkpt lat="46.83552" lon="-0.89162">
        <ele>248.6</ele>
        <time>2020-12-06T10:53:41Z</time>
      </trkpt>
      <trkpt lat="46.83549" lon="-0.89158">
        <ele>248.5</ele>
        <time>2020-12-06T10:54:42Z</time>
      </trkpt>
      <trkpt lat="46.83551" lon="-0.89164">
        <ele>248.7</ele>
        <time>2020-12-06T10:54:44Z</time>
      </trkpt>
      <trkpt lat="46.83555" lon="-0.89173">
        <ele>249</ele>
        <time>2020-12-06T10:54:47Z</time>
      </trkpt>
      <trkpt lat="46.83558" lon="-0.89175">
        <ele>249.1</ele>
        <time>2020-12-06T10:54:49Z</time>
      </trkpt>
      <trkpt lat="46.83569" lon="-0.89168">
        <ele>249.4</ele>
        <time>2020-12-06T10:54:53Z</time>
      </trkpt>
      <trkpt lat="46.83583" lon="-0.89161">
        <ele>249.4</ele>
        <time>2020-12-06T10:54:58Z</time>
      </trkpt>
      <trkpt lat="46.836" lon="-0.89152">
        <ele>249</ele>
        <time>2020-12-06T10:55:04Z</time>
      </trkpt>
      <trkpt lat="46.83613" lon="-0.89146">
        <ele>248.8</ele>
        <time>2020-12-06T10:55:09Z</time>
      </trkpt>
      <trkpt lat="46.83626" lon="-0.89139">
        <ele>248.1</ele>
        <time>2020-12-06T10:55:14Z</time>
      </trkpt>
      <trkpt lat="46.83651" lon="-0.89123">
        <ele>245.2</ele>
        <time>2020-12-06T10:55:20Z</time>
      </trkpt>
      <trkpt lat="46.83666" lon="-0.8911">
        <ele>243.2</ele>
        <time>2020-12-06T10:55:25Z</time>
      </trkpt>
      <trkpt lat="46.83678" lon="-0.891">
        <ele>241.5</ele>
        <time>2020-12-06T10:55:29Z</time>
      </trkpt>
      <trkpt lat="46.83681" lon="-0.89096">
        <ele>241.2</ele>
        <time>2020-12-06T10:55:30Z</time>
      </trkpt>
      <trkpt lat="46.83685" lon="-0.8909">
        <ele>240.8</ele>
        <time>2020-12-06T10:55:31Z</time>
      </trkpt>
      <trkpt lat="46.83687" lon="-0.89074">
        <ele>240</ele>
        <time>2020-12-06T10:55:33Z</time>
      </trkpt>
      <trkpt lat="46.83683" lon="-0.89044">
        <ele>239.3</ele>
        <time>2020-12-06T10:55:36Z</time>
      </trkpt>
      <trkpt lat="46.83679" lon="-0.89035">
        <ele>239.6</ele>
        <time>2020-12-06T10:55:37Z</time>
      </trkpt>
      <trkpt lat="46.83674" lon="-0.8903">
        <ele>239.7</ele>
        <time>2020-12-06T10:55:38Z</time>
      </trkpt>
      <trkpt lat="46.8367" lon="-0.89029">
        <ele>240.3</ele>
        <time>2020-12-06T10:55:39Z</time>
      </trkpt>
      <trkpt lat="46.83667" lon="-0.89032">
        <ele>240.5</ele>
        <time>2020-12-06T10:55:40Z</time>
      </trkpt>
      <trkpt lat="46.83666" lon="-0.89036">
        <ele>240.8</ele>
        <time>2020-12-06T10:55:41Z</time>
      </trkpt>
      <trkpt lat="46.83661" lon="-0.89046">
        <ele>241.9</ele>
        <time>2020-12-06T10:55:44Z</time>
      </trkpt>
      <trkpt lat="46.83648" lon="-0.89058">
        <ele>243.3</ele>
        <time>2020-12-06T10:55:50Z</time>
      </trkpt>
      <trkpt lat="46.83631" lon="-0.89067">
        <ele>245.2</ele>
        <time>2020-12-06T10:55:57Z</time>
      </trkpt>
      <trkpt lat="46.83617" lon="-0.89076">
        <ele>246.5</ele>
        <time>2020-12-06T10:56:03Z</time>
      </trkpt>
      <trkpt lat="46.83601" lon="-0.89085">
        <ele>247.8</ele>
        <time>2020-12-06T10:56:09Z</time>
      </trkpt>
      <trkpt lat="46.83581" lon="-0.89096">
        <ele>248.6</ele>
        <time>2020-12-06T10:56:16Z</time>
      </trkpt>
      <trkpt lat="46.83558" lon="-0.89107">
        <ele>248.9</ele>
        <time>2020-12-06T10:56:23Z</time>
      </trkpt>
      <trkpt lat="46.83541" lon="-0.89115">
        <ele>248.9</ele>
        <time>2020-12-06T10:56:29Z</time>
      </trkpt>
      <trkpt lat="46.83539" lon="-0.89113">
        <ele>249</ele>
        <time>2020-12-06T10:56:30Z</time>
      </trkpt>
      <trkpt lat="46.83537" lon="-0.89111">
        <ele>249</ele>
        <time>2020-12-06T10:56:31Z</time>
      </trkpt>
      <trkpt lat="46.83535" lon="-0.89102">
        <ele>249.1</ele>
        <time>2020-12-06T10:56:34Z</time>
      </trkpt>
      <trkpt lat="46.83531" lon="-0.89085">
        <ele>249.4</ele>
        <time>2020-12-06T10:56:40Z</time>
      </trkpt>
      <trkpt lat="46.83533" lon="-0.8907">
        <ele>249.5</ele>
        <time>2020-12-06T10:56:46Z</time>
      </trkpt>
      <trkpt lat="46.83533" lon="-0.89067">
        <ele>249.6</ele>
        <time>2020-12-06T10:56:47Z</time>
      </trkpt>
      <trkpt lat="46.8353" lon="-0.89059">
        <ele>249.7</ele>
        <time>2020-12-06T10:56:50Z</time>
      </trkpt>
      <trkpt lat="46.8353" lon="-0.89053">
        <ele>249.8</ele>
        <time>2020-12-06T10:56:52Z</time>
      </trkpt>
      <trkpt lat="46.83531" lon="-0.89049">
        <ele>249.9</ele>
        <time>2020-12-06T10:56:54Z</time>
      </trkpt>
      <trkpt lat="46.83527" lon="-0.8904">
        <ele>250</ele>
        <time>2020-12-06T10:56:58Z</time>
      </trkpt>
      <trkpt lat="46.83526" lon="-0.89038">
        <ele>250.1</ele>
        <time>2020-12-06T10:56:59Z</time>
      </trkpt>
      <trkpt lat="46.83523" lon="-0.89027">
        <ele>250.3</ele>
        <time>2020-12-06T10:57:03Z</time>
      </trkpt>
      <trkpt lat="46.83522" lon="-0.89023">
        <ele>250.4</ele>
        <time>2020-12-06T10:57:04Z</time>
      </trkpt>
      <trkpt lat="46.83522" lon="-0.89018">
        <ele>250.5</ele>
        <time>2020-12-06T10:57:06Z</time>
      </trkpt>
      <trkpt lat="46.83521" lon="-0.89013">
        <ele>250.6</ele>
        <time>2020-12-06T10:57:08Z</time>
      </trkpt>
      <trkpt lat="46.8352" lon="-0.88999">
        <ele>250.8</ele>
        <time>2020-12-06T10:57:12Z</time>
      </trkpt>
      <trkpt lat="46.83519" lon="-0.88996">
        <ele>250.9</ele>
        <time>2020-12-06T10:57:13Z</time>
      </trkpt>
      <trkpt lat="46.83519" lon="-0.88984">
        <ele>251.1</ele>
        <time>2020-12-06T10:57:16Z</time>
      </trkpt>
      <trkpt lat="46.8352" lon="-0.88966">
        <ele>251.2</ele>
        <time>2020-12-06T10:57:21Z</time>
      </trkpt>
      <trkpt lat="46.83522" lon="-0.88947">
        <ele>251.2</ele>
        <time>2020-12-06T10:57:26Z</time>
      </trkpt>
      <trkpt lat="46.83525" lon="-0.88928">
        <ele>251.1</ele>
        <time>2020-12-06T10:57:31Z</time>
      </trkpt>
      <trkpt lat="46.83525" lon="-0.88924">
        <ele>251</ele>
        <time>2020-12-06T10:57:32Z</time>
      </trkpt>
      <trkpt lat="46.83532" lon="-0.88891">
        <ele>250.9</ele>
        <time>2020-12-06T10:57:39Z</time>
      </trkpt>
      <trkpt lat="46.83534" lon="-0.88875">
        <ele>250.9</ele>
        <time>2020-12-06T10:57:43Z</time>
      </trkpt>
      <trkpt lat="46.83535" lon="-0.88843">
        <ele>251</ele>
        <time>2020-12-06T10:57:50Z</time>
      </trkpt>
      <trkpt lat="46.83537" lon="-0.88821">
        <ele>251</ele>
        <time>2020-12-06T10:57:56Z</time>
      </trkpt>
      <trkpt lat="46.8354" lon="-0.888">
        <ele>250.9</ele>
        <time>2020-12-06T10:58:01Z</time>
      </trkpt>
      <trkpt lat="46.83547" lon="-0.88757">
        <ele>251</ele>
        <time>2020-12-06T10:58:09Z</time>
      </trkpt>
      <trkpt lat="46.83549" lon="-0.88751">
        <ele>251</ele>
        <time>2020-12-06T10:58:10Z</time>
      </trkpt>
      <trkpt lat="46.83555" lon="-0.88725">
        <ele>251.2</ele>
        <time>2020-12-06T10:58:15Z</time>
      </trkpt>
      <trkpt lat="46.83561" lon="-0.88694">
        <ele>251.1</ele>
        <time>2020-12-06T10:58:22Z</time>
      </trkpt>
      <trkpt lat="46.83565" lon="-0.88672">
        <ele>251</ele>
        <time>2020-12-06T10:58:27Z</time>
      </trkpt>
      <trkpt lat="46.8357" lon="-0.88646">
        <ele>250.7</ele>
        <time>2020-12-06T10:58:33Z</time>
      </trkpt>
      <trkpt lat="46.83571" lon="-0.88643">
        <ele>250.7</ele>
        <time>2020-12-06T10:58:35Z</time>
      </trkpt>
      <trkpt lat="46.83572" lon="-0.88643">
        <ele>250.6</ele>
        <time>2020-12-06T10:58:37Z</time>
      </trkpt>
      <trkpt lat="46.83574" lon="-0.88642">
        <ele>250.6</ele>
        <time>2020-12-06T10:58:39Z</time>
      </trkpt>
      <trkpt lat="46.83576" lon="-0.88641">
        <ele>250.4</ele>
        <time>2020-12-06T10:58:41Z</time>
      </trkpt>
      <trkpt lat="46.83577" lon="-0.88639">
        <ele>250.4</ele>
        <time>2020-12-06T10:58:42Z</time>
      </trkpt>
      <trkpt lat="46.8359" lon="-0.88628">
        <ele>249.9</ele>
        <time>2020-12-06T10:58:47Z</time>
      </trkpt>
      <trkpt lat="46.83594" lon="-0.88618">
        <ele>249.4</ele>
        <time>2020-12-06T10:58:49Z</time>
      </trkpt>
      <trkpt lat="46.83597" lon="-0.88605">
        <ele>248.9</ele>
        <time>2020-12-06T10:58:51Z</time>
      </trkpt>
      <trkpt lat="46.83599" lon="-0.88584">
        <ele>248.2</ele>
        <time>2020-12-06T10:58:54Z</time>
      </trkpt>
      <trkpt lat="46.83602" lon="-0.88569">
        <ele>247.8</ele>
        <time>2020-12-06T10:58:56Z</time>
      </trkpt>
      <trkpt lat="46.83602" lon="-0.88561">
        <ele>247.7</ele>
        <time>2020-12-06T10:58:57Z</time>
      </trkpt>
      <trkpt lat="46.83603" lon="-0.88554">
        <ele>247.5</ele>
        <time>2020-12-06T10:58:58Z</time>
      </trkpt>
      <trkpt lat="46.83605" lon="-0.88539">
        <ele>247.2</ele>
        <time>2020-12-06T10:59:00Z</time>
      </trkpt>
      <trkpt lat="46.83611" lon="-0.88483">
        <ele>246</ele>
        <time>2020-12-06T10:59:07Z</time>
      </trkpt>
      <trkpt lat="46.83614" lon="-0.88465">
        <ele>245.7</ele>
        <time>2020-12-06T10:59:09Z</time>
      </trkpt>
      <trkpt lat="46.83618" lon="-0.88448">
        <ele>245.3</ele>
        <time>2020-12-06T10:59:11Z</time>
      </trkpt>
      <trkpt lat="46.83621" lon="-0.8844">
        <ele>245.1</ele>
        <time>2020-12-06T10:59:12Z</time>
      </trkpt>
      <trkpt lat="46.83624" lon="-0.88432">
        <ele>244.9</ele>
        <time>2020-12-06T10:59:13Z</time>
      </trkpt>
      <trkpt lat="46.83629" lon="-0.88415">
        <ele>244.6</ele>
        <time>2020-12-06T10:59:15Z</time>
      </trkpt>
      <trkpt lat="46.83632" lon="-0.88409">
        <ele>244.5</ele>
        <time>2020-12-06T10:59:16Z</time>
      </trkpt>
      <trkpt lat="46.83636" lon="-0.88404">
        <ele>244.4</ele>
        <time>2020-12-06T10:59:17Z</time>
      </trkpt>
      <trkpt lat="46.83652" lon="-0.88385">
        <ele>244.1</ele>
        <time>2020-12-06T10:59:21Z</time>
      </trkpt>
      <trkpt lat="46.83659" lon="-0.88377">
        <ele>244</ele>
        <time>2020-12-06T10:59:23Z</time>
      </trkpt>
      <trkpt lat="46.83666" lon="-0.88363">
        <ele>243.9</ele>
        <time>2020-12-06T10:59:26Z</time>
      </trkpt>
      <trkpt lat="46.83663" lon="-0.88347">
        <ele>242.9</ele>
        <time>2020-12-06T10:59:29Z</time>
      </trkpt>
      <trkpt lat="46.83649" lon="-0.88312">
        <ele>241.2</ele>
        <time>2020-12-06T10:59:35Z</time>
      </trkpt>
      <trkpt lat="46.83628" lon="-0.88266">
        <ele>239.5</ele>
        <time>2020-12-06T10:59:41Z</time>
      </trkpt>
      <trkpt lat="46.83603" lon="-0.88207">
        <ele>238.3</ele>
        <time>2020-12-06T10:59:48Z</time>
      </trkpt>
      <trkpt lat="46.83586" lon="-0.88167">
        <ele>237.9</ele>
        <time>2020-12-06T10:59:53Z</time>
      </trkpt>
      <trkpt lat="46.83568" lon="-0.88113">
        <ele>237.8</ele>
        <time>2020-12-06T11:00:00Z</time>
      </trkpt>
      <trkpt lat="46.83563" lon="-0.88098">
        <ele>238</ele>
        <time>2020-12-06T11:00:02Z</time>
      </trkpt>
      <trkpt lat="46.83553" lon="-0.88078">
        <ele>238.5</ele>
        <time>2020-12-06T11:00:05Z</time>
      </trkpt>
      <trkpt lat="46.83539" lon="-0.88043">
        <ele>239.5</ele>
        <time>2020-12-06T11:00:10Z</time>
      </trkpt>
      <trkpt lat="46.83527" lon="-0.88006">
        <ele>240.5</ele>
        <time>2020-12-06T11:00:16Z</time>
      </trkpt>
      <trkpt lat="46.83517" lon="-0.87977">
        <ele>241.2</ele>
        <time>2020-12-06T11:00:21Z</time>
      </trkpt>
      <trkpt lat="46.83513" lon="-0.87966">
        <ele>241.3</ele>
        <time>2020-12-06T11:00:23Z</time>
      </trkpt>
      <trkpt lat="46.83501" lon="-0.87936">
        <ele>241.1</ele>
        <time>2020-12-06T11:00:29Z</time>
      </trkpt>
      <trkpt lat="46.83485" lon="-0.87901">
        <ele>240.4</ele>
        <time>2020-12-06T11:00:35Z</time>
      </trkpt>
      <trkpt lat="46.83461" lon="-0.87851">
        <ele>240.1</ele>
        <time>2020-12-06T11:00:42Z</time>
      </trkpt>
      <trkpt lat="46.83447" lon="-0.87815">
        <ele>240.5</ele>
        <time>2020-12-06T11:00:47Z</time>
      </trkpt>
      <trkpt lat="46.83443" lon="-0.87801">
        <ele>240.8</ele>
        <time>2020-12-06T11:00:49Z</time>
      </trkpt>
      <trkpt lat="46.83437" lon="-0.87773">
        <ele>240.6</ele>
        <time>2020-12-06T11:00:54Z</time>
      </trkpt>
      <trkpt lat="46.83434" lon="-0.87756">
        <ele>240.4</ele>
        <time>2020-12-06T11:00:57Z</time>
      </trkpt>
      <trkpt lat="46.83427" lon="-0.87735">
        <ele>240.1</ele>
        <time>2020-12-06T11:01:00Z</time>
      </trkpt>
      <trkpt lat="46.83425" lon="-0.87729">
        <ele>239.9</ele>
        <time>2020-12-06T11:01:01Z</time>
      </trkpt>
      <trkpt lat="46.83418" lon="-0.87702">
        <ele>239.3</ele>
        <time>2020-12-06T11:01:05Z</time>
      </trkpt>
      <trkpt lat="46.83408" lon="-0.87661">
        <ele>238</ele>
        <time>2020-12-06T11:01:11Z</time>
      </trkpt>
      <trkpt lat="46.83398" lon="-0.87617">
        <ele>236.2</ele>
        <time>2020-12-06T11:01:16Z</time>
      </trkpt>
      <trkpt lat="46.83387" lon="-0.87571">
        <ele>234.3</ele>
        <time>2020-12-06T11:01:21Z</time>
      </trkpt>
      <trkpt lat="46.83365" lon="-0.87487">
        <ele>231.3</ele>
        <time>2020-12-06T11:01:29Z</time>
      </trkpt>
      <trkpt lat="46.83362" lon="-0.87476">
        <ele>230.9</ele>
        <time>2020-12-06T11:01:30Z</time>
      </trkpt>
      <trkpt lat="46.83343" lon="-0.87402">
        <ele>228.8</ele>
        <time>2020-12-06T11:01:37Z</time>
      </trkpt>
      <trkpt lat="46.83341" lon="-0.87392">
        <ele>228.5</ele>
        <time>2020-12-06T11:01:38Z</time>
      </trkpt>
      <trkpt lat="46.83338" lon="-0.87384">
        <ele>228.3</ele>
        <time>2020-12-06T11:01:39Z</time>
      </trkpt>
      <trkpt lat="46.83333" lon="-0.87379">
        <ele>228.1</ele>
        <time>2020-12-06T11:01:40Z</time>
      </trkpt>
      <trkpt lat="46.83327" lon="-0.87376">
        <ele>228</ele>
        <time>2020-12-06T11:01:41Z</time>
      </trkpt>
      <trkpt lat="46.8332" lon="-0.87377">
        <ele>228</ele>
        <time>2020-12-06T11:01:42Z</time>
      </trkpt>
      <trkpt lat="46.83287" lon="-0.8738">
        <ele>228.3</ele>
        <time>2020-12-06T11:01:48Z</time>
      </trkpt>
      <trkpt lat="46.83261" lon="-0.87375">
        <ele>228.8</ele>
        <time>2020-12-06T11:01:54Z</time>
      </trkpt>
      <trkpt lat="46.83235" lon="-0.8737">
        <ele>229.1</ele>
        <time>2020-12-06T11:02:00Z</time>
      </trkpt>
      <trkpt lat="46.83226" lon="-0.87369">
        <ele>229.2</ele>
        <time>2020-12-06T11:02:02Z</time>
      </trkpt>
      <trkpt lat="46.83215" lon="-0.87371">
        <ele>229.3</ele>
        <time>2020-12-06T11:02:05Z</time>
      </trkpt>
      <trkpt lat="46.83188" lon="-0.87385">
        <ele>230</ele>
        <time>2020-12-06T11:02:13Z</time>
      </trkpt>
      <trkpt lat="46.83172" lon="-0.8739">
        <ele>230.3</ele>
        <time>2020-12-06T11:02:17Z</time>
      </trkpt>
      <trkpt lat="46.83169" lon="-0.87389">
        <ele>230.7</ele>
        <time>2020-12-06T11:02:18Z</time>
      </trkpt>
      <trkpt lat="46.83166" lon="-0.87385">
        <ele>230.8</ele>
        <time>2020-12-06T11:02:19Z</time>
      </trkpt>
      <trkpt lat="46.83163" lon="-0.87376">
        <ele>231</ele>
        <time>2020-12-06T11:02:21Z</time>
      </trkpt>
      <trkpt lat="46.83152" lon="-0.87359">
        <ele>231.5</ele>
        <time>2020-12-06T11:02:26Z</time>
      </trkpt>
      <trkpt lat="46.83139" lon="-0.87348">
        <ele>231.9</ele>
        <time>2020-12-06T11:02:32Z</time>
      </trkpt>
      <trkpt lat="46.83135" lon="-0.87345">
        <ele>232</ele>
        <time>2020-12-06T11:02:35Z</time>
      </trkpt>
      <trkpt lat="46.83134" lon="-0.87343">
        <ele>232.1</ele>
        <time>2020-12-06T11:02:36Z</time>
      </trkpt>
      <trkpt lat="46.83132" lon="-0.87342">
        <ele>232.1</ele>
        <time>2020-12-06T11:02:37Z</time>
      </trkpt>
      <trkpt lat="46.83129" lon="-0.87338">
        <ele>232.2</ele>
        <time>2020-12-06T11:02:39Z</time>
      </trkpt>
      <trkpt lat="46.83128" lon="-0.87336">
        <ele>232.3</ele>
        <time>2020-12-06T11:02:40Z</time>
      </trkpt>
      <trkpt lat="46.83131" lon="-0.87336">
        <ele>232.4</ele>
        <time>2020-12-06T11:02:42Z</time>
      </trkpt>
      <trkpt lat="46.83139" lon="-0.8735">
        <ele>232.7</ele>
        <time>2020-12-06T11:02:46Z</time>
      </trkpt>
      <trkpt lat="46.83144" lon="-0.87356">
        <ele>232.9</ele>
        <time>2020-12-06T11:02:48Z</time>
      </trkpt>
      <trkpt lat="46.83144" lon="-0.87363">
        <ele>233</ele>
        <time>2020-12-06T11:02:50Z</time>
      </trkpt>
      <trkpt lat="46.83137" lon="-0.87374">
        <ele>233.1</ele>
        <time>2020-12-06T11:02:54Z</time>
      </trkpt>
      <trkpt lat="46.83126" lon="-0.87387">
        <ele>233.3</ele>
        <time>2020-12-06T11:02:59Z</time>
      </trkpt>
      <trkpt lat="46.83122" lon="-0.87391">
        <ele>233.4</ele>
        <time>2020-12-06T11:03:01Z</time>
      </trkpt>
      <trkpt lat="46.83116" lon="-0.8739">
        <ele>233.7</ele>
        <time>2020-12-06T11:03:03Z</time>
      </trkpt>
      <trkpt lat="46.83108" lon="-0.87383">
        <ele>234.1</ele>
        <time>2020-12-06T11:03:07Z</time>
      </trkpt>
      <trkpt lat="46.83098" lon="-0.87367">
        <ele>235</ele>
        <time>2020-12-06T11:03:14Z</time>
      </trkpt>
      <trkpt lat="46.83092" lon="-0.87358">
        <ele>235.5</ele>
        <time>2020-12-06T11:03:19Z</time>
      </trkpt>
      <trkpt lat="46.83083" lon="-0.87346">
        <ele>236.2</ele>
        <time>2020-12-06T11:03:24Z</time>
      </trkpt>
      <trkpt lat="46.83073" lon="-0.87331">
        <ele>237.1</ele>
        <time>2020-12-06T11:03:31Z</time>
      </trkpt>
      <trkpt lat="46.83072" lon="-0.87328">
        <ele>237.2</ele>
        <time>2020-12-06T11:03:32Z</time>
      </trkpt>
      <trkpt lat="46.83066" lon="-0.87321">
        <ele>237.6</ele>
        <time>2020-12-06T11:03:35Z</time>
      </trkpt>
      <trkpt lat="46.83054" lon="-0.87301">
        <ele>238.1</ele>
        <time>2020-12-06T11:03:42Z</time>
      </trkpt>
      <trkpt lat="46.83044" lon="-0.87285">
        <ele>238.4</ele>
        <time>2020-12-06T11:03:48Z</time>
      </trkpt>
      <trkpt lat="46.83031" lon="-0.87265">
        <ele>238.7</ele>
        <time>2020-12-06T11:03:55Z</time>
      </trkpt>
      <trkpt lat="46.83022" lon="-0.87258">
        <ele>238.8</ele>
        <time>2020-12-06T11:04:00Z</time>
      </trkpt>
      <trkpt lat="46.83017" lon="-0.87256">
        <ele>238.8</ele>
        <time>2020-12-06T11:04:02Z</time>
      </trkpt>
      <trkpt lat="46.83012" lon="-0.87258">
        <ele>238.9</ele>
        <time>2020-12-06T11:04:04Z</time>
      </trkpt>
      <trkpt lat="46.83008" lon="-0.87259">
        <ele>238.9</ele>
        <time>2020-12-06T11:04:06Z</time>
      </trkpt>
      <trkpt lat="46.83006" lon="-0.87256">
        <ele>238.9</ele>
        <time>2020-12-06T11:04:08Z</time>
      </trkpt>
      <trkpt lat="46.83006" lon="-0.87241">
        <ele>238.8</ele>
        <time>2020-12-06T11:04:12Z</time>
      </trkpt>
      <trkpt lat="46.83005" lon="-0.87208">
        <ele>238.5</ele>
        <time>2020-12-06T11:04:19Z</time>
      </trkpt>
      <trkpt lat="46.83003" lon="-0.87171">
        <ele>238.3</ele>
        <time>2020-12-06T11:04:26Z</time>
      </trkpt>
      <trkpt lat="46.83002" lon="-0.87131">
        <ele>238</ele>
        <time>2020-12-06T11:04:34Z</time>
      </trkpt>
      <trkpt lat="46.83001" lon="-0.87123">
        <ele>238</ele>
        <time>2020-12-06T11:04:36Z</time>
      </trkpt>
      <trkpt lat="46.82998" lon="-0.87121">
        <ele>238</ele>
        <time>2020-12-06T11:04:37Z</time>
      </trkpt>
      <trkpt lat="46.82986" lon="-0.87115">
        <ele>238</ele>
        <time>2020-12-06T11:04:42Z</time>
      </trkpt>
      <trkpt lat="46.8299" lon="-0.87107">
        <ele>238.1</ele>
        <time>2020-12-06T11:04:45Z</time>
      </trkpt>
      <trkpt lat="46.82992" lon="-0.87103">
        <ele>238.2</ele>
        <time>2020-12-06T11:04:46Z</time>
      </trkpt>
      <trkpt lat="46.82994" lon="-0.87093">
        <ele>238.4</ele>
        <time>2020-12-06T11:04:49Z</time>
      </trkpt>
      <trkpt lat="46.82988" lon="-0.87092">
        <ele>238.4</ele>
        <time>2020-12-06T11:04:52Z</time>
      </trkpt>
      <trkpt lat="46.82984" lon="-0.87093">
        <ele>238.4</ele>
        <time>2020-12-06T11:04:54Z</time>
      </trkpt>
      <trkpt lat="46.8298" lon="-0.87092">
        <ele>238.4</ele>
        <time>2020-12-06T11:04:56Z</time>
      </trkpt>
      <trkpt lat="46.82982" lon="-0.87081">
        <ele>238.4</ele>
        <time>2020-12-06T11:04:59Z</time>
      </trkpt>
      <trkpt lat="46.82991" lon="-0.87069">
        <ele>238.3</ele>
        <time>2020-12-06T11:05:03Z</time>
      </trkpt>
      <trkpt lat="46.83001" lon="-0.87065">
        <ele>237.9</ele>
        <time>2020-12-06T11:05:06Z</time>
      </trkpt>
      <trkpt lat="46.83002" lon="-0.87061">
        <ele>237.8</ele>
        <time>2020-12-06T11:05:07Z</time>
      </trkpt>
      <trkpt lat="46.83002" lon="-0.87045">
        <ele>236.9</ele>
        <time>2020-12-06T11:05:11Z</time>
      </trkpt>
      <trkpt lat="46.83" lon="-0.87043">
        <ele>236.9</ele>
        <time>2020-12-06T11:05:12Z</time>
      </trkpt>
      <trkpt lat="46.82994" lon="-0.87044">
        <ele>236.8</ele>
        <time>2020-12-06T11:05:16Z</time>
      </trkpt>
      <trkpt lat="46.82982" lon="-0.87053">
        <ele>236.4</ele>
        <time>2020-12-06T11:05:22Z</time>
      </trkpt>
      <trkpt lat="46.82968" lon="-0.87077">
        <ele>235.4</ele>
        <time>2020-12-06T11:05:27Z</time>
      </trkpt>
      <trkpt lat="46.82946" lon="-0.87114">
        <ele>234.3</ele>
        <time>2020-12-06T11:05:33Z</time>
      </trkpt>
      <trkpt lat="46.82924" lon="-0.87155">
        <ele>234.5</ele>
        <time>2020-12-06T11:05:40Z</time>
      </trkpt>
      <trkpt lat="46.82906" lon="-0.87187">
        <ele>235.8</ele>
        <time>2020-12-06T11:05:46Z</time>
      </trkpt>
      <trkpt lat="46.82892" lon="-0.87207">
        <ele>237.2</ele>
        <time>2020-12-06T11:05:51Z</time>
      </trkpt>
      <trkpt lat="46.82891" lon="-0.8721">
        <ele>237.3</ele>
        <time>2020-12-06T11:05:52Z</time>
      </trkpt>
      <trkpt lat="46.82888" lon="-0.87217">
        <ele>237.7</ele>
        <time>2020-12-06T11:05:54Z</time>
      </trkpt>
      <trkpt lat="46.82879" lon="-0.87239">
        <ele>238.4</ele>
        <time>2020-12-06T11:05:59Z</time>
      </trkpt>
      <trkpt lat="46.82876" lon="-0.87264">
        <ele>238.7</ele>
        <time>2020-12-06T11:06:04Z</time>
      </trkpt>
      <trkpt lat="46.82871" lon="-0.87296">
        <ele>238</ele>
        <time>2020-12-06T11:06:10Z</time>
      </trkpt>
      <trkpt lat="46.82869" lon="-0.87302">
        <ele>237.7</ele>
        <time>2020-12-06T11:06:11Z</time>
      </trkpt>
      <trkpt lat="46.82858" lon="-0.87347">
        <ele>235.6</ele>
        <time>2020-12-06T11:06:17Z</time>
      </trkpt>
      <trkpt lat="46.82834" lon="-0.87402">
        <ele>233.7</ele>
        <time>2020-12-06T11:06:25Z</time>
      </trkpt>
      <trkpt lat="46.8281" lon="-0.87449">
        <ele>232.7</ele>
        <time>2020-12-06T11:06:32Z</time>
      </trkpt>
      <trkpt lat="46.82783" lon="-0.87498">
        <ele>231.3</ele>
        <time>2020-12-06T11:06:39Z</time>
      </trkpt>
      <trkpt lat="46.82754" lon="-0.87548">
        <ele>231.1</ele>
        <time>2020-12-06T11:06:46Z</time>
      </trkpt>
      <trkpt lat="46.82741" lon="-0.87569">
        <ele>231.9</ele>
        <time>2020-12-06T11:06:50Z</time>
      </trkpt>
      <trkpt lat="46.82729" lon="-0.87585">
        <ele>232.7</ele>
        <time>2020-12-06T11:06:54Z</time>
      </trkpt>
      <trkpt lat="46.82718" lon="-0.876">
        <ele>233.7</ele>
        <time>2020-12-06T11:06:59Z</time>
      </trkpt>
      <trkpt lat="46.82701" lon="-0.87612">
        <ele>234.9</ele>
        <time>2020-12-06T11:07:05Z</time>
      </trkpt>
      <trkpt lat="46.82686" lon="-0.87622">
        <ele>236.2</ele>
        <time>2020-12-06T11:07:10Z</time>
      </trkpt>
      <trkpt lat="46.82668" lon="-0.87634">
        <ele>238.3</ele>
        <time>2020-12-06T11:07:17Z</time>
      </trkpt>
      <trkpt lat="46.82654" lon="-0.87645">
        <ele>240.3</ele>
        <time>2020-12-06T11:07:23Z</time>
      </trkpt>
      <trkpt lat="46.8264" lon="-0.8766">
        <ele>242.9</ele>
        <time>2020-12-06T11:07:31Z</time>
      </trkpt>
      <trkpt lat="46.82632" lon="-0.87672">
        <ele>244.4</ele>
        <time>2020-12-06T11:07:36Z</time>
      </trkpt>
      <trkpt lat="46.8263" lon="-0.87673">
        <ele>244.7</ele>
        <time>2020-12-06T11:07:37Z</time>
      </trkpt>
      <trkpt lat="46.82626" lon="-0.87676">
        <ele>245.3</ele>
        <time>2020-12-06T11:07:39Z</time>
      </trkpt>
      <trkpt lat="46.82623" lon="-0.87681">
        <ele>245.9</ele>
        <time>2020-12-06T11:07:41Z</time>
      </trkpt>
      <trkpt lat="46.82612" lon="-0.87691">
        <ele>247.2</ele>
        <time>2020-12-06T11:07:46Z</time>
      </trkpt>
      <trkpt lat="46.82606" lon="-0.87693">
        <ele>247.8</ele>
        <time>2020-12-06T11:07:49Z</time>
      </trkpt>
      <trkpt lat="46.82604" lon="-0.87692">
        <ele>247.9</ele>
        <time>2020-12-06T11:07:50Z</time>
      </trkpt>
      <trkpt lat="46.82604" lon="-0.87686">
        <ele>248.3</ele>
        <time>2020-12-06T11:07:53Z</time>
      </trkpt>
      <trkpt lat="46.82604" lon="-0.87682">
        <ele>248.5</ele>
        <time>2020-12-06T11:07:55Z</time>
      </trkpt>
      <trkpt lat="46.82604" lon="-0.8768">
        <ele>248.6</ele>
        <time>2020-12-06T11:07:56Z</time>
      </trkpt>
      <trkpt lat="46.82602" lon="-0.87676">
        <ele>248.9</ele>
        <time>2020-12-06T11:07:58Z</time>
      </trkpt>
      <trkpt lat="46.82601" lon="-0.87674">
        <ele>249.1</ele>
        <time>2020-12-06T11:07:59Z</time>
      </trkpt>
      <trkpt lat="46.82601" lon="-0.87672">
        <ele>249.2</ele>
        <time>2020-12-06T11:08:00Z</time>
      </trkpt>
      <trkpt lat="46.82598" lon="-0.87666">
        <ele>249.8</ele>
        <time>2020-12-06T11:08:04Z</time>
      </trkpt>
      <trkpt lat="46.82595" lon="-0.87658">
        <ele>250.6</ele>
        <time>2020-12-06T11:08:09Z</time>
      </trkpt>
      <trkpt lat="46.82592" lon="-0.87651">
        <ele>251.3</ele>
        <time>2020-12-06T11:08:13Z</time>
      </trkpt>
      <trkpt lat="46.82591" lon="-0.87639">
        <ele>252.6</ele>
        <time>2020-12-06T11:08:19Z</time>
      </trkpt>
      <trkpt lat="46.82587" lon="-0.87624">
        <ele>254.1</ele>
        <time>2020-12-06T11:08:25Z</time>
      </trkpt>
      <trkpt lat="46.82585" lon="-0.87616">
        <ele>254.8</ele>
        <time>2020-12-06T11:08:28Z</time>
      </trkpt>
      <trkpt lat="46.82583" lon="-0.87609">
        <ele>255.4</ele>
        <time>2020-12-06T11:08:31Z</time>
      </trkpt>
      <trkpt lat="46.82581" lon="-0.87602">
        <ele>256</ele>
        <time>2020-12-06T11:08:34Z</time>
      </trkpt>
      <trkpt lat="46.8258" lon="-0.87598">
        <ele>256.2</ele>
        <time>2020-12-06T11:08:36Z</time>
      </trkpt>
      <trkpt lat="46.8258" lon="-0.87595">
        <ele>256.2</ele>
        <time>2020-12-06T11:08:37Z</time>
      </trkpt>
      <trkpt lat="46.82578" lon="-0.87576">
        <ele>257.6</ele>
        <time>2020-12-06T11:08:44Z</time>
      </trkpt>
      <trkpt lat="46.82576" lon="-0.87565">
        <ele>258</ele>
        <time>2020-12-06T11:08:48Z</time>
      </trkpt>
      <trkpt lat="46.82576" lon="-0.8756">
        <ele>258.2</ele>
        <time>2020-12-06T11:08:50Z</time>
      </trkpt>
      <trkpt lat="46.82576" lon="-0.87558">
        <ele>258.3</ele>
        <time>2020-12-06T11:08:51Z</time>
      </trkpt>
      <trkpt lat="46.82577" lon="-0.87548">
        <ele>258.6</ele>
        <time>2020-12-06T11:08:55Z</time>
      </trkpt>
      <trkpt lat="46.82576" lon="-0.87545">
        <ele>258.7</ele>
        <time>2020-12-06T11:08:56Z</time>
      </trkpt>
      <trkpt lat="46.82576" lon="-0.87537">
        <ele>259</ele>
        <time>2020-12-06T11:08:59Z</time>
      </trkpt>
      <trkpt lat="46.82576" lon="-0.87535">
        <ele>259</ele>
        <time>2020-12-06T11:09:00Z</time>
      </trkpt>
      <trkpt lat="46.82576" lon="-0.87521">
        <ele>260.1</ele>
        <time>2020-12-06T11:09:05Z</time>
      </trkpt>
      <trkpt lat="46.82575" lon="-0.87509">
        <ele>260.4</ele>
        <time>2020-12-06T11:09:10Z</time>
      </trkpt>
      <trkpt lat="46.82574" lon="-0.87508">
        <ele>260.4</ele>
        <time>2020-12-06T11:09:11Z</time>
      </trkpt>
      <trkpt lat="46.82568" lon="-0.87507">
        <ele>261.1</ele>
        <time>2020-12-06T11:09:15Z</time>
      </trkpt>
      <trkpt lat="46.82566" lon="-0.87506">
        <ele>261.4</ele>
        <time>2020-12-06T11:09:16Z</time>
      </trkpt>
      <trkpt lat="46.82565" lon="-0.87504">
        <ele>261.5</ele>
        <time>2020-12-06T11:09:19Z</time>
      </trkpt>
      <trkpt lat="46.82561" lon="-0.87501">
        <ele>261.8</ele>
        <time>2020-12-06T11:24:49Z</time>
      </trkpt>
      <trkpt lat="46.82561" lon="-0.87495">
        <ele>261.9</ele>
        <time>2020-12-06T11:24:51Z</time>
      </trkpt>
      <trkpt lat="46.82559" lon="-0.8748">
        <ele>262.2</ele>
        <time>2020-12-06T11:24:55Z</time>
      </trkpt>
      <trkpt lat="46.82553" lon="-0.87463">
        <ele>262.8</ele>
        <time>2020-12-06T11:24:59Z</time>
      </trkpt>
      <trkpt lat="46.82543" lon="-0.87454">
        <ele>263.9</ele>
        <time>2020-12-06T11:25:04Z</time>
      </trkpt>
      <trkpt lat="46.82534" lon="-0.87439">
        <ele>264.1</ele>
        <time>2020-12-06T11:25:08Z</time>
      </trkpt>
      <trkpt lat="46.82528" lon="-0.87419">
        <ele>263.6</ele>
        <time>2020-12-06T11:25:11Z</time>
      </trkpt>
      <trkpt lat="46.82527" lon="-0.87412">
        <ele>263.2</ele>
        <time>2020-12-06T11:25:12Z</time>
      </trkpt>
      <trkpt lat="46.82526" lon="-0.87404">
        <ele>262.7</ele>
        <time>2020-12-06T11:25:13Z</time>
      </trkpt>
      <trkpt lat="46.82525" lon="-0.87383">
        <ele>261.2</ele>
        <time>2020-12-06T11:25:16Z</time>
      </trkpt>
      <trkpt lat="46.82524" lon="-0.87377">
        <ele>260.9</ele>
        <time>2020-12-06T11:25:17Z</time>
      </trkpt>
      <trkpt lat="46.82517" lon="-0.87348">
        <ele>258.5</ele>
        <time>2020-12-06T11:25:22Z</time>
      </trkpt>
      <trkpt lat="46.82516" lon="-0.87341">
        <ele>257.8</ele>
        <time>2020-12-06T11:25:23Z</time>
      </trkpt>
      <trkpt lat="46.82513" lon="-0.87321">
        <ele>256.1</ele>
        <time>2020-12-06T11:25:26Z</time>
      </trkpt>
      <trkpt lat="46.8251" lon="-0.87309">
        <ele>254.4</ele>
        <time>2020-12-06T11:25:28Z</time>
      </trkpt>
      <trkpt lat="46.82506" lon="-0.87294">
        <ele>252.1</ele>
        <time>2020-12-06T11:25:32Z</time>
      </trkpt>
      <trkpt lat="46.825" lon="-0.87287">
        <ele>251.8</ele>
        <time>2020-12-06T11:25:35Z</time>
      </trkpt>
      <trkpt lat="46.82499" lon="-0.87284">
        <ele>251.4</ele>
        <time>2020-12-06T11:25:36Z</time>
      </trkpt>
      <trkpt lat="46.82496" lon="-0.87276">
        <ele>250.5</ele>
        <time>2020-12-06T11:25:38Z</time>
      </trkpt>
      <trkpt lat="46.82496" lon="-0.87272">
        <ele>250</ele>
        <time>2020-12-06T11:25:39Z</time>
      </trkpt>
      <trkpt lat="46.82496" lon="-0.87268">
        <ele>249.4</ele>
        <time>2020-12-06T11:25:40Z</time>
      </trkpt>
      <trkpt lat="46.82495" lon="-0.87257">
        <ele>248.5</ele>
        <time>2020-12-06T11:25:43Z</time>
      </trkpt>
      <trkpt lat="46.82492" lon="-0.87255">
        <ele>248.1</ele>
        <time>2020-12-06T11:25:45Z</time>
      </trkpt>
      <trkpt lat="46.82476" lon="-0.87248">
        <ele>247.8</ele>
        <time>2020-12-06T11:25:51Z</time>
      </trkpt>
      <trkpt lat="46.82459" lon="-0.87248">
        <ele>247.7</ele>
        <time>2020-12-06T11:25:56Z</time>
      </trkpt>
      <trkpt lat="46.82437" lon="-0.87252">
        <ele>248.3</ele>
        <time>2020-12-06T11:26:03Z</time>
      </trkpt>
      <trkpt lat="46.82432" lon="-0.87253">
        <ele>248.4</ele>
        <time>2020-12-06T11:26:05Z</time>
      </trkpt>
      <trkpt lat="46.82427" lon="-0.87251">
        <ele>247.9</ele>
        <time>2020-12-06T11:26:07Z</time>
      </trkpt>
      <trkpt lat="46.82422" lon="-0.87249">
        <ele>247.9</ele>
        <time>2020-12-06T11:26:09Z</time>
      </trkpt>
      <trkpt lat="46.82418" lon="-0.87243">
        <ele>247.5</ele>
        <time>2020-12-06T11:26:11Z</time>
      </trkpt>
      <trkpt lat="46.82403" lon="-0.87225">
        <ele>245.1</ele>
        <time>2020-12-06T11:26:16Z</time>
      </trkpt>
      <trkpt lat="46.82392" lon="-0.87212">
        <ele>243.1</ele>
        <time>2020-12-06T11:26:20Z</time>
      </trkpt>
      <trkpt lat="46.82387" lon="-0.87212">
        <ele>242.8</ele>
        <time>2020-12-06T11:26:23Z</time>
      </trkpt>
      <trkpt lat="46.82385" lon="-0.87207">
        <ele>242.3</ele>
        <time>2020-12-06T11:26:29Z</time>
      </trkpt>
      <trkpt lat="46.82382" lon="-0.87203">
        <ele>241.6</ele>
        <time>2020-12-06T11:26:33Z</time>
      </trkpt>
      <trkpt lat="46.82368" lon="-0.87205">
        <ele>241.8</ele>
        <time>2020-12-06T11:27:05Z</time>
      </trkpt>
      <trkpt lat="46.82363" lon="-0.87204">
        <ele>241.3</ele>
        <time>2020-12-06T11:27:07Z</time>
      </trkpt>
      <trkpt lat="46.8236" lon="-0.87204">
        <ele>241.3</ele>
        <time>2020-12-06T11:27:09Z</time>
      </trkpt>
      <trkpt lat="46.82356" lon="-0.87203">
        <ele>241.3</ele>
        <time>2020-12-06T11:27:11Z</time>
      </trkpt>
      <trkpt lat="46.82347" lon="-0.87205">
        <ele>241.9</ele>
        <time>2020-12-06T11:27:15Z</time>
      </trkpt>
      <trkpt lat="46.82338" lon="-0.87208">
        <ele>242.5</ele>
        <time>2020-12-06T11:27:20Z</time>
      </trkpt>
      <trkpt lat="46.82332" lon="-0.87216">
        <ele>243.1</ele>
        <time>2020-12-06T11:27:25Z</time>
      </trkpt>
      <trkpt lat="46.82328" lon="-0.87221">
        <ele>243.6</ele>
        <time>2020-12-06T11:27:30Z</time>
      </trkpt>
      <trkpt lat="46.82325" lon="-0.87223">
        <ele>244.1</ele>
        <time>2020-12-06T11:27:39Z</time>
      </trkpt>
      <trkpt lat="46.82321" lon="-0.87228">
        <ele>244.4</ele>
        <time>2020-12-06T11:27:41Z</time>
      </trkpt>
      <trkpt lat="46.82309" lon="-0.87245">
        <ele>245.4</ele>
        <time>2020-12-06T11:27:46Z</time>
      </trkpt>
      <trkpt lat="46.82292" lon="-0.87259">
        <ele>245.2</ele>
        <time>2020-12-06T11:27:51Z</time>
      </trkpt>
      <trkpt lat="46.82272" lon="-0.87265">
        <ele>244.2</ele>
        <time>2020-12-06T11:27:57Z</time>
      </trkpt>
      <trkpt lat="46.82263" lon="-0.87269">
        <ele>243.8</ele>
        <time>2020-12-06T11:28:00Z</time>
      </trkpt>
      <trkpt lat="46.82258" lon="-0.87264">
        <ele>243.3</ele>
        <time>2020-12-06T11:28:02Z</time>
      </trkpt>
      <trkpt lat="46.8224" lon="-0.87239">
        <ele>241.5</ele>
        <time>2020-12-06T11:28:08Z</time>
      </trkpt>
      <trkpt lat="46.82232" lon="-0.87228">
        <ele>240.2</ele>
        <time>2020-12-06T11:28:10Z</time>
      </trkpt>
      <trkpt lat="46.82219" lon="-0.87215">
        <ele>238.3</ele>
        <time>2020-12-06T11:28:13Z</time>
      </trkpt>
      <trkpt lat="46.82215" lon="-0.87211">
        <ele>237.7</ele>
        <time>2020-12-06T11:28:14Z</time>
      </trkpt>
      <trkpt lat="46.8221" lon="-0.87205">
        <ele>237</ele>
        <time>2020-12-06T11:28:15Z</time>
      </trkpt>
      <trkpt lat="46.82193" lon="-0.87187">
        <ele>235.5</ele>
        <time>2020-12-06T11:28:18Z</time>
      </trkpt>
      <trkpt lat="46.82178" lon="-0.87173">
        <ele>234.1</ele>
        <time>2020-12-06T11:28:21Z</time>
      </trkpt>
      <trkpt lat="46.82174" lon="-0.87168">
        <ele>233.7</ele>
        <time>2020-12-06T11:28:22Z</time>
      </trkpt>
      <trkpt lat="46.82171" lon="-0.87164">
        <ele>233.4</ele>
        <time>2020-12-06T11:28:23Z</time>
      </trkpt>
      <trkpt lat="46.82158" lon="-0.87144">
        <ele>232.9</ele>
        <time>2020-12-06T11:28:27Z</time>
      </trkpt>
      <trkpt lat="46.82151" lon="-0.8713">
        <ele>232.2</ele>
        <time>2020-12-06T11:28:30Z</time>
      </trkpt>
      <trkpt lat="46.82151" lon="-0.87124">
        <ele>231.8</ele>
        <time>2020-12-06T11:28:31Z</time>
      </trkpt>
      <trkpt lat="46.82153" lon="-0.87114">
        <ele>230.6</ele>
        <time>2020-12-06T11:28:33Z</time>
      </trkpt>
      <trkpt lat="46.82156" lon="-0.87109">
        <ele>229.9</ele>
        <time>2020-12-06T11:28:34Z</time>
      </trkpt>
      <trkpt lat="46.8216" lon="-0.87105">
        <ele>228.9</ele>
        <time>2020-12-06T11:28:35Z</time>
      </trkpt>
      <trkpt lat="46.82169" lon="-0.87101">
        <ele>227.8</ele>
        <time>2020-12-06T11:28:37Z</time>
      </trkpt>
      <trkpt lat="46.8218" lon="-0.871">
        <ele>227.1</ele>
        <time>2020-12-06T11:28:39Z</time>
      </trkpt>
      <trkpt lat="46.82198" lon="-0.87102">
        <ele>226.7</ele>
        <time>2020-12-06T11:28:42Z</time>
      </trkpt>
      <trkpt lat="46.82215" lon="-0.87101">
        <ele>225.9</ele>
        <time>2020-12-06T11:28:45Z</time>
      </trkpt>
      <trkpt lat="46.82223" lon="-0.87097">
        <ele>225.9</ele>
        <time>2020-12-06T11:28:47Z</time>
      </trkpt>
      <trkpt lat="46.82239" lon="-0.87094">
        <ele>225.4</ele>
        <time>2020-12-06T11:28:52Z</time>
      </trkpt>
      <trkpt lat="46.82246" lon="-0.87093">
        <ele>225.3</ele>
        <time>2020-12-06T11:28:54Z</time>
      </trkpt>
      <trkpt lat="46.8226" lon="-0.87088">
        <ele>224.1</ele>
        <time>2020-12-06T11:28:57Z</time>
      </trkpt>
      <trkpt lat="46.82264" lon="-0.87084">
        <ele>223.5</ele>
        <time>2020-12-06T11:28:58Z</time>
      </trkpt>
      <trkpt lat="46.82264" lon="-0.87076">
        <ele>222.8</ele>
        <time>2020-12-06T11:28:59Z</time>
      </trkpt>
      <trkpt lat="46.8226" lon="-0.87038">
        <ele>219.3</ele>
        <time>2020-12-06T11:29:03Z</time>
      </trkpt>
      <trkpt lat="46.82255" lon="-0.86996">
        <ele>215.7</ele>
        <time>2020-12-06T11:29:07Z</time>
      </trkpt>
      <trkpt lat="46.82243" lon="-0.86959">
        <ele>215.6</ele>
        <time>2020-12-06T11:29:11Z</time>
      </trkpt>
      <trkpt lat="46.82231" lon="-0.86921">
        <ele>215.2</ele>
        <time>2020-12-06T11:29:16Z</time>
      </trkpt>
      <trkpt lat="46.82229" lon="-0.86914">
        <ele>215.2</ele>
        <time>2020-12-06T11:29:17Z</time>
      </trkpt>
      <trkpt lat="46.8222" lon="-0.86888">
        <ele>215.1</ele>
        <time>2020-12-06T11:29:21Z</time>
      </trkpt>
      <trkpt lat="46.82213" lon="-0.86875">
        <ele>215</ele>
        <time>2020-12-06T11:29:23Z</time>
      </trkpt>
      <trkpt lat="46.8221" lon="-0.86869">
        <ele>214.9</ele>
        <time>2020-12-06T11:29:24Z</time>
      </trkpt>
      <trkpt lat="46.82193" lon="-0.8684">
        <ele>214.7</ele>
        <time>2020-12-06T11:29:29Z</time>
      </trkpt>
      <trkpt lat="46.82165" lon="-0.86793">
        <ele>214.2</ele>
        <time>2020-12-06T11:29:37Z</time>
      </trkpt>
      <trkpt lat="46.82137" lon="-0.86747">
        <ele>213.8</ele>
        <time>2020-12-06T11:29:45Z</time>
      </trkpt>
      <trkpt lat="46.82123" lon="-0.86723">
        <ele>213.4</ele>
        <time>2020-12-06T11:29:49Z</time>
      </trkpt>
      <trkpt lat="46.82116" lon="-0.86712">
        <ele>213.2</ele>
        <time>2020-12-06T11:29:51Z</time>
      </trkpt>
      <trkpt lat="46.82116" lon="-0.86698">
        <ele>212.5</ele>
        <time>2020-12-06T11:29:53Z</time>
      </trkpt>
      <trkpt lat="46.82118" lon="-0.8669">
        <ele>212.3</ele>
        <time>2020-12-06T11:29:54Z</time>
      </trkpt>
      <trkpt lat="46.82123" lon="-0.86685">
        <ele>212.2</ele>
        <time>2020-12-06T11:29:55Z</time>
      </trkpt>
      <trkpt lat="46.82137" lon="-0.86671">
        <ele>211.9</ele>
        <time>2020-12-06T11:29:58Z</time>
      </trkpt>
      <trkpt lat="46.82152" lon="-0.86653">
        <ele>211.5</ele>
        <time>2020-12-06T11:30:01Z</time>
      </trkpt>
      <trkpt lat="46.82166" lon="-0.86635">
        <ele>211.3</ele>
        <time>2020-12-06T11:30:04Z</time>
      </trkpt>
      <trkpt lat="46.82207" lon="-0.86597">
        <ele>211</ele>
        <time>2020-12-06T11:30:12Z</time>
      </trkpt>
      <trkpt lat="46.82225" lon="-0.86582">
        <ele>211</ele>
        <time>2020-12-06T11:30:16Z</time>
      </trkpt>
      <trkpt lat="46.82239" lon="-0.86571">
        <ele>211</ele>
        <time>2020-12-06T11:30:19Z</time>
      </trkpt>
      <trkpt lat="46.8227" lon="-0.86546">
        <ele>211.3</ele>
        <time>2020-12-06T11:30:26Z</time>
      </trkpt>
      <trkpt lat="46.82286" lon="-0.86539">
        <ele>211.5</ele>
        <time>2020-12-06T11:30:30Z</time>
      </trkpt>
      <trkpt lat="46.82291" lon="-0.86534">
        <ele>211.6</ele>
        <time>2020-12-06T11:30:32Z</time>
      </trkpt>
      <trkpt lat="46.82291" lon="-0.8653">
        <ele>211.7</ele>
        <time>2020-12-06T11:30:33Z</time>
      </trkpt>
      <trkpt lat="46.82286" lon="-0.86521">
        <ele>211.8</ele>
        <time>2020-12-06T11:30:37Z</time>
      </trkpt>
      <trkpt lat="46.82274" lon="-0.86516">
        <ele>212.1</ele>
        <time>2020-12-06T11:30:42Z</time>
      </trkpt>
      <trkpt lat="46.82263" lon="-0.8651">
        <ele>212.4</ele>
        <time>2020-12-06T11:30:47Z</time>
      </trkpt>
      <trkpt lat="46.82253" lon="-0.86505">
        <ele>212.7</ele>
        <time>2020-12-06T11:30:52Z</time>
      </trkpt>
      <trkpt lat="46.82243" lon="-0.86496">
        <ele>213.1</ele>
        <time>2020-12-06T11:30:56Z</time>
      </trkpt>
      <trkpt lat="46.82232" lon="-0.86483">
        <ele>213.6</ele>
        <time>2020-12-06T11:31:01Z</time>
      </trkpt>
      <trkpt lat="46.82215" lon="-0.86469">
        <ele>214.2</ele>
        <time>2020-12-06T11:31:06Z</time>
      </trkpt>
      <trkpt lat="46.8221" lon="-0.86464">
        <ele>214.4</ele>
        <time>2020-12-06T11:31:09Z</time>
      </trkpt>
      <trkpt lat="46.82212" lon="-0.86466">
        <ele>214.5</ele>
        <time>2020-12-06T11:31:29Z</time>
      </trkpt>
      <trkpt lat="46.82215" lon="-0.86468">
        <ele>214.7</ele>
        <time>2020-12-06T11:31:31Z</time>
      </trkpt>
      <trkpt lat="46.82224" lon="-0.86475">
        <ele>215</ele>
        <time>2020-12-06T11:31:37Z</time>
      </trkpt>
      <trkpt lat="46.82229" lon="-0.86482">
        <ele>215.2</ele>
        <time>2020-12-06T11:31:41Z</time>
      </trkpt>
      <trkpt lat="46.8224" lon="-0.86491">
        <ele>215.6</ele>
        <time>2020-12-06T11:31:45Z</time>
      </trkpt>
      <trkpt lat="46.82254" lon="-0.86504">
        <ele>216</ele>
        <time>2020-12-06T11:31:49Z</time>
      </trkpt>
      <trkpt lat="46.82267" lon="-0.86511">
        <ele>216.2</ele>
        <time>2020-12-06T11:31:53Z</time>
      </trkpt>
      <trkpt lat="46.8228" lon="-0.8652">
        <ele>216.3</ele>
        <time>2020-12-06T11:31:58Z</time>
      </trkpt>
      <trkpt lat="46.82291" lon="-0.86527">
        <ele>216.3</ele>
        <time>2020-12-06T11:32:02Z</time>
      </trkpt>
      <trkpt lat="46.82294" lon="-0.86525">
        <ele>216.2</ele>
        <time>2020-12-06T11:32:03Z</time>
      </trkpt>
      <trkpt lat="46.82297" lon="-0.86523">
        <ele>216.2</ele>
        <time>2020-12-06T11:32:05Z</time>
      </trkpt>
      <trkpt lat="46.82299" lon="-0.86523">
        <ele>216.2</ele>
        <time>2020-12-06T11:32:06Z</time>
      </trkpt>
      <trkpt lat="46.8231" lon="-0.86528">
        <ele>215.8</ele>
        <time>2020-12-06T11:32:10Z</time>
      </trkpt>
      <trkpt lat="46.82314" lon="-0.86528">
        <ele>215.7</ele>
        <time>2020-12-06T11:32:14Z</time>
      </trkpt>
      <trkpt lat="46.82314" lon="-0.86528">
        <ele>215.7</ele>
        <time>2020-12-06T11:32:24Z</time>
      </trkpt>
      <trkpt lat="46.82314" lon="-0.86528">
        <ele>215.7</ele>
        <time>2020-12-06T11:32:25Z</time>
      </trkpt>
      <trkpt lat="46.82314" lon="-0.86528">
        <ele>215.7</ele>
        <time>2020-12-06T11:32:44Z</time>
      </trkpt>
      <trkpt lat="46.82314" lon="-0.86528">
        <ele>215.7</ele>
        <time>2020-12-06T11:32:45Z</time>
      </trkpt>
      <trkpt lat="46.82313" lon="-0.86533">
        <ele>215.6</ele>
        <time>2020-12-06T11:33:03Z</time>
      </trkpt>
      <trkpt lat="46.82307" lon="-0.86533">
        <ele>215.4</ele>
        <time>2020-12-06T11:33:05Z</time>
      </trkpt>
      <trkpt lat="46.82303" lon="-0.86532">
        <ele>215.3</ele>
        <time>2020-12-06T11:33:07Z</time>
      </trkpt>
      <trkpt lat="46.823" lon="-0.86525">
        <ele>215.1</ele>
        <time>2020-12-06T11:33:09Z</time>
      </trkpt>
      <trkpt lat="46.823" lon="-0.86522">
        <ele>215</ele>
        <time>2020-12-06T11:33:10Z</time>
      </trkpt>
      <trkpt lat="46.82302" lon="-0.86518">
        <ele>214.9</ele>
        <time>2020-12-06T11:33:12Z</time>
      </trkpt>
      <trkpt lat="46.82311" lon="-0.86507">
        <ele>214.5</ele>
        <time>2020-12-06T11:33:17Z</time>
      </trkpt>
      <trkpt lat="46.82312" lon="-0.86501">
        <ele>214.4</ele>
        <time>2020-12-06T11:33:21Z</time>
      </trkpt>
      <trkpt lat="46.82312" lon="-0.86499">
        <ele>214.3</ele>
        <time>2020-12-06T11:33:22Z</time>
      </trkpt>
      <trkpt lat="46.82311" lon="-0.86503">
        <ele>214.3</ele>
        <time>2020-12-06T11:33:25Z</time>
      </trkpt>
      <trkpt lat="46.82301" lon="-0.86509">
        <ele>213.8</ele>
        <time>2020-12-06T11:33:30Z</time>
      </trkpt>
      <trkpt lat="46.82297" lon="-0.86504">
        <ele>213.6</ele>
        <time>2020-12-06T11:33:32Z</time>
      </trkpt>
      <trkpt lat="46.82296" lon="-0.86499">
        <ele>213.5</ele>
        <time>2020-12-06T11:33:33Z</time>
      </trkpt>
      <trkpt lat="46.82291" lon="-0.86482">
        <ele>213.1</ele>
        <time>2020-12-06T11:33:38Z</time>
      </trkpt>
      <trkpt lat="46.82292" lon="-0.8648">
        <ele>213</ele>
        <time>2020-12-06T11:33:39Z</time>
      </trkpt>
      <trkpt lat="46.82293" lon="-0.86482">
        <ele>212.9</ele>
        <time>2020-12-06T11:33:41Z</time>
      </trkpt>
      <trkpt lat="46.82294" lon="-0.86484">
        <ele>212.9</ele>
        <time>2020-12-06T11:33:42Z</time>
      </trkpt>
      <trkpt lat="46.82296" lon="-0.86493">
        <ele>212.6</ele>
        <time>2020-12-06T11:33:44Z</time>
      </trkpt>
      <trkpt lat="46.82298" lon="-0.86516">
        <ele>212</ele>
        <time>2020-12-06T11:33:48Z</time>
      </trkpt>
      <trkpt lat="46.823" lon="-0.86522">
        <ele>211.9</ele>
        <time>2020-12-06T11:33:49Z</time>
      </trkpt>
      <trkpt lat="46.82303" lon="-0.86527">
        <ele>211.7</ele>
        <time>2020-12-06T11:33:50Z</time>
      </trkpt>
      <trkpt lat="46.82311" lon="-0.86531">
        <ele>211.4</ele>
        <time>2020-12-06T11:33:52Z</time>
      </trkpt>
      <trkpt lat="46.82338" lon="-0.86521">
        <ele>210.4</ele>
        <time>2020-12-06T11:33:57Z</time>
      </trkpt>
      <trkpt lat="46.82357" lon="-0.86515">
        <ele>209.6</ele>
        <time>2020-12-06T11:34:00Z</time>
      </trkpt>
      <trkpt lat="46.8237" lon="-0.86514">
        <ele>209.1</ele>
        <time>2020-12-06T11:34:02Z</time>
      </trkpt>
      <trkpt lat="46.82415" lon="-0.86521">
        <ele>207.5</ele>
        <time>2020-12-06T11:34:08Z</time>
      </trkpt>
      <trkpt lat="46.82463" lon="-0.86529">
        <ele>206</ele>
        <time>2020-12-06T11:34:14Z</time>
      </trkpt>
      <trkpt lat="46.82512" lon="-0.86524">
        <ele>203.6</ele>
        <time>2020-12-06T11:34:20Z</time>
      </trkpt>
      <trkpt lat="46.82547" lon="-0.86523">
        <ele>202.6</ele>
        <time>2020-12-06T11:34:25Z</time>
      </trkpt>
      <trkpt lat="46.82574" lon="-0.86531">
        <ele>202.7</ele>
        <time>2020-12-06T11:34:30Z</time>
      </trkpt>
      <trkpt lat="46.82578" lon="-0.86531">
        <ele>202.9</ele>
        <time>2020-12-06T11:34:31Z</time>
      </trkpt>
      <trkpt lat="46.82584" lon="-0.86522">
        <ele>203.2</ele>
        <time>2020-12-06T11:34:33Z</time>
      </trkpt>
      <trkpt lat="46.82587" lon="-0.86502">
        <ele>203.3</ele>
        <time>2020-12-06T11:34:37Z</time>
      </trkpt>
      <trkpt lat="46.8259" lon="-0.86472">
        <ele>203.3</ele>
        <time>2020-12-06T11:34:43Z</time>
      </trkpt>
      <trkpt lat="46.82595" lon="-0.86424">
        <ele>202.8</ele>
        <time>2020-12-06T11:34:52Z</time>
      </trkpt>
      <trkpt lat="46.82597" lon="-0.86418">
        <ele>202.7</ele>
        <time>2020-12-06T11:34:53Z</time>
      </trkpt>
      <trkpt lat="46.82605" lon="-0.86406">
        <ele>202.5</ele>
        <time>2020-12-06T11:34:56Z</time>
      </trkpt>
      <trkpt lat="46.82626" lon="-0.86383">
        <ele>202.1</ele>
        <time>2020-12-06T11:35:03Z</time>
      </trkpt>
      <trkpt lat="46.82628" lon="-0.86355">
        <ele>201.9</ele>
        <time>2020-12-06T11:35:07Z</time>
      </trkpt>
      <trkpt lat="46.8263" lon="-0.8632">
        <ele>200.3</ele>
        <time>2020-12-06T11:35:11Z</time>
      </trkpt>
      <trkpt lat="46.82628" lon="-0.86312">
        <ele>199.8</ele>
        <time>2020-12-06T11:35:12Z</time>
      </trkpt>
      <trkpt lat="46.82624" lon="-0.86305">
        <ele>199.3</ele>
        <time>2020-12-06T11:35:13Z</time>
      </trkpt>
      <trkpt lat="46.82614" lon="-0.86293">
        <ele>198.2</ele>
        <time>2020-12-06T11:35:15Z</time>
      </trkpt>
      <trkpt lat="46.8261" lon="-0.86277">
        <ele>197.5</ele>
        <time>2020-12-06T11:35:17Z</time>
      </trkpt>
      <trkpt lat="46.82615" lon="-0.86263">
        <ele>197.2</ele>
        <time>2020-12-06T11:35:19Z</time>
      </trkpt>
      <trkpt lat="46.82619" lon="-0.86257">
        <ele>197.1</ele>
        <time>2020-12-06T11:35:20Z</time>
      </trkpt>
      <trkpt lat="46.82635" lon="-0.86232">
        <ele>197.5</ele>
        <time>2020-12-06T11:35:25Z</time>
      </trkpt>
      <trkpt lat="46.82647" lon="-0.86235">
        <ele>197.9</ele>
        <time>2020-12-06T11:35:28Z</time>
      </trkpt>
      <trkpt lat="46.8265" lon="-0.86239">
        <ele>198.1</ele>
        <time>2020-12-06T11:35:29Z</time>
      </trkpt>
      <trkpt lat="46.82664" lon="-0.86256">
        <ele>199.3</ele>
        <time>2020-12-06T11:35:33Z</time>
      </trkpt>
      <trkpt lat="46.82688" lon="-0.86285">
        <ele>201.3</ele>
        <time>2020-12-06T11:35:40Z</time>
      </trkpt>
      <trkpt lat="46.82698" lon="-0.86304">
        <ele>202.3</ele>
        <time>2020-12-06T11:35:44Z</time>
      </trkpt>
      <trkpt lat="46.82702" lon="-0.86306">
        <ele>202.3</ele>
        <time>2020-12-06T11:35:45Z</time>
      </trkpt>
      <trkpt lat="46.82716" lon="-0.86309">
        <ele>202.3</ele>
        <time>2020-12-06T11:35:48Z</time>
      </trkpt>
      <trkpt lat="46.82729" lon="-0.86314">
        <ele>202.4</ele>
        <time>2020-12-06T11:35:51Z</time>
      </trkpt>
      <trkpt lat="46.82755" lon="-0.86318">
        <ele>202.5</ele>
        <time>2020-12-06T11:35:57Z</time>
      </trkpt>
      <trkpt lat="46.82758" lon="-0.86318">
        <ele>202.5</ele>
        <time>2020-12-06T11:35:58Z</time>
      </trkpt>
      <trkpt lat="46.8277" lon="-0.86327">
        <ele>202.8</ele>
        <time>2020-12-06T11:36:02Z</time>
      </trkpt>
      <trkpt lat="46.82773" lon="-0.8633">
        <ele>202.9</ele>
        <time>2020-12-06T11:36:03Z</time>
      </trkpt>
      <trkpt lat="46.82781" lon="-0.86332">
        <ele>203.2</ele>
        <time>2020-12-06T11:36:05Z</time>
      </trkpt>
      <trkpt lat="46.82785" lon="-0.8633">
        <ele>203.3</ele>
        <time>2020-12-06T11:36:06Z</time>
      </trkpt>
      <trkpt lat="46.82807" lon="-0.86315">
        <ele>203.9</ele>
        <time>2020-12-06T11:36:12Z</time>
      </trkpt>
      <trkpt lat="46.82828" lon="-0.863">
        <ele>204.4</ele>
        <time>2020-12-06T11:36:18Z</time>
      </trkpt>
      <trkpt lat="46.8285" lon="-0.86286">
        <ele>204.6</ele>
        <time>2020-12-06T11:36:24Z</time>
      </trkpt>
      <trkpt lat="46.82854" lon="-0.86284">
        <ele>204.6</ele>
        <time>2020-12-06T11:36:25Z</time>
      </trkpt>
      <trkpt lat="46.82871" lon="-0.86271">
        <ele>204.4</ele>
        <time>2020-12-06T11:36:30Z</time>
      </trkpt>
      <trkpt lat="46.82893" lon="-0.86258">
        <ele>204.1</ele>
        <time>2020-12-06T11:36:35Z</time>
      </trkpt>
      <trkpt lat="46.82907" lon="-0.86252">
        <ele>203.9</ele>
        <time>2020-12-06T11:36:38Z</time>
      </trkpt>
      <trkpt lat="46.82914" lon="-0.86245">
        <ele>203.8</ele>
        <time>2020-12-06T11:36:40Z</time>
      </trkpt>
      <trkpt lat="46.82919" lon="-0.86233">
        <ele>203.7</ele>
        <time>2020-12-06T11:36:43Z</time>
      </trkpt>
      <trkpt lat="46.82919" lon="-0.86208">
        <ele>203.7</ele>
        <time>2020-12-06T11:36:48Z</time>
      </trkpt>
      <trkpt lat="46.82917" lon="-0.86202">
        <ele>203.8</ele>
        <time>2020-12-06T11:36:49Z</time>
      </trkpt>
      <trkpt lat="46.82911" lon="-0.86185">
        <ele>204.2</ele>
        <time>2020-12-06T11:36:52Z</time>
      </trkpt>
      <trkpt lat="46.82907" lon="-0.86161">
        <ele>205</ele>
        <time>2020-12-06T11:36:56Z</time>
      </trkpt>
      <trkpt lat="46.82907" lon="-0.8615">
        <ele>205.5</ele>
        <time>2020-12-06T11:36:58Z</time>
      </trkpt>
      <trkpt lat="46.82907" lon="-0.86144">
        <ele>205.7</ele>
        <time>2020-12-06T11:36:59Z</time>
      </trkpt>
      <trkpt lat="46.82909" lon="-0.86133">
        <ele>206.3</ele>
        <time>2020-12-06T11:37:01Z</time>
      </trkpt>
      <trkpt lat="46.82913" lon="-0.86102">
        <ele>207.7</ele>
        <time>2020-12-06T11:37:07Z</time>
      </trkpt>
      <trkpt lat="46.8291" lon="-0.86087">
        <ele>207.9</ele>
        <time>2020-12-06T11:37:11Z</time>
      </trkpt>
      <trkpt lat="46.82896" lon="-0.86079">
        <ele>207.5</ele>
        <time>2020-12-06T11:37:16Z</time>
      </trkpt>
      <trkpt lat="46.82873" lon="-0.86066">
        <ele>206.5</ele>
        <time>2020-12-06T11:37:22Z</time>
      </trkpt>
      <trkpt lat="46.82848" lon="-0.86054">
        <ele>205.3</ele>
        <time>2020-12-06T11:37:27Z</time>
      </trkpt>
      <trkpt lat="46.82816" lon="-0.86035">
        <ele>204.1</ele>
        <time>2020-12-06T11:37:33Z</time>
      </trkpt>
      <trkpt lat="46.82764" lon="-0.86007">
        <ele>202.5</ele>
        <time>2020-12-06T11:37:42Z</time>
      </trkpt>
      <trkpt lat="46.82709" lon="-0.85979">
        <ele>200.3</ele>
        <time>2020-12-06T11:37:51Z</time>
      </trkpt>
      <trkpt lat="46.82687" lon="-0.85974">
        <ele>199.1</ele>
        <time>2020-12-06T11:37:54Z</time>
      </trkpt>
      <trkpt lat="46.82672" lon="-0.85974">
        <ele>198</ele>
        <time>2020-12-06T11:37:56Z</time>
      </trkpt>
      <trkpt lat="46.82627" lon="-0.85979">
        <ele>194.4</ele>
        <time>2020-12-06T11:38:02Z</time>
      </trkpt>
      <trkpt lat="46.82616" lon="-0.85981">
        <ele>193.7</ele>
        <time>2020-12-06T11:38:05Z</time>
      </trkpt>
      <trkpt lat="46.82615" lon="-0.85969">
        <ele>193.6</ele>
        <time>2020-12-06T11:38:08Z</time>
      </trkpt>
      <trkpt lat="46.82616" lon="-0.85967">
        <ele>193.5</ele>
        <time>2020-12-06T11:38:09Z</time>
      </trkpt>
      <trkpt lat="46.82618" lon="-0.85965">
        <ele>193.5</ele>
        <time>2020-12-06T11:38:11Z</time>
      </trkpt>
      <trkpt lat="46.82619" lon="-0.85966">
        <ele>193.4</ele>
        <time>2020-12-06T11:38:12Z</time>
      </trkpt>
      <trkpt lat="46.8262" lon="-0.85967">
        <ele>193.4</ele>
        <time>2020-12-06T11:38:13Z</time>
      </trkpt>
      <trkpt lat="46.82618" lon="-0.8597">
        <ele>193.4</ele>
        <time>2020-12-06T11:38:15Z</time>
      </trkpt>
      <trkpt lat="46.82615" lon="-0.85973">
        <ele>193.3</ele>
        <time>2020-12-06T11:38:17Z</time>
      </trkpt>
      <trkpt lat="46.82618" lon="-0.85978">
        <ele>193.1</ele>
        <time>2020-12-06T11:38:19Z</time>
      </trkpt>
      <trkpt lat="46.82627" lon="-0.85975">
        <ele>192.8</ele>
        <time>2020-12-06T11:38:22Z</time>
      </trkpt>
      <trkpt lat="46.82629" lon="-0.85964">
        <ele>192.6</ele>
        <time>2020-12-06T11:38:25Z</time>
      </trkpt>
      <trkpt lat="46.82627" lon="-0.85943">
        <ele>192</ele>
        <time>2020-12-06T11:38:29Z</time>
      </trkpt>
      <trkpt lat="46.82627" lon="-0.85925">
        <ele>191.5</ele>
        <time>2020-12-06T11:38:32Z</time>
      </trkpt>
      <trkpt lat="46.82628" lon="-0.85912">
        <ele>191.2</ele>
        <time>2020-12-06T11:38:34Z</time>
      </trkpt>
      <trkpt lat="46.82629" lon="-0.85906">
        <ele>191.1</ele>
        <time>2020-12-06T11:38:35Z</time>
      </trkpt>
      <trkpt lat="46.82635" lon="-0.85877">
        <ele>190.6</ele>
        <time>2020-12-06T11:38:39Z</time>
      </trkpt>
      <trkpt lat="46.82644" lon="-0.85845">
        <ele>190.1</ele>
        <time>2020-12-06T11:38:43Z</time>
      </trkpt>
      <trkpt lat="46.82645" lon="-0.85838">
        <ele>190</ele>
        <time>2020-12-06T11:38:44Z</time>
      </trkpt>
      <trkpt lat="46.82649" lon="-0.85823">
        <ele>189.8</ele>
        <time>2020-12-06T11:38:46Z</time>
      </trkpt>
      <trkpt lat="46.82656" lon="-0.85813">
        <ele>189.6</ele>
        <time>2020-12-06T11:38:48Z</time>
      </trkpt>
      <trkpt lat="46.82671" lon="-0.85802">
        <ele>189.4</ele>
        <time>2020-12-06T11:38:51Z</time>
      </trkpt>
      <trkpt lat="46.82679" lon="-0.85791">
        <ele>189.2</ele>
        <time>2020-12-06T11:38:53Z</time>
      </trkpt>
      <trkpt lat="46.82692" lon="-0.85777">
        <ele>189</ele>
        <time>2020-12-06T11:38:56Z</time>
      </trkpt>
      <trkpt lat="46.82697" lon="-0.85766">
        <ele>188.9</ele>
        <time>2020-12-06T11:38:58Z</time>
      </trkpt>
      <trkpt lat="46.82699" lon="-0.85759">
        <ele>188.9</ele>
        <time>2020-12-06T11:38:59Z</time>
      </trkpt>
      <trkpt lat="46.82699" lon="-0.85751">
        <ele>188.9</ele>
        <time>2020-12-06T11:39:00Z</time>
      </trkpt>
      <trkpt lat="46.82699" lon="-0.85737">
        <ele>189</ele>
        <time>2020-12-06T11:39:02Z</time>
      </trkpt>
      <trkpt lat="46.82702" lon="-0.8572">
        <ele>189</ele>
        <time>2020-12-06T11:39:05Z</time>
      </trkpt>
      <trkpt lat="46.82708" lon="-0.85698">
        <ele>189</ele>
        <time>2020-12-06T11:39:09Z</time>
      </trkpt>
      <trkpt lat="46.82711" lon="-0.8568">
        <ele>189.1</ele>
        <time>2020-12-06T11:39:12Z</time>
      </trkpt>
      <trkpt lat="46.82714" lon="-0.85666">
        <ele>189.1</ele>
        <time>2020-12-06T11:39:14Z</time>
      </trkpt>
      <trkpt lat="46.82717" lon="-0.85659">
        <ele>189.2</ele>
        <time>2020-12-06T11:39:15Z</time>
      </trkpt>
      <trkpt lat="46.82723" lon="-0.85639">
        <ele>189.3</ele>
        <time>2020-12-06T11:39:18Z</time>
      </trkpt>
      <trkpt lat="46.82726" lon="-0.85626">
        <ele>189.4</ele>
        <time>2020-12-06T11:39:20Z</time>
      </trkpt>
      <trkpt lat="46.82729" lon="-0.85616">
        <ele>189.4</ele>
        <time>2020-12-06T11:39:22Z</time>
      </trkpt>
      <trkpt lat="46.82725" lon="-0.85609">
        <ele>189.3</ele>
        <time>2020-12-06T11:39:25Z</time>
      </trkpt>
      <trkpt lat="46.82718" lon="-0.85604">
        <ele>189.2</ele>
        <time>2020-12-06T11:39:27Z</time>
      </trkpt>
      <trkpt lat="46.82706" lon="-0.85596">
        <ele>188.7</ele>
        <time>2020-12-06T11:39:30Z</time>
      </trkpt>
      <trkpt lat="46.82677" lon="-0.85585">
        <ele>187.9</ele>
        <time>2020-12-06T11:39:36Z</time>
      </trkpt>
      <trkpt lat="46.82673" lon="-0.85581">
        <ele>187.8</ele>
        <time>2020-12-06T11:39:37Z</time>
      </trkpt>
      <trkpt lat="46.82652" lon="-0.85568">
        <ele>187.3</ele>
        <time>2020-12-06T11:39:42Z</time>
      </trkpt>
      <trkpt lat="46.82645" lon="-0.8556">
        <ele>187.4</ele>
        <time>2020-12-06T11:39:44Z</time>
      </trkpt>
      <trkpt lat="46.82642" lon="-0.85553">
        <ele>187.6</ele>
        <time>2020-12-06T11:39:45Z</time>
      </trkpt>
      <trkpt lat="46.8264" lon="-0.85544">
        <ele>187.9</ele>
        <time>2020-12-06T11:39:46Z</time>
      </trkpt>
      <trkpt lat="46.82641" lon="-0.85527">
        <ele>188.4</ele>
        <time>2020-12-06T11:39:48Z</time>
      </trkpt>
      <trkpt lat="46.82649" lon="-0.85482">
        <ele>188.8</ele>
        <time>2020-12-06T11:39:54Z</time>
      </trkpt>
      <trkpt lat="46.82659" lon="-0.85433">
        <ele>188.1</ele>
        <time>2020-12-06T11:40:00Z</time>
      </trkpt>
      <trkpt lat="46.82665" lon="-0.85387">
        <ele>187.6</ele>
        <time>2020-12-06T11:40:05Z</time>
      </trkpt>
      <trkpt lat="46.82663" lon="-0.85359">
        <ele>187.5</ele>
        <time>2020-12-06T11:40:08Z</time>
      </trkpt>
      <trkpt lat="46.82662" lon="-0.85349">
        <ele>187.5</ele>
        <time>2020-12-06T11:40:09Z</time>
      </trkpt>
      <trkpt lat="46.82647" lon="-0.85285">
        <ele>186.9</ele>
        <time>2020-12-06T11:40:16Z</time>
      </trkpt>
      <trkpt lat="46.8263" lon="-0.85234">
        <ele>183.6</ele>
        <time>2020-12-06T11:40:21Z</time>
      </trkpt>
      <trkpt lat="46.82614" lon="-0.85197">
        <ele>179.7</ele>
        <time>2020-12-06T11:40:24Z</time>
      </trkpt>
      <trkpt lat="46.82606" lon="-0.85185">
        <ele>178.6</ele>
        <time>2020-12-06T11:40:25Z</time>
      </trkpt>
      <trkpt lat="46.82598" lon="-0.85173">
        <ele>177.9</ele>
        <time>2020-12-06T11:40:26Z</time>
      </trkpt>
      <trkpt lat="46.82582" lon="-0.85151">
        <ele>177.7</ele>
        <time>2020-12-06T11:40:28Z</time>
      </trkpt>
      <trkpt lat="46.82548" lon="-0.85107">
        <ele>178.4</ele>
        <time>2020-12-06T11:40:33Z</time>
      </trkpt>
      <trkpt lat="46.82517" lon="-0.85061">
        <ele>180.7</ele>
        <time>2020-12-06T11:40:39Z</time>
      </trkpt>
      <trkpt lat="46.82499" lon="-0.85032">
        <ele>182.4</ele>
        <time>2020-12-06T11:40:44Z</time>
      </trkpt>
      <trkpt lat="46.82485" lon="-0.85011">
        <ele>183.9</ele>
        <time>2020-12-06T11:40:49Z</time>
      </trkpt>
      <trkpt lat="46.82466" lon="-0.84983">
        <ele>185.9</ele>
        <time>2020-12-06T11:40:56Z</time>
      </trkpt>
      <trkpt lat="46.82443" lon="-0.8495">
        <ele>188.4</ele>
        <time>2020-12-06T11:41:04Z</time>
      </trkpt>
      <trkpt lat="46.8244" lon="-0.84946">
        <ele>188.7</ele>
        <time>2020-12-06T11:41:05Z</time>
      </trkpt>
      <trkpt lat="46.82428" lon="-0.84924">
        <ele>190.2</ele>
        <time>2020-12-06T11:41:10Z</time>
      </trkpt>
      <trkpt lat="46.82417" lon="-0.84904">
        <ele>191.3</ele>
        <time>2020-12-06T11:41:15Z</time>
      </trkpt>
      <trkpt lat="46.82408" lon="-0.84887">
        <ele>191.9</ele>
        <time>2020-12-06T11:41:19Z</time>
      </trkpt>
      <trkpt lat="46.8239" lon="-0.84859">
        <ele>192.6</ele>
        <time>2020-12-06T11:41:25Z</time>
      </trkpt>
      <trkpt lat="46.82374" lon="-0.84833">
        <ele>192.8</ele>
        <time>2020-12-06T11:41:31Z</time>
      </trkpt>
      <trkpt lat="46.82351" lon="-0.84805">
        <ele>192.3</ele>
        <time>2020-12-06T11:41:38Z</time>
      </trkpt>
      <trkpt lat="46.82337" lon="-0.84789">
        <ele>191.9</ele>
        <time>2020-12-06T11:41:42Z</time>
      </trkpt>
      <trkpt lat="46.82333" lon="-0.84784">
        <ele>191.8</ele>
        <time>2020-12-06T11:41:43Z</time>
      </trkpt>
      <trkpt lat="46.82318" lon="-0.84768">
        <ele>191.2</ele>
        <time>2020-12-06T11:41:47Z</time>
      </trkpt>
      <trkpt lat="46.82314" lon="-0.84764">
        <ele>191.1</ele>
        <time>2020-12-06T11:41:48Z</time>
      </trkpt>
      <trkpt lat="46.82285" lon="-0.84732">
        <ele>190.1</ele>
        <time>2020-12-06T11:41:54Z</time>
      </trkpt>
      <trkpt lat="46.82239" lon="-0.84681">
        <ele>188.9</ele>
        <time>2020-12-06T11:42:03Z</time>
      </trkpt>
      <trkpt lat="46.82234" lon="-0.84675">
        <ele>188.8</ele>
        <time>2020-12-06T11:42:04Z</time>
      </trkpt>
      <trkpt lat="46.82205" lon="-0.84626">
        <ele>188.6</ele>
        <time>2020-12-06T11:42:11Z</time>
      </trkpt>
      <trkpt lat="46.82183" lon="-0.84577">
        <ele>188.7</ele>
        <time>2020-12-06T11:42:18Z</time>
      </trkpt>
      <trkpt lat="46.82181" lon="-0.8457">
        <ele>188.4</ele>
        <time>2020-12-06T11:42:19Z</time>
      </trkpt>
      <trkpt lat="46.82184" lon="-0.84558">
        <ele>187.6</ele>
        <time>2020-12-06T11:42:21Z</time>
      </trkpt>
      <trkpt lat="46.8219" lon="-0.84551">
        <ele>186.8</ele>
        <time>2020-12-06T11:42:23Z</time>
      </trkpt>
      <trkpt lat="46.82198" lon="-0.84545">
        <ele>186</ele>
        <time>2020-12-06T11:42:25Z</time>
      </trkpt>
      <trkpt lat="46.82226" lon="-0.84525">
        <ele>183.7</ele>
        <time>2020-12-06T11:42:30Z</time>
      </trkpt>
      <trkpt lat="46.82263" lon="-0.84498">
        <ele>181.5</ele>
        <time>2020-12-06T11:42:36Z</time>
      </trkpt>
      <trkpt lat="46.82301" lon="-0.84468">
        <ele>179.9</ele>
        <time>2020-12-06T11:42:42Z</time>
      </trkpt>
      <trkpt lat="46.82332" lon="-0.84442">
        <ele>179</ele>
        <time>2020-12-06T11:42:47Z</time>
      </trkpt>
      <trkpt lat="46.8237" lon="-0.84412">
        <ele>177.7</ele>
        <time>2020-12-06T11:42:53Z</time>
      </trkpt>
      <trkpt lat="46.82407" lon="-0.84382">
        <ele>176.4</ele>
        <time>2020-12-06T11:42:59Z</time>
      </trkpt>
      <trkpt lat="46.82439" lon="-0.84358">
        <ele>175.2</ele>
        <time>2020-12-06T11:43:04Z</time>
      </trkpt>
      <trkpt lat="46.82473" lon="-0.84333">
        <ele>173.7</ele>
        <time>2020-12-06T11:43:09Z</time>
      </trkpt>
      <trkpt lat="46.82516" lon="-0.843">
        <ele>171.6</ele>
        <time>2020-12-06T11:43:16Z</time>
      </trkpt>
      <trkpt lat="46.82546" lon="-0.84275">
        <ele>170.2</ele>
        <time>2020-12-06T11:43:21Z</time>
      </trkpt>
      <trkpt lat="46.82579" lon="-0.8425">
        <ele>169.6</ele>
        <time>2020-12-06T11:43:26Z</time>
      </trkpt>
      <trkpt lat="46.82598" lon="-0.84233">
        <ele>170.2</ele>
        <time>2020-12-06T11:43:29Z</time>
      </trkpt>
      <trkpt lat="46.82606" lon="-0.8422">
        <ele>170.8</ele>
        <time>2020-12-06T11:43:31Z</time>
      </trkpt>
      <trkpt lat="46.82612" lon="-0.84208">
        <ele>171.6</ele>
        <time>2020-12-06T11:43:33Z</time>
      </trkpt>
      <trkpt lat="46.82619" lon="-0.84197">
        <ele>172.4</ele>
        <time>2020-12-06T11:43:36Z</time>
      </trkpt>
      <trkpt lat="46.8262" lon="-0.84193">
        <ele>172.6</ele>
        <time>2020-12-06T11:43:37Z</time>
      </trkpt>
      <trkpt lat="46.82626" lon="-0.84181">
        <ele>173.4</ele>
        <time>2020-12-06T11:43:40Z</time>
      </trkpt>
      <trkpt lat="46.82637" lon="-0.84162">
        <ele>174.6</ele>
        <time>2020-12-06T11:43:46Z</time>
      </trkpt>
      <trkpt lat="46.82651" lon="-0.84141">
        <ele>176.1</ele>
        <time>2020-12-06T11:43:53Z</time>
      </trkpt>
      <trkpt lat="46.82663" lon="-0.8412">
        <ele>177.4</ele>
        <time>2020-12-06T11:43:59Z</time>
      </trkpt>
      <trkpt lat="46.82675" lon="-0.84098">
        <ele>178.7</ele>
        <time>2020-12-06T11:44:06Z</time>
      </trkpt>
      <trkpt lat="46.82677" lon="-0.8409">
        <ele>179.1</ele>
        <time>2020-12-06T11:44:08Z</time>
      </trkpt>
      <trkpt lat="46.82677" lon="-0.84083">
        <ele>180.2</ele>
        <time>2020-12-06T11:44:10Z</time>
      </trkpt>
      <trkpt lat="46.82679" lon="-0.84063">
        <ele>181.4</ele>
        <time>2020-12-06T11:44:16Z</time>
      </trkpt>
      <trkpt lat="46.82675" lon="-0.84037">
        <ele>183</ele>
        <time>2020-12-06T11:44:24Z</time>
      </trkpt>
      <trkpt lat="46.82668" lon="-0.84004">
        <ele>184.9</ele>
        <time>2020-12-06T11:44:34Z</time>
      </trkpt>
      <trkpt lat="46.82662" lon="-0.83981">
        <ele>186.2</ele>
        <time>2020-12-06T11:44:41Z</time>
      </trkpt>
      <trkpt lat="46.82655" lon="-0.83954">
        <ele>187.7</ele>
        <time>2020-12-06T11:44:49Z</time>
      </trkpt>
      <trkpt lat="46.82648" lon="-0.83928">
        <ele>188.7</ele>
        <time>2020-12-06T11:44:56Z</time>
      </trkpt>
      <trkpt lat="46.82639" lon="-0.83899">
        <ele>189.2</ele>
        <time>2020-12-06T11:45:04Z</time>
      </trkpt>
      <trkpt lat="46.82629" lon="-0.83868">
        <ele>189.3</ele>
        <time>2020-12-06T11:45:11Z</time>
      </trkpt>
      <trkpt lat="46.82619" lon="-0.8384">
        <ele>189</ele>
        <time>2020-12-06T11:45:17Z</time>
      </trkpt>
      <trkpt lat="46.82614" lon="-0.83814">
        <ele>188.9</ele>
        <time>2020-12-06T11:45:21Z</time>
      </trkpt>
      <trkpt lat="46.82612" lon="-0.83807">
        <ele>188.9</ele>
        <time>2020-12-06T11:45:22Z</time>
      </trkpt>
      <trkpt lat="46.82605" lon="-0.83786">
        <ele>189</ele>
        <time>2020-12-06T11:45:26Z</time>
      </trkpt>
      <trkpt lat="46.8259" lon="-0.8376">
        <ele>189.5</ele>
        <time>2020-12-06T11:45:32Z</time>
      </trkpt>
      <trkpt lat="46.8257" lon="-0.83736">
        <ele>190.6</ele>
        <time>2020-12-06T11:45:39Z</time>
      </trkpt>
      <trkpt lat="46.8255" lon="-0.83715">
        <ele>192</ele>
        <time>2020-12-06T11:45:46Z</time>
      </trkpt>
      <trkpt lat="46.82538" lon="-0.83702">
        <ele>192.9</ele>
        <time>2020-12-06T11:45:51Z</time>
      </trkpt>
      <trkpt lat="46.82521" lon="-0.83682">
        <ele>194.3</ele>
        <time>2020-12-06T11:45:57Z</time>
      </trkpt>
      <trkpt lat="46.82504" lon="-0.8366">
        <ele>195.5</ele>
        <time>2020-12-06T11:46:05Z</time>
      </trkpt>
      <trkpt lat="46.82498" lon="-0.83652">
        <ele>195.9</ele>
        <time>2020-12-06T11:46:10Z</time>
      </trkpt>
      <trkpt lat="46.82496" lon="-0.8365">
        <ele>196</ele>
        <time>2020-12-06T11:46:12Z</time>
      </trkpt>
      <trkpt lat="46.82497" lon="-0.83647">
        <ele>196</ele>
        <time>2020-12-06T11:46:14Z</time>
      </trkpt>
      <trkpt lat="46.82499" lon="-0.83646">
        <ele>196.1</ele>
        <time>2020-12-06T11:46:16Z</time>
      </trkpt>
      <trkpt lat="46.82503" lon="-0.83651">
        <ele>196.2</ele>
        <time>2020-12-06T11:46:18Z</time>
      </trkpt>
      <trkpt lat="46.82499" lon="-0.83662">
        <ele>196.3</ele>
        <time>2020-12-06T11:46:22Z</time>
      </trkpt>
      <trkpt lat="46.82499" lon="-0.83664">
        <ele>196.3</ele>
        <time>2020-12-06T11:46:23Z</time>
      </trkpt>
      <trkpt lat="46.82499" lon="-0.83671">
        <ele>196.4</ele>
        <time>2020-12-06T11:46:26Z</time>
      </trkpt>
      <trkpt lat="46.82497" lon="-0.8367">
        <ele>196.4</ele>
        <time>2020-12-06T11:46:27Z</time>
      </trkpt>
      <trkpt lat="46.82497" lon="-0.83662">
        <ele>196.4</ele>
        <time>2020-12-06T11:46:30Z</time>
      </trkpt>
      <trkpt lat="46.82497" lon="-0.83636">
        <ele>196.5</ele>
        <time>2020-12-06T11:46:37Z</time>
      </trkpt>
      <trkpt lat="46.82493" lon="-0.8362">
        <ele>196.6</ele>
        <time>2020-12-06T11:46:41Z</time>
      </trkpt>
      <trkpt lat="46.82486" lon="-0.83592">
        <ele>196.7</ele>
        <time>2020-12-06T11:46:47Z</time>
      </trkpt>
      <trkpt lat="46.82477" lon="-0.83545">
        <ele>197</ele>
        <time>2020-12-06T11:46:55Z</time>
      </trkpt>
      <trkpt lat="46.82467" lon="-0.83491">
        <ele>197.5</ele>
        <time>2020-12-06T11:47:03Z</time>
      </trkpt>
      <trkpt lat="46.8246" lon="-0.83428">
        <ele>197.5</ele>
        <time>2020-12-06T11:47:12Z</time>
      </trkpt>
      <trkpt lat="46.82456" lon="-0.83383">
        <ele>197.5</ele>
        <time>2020-12-06T11:47:18Z</time>
      </trkpt>
      <trkpt lat="46.82454" lon="-0.83328">
        <ele>197.7</ele>
        <time>2020-12-06T11:47:25Z</time>
      </trkpt>
      <trkpt lat="46.82455" lon="-0.8332">
        <ele>197.8</ele>
        <time>2020-12-06T11:47:26Z</time>
      </trkpt>
      <trkpt lat="46.82462" lon="-0.83291">
        <ele>197.9</ele>
        <time>2020-12-06T11:47:30Z</time>
      </trkpt>
      <trkpt lat="46.8248" lon="-0.83238">
        <ele>197.8</ele>
        <time>2020-12-06T11:47:38Z</time>
      </trkpt>
      <trkpt lat="46.82492" lon="-0.832">
        <ele>197</ele>
        <time>2020-12-06T11:47:44Z</time>
      </trkpt>
      <trkpt lat="46.82494" lon="-0.83195">
        <ele>196.9</ele>
        <time>2020-12-06T11:47:45Z</time>
      </trkpt>
      <trkpt lat="46.825" lon="-0.83175">
        <ele>196.3</ele>
        <time>2020-12-06T11:47:50Z</time>
      </trkpt>
      <trkpt lat="46.82506" lon="-0.83162">
        <ele>195.8</ele>
        <time>2020-12-06T11:47:55Z</time>
      </trkpt>
      <trkpt lat="46.82508" lon="-0.83154">
        <ele>195.5</ele>
        <time>2020-12-06T11:47:58Z</time>
      </trkpt>
      <trkpt lat="46.82509" lon="-0.83151">
        <ele>195.4</ele>
        <time>2020-12-06T11:48:00Z</time>
      </trkpt>
      <trkpt lat="46.8251" lon="-0.83149">
        <ele>195.3</ele>
        <time>2020-12-06T11:48:01Z</time>
      </trkpt>
      <trkpt lat="46.82514" lon="-0.83152">
        <ele>195.1</ele>
        <time>2020-12-06T11:48:04Z</time>
      </trkpt>
      <trkpt lat="46.82514" lon="-0.83157">
        <ele>195</ele>
        <time>2020-12-06T11:48:06Z</time>
      </trkpt>
      <trkpt lat="46.82513" lon="-0.83157">
        <ele>194.9</ele>
        <time>2020-12-06T11:48:07Z</time>
      </trkpt>
      <trkpt lat="46.8251" lon="-0.83156">
        <ele>194.8</ele>
        <time>2020-12-06T11:48:10Z</time>
      </trkpt>
      <trkpt lat="46.82509" lon="-0.8315">
        <ele>194.6</ele>
        <time>2020-12-06T11:48:12Z</time>
      </trkpt>
      <trkpt lat="46.82517" lon="-0.83125">
        <ele>193.6</ele>
        <time>2020-12-06T11:48:18Z</time>
      </trkpt>
      <trkpt lat="46.82531" lon="-0.83077">
        <ele>191.9</ele>
        <time>2020-12-06T11:48:25Z</time>
      </trkpt>
      <trkpt lat="46.82537" lon="-0.83038">
        <ele>190.9</ele>
        <time>2020-12-06T11:48:30Z</time>
      </trkpt>
      <trkpt lat="46.82537" lon="-0.82982">
        <ele>190</ele>
        <time>2020-12-06T11:48:37Z</time>
      </trkpt>
      <trkpt lat="46.82528" lon="-0.82944">
        <ele>189.5</ele>
        <time>2020-12-06T11:48:42Z</time>
      </trkpt>
      <trkpt lat="46.82526" lon="-0.82937">
        <ele>189.4</ele>
        <time>2020-12-06T11:48:43Z</time>
      </trkpt>
      <trkpt lat="46.82523" lon="-0.8293">
        <ele>189.3</ele>
        <time>2020-12-06T11:48:44Z</time>
      </trkpt>
      <trkpt lat="46.82513" lon="-0.82902">
        <ele>188.9</ele>
        <time>2020-12-06T11:48:48Z</time>
      </trkpt>
      <trkpt lat="46.82505" lon="-0.82881">
        <ele>188.6</ele>
        <time>2020-12-06T11:48:51Z</time>
      </trkpt>
      <trkpt lat="46.82498" lon="-0.8286">
        <ele>188.2</ele>
        <time>2020-12-06T11:48:54Z</time>
      </trkpt>
      <trkpt lat="46.82482" lon="-0.82799">
        <ele>187</ele>
        <time>2020-12-06T11:49:02Z</time>
      </trkpt>
      <trkpt lat="46.82473" lon="-0.82731">
        <ele>185.2</ele>
        <time>2020-12-06T11:49:10Z</time>
      </trkpt>
      <trkpt lat="46.82468" lon="-0.82664">
        <ele>183.7</ele>
        <time>2020-12-06T11:49:17Z</time>
      </trkpt>
      <trkpt lat="46.82472" lon="-0.826">
        <ele>182.3</ele>
        <time>2020-12-06T11:49:23Z</time>
      </trkpt>
      <trkpt lat="46.82482" lon="-0.82535">
        <ele>181.5</ele>
        <time>2020-12-06T11:49:29Z</time>
      </trkpt>
      <trkpt lat="46.82497" lon="-0.82447">
        <ele>180.7</ele>
        <time>2020-12-06T11:49:37Z</time>
      </trkpt>
      <trkpt lat="46.82514" lon="-0.82381">
        <ele>180.5</ele>
        <time>2020-12-06T11:49:43Z</time>
      </trkpt>
      <trkpt lat="46.82539" lon="-0.82323">
        <ele>180</ele>
        <time>2020-12-06T11:49:49Z</time>
      </trkpt>
      <trkpt lat="46.82572" lon="-0.82274">
        <ele>178.6</ele>
        <time>2020-12-06T11:49:55Z</time>
      </trkpt>
      <trkpt lat="46.82609" lon="-0.82228">
        <ele>176.9</ele>
        <time>2020-12-06T11:50:01Z</time>
      </trkpt>
      <trkpt lat="46.82655" lon="-0.82173">
        <ele>174.5</ele>
        <time>2020-12-06T11:50:08Z</time>
      </trkpt>
      <trkpt lat="46.82668" lon="-0.82157">
        <ele>173.9</ele>
        <time>2020-12-06T11:50:10Z</time>
      </trkpt>
      <trkpt lat="46.82694" lon="-0.82125">
        <ele>173</ele>
        <time>2020-12-06T11:50:14Z</time>
      </trkpt>
      <trkpt lat="46.82699" lon="-0.82115">
        <ele>172.8</ele>
        <time>2020-12-06T11:50:15Z</time>
      </trkpt>
      <trkpt lat="46.82703" lon="-0.82104">
        <ele>172.6</ele>
        <time>2020-12-06T11:50:16Z</time>
      </trkpt>
      <trkpt lat="46.82705" lon="-0.8208">
        <ele>172.4</ele>
        <time>2020-12-06T11:50:18Z</time>
      </trkpt>
      <trkpt lat="46.82698" lon="-0.82056">
        <ele>172.1</ele>
        <time>2020-12-06T11:50:20Z</time>
      </trkpt>
      <trkpt lat="46.82692" lon="-0.82046">
        <ele>172</ele>
        <time>2020-12-06T11:50:21Z</time>
      </trkpt>
      <trkpt lat="46.82651" lon="-0.81978">
        <ele>171.9</ele>
        <time>2020-12-06T11:50:28Z</time>
      </trkpt>
      <trkpt lat="46.82618" lon="-0.81924">
        <ele>173.7</ele>
        <time>2020-12-06T11:50:34Z</time>
      </trkpt>
      <trkpt lat="46.82595" lon="-0.81889">
        <ele>176.1</ele>
        <time>2020-12-06T11:50:39Z</time>
      </trkpt>
      <trkpt lat="46.82565" lon="-0.81852">
        <ele>179</ele>
        <time>2020-12-06T11:50:46Z</time>
      </trkpt>
      <trkpt lat="46.82551" lon="-0.81836">
        <ele>180</ele>
        <time>2020-12-06T11:50:51Z</time>
      </trkpt>
      <trkpt lat="46.82542" lon="-0.81826">
        <ele>180.5</ele>
        <time>2020-12-06T11:50:55Z</time>
      </trkpt>
      <trkpt lat="46.82522" lon="-0.81803">
        <ele>181.3</ele>
        <time>2020-12-06T11:51:02Z</time>
      </trkpt>
      <trkpt lat="46.8251" lon="-0.81789">
        <ele>181.6</ele>
        <time>2020-12-06T11:51:07Z</time>
      </trkpt>
      <trkpt lat="46.82491" lon="-0.8177">
        <ele>181.8</ele>
        <time>2020-12-06T11:51:14Z</time>
      </trkpt>
      <trkpt lat="46.82484" lon="-0.81753">
        <ele>181.9</ele>
        <time>2020-12-06T11:51:18Z</time>
      </trkpt>
      <trkpt lat="46.82481" lon="-0.81725">
        <ele>182.1</ele>
        <time>2020-12-06T11:51:23Z</time>
      </trkpt>
      <trkpt lat="46.82481" lon="-0.81687">
        <ele>183</ele>
        <time>2020-12-06T11:51:30Z</time>
      </trkpt>
      <trkpt lat="46.82484" lon="-0.81678">
        <ele>183.2</ele>
        <time>2020-12-06T11:51:33Z</time>
      </trkpt>
      <trkpt lat="46.82483" lon="-0.81677">
        <ele>183.2</ele>
        <time>2020-12-06T11:51:34Z</time>
      </trkpt>
      <trkpt lat="46.82484" lon="-0.8166">
        <ele>183.6</ele>
        <time>2020-12-06T11:51:39Z</time>
      </trkpt>
      <trkpt lat="46.8249" lon="-0.81634">
        <ele>184.1</ele>
        <time>2020-12-06T11:51:45Z</time>
      </trkpt>
      <trkpt lat="46.82507" lon="-0.8159">
        <ele>184.3</ele>
        <time>2020-12-06T11:51:54Z</time>
      </trkpt>
      <trkpt lat="46.82516" lon="-0.81562">
        <ele>184.2</ele>
        <time>2020-12-06T11:52:00Z</time>
      </trkpt>
      <trkpt lat="46.82523" lon="-0.81535">
        <ele>184.1</ele>
        <time>2020-12-06T11:52:05Z</time>
      </trkpt>
      <trkpt lat="46.82529" lon="-0.81505">
        <ele>184.2</ele>
        <time>2020-12-06T11:52:10Z</time>
      </trkpt>
      <trkpt lat="46.8253" lon="-0.81493">
        <ele>184.3</ele>
        <time>2020-12-06T11:52:12Z</time>
      </trkpt>
      <trkpt lat="46.82536" lon="-0.8144">
        <ele>185.3</ele>
        <time>2020-12-06T11:52:20Z</time>
      </trkpt>
      <trkpt lat="46.82542" lon="-0.81386">
        <ele>186.6</ele>
        <time>2020-12-06T11:52:28Z</time>
      </trkpt>
      <trkpt lat="46.82548" lon="-0.81329">
        <ele>187.9</ele>
        <time>2020-12-06T11:52:36Z</time>
      </trkpt>
      <trkpt lat="46.82549" lon="-0.81316">
        <ele>188.2</ele>
        <time>2020-12-06T11:52:38Z</time>
      </trkpt>
      <trkpt lat="46.82549" lon="-0.81293">
        <ele>188.7</ele>
        <time>2020-12-06T11:52:41Z</time>
      </trkpt>
      <trkpt lat="46.82549" lon="-0.81264">
        <ele>189.5</ele>
        <time>2020-12-06T11:52:45Z</time>
      </trkpt>
      <trkpt lat="46.8255" lon="-0.81236">
        <ele>190.3</ele>
        <time>2020-12-06T11:52:49Z</time>
      </trkpt>
      <trkpt lat="46.82551" lon="-0.81221">
        <ele>190.7</ele>
        <time>2020-12-06T11:52:51Z</time>
      </trkpt>
      <trkpt lat="46.82553" lon="-0.81197">
        <ele>191</ele>
        <time>2020-12-06T11:52:55Z</time>
      </trkpt>
      <trkpt lat="46.82558" lon="-0.81163">
        <ele>190.7</ele>
        <time>2020-12-06T11:53:02Z</time>
      </trkpt>
      <trkpt lat="46.8256" lon="-0.81133">
        <ele>189.9</ele>
        <time>2020-12-06T11:53:07Z</time>
      </trkpt>
      <trkpt lat="46.82565" lon="-0.81079">
        <ele>188.5</ele>
        <time>2020-12-06T11:53:14Z</time>
      </trkpt>
      <trkpt lat="46.82568" lon="-0.8101">
        <ele>187.8</ele>
        <time>2020-12-06T11:53:23Z</time>
      </trkpt>
      <trkpt lat="46.82569" lon="-0.80952">
        <ele>187.9</ele>
        <time>2020-12-06T11:53:31Z</time>
      </trkpt>
      <trkpt lat="46.82569" lon="-0.80923">
        <ele>188.2</ele>
        <time>2020-12-06T11:53:35Z</time>
      </trkpt>
      <trkpt lat="46.82568" lon="-0.80895">
        <ele>188.5</ele>
        <time>2020-12-06T11:53:39Z</time>
      </trkpt>
      <trkpt lat="46.82568" lon="-0.80867">
        <ele>188.7</ele>
        <time>2020-12-06T11:53:44Z</time>
      </trkpt>
      <trkpt lat="46.82564" lon="-0.80834">
        <ele>188.8</ele>
        <time>2020-12-06T11:53:51Z</time>
      </trkpt>
      <trkpt lat="46.82557" lon="-0.80785">
        <ele>188.4</ele>
        <time>2020-12-06T11:54:00Z</time>
      </trkpt>
      <trkpt lat="46.82555" lon="-0.80764">
        <ele>188.2</ele>
        <time>2020-12-06T11:54:04Z</time>
      </trkpt>
      <trkpt lat="46.82558" lon="-0.80762">
        <ele>188.3</ele>
        <time>2020-12-06T11:54:05Z</time>
      </trkpt>
      <trkpt lat="46.8256" lon="-0.80762">
        <ele>188.5</ele>
        <time>2020-12-06T11:54:06Z</time>
      </trkpt>
      <trkpt lat="46.82564" lon="-0.80765">
        <ele>188.6</ele>
        <time>2020-12-06T11:54:08Z</time>
      </trkpt>
      <trkpt lat="46.82573" lon="-0.8078">
        <ele>188.7</ele>
        <time>2020-12-06T11:54:14Z</time>
      </trkpt>
      <trkpt lat="46.82586" lon="-0.80792">
        <ele>188.9</ele>
        <time>2020-12-06T11:54:20Z</time>
      </trkpt>
      <trkpt lat="46.82597" lon="-0.80781">
        <ele>189.3</ele>
        <time>2020-12-06T11:54:25Z</time>
      </trkpt>
      <trkpt lat="46.82612" lon="-0.80767">
        <ele>189.8</ele>
        <time>2020-12-06T11:54:31Z</time>
      </trkpt>
      <trkpt lat="46.8263" lon="-0.80754">
        <ele>190.3</ele>
        <time>2020-12-06T11:54:38Z</time>
      </trkpt>
      <trkpt lat="46.82641" lon="-0.80742">
        <ele>190.6</ele>
        <time>2020-12-06T11:54:43Z</time>
      </trkpt>
      <trkpt lat="46.82654" lon="-0.80731">
        <ele>190.8</ele>
        <time>2020-12-06T11:54:48Z</time>
      </trkpt>
      <trkpt lat="46.82677" lon="-0.80719">
        <ele>191</ele>
        <time>2020-12-06T11:54:55Z</time>
      </trkpt>
      <trkpt lat="46.82696" lon="-0.80704">
        <ele>190.9</ele>
        <time>2020-12-06T11:55:02Z</time>
      </trkpt>
      <trkpt lat="46.82705" lon="-0.80686">
        <ele>190.8</ele>
        <time>2020-12-06T11:55:08Z</time>
      </trkpt>
      <trkpt lat="46.82713" lon="-0.80662">
        <ele>190.2</ele>
        <time>2020-12-06T11:55:15Z</time>
      </trkpt>
      <trkpt lat="46.82723" lon="-0.80633">
        <ele>189</ele>
        <time>2020-12-06T11:55:22Z</time>
      </trkpt>
      <trkpt lat="46.82735" lon="-0.80589">
        <ele>187.2</ele>
        <time>2020-12-06T11:55:31Z</time>
      </trkpt>
      <trkpt lat="46.82743" lon="-0.80555">
        <ele>186.1</ele>
        <time>2020-12-06T11:55:37Z</time>
      </trkpt>
      <trkpt lat="46.82754" lon="-0.80512">
        <ele>185.3</ele>
        <time>2020-12-06T11:55:45Z</time>
      </trkpt>
      <trkpt lat="46.82762" lon="-0.80483">
        <ele>184.7</ele>
        <time>2020-12-06T11:55:50Z</time>
      </trkpt>
      <trkpt lat="46.82766" lon="-0.80471">
        <ele>184.5</ele>
        <time>2020-12-06T11:55:52Z</time>
      </trkpt>
      <trkpt lat="46.82768" lon="-0.80465">
        <ele>184.4</ele>
        <time>2020-12-06T11:55:53Z</time>
      </trkpt>
      <trkpt lat="46.82776" lon="-0.8045">
        <ele>184.4</ele>
        <time>2020-12-06T11:55:56Z</time>
      </trkpt>
      <trkpt lat="46.82778" lon="-0.80446">
        <ele>184.3</ele>
        <time>2020-12-06T11:55:57Z</time>
      </trkpt>
      <trkpt lat="46.82784" lon="-0.80436">
        <ele>184.1</ele>
        <time>2020-12-06T11:55:59Z</time>
      </trkpt>
      <trkpt lat="46.82794" lon="-0.80418">
        <ele>183.7</ele>
        <time>2020-12-06T11:56:03Z</time>
      </trkpt>
      <trkpt lat="46.82807" lon="-0.80398">
        <ele>183.3</ele>
        <time>2020-12-06T11:56:09Z</time>
      </trkpt>
      <trkpt lat="46.82814" lon="-0.80388">
        <ele>183.4</ele>
        <time>2020-12-06T11:56:14Z</time>
      </trkpt>
      <trkpt lat="46.82817" lon="-0.80387">
        <ele>183.5</ele>
        <time>2020-12-06T11:56:16Z</time>
      </trkpt>
      <trkpt lat="46.82822" lon="-0.80387">
        <ele>183.7</ele>
        <time>2020-12-06T11:56:18Z</time>
      </trkpt>
      <trkpt lat="46.82835" lon="-0.80393">
        <ele>184.4</ele>
        <time>2020-12-06T11:56:23Z</time>
      </trkpt>
      <trkpt lat="46.82847" lon="-0.80403">
        <ele>185.3</ele>
        <time>2020-12-06T11:56:28Z</time>
      </trkpt>
      <trkpt lat="46.82858" lon="-0.80417">
        <ele>185.8</ele>
        <time>2020-12-06T11:56:33Z</time>
      </trkpt>
      <trkpt lat="46.82869" lon="-0.8043">
        <ele>186.3</ele>
        <time>2020-12-06T11:56:38Z</time>
      </trkpt>
      <trkpt lat="46.82879" lon="-0.80444">
        <ele>186.5</ele>
        <time>2020-12-06T11:56:43Z</time>
      </trkpt>
      <trkpt lat="46.82896" lon="-0.80463">
        <ele>186.9</ele>
        <time>2020-12-06T11:56:50Z</time>
      </trkpt>
      <trkpt lat="46.82907" lon="-0.80476">
        <ele>187</ele>
        <time>2020-12-06T11:56:55Z</time>
      </trkpt>
      <trkpt lat="46.82923" lon="-0.80493">
        <ele>187.2</ele>
        <time>2020-12-06T11:57:01Z</time>
      </trkpt>
      <trkpt lat="46.82943" lon="-0.80512">
        <ele>186.8</ele>
        <time>2020-12-06T11:57:08Z</time>
      </trkpt>
      <trkpt lat="46.82952" lon="-0.80514">
        <ele>186.4</ele>
        <time>2020-12-06T11:57:10Z</time>
      </trkpt>
      <trkpt lat="46.82961" lon="-0.80514">
        <ele>186</ele>
        <time>2020-12-06T11:57:12Z</time>
      </trkpt>
      <trkpt lat="46.82965" lon="-0.80513">
        <ele>186</ele>
        <time>2020-12-06T11:57:13Z</time>
      </trkpt>
      <trkpt lat="46.82986" lon="-0.80513">
        <ele>185.2</ele>
        <time>2020-12-06T11:57:18Z</time>
      </trkpt>
      <trkpt lat="46.82999" lon="-0.80512">
        <ele>184.4</ele>
        <time>2020-12-06T11:57:22Z</time>
      </trkpt>
      <trkpt lat="46.83011" lon="-0.80508">
        <ele>183.8</ele>
        <time>2020-12-06T11:57:25Z</time>
      </trkpt>
      <trkpt lat="46.83015" lon="-0.80506">
        <ele>183.6</ele>
        <time>2020-12-06T11:57:26Z</time>
      </trkpt>
      <trkpt lat="46.83028" lon="-0.80499">
        <ele>183.1</ele>
        <time>2020-12-06T11:57:30Z</time>
      </trkpt>
      <trkpt lat="46.83043" lon="-0.80486">
        <ele>182.4</ele>
        <time>2020-12-06T11:57:36Z</time>
      </trkpt>
      <trkpt lat="46.83059" lon="-0.80473">
        <ele>181.7</ele>
        <time>2020-12-06T11:57:43Z</time>
      </trkpt>
      <trkpt lat="46.8307" lon="-0.80465">
        <ele>181.2</ele>
        <time>2020-12-06T11:57:48Z</time>
      </trkpt>
      <trkpt lat="46.83083" lon="-0.80455">
        <ele>181</ele>
        <time>2020-12-06T11:57:54Z</time>
      </trkpt>
      <trkpt lat="46.83085" lon="-0.80452">
        <ele>181.4</ele>
        <time>2020-12-06T11:57:55Z</time>
      </trkpt>
      <trkpt lat="46.83083" lon="-0.80442">
        <ele>181.8</ele>
        <time>2020-12-06T11:57:58Z</time>
      </trkpt>
      <trkpt lat="46.83076" lon="-0.80425">
        <ele>182.6</ele>
        <time>2020-12-06T11:58:04Z</time>
      </trkpt>
      <trkpt lat="46.83072" lon="-0.8041">
        <ele>183</ele>
        <time>2020-12-06T11:58:09Z</time>
      </trkpt>
      <trkpt lat="46.83065" lon="-0.8039">
        <ele>183.2</ele>
        <time>2020-12-06T11:58:16Z</time>
      </trkpt>
      <trkpt lat="46.8306" lon="-0.80374">
        <ele>183.2</ele>
        <time>2020-12-06T11:58:21Z</time>
      </trkpt>
      <trkpt lat="46.83055" lon="-0.80354">
        <ele>182.7</ele>
        <time>2020-12-06T11:58:27Z</time>
      </trkpt>
      <trkpt lat="46.83047" lon="-0.80334">
        <ele>182.5</ele>
        <time>2020-12-06T11:58:32Z</time>
      </trkpt>
      <trkpt lat="46.8304" lon="-0.80318">
        <ele>182.5</ele>
        <time>2020-12-06T11:58:37Z</time>
      </trkpt>
      <trkpt lat="46.83031" lon="-0.80298">
        <ele>182.2</ele>
        <time>2020-12-06T11:58:43Z</time>
      </trkpt>
      <trkpt lat="46.8302" lon="-0.80268">
        <ele>181.6</ele>
        <time>2020-12-06T11:58:50Z</time>
      </trkpt>
      <trkpt lat="46.83013" lon="-0.80239">
        <ele>180.8</ele>
        <time>2020-12-06T11:58:55Z</time>
      </trkpt>
      <trkpt lat="46.83012" lon="-0.80226">
        <ele>180.5</ele>
        <time>2020-12-06T11:58:57Z</time>
      </trkpt>
      <trkpt lat="46.83009" lon="-0.802">
        <ele>180.1</ele>
        <time>2020-12-06T11:59:01Z</time>
      </trkpt>
      <trkpt lat="46.83008" lon="-0.80185">
        <ele>179.8</ele>
        <time>2020-12-06T11:59:03Z</time>
      </trkpt>
      <trkpt lat="46.83006" lon="-0.80164">
        <ele>179.6</ele>
        <time>2020-12-06T11:59:06Z</time>
      </trkpt>
      <trkpt lat="46.83005" lon="-0.80145">
        <ele>179.6</ele>
        <time>2020-12-06T11:59:09Z</time>
      </trkpt>
      <trkpt lat="46.83004" lon="-0.80103">
        <ele>179.7</ele>
        <time>2020-12-06T11:59:16Z</time>
      </trkpt>
      <trkpt lat="46.83003" lon="-0.80072">
        <ele>180</ele>
        <time>2020-12-06T11:59:21Z</time>
      </trkpt>
      <trkpt lat="46.83002" lon="-0.80065">
        <ele>180.1</ele>
        <time>2020-12-06T11:59:22Z</time>
      </trkpt>
      <trkpt lat="46.82999" lon="-0.80047">
        <ele>180</ele>
        <time>2020-12-06T11:59:25Z</time>
      </trkpt>
      <trkpt lat="46.8299" lon="-0.80013">
        <ele>179.5</ele>
        <time>2020-12-06T11:59:31Z</time>
      </trkpt>
      <trkpt lat="46.82974" lon="-0.79971">
        <ele>178.4</ele>
        <time>2020-12-06T11:59:38Z</time>
      </trkpt>
      <trkpt lat="46.82956" lon="-0.79922">
        <ele>176.4</ele>
        <time>2020-12-06T11:59:45Z</time>
      </trkpt>
      <trkpt lat="46.82934" lon="-0.79863">
        <ele>173.8</ele>
        <time>2020-12-06T11:59:52Z</time>
      </trkpt>
      <trkpt lat="46.82922" lon="-0.79833">
        <ele>171.9</ele>
        <time>2020-12-06T11:59:55Z</time>
      </trkpt>
      <trkpt lat="46.8291" lon="-0.79816">
        <ele>170.6</ele>
        <time>2020-12-06T11:59:57Z</time>
      </trkpt>
      <trkpt lat="46.82895" lon="-0.79804">
        <ele>169.9</ele>
        <time>2020-12-06T11:59:59Z</time>
      </trkpt>
      <trkpt lat="46.82888" lon="-0.798">
        <ele>169.8</ele>
        <time>2020-12-06T12:00:00Z</time>
      </trkpt>
      <trkpt lat="46.82862" lon="-0.79786">
        <ele>170.2</ele>
        <time>2020-12-06T12:00:04Z</time>
      </trkpt>
      <trkpt lat="46.82831" lon="-0.79767">
        <ele>171.1</ele>
        <time>2020-12-06T12:00:10Z</time>
      </trkpt>
      <trkpt lat="46.82799" lon="-0.79749">
        <ele>171.1</ele>
        <time>2020-12-06T12:00:18Z</time>
      </trkpt>
      <trkpt lat="46.82773" lon="-0.79732">
        <ele>170.6</ele>
        <time>2020-12-06T12:00:25Z</time>
      </trkpt>
      <trkpt lat="46.82741" lon="-0.79709">
        <ele>169</ele>
        <time>2020-12-06T12:00:32Z</time>
      </trkpt>
      <trkpt lat="46.82707" lon="-0.79686">
        <ele>166.5</ele>
        <time>2020-12-06T12:00:39Z</time>
      </trkpt>
      <trkpt lat="46.82693" lon="-0.79676">
        <ele>165.3</ele>
        <time>2020-12-06T12:00:43Z</time>
      </trkpt>
      <trkpt lat="46.82688" lon="-0.7967">
        <ele>164.7</ele>
        <time>2020-12-06T12:00:45Z</time>
      </trkpt>
      <trkpt lat="46.82687" lon="-0.79665">
        <ele>164.6</ele>
        <time>2020-12-06T12:00:46Z</time>
      </trkpt>
      <trkpt lat="46.82688" lon="-0.79659">
        <ele>164.4</ele>
        <time>2020-12-06T12:00:47Z</time>
      </trkpt>
      <trkpt lat="46.82691" lon="-0.79645">
        <ele>164</ele>
        <time>2020-12-06T12:00:49Z</time>
      </trkpt>
      <trkpt lat="46.82694" lon="-0.7963">
        <ele>163.6</ele>
        <time>2020-12-06T12:00:51Z</time>
      </trkpt>
      <trkpt lat="46.82699" lon="-0.79606">
        <ele>163</ele>
        <time>2020-12-06T12:00:54Z</time>
      </trkpt>
      <trkpt lat="46.82713" lon="-0.79555">
        <ele>161.7</ele>
        <time>2020-12-06T12:01:00Z</time>
      </trkpt>
      <trkpt lat="46.82715" lon="-0.79546">
        <ele>161.5</ele>
        <time>2020-12-06T12:01:01Z</time>
      </trkpt>
      <trkpt lat="46.82735" lon="-0.79479">
        <ele>159.8</ele>
        <time>2020-12-06T12:01:08Z</time>
      </trkpt>
      <trkpt lat="46.82753" lon="-0.79421">
        <ele>159.1</ele>
        <time>2020-12-06T12:01:14Z</time>
      </trkpt>
      <trkpt lat="46.82768" lon="-0.79374">
        <ele>158.6</ele>
        <time>2020-12-06T12:01:19Z</time>
      </trkpt>
      <trkpt lat="46.82788" lon="-0.79304">
        <ele>158.1</ele>
        <time>2020-12-06T12:01:26Z</time>
      </trkpt>
      <trkpt lat="46.82812" lon="-0.79224">
        <ele>158.5</ele>
        <time>2020-12-06T12:01:34Z</time>
      </trkpt>
      <trkpt lat="46.82815" lon="-0.79215">
        <ele>158.7</ele>
        <time>2020-12-06T12:01:35Z</time>
      </trkpt>
      <trkpt lat="46.82832" lon="-0.79163">
        <ele>160</ele>
        <time>2020-12-06T12:01:41Z</time>
      </trkpt>
      <trkpt lat="46.82846" lon="-0.79123">
        <ele>160.6</ele>
        <time>2020-12-06T12:01:46Z</time>
      </trkpt>
      <trkpt lat="46.82859" lon="-0.79087">
        <ele>160.2</ele>
        <time>2020-12-06T12:01:51Z</time>
      </trkpt>
      <trkpt lat="46.82882" lon="-0.79036">
        <ele>157.9</ele>
        <time>2020-12-06T12:01:58Z</time>
      </trkpt>
      <trkpt lat="46.82917" lon="-0.7897">
        <ele>154.5</ele>
        <time>2020-12-06T12:02:06Z</time>
      </trkpt>
      <trkpt lat="46.82952" lon="-0.78925">
        <ele>152.4</ele>
        <time>2020-12-06T12:02:12Z</time>
      </trkpt>
      <trkpt lat="46.82994" lon="-0.78889">
        <ele>150.5</ele>
        <time>2020-12-06T12:02:18Z</time>
      </trkpt>
      <trkpt lat="46.83032" lon="-0.78873">
        <ele>149.8</ele>
        <time>2020-12-06T12:02:23Z</time>
      </trkpt>
      <trkpt lat="46.83066" lon="-0.7886">
        <ele>149.7</ele>
        <time>2020-12-06T12:02:28Z</time>
      </trkpt>
      <trkpt lat="46.8311" lon="-0.78845">
        <ele>150.6</ele>
        <time>2020-12-06T12:02:35Z</time>
      </trkpt>
      <trkpt lat="46.83144" lon="-0.78829">
        <ele>152</ele>
        <time>2020-12-06T12:02:41Z</time>
      </trkpt>
      <trkpt lat="46.83172" lon="-0.78808">
        <ele>153.3</ele>
        <time>2020-12-06T12:02:47Z</time>
      </trkpt>
      <trkpt lat="46.8319" lon="-0.78789">
        <ele>154.2</ele>
        <time>2020-12-06T12:02:53Z</time>
      </trkpt>
      <trkpt lat="46.83187" lon="-0.78774">
        <ele>155.5</ele>
        <time>2020-12-06T12:02:57Z</time>
      </trkpt>
      <trkpt lat="46.83183" lon="-0.78755">
        <ele>156.9</ele>
        <time>2020-12-06T12:03:02Z</time>
      </trkpt>
      <trkpt lat="46.83177" lon="-0.78732">
        <ele>158.5</ele>
        <time>2020-12-06T12:03:08Z</time>
      </trkpt>
      <trkpt lat="46.83171" lon="-0.78716">
        <ele>159.8</ele>
        <time>2020-12-06T12:03:13Z</time>
      </trkpt>
      <trkpt lat="46.83166" lon="-0.78701">
        <ele>160.9</ele>
        <time>2020-12-06T12:03:18Z</time>
      </trkpt>
      <trkpt lat="46.83161" lon="-0.78682">
        <ele>162.3</ele>
        <time>2020-12-06T12:03:24Z</time>
      </trkpt>
      <trkpt lat="46.83157" lon="-0.78669">
        <ele>163.3</ele>
        <time>2020-12-06T12:03:29Z</time>
      </trkpt>
      <trkpt lat="46.83152" lon="-0.78661">
        <ele>164</ele>
        <time>2020-12-06T12:03:32Z</time>
      </trkpt>
      <trkpt lat="46.83151" lon="-0.78658">
        <ele>164.2</ele>
        <time>2020-12-06T12:03:33Z</time>
      </trkpt>
      <trkpt lat="46.83147" lon="-0.78647">
        <ele>165.1</ele>
        <time>2020-12-06T12:03:37Z</time>
      </trkpt>
      <trkpt lat="46.83146" lon="-0.7864">
        <ele>165.5</ele>
        <time>2020-12-06T12:03:39Z</time>
      </trkpt>
      <trkpt lat="46.83139" lon="-0.78626">
        <ele>166.7</ele>
        <time>2020-12-06T12:03:44Z</time>
      </trkpt>
      <trkpt lat="46.83129" lon="-0.78617">
        <ele>167</ele>
        <time>2020-12-06T12:03:50Z</time>
      </trkpt>
      <trkpt lat="46.83116" lon="-0.78606">
        <ele>167.3</ele>
        <time>2020-12-06T12:03:55Z</time>
      </trkpt>
      <trkpt lat="46.83109" lon="-0.78598">
        <ele>167.5</ele>
        <time>2020-12-06T12:03:57Z</time>
      </trkpt>
      <trkpt lat="46.83099" lon="-0.78581">
        <ele>167.8</ele>
        <time>2020-12-06T12:04:00Z</time>
      </trkpt>
      <trkpt lat="46.83075" lon="-0.78543">
        <ele>168.6</ele>
        <time>2020-12-06T12:04:07Z</time>
      </trkpt>
      <trkpt lat="46.83054" lon="-0.7851">
        <ele>169.3</ele>
        <time>2020-12-06T12:04:14Z</time>
      </trkpt>
      <trkpt lat="46.83027" lon="-0.78468">
        <ele>170.1</ele>
        <time>2020-12-06T12:04:23Z</time>
      </trkpt>
      <trkpt lat="46.83013" lon="-0.78446">
        <ele>170.6</ele>
        <time>2020-12-06T12:04:28Z</time>
      </trkpt>
      <trkpt lat="46.83007" lon="-0.78436">
        <ele>170.7</ele>
        <time>2020-12-06T12:04:30Z</time>
      </trkpt>
      <trkpt lat="46.82983" lon="-0.78398">
        <ele>171.5</ele>
        <time>2020-12-06T12:04:38Z</time>
      </trkpt>
      <trkpt lat="46.82964" lon="-0.78368">
        <ele>172.1</ele>
        <time>2020-12-06T12:04:45Z</time>
      </trkpt>
      <trkpt lat="46.82945" lon="-0.78337">
        <ele>172.7</ele>
        <time>2020-12-06T12:04:53Z</time>
      </trkpt>
      <trkpt lat="46.82934" lon="-0.78319">
        <ele>173.1</ele>
        <time>2020-12-06T12:04:59Z</time>
      </trkpt>
      <trkpt lat="46.82926" lon="-0.7831">
        <ele>173.3</ele>
        <time>2020-12-06T12:05:03Z</time>
      </trkpt>
      <trkpt lat="46.8291" lon="-0.78294">
        <ele>173.7</ele>
        <time>2020-12-06T12:05:10Z</time>
      </trkpt>
      <trkpt lat="46.8289" lon="-0.78273">
        <ele>174.3</ele>
        <time>2020-12-06T12:05:17Z</time>
      </trkpt>
      <trkpt lat="46.82875" lon="-0.78259">
        <ele>174.7</ele>
        <time>2020-12-06T12:05:21Z</time>
      </trkpt>
      <trkpt lat="46.82868" lon="-0.78251">
        <ele>174.9</ele>
        <time>2020-12-06T12:05:23Z</time>
      </trkpt>
      <trkpt lat="46.82848" lon="-0.78231">
        <ele>175.4</ele>
        <time>2020-12-06T12:05:29Z</time>
      </trkpt>
      <trkpt lat="46.82843" lon="-0.78225">
        <ele>175.5</ele>
        <time>2020-12-06T12:05:32Z</time>
      </trkpt>
      <trkpt lat="46.82844" lon="-0.78223">
        <ele>175.6</ele>
        <time>2020-12-06T12:05:33Z</time>
      </trkpt>
      <trkpt lat="46.82851" lon="-0.78212">
        <ele>174.9</ele>
        <time>2020-12-06T12:05:38Z</time>
      </trkpt>
      <trkpt lat="46.82858" lon="-0.782">
        <ele>174.3</ele>
        <time>2020-12-06T12:05:43Z</time>
      </trkpt>
      <trkpt lat="46.82866" lon="-0.78191">
        <ele>173.9</ele>
        <time>2020-12-06T12:05:48Z</time>
      </trkpt>
      <trkpt lat="46.82874" lon="-0.78183">
        <ele>173.4</ele>
        <time>2020-12-06T12:05:52Z</time>
      </trkpt>
      <trkpt lat="46.82889" lon="-0.7817">
        <ele>172.7</ele>
        <time>2020-12-06T12:05:58Z</time>
      </trkpt>
      <trkpt lat="46.82909" lon="-0.78154">
        <ele>171.9</ele>
        <time>2020-12-06T12:06:04Z</time>
      </trkpt>
      <trkpt lat="46.82932" lon="-0.78144">
        <ele>171.5</ele>
        <time>2020-12-06T12:06:10Z</time>
      </trkpt>
      <trkpt lat="46.82958" lon="-0.78137">
        <ele>171.3</ele>
        <time>2020-12-06T12:06:17Z</time>
      </trkpt>
      <trkpt lat="46.82978" lon="-0.78133">
        <ele>171.2</ele>
        <time>2020-12-06T12:06:23Z</time>
      </trkpt>
      <trkpt lat="46.82997" lon="-0.7813">
        <ele>171.2</ele>
        <time>2020-12-06T12:06:29Z</time>
      </trkpt>
      <trkpt lat="46.83017" lon="-0.78129">
        <ele>171.2</ele>
        <time>2020-12-06T12:06:35Z</time>
      </trkpt>
      <trkpt lat="46.83031" lon="-0.78129">
        <ele>171.2</ele>
        <time>2020-12-06T12:06:40Z</time>
      </trkpt>
      <trkpt lat="46.83046" lon="-0.78132">
        <ele>171.3</ele>
        <time>2020-12-06T12:06:45Z</time>
      </trkpt>
      <trkpt lat="46.83062" lon="-0.78132">
        <ele>171.2</ele>
        <time>2020-12-06T12:06:51Z</time>
      </trkpt>
      <trkpt lat="46.83079" lon="-0.78131">
        <ele>170.9</ele>
        <time>2020-12-06T12:06:57Z</time>
      </trkpt>
      <trkpt lat="46.83096" lon="-0.7813">
        <ele>170.4</ele>
        <time>2020-12-06T12:07:02Z</time>
      </trkpt>
      <trkpt lat="46.83119" lon="-0.78123">
        <ele>169.4</ele>
        <time>2020-12-06T12:07:08Z</time>
      </trkpt>
      <trkpt lat="46.83144" lon="-0.7811">
        <ele>167.6</ele>
        <time>2020-12-06T12:07:13Z</time>
      </trkpt>
      <trkpt lat="46.83173" lon="-0.78088">
        <ele>164.6</ele>
        <time>2020-12-06T12:07:18Z</time>
      </trkpt>
      <trkpt lat="46.83209" lon="-0.78058">
        <ele>160.9</ele>
        <time>2020-12-06T12:07:23Z</time>
      </trkpt>
      <trkpt lat="46.83258" lon="-0.78017">
        <ele>156.9</ele>
        <time>2020-12-06T12:07:29Z</time>
      </trkpt>
      <trkpt lat="46.83267" lon="-0.7801">
        <ele>156.6</ele>
        <time>2020-12-06T12:07:30Z</time>
      </trkpt>
      <trkpt lat="46.83274" lon="-0.78003">
        <ele>156.3</ele>
        <time>2020-12-06T12:07:31Z</time>
      </trkpt>
      <trkpt lat="46.83284" lon="-0.77992">
        <ele>156.1</ele>
        <time>2020-12-06T12:07:33Z</time>
      </trkpt>
      <trkpt lat="46.83291" lon="-0.77977">
        <ele>155.8</ele>
        <time>2020-12-06T12:07:35Z</time>
      </trkpt>
      <trkpt lat="46.83293" lon="-0.77969">
        <ele>155.7</ele>
        <time>2020-12-06T12:07:36Z</time>
      </trkpt>
      <trkpt lat="46.83295" lon="-0.77954">
        <ele>155.6</ele>
        <time>2020-12-06T12:07:38Z</time>
      </trkpt>
      <trkpt lat="46.83298" lon="-0.77932">
        <ele>155.5</ele>
        <time>2020-12-06T12:07:41Z</time>
      </trkpt>
      <trkpt lat="46.83301" lon="-0.77902">
        <ele>155.4</ele>
        <time>2020-12-06T12:07:46Z</time>
      </trkpt>
      <trkpt lat="46.83306" lon="-0.77876">
        <ele>155.2</ele>
        <time>2020-12-06T12:07:51Z</time>
      </trkpt>
      <trkpt lat="46.83314" lon="-0.77836">
        <ele>154.7</ele>
        <time>2020-12-06T12:07:57Z</time>
      </trkpt>
      <trkpt lat="46.83321" lon="-0.77812">
        <ele>154.4</ele>
        <time>2020-12-06T12:08:01Z</time>
      </trkpt>
      <trkpt lat="46.83326" lon="-0.77804">
        <ele>154</ele>
        <time>2020-12-06T12:08:03Z</time>
      </trkpt>
    </trkseg>
  </trk>
</gpx>